<?xml version='1.0' encoding='UTF-8'?><gpx version="1.1" creator="JPX - https://github.com/jenetics/jpx" xmlns="http://www.topografix.com/GPX/1/1"><trk><trkseg><trkpt lat="44.9652783" lon="9.05979"><ele>140.0</ele><time>2026-04-19T08:23:39.027Z</time></trkpt><trkpt lat="44.9651967" lon="9.0598033"><ele>140.0</ele><time>2026-04-19T08:23:52.028Z</time></trkpt><trkpt lat="44.96511" lon="9.05976"><ele>140.0</ele><time>2026-04-19T08:23:54.028Z</time></trkpt><trkpt lat="44.9650017" lon="9.059715"><ele>140.0</ele><time>2026-04-19T08:23:56.028Z</time></trkpt><trkpt lat="44.9649383" lon="9.0596783"><ele>140.0</ele><time>2026-04-19T08:23:57.028Z</time></trkpt><trkpt lat="44.96487" lon="9.0596433"><ele>140.0</ele><time>2026-04-19T08:23:58.028Z</time></trkpt><trkpt lat="44.9648033" lon="9.0596133"><ele>140.71428571428572</ele><time>2026-04-19T08:23:59.028Z</time></trkpt><trkpt lat="44.9647383" lon="9.059565"><ele>141.42857142857144</ele><time>2026-04-19T08:24:00.028Z</time></trkpt><trkpt lat="44.9646767" lon="9.0595367"><ele>142.14285714285714</ele><time>2026-04-19T08:24:01.028Z</time></trkpt><trkpt lat="44.9646183" lon="9.0595017"><ele>142.85714285714286</ele><time>2026-04-19T08:24:02.027Z</time></trkpt><trkpt lat="44.9645533" lon="9.0594717"><ele>143.57142857142858</ele><time>2026-04-19T08:24:03.028Z</time></trkpt><trkpt lat="44.9644817" lon="9.0594433"><ele>144.28571428571428</ele><time>2026-04-19T08:24:04.028Z</time></trkpt><trkpt lat="44.9644067" lon="9.05942"><ele>145.0</ele><time>2026-04-19T08:24:05.028Z</time></trkpt><trkpt lat="44.9643117" lon="9.059385"><ele>145.0</ele><time>2026-04-19T08:24:06.028Z</time></trkpt><trkpt lat="44.964215" lon="9.0593617"><ele>145.0</ele><time>2026-04-19T08:24:07.028Z</time></trkpt><trkpt lat="44.9641283" lon="9.05934"><ele>145.0</ele><time>2026-04-19T08:24:08.028Z</time></trkpt><trkpt lat="44.9640417" lon="9.0593083"><ele>145.0</ele><time>2026-04-19T08:24:09.028Z</time></trkpt><trkpt lat="44.963955" lon="9.0592767"><ele>145.0</ele><time>2026-04-19T08:24:10.027Z</time></trkpt><trkpt lat="44.9638667" lon="9.0592317"><ele>145.0</ele><time>2026-04-19T08:24:11.028Z</time></trkpt><trkpt lat="44.9637783" lon="9.05918"><ele>145.0</ele><time>2026-04-19T08:24:12.028Z</time></trkpt><trkpt lat="44.9636833" lon="9.0591483"><ele>145.0</ele><time>2026-04-19T08:24:13.027Z</time></trkpt><trkpt lat="44.9635917" lon="9.059105"><ele>145.0</ele><time>2026-04-19T08:24:14.027Z</time></trkpt><trkpt lat="44.9635067" lon="9.0590817"><ele>145.0</ele><time>2026-04-19T08:24:15.028Z</time></trkpt><trkpt lat="44.9634267" lon="9.0590633"><ele>145.33333333333334</ele><time>2026-04-19T08:24:16.028Z</time></trkpt><trkpt lat="44.9633617" lon="9.059055"><ele>145.66666666666669</ele><time>2026-04-19T08:24:17.028Z</time></trkpt><trkpt lat="44.9632867" lon="9.059015"><ele>146.0</ele><time>2026-04-19T08:24:19.028Z</time></trkpt><trkpt lat="44.9632083" lon="9.0590317"><ele>146.33333333333334</ele><time>2026-04-19T08:24:21.028Z</time></trkpt><trkpt lat="44.9631683" lon="9.059135"><ele>146.66666666666666</ele><time>2026-04-19T08:24:23.028Z</time></trkpt><trkpt lat="44.96321" lon="9.0592817"><ele>147.0</ele><time>2026-04-19T08:24:25.028Z</time></trkpt><trkpt lat="44.9632267" lon="9.0594333"><ele>147.0</ele><time>2026-04-19T08:24:27.027Z</time></trkpt><trkpt lat="44.9631933" lon="9.059595"><ele>147.0</ele><time>2026-04-19T08:24:29.027Z</time></trkpt><trkpt lat="44.9631583" lon="9.059705"><ele>147.0</ele><time>2026-04-19T08:24:30.027Z</time></trkpt><trkpt lat="44.9631167" lon="9.0597983"><ele>147.0</ele><time>2026-04-19T08:24:31.028Z</time></trkpt><trkpt lat="44.9630283" lon="9.0599167"><ele>147.0</ele><time>2026-04-19T08:24:33.027Z</time></trkpt><trkpt lat="44.9629967" lon="9.0600167"><ele>147.33333333333334</ele><time>2026-04-19T08:24:34.028Z</time></trkpt><trkpt lat="44.9629667" lon="9.0601133"><ele>147.66666666666666</ele><time>2026-04-19T08:24:35.028Z</time></trkpt><trkpt lat="44.9629183" lon="9.0602267"><ele>148.0</ele><time>2026-04-19T08:24:36.028Z</time></trkpt><trkpt lat="44.9628933" lon="9.06035"><ele>148.33333333333331</ele><time>2026-04-19T08:24:37.028Z</time></trkpt><trkpt lat="44.9628717" lon="9.0604817"><ele>148.66666666666666</ele><time>2026-04-19T08:24:38.028Z</time></trkpt><trkpt lat="44.9628433" lon="9.0606083"><ele>149.0</ele><time>2026-04-19T08:24:39.028Z</time></trkpt><trkpt lat="44.9628117" lon="9.0607433"><ele>148.4</ele><time>2026-04-19T08:24:40.028Z</time></trkpt><trkpt lat="44.9627883" lon="9.0608733"><ele>147.8</ele><time>2026-04-19T08:24:41.028Z</time></trkpt><trkpt lat="44.962755" lon="9.0610033"><ele>147.2</ele><time>2026-04-19T08:24:42.028Z</time></trkpt><trkpt lat="44.96273" lon="9.0611683"><ele>146.6</ele><time>2026-04-19T08:24:43.028Z</time></trkpt><trkpt lat="44.9627117" lon="9.06132"><ele>146.0</ele><time>2026-04-19T08:24:44.028Z</time></trkpt><trkpt lat="44.9626917" lon="9.0614833"><ele>145.5</ele><time>2026-04-19T08:24:45.028Z</time></trkpt><trkpt lat="44.96266" lon="9.0616483"><ele>145.0</ele><time>2026-04-19T08:24:46.027Z</time></trkpt><trkpt lat="44.9626317" lon="9.0618167"><ele>144.5</ele><time>2026-04-19T08:24:47.027Z</time></trkpt><trkpt lat="44.9626183" lon="9.0619867"><ele>144.0</ele><time>2026-04-19T08:24:48.028Z</time></trkpt><trkpt lat="44.96262" lon="9.0621633"><ele>144.0</ele><time>2026-04-19T08:24:49.027Z</time></trkpt><trkpt lat="44.962595" lon="9.062325"><ele>144.0</ele><time>2026-04-19T08:24:50.027Z</time></trkpt><trkpt lat="44.9625667" lon="9.0624567"><ele>144.0</ele><time>2026-04-19T08:24:51.028Z</time></trkpt><trkpt lat="44.962535" lon="9.0625967"><ele>144.0</ele><time>2026-04-19T08:24:52.028Z</time></trkpt><trkpt lat="44.9625067" lon="9.0627433"><ele>144.0</ele><time>2026-04-19T08:24:53.027Z</time></trkpt><trkpt lat="44.9624717" lon="9.0628917"><ele>145.2</ele><time>2026-04-19T08:24:54.027Z</time></trkpt><trkpt lat="44.962445" lon="9.0630467"><ele>146.4</ele><time>2026-04-19T08:24:55.028Z</time></trkpt><trkpt lat="44.962425" lon="9.0631833"><ele>147.6</ele><time>2026-04-19T08:24:56.027Z</time></trkpt><trkpt lat="44.9624083" lon="9.0633167"><ele>148.8</ele><time>2026-04-19T08:24:57.028Z</time></trkpt><trkpt lat="44.962395" lon="9.0634517"><ele>150.0</ele><time>2026-04-19T08:24:58.028Z</time></trkpt><trkpt lat="44.9623767" lon="9.0635767"><ele>150.0</ele><time>2026-04-19T08:24:59.027Z</time></trkpt><trkpt lat="44.9623633" lon="9.06369"><ele>150.0</ele><time>2026-04-19T08:25:00.028Z</time></trkpt><trkpt lat="44.9623483" lon="9.063805"><ele>150.0</ele><time>2026-04-19T08:25:01.028Z</time></trkpt><trkpt lat="44.96234" lon="9.0638967"><ele>150.0</ele><time>2026-04-19T08:25:02.027Z</time></trkpt><trkpt lat="44.96233" lon="9.0640017"><ele>150.0</ele><time>2026-04-19T08:25:03.028Z</time></trkpt><trkpt lat="44.9623167" lon="9.0641033"><ele>150.0</ele><time>2026-04-19T08:25:04.028Z</time></trkpt><trkpt lat="44.962305" lon="9.064215"><ele>149.66666666666666</ele><time>2026-04-19T08:25:05.028Z</time></trkpt><trkpt lat="44.9623" lon="9.0643517"><ele>149.33333333333334</ele><time>2026-04-19T08:25:06.027Z</time></trkpt><trkpt lat="44.9623" lon="9.0644817"><ele>149.0</ele><time>2026-04-19T08:25:07.028Z</time></trkpt><trkpt lat="44.9622967" lon="9.064605"><ele>148.66666666666669</ele><time>2026-04-19T08:25:08.028Z</time></trkpt><trkpt lat="44.9622933" lon="9.0647217"><ele>148.33333333333334</ele><time>2026-04-19T08:25:09.027Z</time></trkpt><trkpt lat="44.9622933" lon="9.0648267"><ele>148.0</ele><time>2026-04-19T08:25:10.028Z</time></trkpt><trkpt lat="44.9622917" lon="9.064965"><ele>147.20000000000002</ele><time>2026-04-19T08:25:12.027Z</time></trkpt><trkpt lat="44.9622067" lon="9.06505"><ele>146.4</ele><time>2026-04-19T08:25:14.027Z</time></trkpt><trkpt lat="44.9621367" lon="9.065075"><ele>145.60000000000002</ele><time>2026-04-19T08:25:15.028Z</time></trkpt><trkpt lat="44.9620433" lon="9.065095"><ele>144.8</ele><time>2026-04-19T08:25:16.028Z</time></trkpt><trkpt lat="44.9619483" lon="9.0651217"><ele>144.0</ele><time>2026-04-19T08:25:17.028Z</time></trkpt><trkpt lat="44.9618533" lon="9.0651467"><ele>144.0</ele><time>2026-04-19T08:25:18.028Z</time></trkpt><trkpt lat="44.961765" lon="9.065185"><ele>144.0</ele><time>2026-04-19T08:25:19.028Z</time></trkpt><trkpt lat="44.96167" lon="9.0652383"><ele>144.0</ele><time>2026-04-19T08:25:20.027Z</time></trkpt><trkpt lat="44.9615833" lon="9.0652883"><ele>144.0</ele><time>2026-04-19T08:25:21.028Z</time></trkpt><trkpt lat="44.9614967" lon="9.0653383"><ele>144.0</ele><time>2026-04-19T08:25:22.028Z</time></trkpt><trkpt lat="44.961405" lon="9.0653883"><ele>144.6</ele><time>2026-04-19T08:25:23.027Z</time></trkpt><trkpt lat="44.96132" lon="9.0654333"><ele>145.2</ele><time>2026-04-19T08:25:24.028Z</time></trkpt><trkpt lat="44.9612367" lon="9.065475"><ele>145.79999999999998</ele><time>2026-04-19T08:25:25.028Z</time></trkpt><trkpt lat="44.9611583" lon="9.0655233"><ele>146.4</ele><time>2026-04-19T08:25:26.028Z</time></trkpt><trkpt lat="44.9610733" lon="9.0655733"><ele>147.0</ele><time>2026-04-19T08:25:27.027Z</time></trkpt><trkpt lat="44.9609783" lon="9.0656067"><ele>147.0</ele><time>2026-04-19T08:25:28.027Z</time></trkpt><trkpt lat="44.9608867" lon="9.0656517"><ele>147.0</ele><time>2026-04-19T08:25:29.028Z</time></trkpt><trkpt lat="44.9608017" lon="9.065695"><ele>147.0</ele><time>2026-04-19T08:25:30.028Z</time></trkpt><trkpt lat="44.9607217" lon="9.0657317"><ele>147.0</ele><time>2026-04-19T08:25:31.028Z</time></trkpt><trkpt lat="44.9606467" lon="9.06575"><ele>147.0</ele><time>2026-04-19T08:25:32.028Z</time></trkpt><trkpt lat="44.9605733" lon="9.0657517"><ele>147.0</ele><time>2026-04-19T08:25:33.028Z</time></trkpt><trkpt lat="44.9604933" lon="9.0657367"><ele>147.33333333333334</ele><time>2026-04-19T08:25:34.028Z</time></trkpt><trkpt lat="44.96041" lon="9.0657317"><ele>147.66666666666666</ele><time>2026-04-19T08:25:35.028Z</time></trkpt><trkpt lat="44.9603283" lon="9.065735"><ele>148.0</ele><time>2026-04-19T08:25:36.028Z</time></trkpt><trkpt lat="44.9602567" lon="9.065755"><ele>148.33333333333331</ele><time>2026-04-19T08:25:37.027Z</time></trkpt><trkpt lat="44.960175" lon="9.0657633"><ele>148.66666666666666</ele><time>2026-04-19T08:25:38.028Z</time></trkpt><trkpt lat="44.96009" lon="9.0658017"><ele>149.0</ele><time>2026-04-19T08:25:39.028Z</time></trkpt><trkpt lat="44.9600083" lon="9.06586"><ele>149.2</ele><time>2026-04-19T08:25:40.026Z</time></trkpt><trkpt lat="44.9599167" lon="9.0659017"><ele>149.4</ele><time>2026-04-19T08:25:41.027Z</time></trkpt><trkpt lat="44.9598233" lon="9.0659183"><ele>149.6</ele><time>2026-04-19T08:25:42.027Z</time></trkpt><trkpt lat="44.9597317" lon="9.06591"><ele>149.8</ele><time>2026-04-19T08:25:43.027Z</time></trkpt><trkpt lat="44.9596417" lon="9.0658867"><ele>150.0</ele><time>2026-04-19T08:25:44.027Z</time></trkpt><trkpt lat="44.9595483" lon="9.0658433"><ele>150.0</ele><time>2026-04-19T08:25:45.026Z</time></trkpt><trkpt lat="44.9594617" lon="9.0658217"><ele>150.0</ele><time>2026-04-19T08:25:46.026Z</time></trkpt><trkpt lat="44.9593733" lon="9.0658017"><ele>150.0</ele><time>2026-04-19T08:25:47.027Z</time></trkpt><trkpt lat="44.9592867" lon="9.0658083"><ele>150.0</ele><time>2026-04-19T08:25:48.026Z</time></trkpt><trkpt lat="44.9592" lon="9.065835"><ele>150.0</ele><time>2026-04-19T08:25:49.026Z</time></trkpt><trkpt lat="44.95911" lon="9.06588"><ele>150.0</ele><time>2026-04-19T08:25:50.027Z</time></trkpt><trkpt lat="44.95902" lon="9.0659317"><ele>150.66666666666666</ele><time>2026-04-19T08:25:51.026Z</time></trkpt><trkpt lat="44.9589333" lon="9.0659783"><ele>151.33333333333334</ele><time>2026-04-19T08:25:52.027Z</time></trkpt><trkpt lat="44.958845" lon="9.06601"><ele>152.0</ele><time>2026-04-19T08:25:53.026Z</time></trkpt><trkpt lat="44.9587667" lon="9.06602"><ele>152.66666666666669</ele><time>2026-04-19T08:25:54.027Z</time></trkpt><trkpt lat="44.9586967" lon="9.06602"><ele>153.33333333333334</ele><time>2026-04-19T08:25:55.026Z</time></trkpt><trkpt lat="44.9586167" lon="9.066"><ele>154.0</ele><time>2026-04-19T08:25:56.027Z</time></trkpt><trkpt lat="44.9585417" lon="9.0659767"><ele>154.0</ele><time>2026-04-19T08:25:57.027Z</time></trkpt><trkpt lat="44.9584617" lon="9.06593"><ele>154.0</ele><time>2026-04-19T08:25:58.026Z</time></trkpt><trkpt lat="44.9583867" lon="9.065895"><ele>154.0</ele><time>2026-04-19T08:25:59.027Z</time></trkpt><trkpt lat="44.9583117" lon="9.0658733"><ele>154.0</ele><time>2026-04-19T08:26:00.027Z</time></trkpt><trkpt lat="44.9582383" lon="9.0658583"><ele>154.0</ele><time>2026-04-19T08:26:01.027Z</time></trkpt><trkpt lat="44.95816" lon="9.0658417"><ele>154.0</ele><time>2026-04-19T08:26:02.027Z</time></trkpt><trkpt lat="44.9580733" lon="9.065825"><ele>155.0</ele><time>2026-04-19T08:26:03.027Z</time></trkpt><trkpt lat="44.9579883" lon="9.0657967"><ele>156.0</ele><time>2026-04-19T08:26:04.027Z</time></trkpt><trkpt lat="44.9579167" lon="9.0657633"><ele>157.0</ele><time>2026-04-19T08:26:05.026Z</time></trkpt><trkpt lat="44.9578317" lon="9.06572"><ele>158.0</ele><time>2026-04-19T08:26:06.026Z</time></trkpt><trkpt lat="44.9577433" lon="9.0656883"><ele>159.0</ele><time>2026-04-19T08:26:07.026Z</time></trkpt><trkpt lat="44.95766" lon="9.0656683"><ele>160.0</ele><time>2026-04-19T08:26:08.027Z</time></trkpt><trkpt lat="44.9575783" lon="9.0656717"><ele>162.8</ele><time>2026-04-19T08:26:09.027Z</time></trkpt><trkpt lat="44.9574967" lon="9.06567"><ele>165.6</ele><time>2026-04-19T08:26:10.026Z</time></trkpt><trkpt lat="44.95741" lon="9.0656883"><ele>168.39999999999998</ele><time>2026-04-19T08:26:11.027Z</time></trkpt><trkpt lat="44.9573167" lon="9.0657167"><ele>171.2</ele><time>2026-04-19T08:26:12.027Z</time></trkpt><trkpt lat="44.9572233" lon="9.0657467"><ele>174.0</ele><time>2026-04-19T08:26:13.026Z</time></trkpt><trkpt lat="44.9571217" lon="9.0657633"><ele>174.0</ele><time>2026-04-19T08:26:14.027Z</time></trkpt><trkpt lat="44.957025" lon="9.0657633"><ele>174.0</ele><time>2026-04-19T08:26:15.027Z</time></trkpt><trkpt lat="44.95693" lon="9.0657517"><ele>174.0</ele><time>2026-04-19T08:26:16.027Z</time></trkpt><trkpt lat="44.9568417" lon="9.06574"><ele>174.0</ele><time>2026-04-19T08:26:17.027Z</time></trkpt><trkpt lat="44.9567483" lon="9.0657367"><ele>174.0</ele><time>2026-04-19T08:26:18.026Z</time></trkpt><trkpt lat="44.9566483" lon="9.0657267"><ele>173.5</ele><time>2026-04-19T08:26:19.027Z</time></trkpt><trkpt lat="44.9565667" lon="9.0657217"><ele>173.0</ele><time>2026-04-19T08:26:20.027Z</time></trkpt><trkpt lat="44.956475" lon="9.0657183"><ele>172.5</ele><time>2026-04-19T08:26:21.027Z</time></trkpt><trkpt lat="44.95639" lon="9.0657267"><ele>172.0</ele><time>2026-04-19T08:26:22.026Z</time></trkpt><trkpt lat="44.9563" lon="9.0657417"><ele>171.5</ele><time>2026-04-19T08:26:23.027Z</time></trkpt><trkpt lat="44.956215" lon="9.0657617"><ele>171.0</ele><time>2026-04-19T08:26:24.026Z</time></trkpt><trkpt lat="44.9561333" lon="9.065785"><ele>170.66666666666666</ele><time>2026-04-19T08:26:25.026Z</time></trkpt><trkpt lat="44.9560633" lon="9.0658117"><ele>170.33333333333334</ele><time>2026-04-19T08:26:26.026Z</time></trkpt><trkpt lat="44.95599" lon="9.0658383"><ele>170.0</ele><time>2026-04-19T08:26:27.026Z</time></trkpt><trkpt lat="44.95592" lon="9.0658683"><ele>169.66666666666669</ele><time>2026-04-19T08:26:28.027Z</time></trkpt><trkpt lat="44.9558467" lon="9.065875"><ele>169.33333333333334</ele><time>2026-04-19T08:26:29.026Z</time></trkpt><trkpt lat="44.955765" lon="9.06586"><ele>169.0</ele><time>2026-04-19T08:26:30.027Z</time></trkpt><trkpt lat="44.9556733" lon="9.0658317"><ele>169.0</ele><time>2026-04-19T08:26:31.027Z</time></trkpt><trkpt lat="44.955585" lon="9.06579"><ele>169.0</ele><time>2026-04-19T08:26:32.027Z</time></trkpt><trkpt lat="44.9555033" lon="9.06576"><ele>169.0</ele><time>2026-04-19T08:26:33.026Z</time></trkpt><trkpt lat="44.9554367" lon="9.0657333"><ele>169.0</ele><time>2026-04-19T08:26:34.027Z</time></trkpt><trkpt lat="44.9553733" lon="9.0657083"><ele>169.0</ele><time>2026-04-19T08:26:35.027Z</time></trkpt><trkpt lat="44.95525" lon="9.0656983"><ele>169.0</ele><time>2026-04-19T08:26:37.026Z</time></trkpt><trkpt lat="44.9551867" lon="9.0657117"><ele>169.79999999999998</ele><time>2026-04-19T08:26:38.027Z</time></trkpt><trkpt lat="44.955065" lon="9.065765"><ele>170.6</ele><time>2026-04-19T08:26:40.027Z</time></trkpt><trkpt lat="44.9550033" lon="9.06579"><ele>171.4</ele><time>2026-04-19T08:26:41.026Z</time></trkpt><trkpt lat="44.95488" lon="9.0658133"><ele>172.2</ele><time>2026-04-19T08:26:43.027Z</time></trkpt><trkpt lat="44.9548017" lon="9.06582"><ele>173.0</ele><time>2026-04-19T08:26:44.027Z</time></trkpt><trkpt lat="44.9546917" lon="9.0658283"><ele>173.16666666666666</ele><time>2026-04-19T08:26:46.026Z</time></trkpt><trkpt lat="44.9545667" lon="9.0658467"><ele>173.33333333333331</ele><time>2026-04-19T08:26:48.026Z</time></trkpt><trkpt lat="44.9545" lon="9.065855"><ele>173.5</ele><time>2026-04-19T08:26:49.027Z</time></trkpt><trkpt lat="44.95442" lon="9.0658533"><ele>173.66666666666666</ele><time>2026-04-19T08:26:50.026Z</time></trkpt><trkpt lat="44.95433" lon="9.065845"><ele>173.83333333333334</ele><time>2026-04-19T08:26:51.026Z</time></trkpt><trkpt lat="44.9542517" lon="9.0658533"><ele>174.0</ele><time>2026-04-19T08:26:52.027Z</time></trkpt><trkpt lat="44.954185" lon="9.0658517"><ele>175.39999999999998</ele><time>2026-04-19T08:26:53.026Z</time></trkpt><trkpt lat="44.954065" lon="9.0658417"><ele>176.8</ele><time>2026-04-19T08:26:55.027Z</time></trkpt><trkpt lat="44.9539833" lon="9.0658767"><ele>178.2</ele><time>2026-04-19T08:26:57.027Z</time></trkpt><trkpt lat="44.9539017" lon="9.0659233"><ele>179.60000000000002</ele><time>2026-04-19T08:26:59.027Z</time></trkpt><trkpt lat="44.9537983" lon="9.0659133"><ele>181.0</ele><time>2026-04-19T08:27:01.027Z</time></trkpt><trkpt lat="44.9536983" lon="9.0659217"><ele>181.0</ele><time>2026-04-19T08:27:03.027Z</time></trkpt><trkpt lat="44.9536367" lon="9.0659033"><ele>181.0</ele><time>2026-04-19T08:27:04.027Z</time></trkpt><trkpt lat="44.953575" lon="9.0658683"><ele>181.0</ele><time>2026-04-19T08:27:05.027Z</time></trkpt><trkpt lat="44.95351" lon="9.0658167"><ele>181.0</ele><time>2026-04-19T08:27:06.026Z</time></trkpt><trkpt lat="44.953435" lon="9.0657817"><ele>181.0</ele><time>2026-04-19T08:27:07.026Z</time></trkpt><trkpt lat="44.9533683" lon="9.065765"><ele>181.0</ele><time>2026-04-19T08:27:08.027Z</time></trkpt><trkpt lat="44.9532867" lon="9.0657467"><ele>181.0</ele><time>2026-04-19T08:27:10.027Z</time></trkpt><trkpt lat="44.95327" lon="9.0659267"><ele>181.0</ele><time>2026-04-19T08:28:34.027Z</time></trkpt><trkpt lat="44.95334" lon="9.0659967"><ele>181.0</ele><time>2026-04-19T08:28:36.027Z</time></trkpt><trkpt lat="44.9534367" lon="9.0660983"><ele>181.0</ele><time>2026-04-19T08:28:38.027Z</time></trkpt><trkpt lat="44.9535133" lon="9.06616"><ele>181.0</ele><time>2026-04-19T08:28:40.026Z</time></trkpt><trkpt lat="44.9535167" lon="9.0662733"><ele>181.0</ele><time>2026-04-19T08:28:43.026Z</time></trkpt><trkpt lat="44.9534533" lon="9.06629"><ele>181.0</ele><time>2026-04-19T08:28:45.027Z</time></trkpt><trkpt lat="44.9533917" lon="9.0662633"><ele>183.66666666666669</ele><time>2026-04-19T08:28:47.027Z</time></trkpt><trkpt lat="44.95331" lon="9.06625"><ele>186.33333333333334</ele><time>2026-04-19T08:28:49.027Z</time></trkpt><trkpt lat="44.9532267" lon="9.0662733"><ele>189.0</ele><time>2026-04-19T08:28:51.027Z</time></trkpt><trkpt lat="44.9531367" lon="9.0662983"><ele>191.66666666666669</ele><time>2026-04-19T08:28:53.027Z</time></trkpt><trkpt lat="44.9530517" lon="9.0663317"><ele>194.33333333333334</ele><time>2026-04-19T08:28:55.027Z</time></trkpt><trkpt lat="44.9529683" lon="9.0663533"><ele>197.0</ele><time>2026-04-19T08:28:57.026Z</time></trkpt><trkpt lat="44.9528967" lon="9.06637"><ele>197.0</ele><time>2026-04-19T08:29:00.027Z</time></trkpt><trkpt lat="44.952835" lon="9.0663367"><ele>197.0</ele><time>2026-04-19T08:32:17.025Z</time></trkpt><trkpt lat="44.95277" lon="9.0663883"><ele>197.0</ele><time>2026-04-19T08:32:19.025Z</time></trkpt><trkpt lat="44.9526683" lon="9.0664717"><ele>197.0</ele><time>2026-04-19T08:32:21.025Z</time></trkpt><trkpt lat="44.9525717" lon="9.0665233"><ele>197.0</ele><time>2026-04-19T08:32:23.025Z</time></trkpt><trkpt lat="44.952465" lon="9.0665033"><ele>200.50000000000003</ele><time>2026-04-19T08:32:25.025Z</time></trkpt><trkpt lat="44.9524033" lon="9.066485"><ele>204.0</ele><time>2026-04-19T08:32:26.025Z</time></trkpt><trkpt lat="44.9523183" lon="9.0664717"><ele>207.5</ele><time>2026-04-19T08:32:28.026Z</time></trkpt><trkpt lat="44.9522417" lon="9.066435"><ele>211.0</ele><time>2026-04-19T08:32:44.025Z</time></trkpt><trkpt lat="44.9521567" lon="9.0664533"><ele>214.50000000000003</ele><time>2026-04-19T08:32:46.025Z</time></trkpt><trkpt lat="44.9520667" lon="9.0664333"><ele>218.0</ele><time>2026-04-19T08:32:48.026Z</time></trkpt><trkpt lat="44.9519983" lon="9.0663983"><ele>218.00000000000003</ele><time>2026-04-19T08:32:51.026Z</time></trkpt><trkpt lat="44.95194" lon="9.066335"><ele>218.0</ele><time>2026-04-19T08:33:03.026Z</time></trkpt><trkpt lat="44.9519" lon="9.066245"><ele>218.0</ele><time>2026-04-19T08:33:05.026Z</time></trkpt><trkpt lat="44.95183" lon="9.0661567"><ele>218.0</ele><time>2026-04-19T08:33:07.025Z</time></trkpt><trkpt lat="44.95177" lon="9.0660567"><ele>218.00000000000003</ele><time>2026-04-19T08:33:09.026Z</time></trkpt><trkpt lat="44.9517117" lon="9.065965"><ele>218.0</ele><time>2026-04-19T08:33:11.025Z</time></trkpt><trkpt lat="44.951655" lon="9.0660067"><ele>221.57142857142858</ele><time>2026-04-19T08:33:27.026Z</time></trkpt><trkpt lat="44.9516533" lon="9.0661183"><ele>225.14285714285717</ele><time>2026-04-19T08:33:30.026Z</time></trkpt><trkpt lat="44.951645" lon="9.06621"><ele>228.71428571428572</ele><time>2026-04-19T08:33:32.025Z</time></trkpt><trkpt lat="44.9516367" lon="9.0663033"><ele>232.28571428571428</ele><time>2026-04-19T08:33:34.025Z</time></trkpt><trkpt lat="44.95157" lon="9.06633"><ele>235.85714285714286</ele><time>2026-04-19T08:33:38.025Z</time></trkpt><trkpt lat="44.9515067" lon="9.0662767"><ele>239.42857142857142</ele><time>2026-04-19T08:34:02.026Z</time></trkpt><trkpt lat="44.9514483" lon="9.066215"><ele>243.0</ele><time>2026-04-19T08:34:05.026Z</time></trkpt><trkpt lat="44.9513683" lon="9.0661917"><ele>243.0</ele><time>2026-04-19T08:34:08.026Z</time></trkpt><trkpt lat="44.9512917" lon="9.066215"><ele>243.0</ele><time>2026-04-19T08:34:10.025Z</time></trkpt><trkpt lat="44.9512833" lon="9.0663117"><ele>243.0</ele><time>2026-04-19T08:34:15.026Z</time></trkpt><trkpt lat="44.95126" lon="9.0664083"><ele>243.0</ele><time>2026-04-19T08:34:18.025Z</time></trkpt><trkpt lat="44.951195" lon="9.06651"><ele>243.0</ele><time>2026-04-19T08:34:41.026Z</time></trkpt><trkpt lat="44.9511533" lon="9.06658"><ele>243.0</ele><time>2026-04-19T08:34:42.025Z</time></trkpt><trkpt lat="44.9511067" lon="9.066665"><ele>244.33333333333334</ele><time>2026-04-19T08:34:43.026Z</time></trkpt><trkpt lat="44.95106" lon="9.0667467"><ele>245.66666666666669</ele><time>2026-04-19T08:34:44.026Z</time></trkpt><trkpt lat="44.95102" lon="9.066825"><ele>247.0</ele><time>2026-04-19T08:34:45.025Z</time></trkpt><trkpt lat="44.95097" lon="9.0669717"><ele>248.33333333333334</ele><time>2026-04-19T08:34:47.026Z</time></trkpt><trkpt lat="44.9509433" lon="9.06707"><ele>249.66666666666669</ele><time>2026-04-19T08:34:49.026Z</time></trkpt><trkpt lat="44.9508733" lon="9.0671067"><ele>251.0</ele><time>2026-04-19T08:34:51.025Z</time></trkpt><trkpt lat="44.950795" lon="9.0670633"><ele>253.8</ele><time>2026-04-19T08:34:53.025Z</time></trkpt><trkpt lat="44.9507083" lon="9.067"><ele>256.6</ele><time>2026-04-19T08:34:55.026Z</time></trkpt><trkpt lat="44.9505917" lon="9.0669283"><ele>259.4</ele><time>2026-04-19T08:34:57.025Z</time></trkpt><trkpt lat="44.95052" lon="9.0668767"><ele>262.2</ele><time>2026-04-19T08:34:58.026Z</time></trkpt><trkpt lat="44.95044" lon="9.0668283"><ele>265.0</ele><time>2026-04-19T08:34:59.026Z</time></trkpt><trkpt lat="44.9503533" lon="9.0667667"><ele>265.0</ele><time>2026-04-19T08:35:00.026Z</time></trkpt><trkpt lat="44.9502633" lon="9.066705"><ele>265.0</ele><time>2026-04-19T08:35:01.025Z</time></trkpt><trkpt lat="44.9501767" lon="9.066655"><ele>265.0</ele><time>2026-04-19T08:35:02.025Z</time></trkpt><trkpt lat="44.9500883" lon="9.066605"><ele>265.0</ele><time>2026-04-19T08:35:03.025Z</time></trkpt><trkpt lat="44.9500117" lon="9.0665533"><ele>265.0</ele><time>2026-04-19T08:35:04.026Z</time></trkpt><trkpt lat="44.9499383" lon="9.0665017"><ele>265.8</ele><time>2026-04-19T08:35:05.026Z</time></trkpt><trkpt lat="44.949855" lon="9.0664517"><ele>266.6</ele><time>2026-04-19T08:35:06.026Z</time></trkpt><trkpt lat="44.94977" lon="9.0663967"><ele>267.4</ele><time>2026-04-19T08:35:07.026Z</time></trkpt><trkpt lat="44.9496867" lon="9.0663367"><ele>268.2</ele><time>2026-04-19T08:35:08.025Z</time></trkpt><trkpt lat="44.9495967" lon="9.0662867"><ele>269.0</ele><time>2026-04-19T08:35:09.026Z</time></trkpt><trkpt lat="44.9495117" lon="9.0662233"><ele>269.0</ele><time>2026-04-19T08:35:10.026Z</time></trkpt><trkpt lat="44.94943" lon="9.066165"><ele>269.0</ele><time>2026-04-19T08:35:11.025Z</time></trkpt><trkpt lat="44.9493533" lon="9.0661033"><ele>269.0</ele><time>2026-04-19T08:35:12.026Z</time></trkpt><trkpt lat="44.949285" lon="9.06605"><ele>269.0</ele><time>2026-04-19T08:35:13.025Z</time></trkpt><trkpt lat="44.9492233" lon="9.0660033"><ele>269.0</ele><time>2026-04-19T08:35:14.026Z</time></trkpt><trkpt lat="44.9491317" lon="9.0659683"><ele>269.0</ele><time>2026-04-19T08:35:16.026Z</time></trkpt><trkpt lat="44.949045" lon="9.066"><ele>271.4</ele><time>2026-04-19T08:35:18.026Z</time></trkpt><trkpt lat="44.9489817" lon="9.0660183"><ele>273.79999999999995</ele><time>2026-04-19T08:35:20.026Z</time></trkpt><trkpt lat="44.9489167" lon="9.065965"><ele>276.20000000000005</ele><time>2026-04-19T08:35:22.026Z</time></trkpt><trkpt lat="44.9488267" lon="9.0658067"><ele>278.6</ele><time>2026-04-19T08:35:24.026Z</time></trkpt><trkpt lat="44.94876" lon="9.0657167"><ele>281.0</ele><time>2026-04-19T08:35:25.026Z</time></trkpt><trkpt lat="44.94868" lon="9.0656133"><ele>281.0</ele><time>2026-04-19T08:35:26.026Z</time></trkpt><trkpt lat="44.9486" lon="9.0655183"><ele>281.0</ele><time>2026-04-19T08:35:27.026Z</time></trkpt><trkpt lat="44.9485317" lon="9.0654317"><ele>281.0</ele><time>2026-04-19T08:35:28.026Z</time></trkpt><trkpt lat="44.9484267" lon="9.0653383"><ele>281.0</ele><time>2026-04-19T08:35:30.026Z</time></trkpt><trkpt lat="44.948355" lon="9.0653317"><ele>281.0</ele><time>2026-04-19T08:35:32.025Z</time></trkpt><trkpt lat="44.948295" lon="9.06536"><ele>282.83333333333337</ele><time>2026-04-19T08:35:36.025Z</time></trkpt><trkpt lat="44.9482017" lon="9.0654183"><ele>284.6666666666667</ele><time>2026-04-19T08:35:40.026Z</time></trkpt><trkpt lat="44.948105" lon="9.06547"><ele>286.5</ele><time>2026-04-19T08:35:42.025Z</time></trkpt><trkpt lat="44.9480433" lon="9.0654967"><ele>288.3333333333333</ele><time>2026-04-19T08:35:43.026Z</time></trkpt><trkpt lat="44.94798" lon="9.0655233"><ele>290.16666666666663</ele><time>2026-04-19T08:35:44.025Z</time></trkpt><trkpt lat="44.9479183" lon="9.0655483"><ele>292.0</ele><time>2026-04-19T08:35:45.026Z</time></trkpt><trkpt lat="44.947815" lon="9.0656033"><ele>292.0</ele><time>2026-04-19T08:35:47.025Z</time></trkpt><trkpt lat="44.9477133" lon="9.065665"><ele>292.0</ele><time>2026-04-19T08:35:49.025Z</time></trkpt><trkpt lat="44.9476283" lon="9.06575"><ele>292.0</ele><time>2026-04-19T08:35:51.024Z</time></trkpt><trkpt lat="44.9475567" lon="9.065855"><ele>292.0</ele><time>2026-04-19T08:35:53.025Z</time></trkpt><trkpt lat="44.947505" lon="9.0659333"><ele>292.0</ele><time>2026-04-19T08:35:54.025Z</time></trkpt><trkpt lat="44.9474517" lon="9.0660183"><ele>292.5</ele><time>2026-04-19T08:35:55.025Z</time></trkpt><trkpt lat="44.9474" lon="9.0661017"><ele>293.0</ele><time>2026-04-19T08:35:56.024Z</time></trkpt><trkpt lat="44.9473517" lon="9.06618"><ele>293.5</ele><time>2026-04-19T08:35:57.025Z</time></trkpt><trkpt lat="44.94731" lon="9.0662683"><ele>294.0</ele><time>2026-04-19T08:35:58.025Z</time></trkpt><trkpt lat="44.9472633" lon="9.06636"><ele>294.5</ele><time>2026-04-19T08:35:59.024Z</time></trkpt><trkpt lat="44.94721" lon="9.0664583"><ele>295.0</ele><time>2026-04-19T08:36:00.024Z</time></trkpt><trkpt lat="44.9471467" lon="9.0665467"><ele>294.66666666666663</ele><time>2026-04-19T08:36:01.024Z</time></trkpt><trkpt lat="44.9470783" lon="9.0666333"><ele>294.3333333333333</ele><time>2026-04-19T08:36:02.024Z</time></trkpt><trkpt lat="44.9470167" lon="9.066705"><ele>294.0</ele><time>2026-04-19T08:36:03.025Z</time></trkpt><trkpt lat="44.9469483" lon="9.0667867"><ele>293.6666666666667</ele><time>2026-04-19T08:36:04.025Z</time></trkpt><trkpt lat="44.946885" lon="9.066865"><ele>293.33333333333337</ele><time>2026-04-19T08:36:05.025Z</time></trkpt><trkpt lat="44.9468233" lon="9.0669433"><ele>293.0</ele><time>2026-04-19T08:36:06.024Z</time></trkpt><trkpt lat="44.9467733" lon="9.0670133"><ele>293.2</ele><time>2026-04-19T08:36:07.025Z</time></trkpt><trkpt lat="44.946675" lon="9.0671417"><ele>293.4</ele><time>2026-04-19T08:36:09.024Z</time></trkpt><trkpt lat="44.9465833" lon="9.0672317"><ele>293.59999999999997</ele><time>2026-04-19T08:36:11.025Z</time></trkpt><trkpt lat="44.9464983" lon="9.0672683"><ele>293.8</ele><time>2026-04-19T08:36:13.024Z</time></trkpt><trkpt lat="44.94644" lon="9.0671883"><ele>294.0</ele><time>2026-04-19T08:36:16.025Z</time></trkpt><trkpt lat="44.9463617" lon="9.0671917"><ele>294.0</ele><time>2026-04-19T08:36:22.024Z</time></trkpt><trkpt lat="44.9462967" lon="9.06729"><ele>294.0</ele><time>2026-04-19T08:36:24.025Z</time></trkpt><trkpt lat="44.9462333" lon="9.0674417"><ele>294.0</ele><time>2026-04-19T08:36:26.025Z</time></trkpt><trkpt lat="44.9461983" lon="9.0675267"><ele>294.0</ele><time>2026-04-19T08:36:27.025Z</time></trkpt><trkpt lat="44.9461617" lon="9.06762"><ele>294.0</ele><time>2026-04-19T08:36:28.025Z</time></trkpt><trkpt lat="44.9461183" lon="9.0677133"><ele>294.0</ele><time>2026-04-19T08:36:29.024Z</time></trkpt><trkpt lat="44.946075" lon="9.0678083"><ele>294.0</ele><time>2026-04-19T08:36:30.025Z</time></trkpt><trkpt lat="44.9460317" lon="9.06793"><ele>294.0</ele><time>2026-04-19T08:36:31.025Z</time></trkpt><trkpt lat="44.9459817" lon="9.06804"><ele>294.0</ele><time>2026-04-19T08:36:32.024Z</time></trkpt><trkpt lat="44.94593" lon="9.0681433"><ele>294.0</ele><time>2026-04-19T08:36:33.025Z</time></trkpt><trkpt lat="44.9458783" lon="9.0682567"><ele>294.0</ele><time>2026-04-19T08:36:34.025Z</time></trkpt><trkpt lat="44.94582" lon="9.0683683"><ele>296.2</ele><time>2026-04-19T08:36:35.024Z</time></trkpt><trkpt lat="44.9457583" lon="9.0684783"><ele>298.4</ele><time>2026-04-19T08:36:36.024Z</time></trkpt><trkpt lat="44.9457033" lon="9.0685917"><ele>300.6</ele><time>2026-04-19T08:36:37.025Z</time></trkpt><trkpt lat="44.9456517" lon="9.068715"><ele>302.8</ele><time>2026-04-19T08:36:38.025Z</time></trkpt><trkpt lat="44.945605" lon="9.0688483"><ele>305.0</ele><time>2026-04-19T08:36:39.025Z</time></trkpt><trkpt lat="44.94557" lon="9.06898"><ele>306.0</ele><time>2026-04-19T08:36:40.025Z</time></trkpt><trkpt lat="44.9455483" lon="9.0691217"><ele>307.0</ele><time>2026-04-19T08:36:41.025Z</time></trkpt><trkpt lat="44.9455517" lon="9.0692683"><ele>308.0</ele><time>2026-04-19T08:36:42.025Z</time></trkpt><trkpt lat="44.945555" lon="9.06943"><ele>309.0</ele><time>2026-04-19T08:36:43.024Z</time></trkpt><trkpt lat="44.945575" lon="9.06959"><ele>310.0</ele><time>2026-04-19T08:36:44.025Z</time></trkpt><trkpt lat="44.94559" lon="9.0697517"><ele>310.0</ele><time>2026-04-19T08:36:45.025Z</time></trkpt><trkpt lat="44.945605" lon="9.0699367"><ele>310.0</ele><time>2026-04-19T08:36:46.025Z</time></trkpt><trkpt lat="44.9456217" lon="9.0701233"><ele>310.0</ele><time>2026-04-19T08:36:47.025Z</time></trkpt><trkpt lat="44.9456333" lon="9.0702917"><ele>310.0</ele><time>2026-04-19T08:36:48.024Z</time></trkpt><trkpt lat="44.9456467" lon="9.0704667"><ele>310.25</ele><time>2026-04-19T08:36:49.025Z</time></trkpt><trkpt lat="44.9456733" lon="9.070645"><ele>310.5</ele><time>2026-04-19T08:36:50.025Z</time></trkpt><trkpt lat="44.94569" lon="9.0708267"><ele>310.75</ele><time>2026-04-19T08:36:51.025Z</time></trkpt><trkpt lat="44.9457167" lon="9.0710067"><ele>311.0</ele><time>2026-04-19T08:36:52.025Z</time></trkpt><trkpt lat="44.9457467" lon="9.0711567"><ele>311.83333333333337</ele><time>2026-04-19T08:36:53.025Z</time></trkpt><trkpt lat="44.9457617" lon="9.0712717"><ele>312.6666666666667</ele><time>2026-04-19T08:36:54.025Z</time></trkpt><trkpt lat="44.9457717" lon="9.0713667"><ele>313.5</ele><time>2026-04-19T08:36:55.024Z</time></trkpt><trkpt lat="44.9457867" lon="9.0715117"><ele>314.3333333333333</ele><time>2026-04-19T08:36:57.024Z</time></trkpt><trkpt lat="44.9457867" lon="9.0716183"><ele>315.16666666666663</ele><time>2026-04-19T08:36:59.024Z</time></trkpt><trkpt lat="44.94579" lon="9.0714517"><ele>316.0</ele><time>2026-04-19T08:37:05.025Z</time></trkpt><trkpt lat="44.9457767" lon="9.0713633"><ele>316.0</ele><time>2026-04-19T08:37:06.025Z</time></trkpt><trkpt lat="44.9456933" lon="9.0712633"><ele>316.0</ele><time>2026-04-19T08:37:08.025Z</time></trkpt><trkpt lat="44.9456083" lon="9.0711783"><ele>316.0</ele><time>2026-04-19T08:37:10.025Z</time></trkpt><trkpt lat="44.94552" lon="9.0710917"><ele>316.0</ele><time>2026-04-19T08:37:12.025Z</time></trkpt><trkpt lat="44.9454783" lon="9.0710217"><ele>316.0</ele><time>2026-04-19T08:37:13.025Z</time></trkpt><trkpt lat="44.9453733" lon="9.0709367"><ele>316.00000000000006</ele><time>2026-04-19T08:37:15.025Z</time></trkpt><trkpt lat="44.9452967" lon="9.0709267"><ele>316.0</ele><time>2026-04-19T08:37:16.025Z</time></trkpt><trkpt lat="44.945225" lon="9.0709267"><ele>316.0</ele><time>2026-04-19T08:37:17.024Z</time></trkpt><trkpt lat="44.9451617" lon="9.0709383"><ele>316.0</ele><time>2026-04-19T08:37:18.025Z</time></trkpt><trkpt lat="44.9450867" lon="9.0709467"><ele>316.0</ele><time>2026-04-19T08:37:19.025Z</time></trkpt><trkpt lat="44.9450183" lon="9.070955"><ele>316.00000000000006</ele><time>2026-04-19T08:37:20.024Z</time></trkpt><trkpt lat="44.9449467" lon="9.0709617"><ele>316.0</ele><time>2026-04-19T08:37:21.024Z</time></trkpt><trkpt lat="44.944875" lon="9.0709617"><ele>318.14285714285717</ele><time>2026-04-19T08:37:22.025Z</time></trkpt><trkpt lat="44.9448033" lon="9.0709533"><ele>320.2857142857143</ele><time>2026-04-19T08:37:23.024Z</time></trkpt><trkpt lat="44.9447333" lon="9.0709367"><ele>322.42857142857144</ele><time>2026-04-19T08:37:24.025Z</time></trkpt><trkpt lat="44.94467" lon="9.0709133"><ele>324.57142857142856</ele><time>2026-04-19T08:37:25.025Z</time></trkpt><trkpt lat="44.9446083" lon="9.0708883"><ele>326.7142857142857</ele><time>2026-04-19T08:37:26.025Z</time></trkpt><trkpt lat="44.9445433" lon="9.07087"><ele>328.8571428571429</ele><time>2026-04-19T08:37:27.025Z</time></trkpt><trkpt lat="44.9444767" lon="9.070855"><ele>331.0</ele><time>2026-04-19T08:37:28.025Z</time></trkpt><trkpt lat="44.9444083" lon="9.070845"><ele>331.0</ele><time>2026-04-19T08:37:29.025Z</time></trkpt><trkpt lat="44.944325" lon="9.0708267"><ele>331.0</ele><time>2026-04-19T08:37:30.025Z</time></trkpt><trkpt lat="44.94425" lon="9.0708083"><ele>331.0</ele><time>2026-04-19T08:37:31.025Z</time></trkpt><trkpt lat="44.9441867" lon="9.0707933"><ele>331.0</ele><time>2026-04-19T08:37:32.024Z</time></trkpt><trkpt lat="44.9440833" lon="9.0707383"><ele>331.0</ele><time>2026-04-19T08:37:34.025Z</time></trkpt><trkpt lat="44.9439867" lon="9.0706783"><ele>331.0</ele><time>2026-04-19T08:37:36.025Z</time></trkpt><trkpt lat="44.9438983" lon="9.0706317"><ele>330.5</ele><time>2026-04-19T08:37:38.024Z</time></trkpt><trkpt lat="44.94381" lon="9.0706067"><ele>330.0</ele><time>2026-04-19T08:37:47.024Z</time></trkpt><trkpt lat="44.9437317" lon="9.07061"><ele>329.5</ele><time>2026-04-19T08:37:49.025Z</time></trkpt><trkpt lat="44.9436717" lon="9.0706733"><ele>329.0</ele><time>2026-04-19T08:37:52.025Z</time></trkpt><trkpt lat="44.9436367" lon="9.0708083"><ele>328.5</ele><time>2026-04-19T08:37:55.025Z</time></trkpt><trkpt lat="44.9436133" lon="9.070945"><ele>328.0</ele><time>2026-04-19T08:37:57.025Z</time></trkpt><trkpt lat="44.9436383" lon="9.0710967"><ele>330.79999999999995</ele><time>2026-04-19T08:37:59.025Z</time></trkpt><trkpt lat="44.94365" lon="9.0712467"><ele>333.6</ele><time>2026-04-19T08:38:01.025Z</time></trkpt><trkpt lat="44.9436617" lon="9.0713733"><ele>336.4</ele><time>2026-04-19T08:38:03.025Z</time></trkpt><trkpt lat="44.9436567" lon="9.0714767"><ele>339.20000000000005</ele><time>2026-04-19T08:38:05.025Z</time></trkpt><trkpt lat="44.943555" lon="9.0715583"><ele>342.0</ele><time>2026-04-19T08:38:59.025Z</time></trkpt><trkpt lat="44.9434833" lon="9.0715767"><ele>342.0</ele><time>2026-04-19T08:39:00.024Z</time></trkpt><trkpt lat="44.943395" lon="9.0715783"><ele>342.0</ele><time>2026-04-19T08:39:01.024Z</time></trkpt><trkpt lat="44.94331" lon="9.0715867"><ele>342.0</ele><time>2026-04-19T08:39:02.025Z</time></trkpt><trkpt lat="44.9432333" lon="9.0716"><ele>342.0</ele><time>2026-04-19T08:39:03.024Z</time></trkpt><trkpt lat="44.9431567" lon="9.0716"><ele>342.0</ele><time>2026-04-19T08:39:04.024Z</time></trkpt><trkpt lat="44.9430567" lon="9.071605"><ele>342.0</ele><time>2026-04-19T08:39:06.025Z</time></trkpt><trkpt lat="44.9429933" lon="9.0716117"><ele>342.6666666666667</ele><time>2026-04-19T08:39:08.025Z</time></trkpt><trkpt lat="44.9429067" lon="9.0716383"><ele>343.3333333333333</ele><time>2026-04-19T08:39:11.024Z</time></trkpt><trkpt lat="44.9428167" lon="9.07165"><ele>344.0</ele><time>2026-04-19T08:39:13.025Z</time></trkpt><trkpt lat="44.9427033" lon="9.0716717"><ele>344.66666666666663</ele><time>2026-04-19T08:39:15.025Z</time></trkpt><trkpt lat="44.9426317" lon="9.0716867"><ele>345.3333333333333</ele><time>2026-04-19T08:39:16.024Z</time></trkpt><trkpt lat="44.9425667" lon="9.0717"><ele>346.0</ele><time>2026-04-19T08:39:17.025Z</time></trkpt><trkpt lat="44.942475" lon="9.07175"><ele>346.0</ele><time>2026-04-19T08:39:19.025Z</time></trkpt><trkpt lat="44.9424433" lon="9.0718383"><ele>346.0</ele><time>2026-04-19T08:39:21.024Z</time></trkpt><trkpt lat="44.942455" lon="9.0719533"><ele>346.0</ele><time>2026-04-19T08:39:24.025Z</time></trkpt><trkpt lat="44.9425017" lon="9.0720417"><ele>346.0</ele><time>2026-04-19T08:39:27.025Z</time></trkpt><trkpt lat="44.9425333" lon="9.0721383"><ele>346.0</ele><time>2026-04-19T08:39:30.024Z</time></trkpt><trkpt lat="44.9424933" lon="9.0722183"><ele>346.0</ele><time>2026-04-19T08:39:33.025Z</time></trkpt><trkpt lat="44.94241" lon="9.0722667"><ele>346.0</ele><time>2026-04-19T08:39:35.024Z</time></trkpt><trkpt lat="44.9423017" lon="9.072315"><ele>346.0</ele><time>2026-04-19T08:39:37.025Z</time></trkpt><trkpt lat="44.9422" lon="9.0723483"><ele>346.0</ele><time>2026-04-19T08:39:39.025Z</time></trkpt><trkpt lat="44.942085" lon="9.0723867"><ele>346.0</ele><time>2026-04-19T08:39:41.024Z</time></trkpt><trkpt lat="44.9420217" lon="9.07241"><ele>346.0</ele><time>2026-04-19T08:39:42.025Z</time></trkpt><trkpt lat="44.94195" lon="9.0724483"><ele>345.5</ele><time>2026-04-19T08:39:43.025Z</time></trkpt><trkpt lat="44.941885" lon="9.0725033"><ele>345.0</ele><time>2026-04-19T08:39:44.025Z</time></trkpt><trkpt lat="44.941815" lon="9.0725683"><ele>344.5</ele><time>2026-04-19T08:39:45.025Z</time></trkpt><trkpt lat="44.9417567" lon="9.072625"><ele>344.0</ele><time>2026-04-19T08:39:46.025Z</time></trkpt><trkpt lat="44.94169" lon="9.0727067"><ele>343.5</ele><time>2026-04-19T08:39:47.025Z</time></trkpt><trkpt lat="44.9416233" lon="9.0727883"><ele>343.0</ele><time>2026-04-19T08:39:48.025Z</time></trkpt><trkpt lat="44.9415667" lon="9.072855"><ele>344.3333333333333</ele><time>2026-04-19T08:39:49.025Z</time></trkpt><trkpt lat="44.9414667" lon="9.072915"><ele>345.66666666666663</ele><time>2026-04-19T08:39:51.025Z</time></trkpt><trkpt lat="44.9414017" lon="9.0729283"><ele>347.0</ele><time>2026-04-19T08:39:52.025Z</time></trkpt><trkpt lat="44.9413233" lon="9.0729417"><ele>348.3333333333333</ele><time>2026-04-19T08:39:53.025Z</time></trkpt><trkpt lat="44.9412567" lon="9.07297"><ele>349.6666666666667</ele><time>2026-04-19T08:39:54.025Z</time></trkpt><trkpt lat="44.941185" lon="9.0729983"><ele>351.0</ele><time>2026-04-19T08:39:55.025Z</time></trkpt><trkpt lat="44.9411183" lon="9.0730317"><ele>351.0</ele><time>2026-04-19T08:39:56.024Z</time></trkpt><trkpt lat="44.9410417" lon="9.07307"><ele>351.0</ele><time>2026-04-19T08:39:57.025Z</time></trkpt><trkpt lat="44.9409717" lon="9.073105"><ele>351.0</ele><time>2026-04-19T08:39:58.025Z</time></trkpt><trkpt lat="44.9409" lon="9.07316"><ele>351.0</ele><time>2026-04-19T08:39:59.024Z</time></trkpt><trkpt lat="44.9408167" lon="9.073215"><ele>351.0</ele><time>2026-04-19T08:40:00.024Z</time></trkpt><trkpt lat="44.94073" lon="9.0732617"><ele>351.0</ele><time>2026-04-19T08:40:01.024Z</time></trkpt><trkpt lat="44.9406383" lon="9.0733"><ele>351.8333333333333</ele><time>2026-04-19T08:40:02.025Z</time></trkpt><trkpt lat="44.940545" lon="9.0733417"><ele>352.6666666666667</ele><time>2026-04-19T08:40:03.025Z</time></trkpt><trkpt lat="44.9404667" lon="9.073375"><ele>353.5</ele><time>2026-04-19T08:40:04.025Z</time></trkpt><trkpt lat="44.9403967" lon="9.0733917"><ele>354.33333333333337</ele><time>2026-04-19T08:40:05.025Z</time></trkpt><trkpt lat="44.9403283" lon="9.073415"><ele>355.1666666666667</ele><time>2026-04-19T08:40:06.025Z</time></trkpt><trkpt lat="44.9402533" lon="9.0734667"><ele>356.0</ele><time>2026-04-19T08:40:07.025Z</time></trkpt><trkpt lat="44.940185" lon="9.0735467"><ele>356.0</ele><time>2026-04-19T08:40:08.025Z</time></trkpt><trkpt lat="44.9401233" lon="9.0736083"><ele>356.0</ele><time>2026-04-19T08:40:09.024Z</time></trkpt><trkpt lat="44.9400533" lon="9.0737283"><ele>356.0</ele><time>2026-04-19T08:40:11.024Z</time></trkpt><trkpt lat="44.9399933" lon="9.0738683"><ele>356.0</ele><time>2026-04-19T08:40:13.025Z</time></trkpt><trkpt lat="44.9399567" lon="9.0739983"><ele>356.0</ele><time>2026-04-19T08:40:15.024Z</time></trkpt><trkpt lat="44.9399117" lon="9.0741217"><ele>357.5</ele><time>2026-04-19T08:40:17.025Z</time></trkpt><trkpt lat="44.93986" lon="9.07422"><ele>359.0</ele><time>2026-04-19T08:40:19.025Z</time></trkpt><trkpt lat="44.9398133" lon="9.0742933"><ele>360.5</ele><time>2026-04-19T08:40:20.024Z</time></trkpt><trkpt lat="44.9397733" lon="9.074365"><ele>362.0</ele><time>2026-04-19T08:40:21.024Z</time></trkpt><trkpt lat="44.939725" lon="9.0744383"><ele>363.5</ele><time>2026-04-19T08:40:22.024Z</time></trkpt><trkpt lat="44.9396833" lon="9.0745117"><ele>365.0</ele><time>2026-04-19T08:40:23.024Z</time></trkpt><trkpt lat="44.93963" lon="9.0746517"><ele>365.00000000000006</ele><time>2026-04-19T08:40:25.024Z</time></trkpt><trkpt lat="44.9396017" lon="9.0747317"><ele>365.0</ele><time>2026-04-19T08:40:26.024Z</time></trkpt><trkpt lat="44.9395833" lon="9.0748217"><ele>365.0</ele><time>2026-04-19T08:40:27.024Z</time></trkpt><trkpt lat="44.9395667" lon="9.0749167"><ele>365.0</ele><time>2026-04-19T08:40:28.024Z</time></trkpt><trkpt lat="44.939545" lon="9.075015"><ele>365.0</ele><time>2026-04-19T08:40:29.025Z</time></trkpt><trkpt lat="44.9395433" lon="9.0751233"><ele>365.00000000000006</ele><time>2026-04-19T08:40:30.025Z</time></trkpt><trkpt lat="44.9395317" lon="9.0752233"><ele>365.0</ele><time>2026-04-19T08:40:31.025Z</time></trkpt><trkpt lat="44.9395217" lon="9.0753167"><ele>367.5</ele><time>2026-04-19T08:40:32.024Z</time></trkpt><trkpt lat="44.93951" lon="9.0754183"><ele>370.0</ele><time>2026-04-19T08:40:33.025Z</time></trkpt><trkpt lat="44.939505" lon="9.075515"><ele>372.5</ele><time>2026-04-19T08:40:34.025Z</time></trkpt><trkpt lat="44.939505" lon="9.0756133"><ele>375.0</ele><time>2026-04-19T08:40:35.025Z</time></trkpt><trkpt lat="44.939515" lon="9.0757833"><ele>377.5</ele><time>2026-04-19T08:40:37.025Z</time></trkpt><trkpt lat="44.939535" lon="9.0759167"><ele>380.0</ele><time>2026-04-19T08:40:39.025Z</time></trkpt><trkpt lat="44.939535" lon="9.07603"><ele>381.0</ele><time>2026-04-19T08:41:22.024Z</time></trkpt><trkpt lat="44.9394567" lon="9.07618"><ele>382.0</ele><time>2026-04-19T08:41:24.024Z</time></trkpt><trkpt lat="44.9394133" lon="9.076265"><ele>383.0</ele><time>2026-04-19T08:41:25.025Z</time></trkpt><trkpt lat="44.9393667" lon="9.0763617"><ele>384.0</ele><time>2026-04-19T08:41:26.025Z</time></trkpt><trkpt lat="44.9393283" lon="9.0764517"><ele>384.99999999999994</ele><time>2026-04-19T08:41:27.025Z</time></trkpt><trkpt lat="44.9392967" lon="9.076545"><ele>386.0</ele><time>2026-04-19T08:41:28.025Z</time></trkpt><trkpt lat="44.93927" lon="9.0766517"><ele>383.99999999999994</ele><time>2026-04-19T08:41:29.024Z</time></trkpt><trkpt lat="44.93924" lon="9.0767683"><ele>382.0</ele><time>2026-04-19T08:41:30.024Z</time></trkpt><trkpt lat="44.9392017" lon="9.0768717"><ele>380.0</ele><time>2026-04-19T08:41:31.025Z</time></trkpt><trkpt lat="44.9391633" lon="9.0769767"><ele>378.0</ele><time>2026-04-19T08:41:32.024Z</time></trkpt><trkpt lat="44.9391117" lon="9.07707"><ele>376.0</ele><time>2026-04-19T08:41:33.025Z</time></trkpt><trkpt lat="44.9390583" lon="9.0771633"><ele>374.0</ele><time>2026-04-19T08:41:34.024Z</time></trkpt><trkpt lat="44.939005" lon="9.0772467"><ele>378.0</ele><time>2026-04-19T08:41:35.025Z</time></trkpt><trkpt lat="44.9389467" lon="9.0773217"><ele>382.0</ele><time>2026-04-19T08:41:36.024Z</time></trkpt><trkpt lat="44.9388933" lon="9.0774033"><ele>386.0</ele><time>2026-04-19T08:41:37.023Z</time></trkpt><trkpt lat="44.93884" lon="9.0774733"><ele>390.0</ele><time>2026-04-19T08:41:38.023Z</time></trkpt><trkpt lat="44.9387867" lon="9.07753"><ele>393.99999999999994</ele><time>2026-04-19T08:41:39.023Z</time></trkpt><trkpt lat="44.9386917" lon="9.07762"><ele>398.0</ele><time>2026-04-19T08:41:41.024Z</time></trkpt><trkpt lat="44.9386117" lon="9.07774"><ele>397.99999999999994</ele><time>2026-04-19T08:41:43.024Z</time></trkpt><trkpt lat="44.9385767" lon="9.0778433"><ele>398.0</ele><time>2026-04-19T08:41:45.024Z</time></trkpt><trkpt lat="44.9385183" lon="9.07793"><ele>398.0</ele><time>2026-04-19T08:44:42.023Z</time></trkpt><trkpt lat="44.9384683" lon="9.0780933"><ele>398.0</ele><time>2026-04-19T08:44:44.023Z</time></trkpt><trkpt lat="44.93844" lon="9.0781817"><ele>397.99999999999994</ele><time>2026-04-19T08:44:45.023Z</time></trkpt><trkpt lat="44.9383933" lon="9.0782683"><ele>398.0</ele><time>2026-04-19T08:44:46.024Z</time></trkpt><trkpt lat="44.9383417" lon="9.078355"><ele>402.99999999999994</ele><time>2026-04-19T08:44:47.024Z</time></trkpt><trkpt lat="44.9383" lon="9.0784333"><ele>408.0</ele><time>2026-04-19T08:44:48.023Z</time></trkpt><trkpt lat="44.93826" lon="9.0785933"><ele>413.0</ele><time>2026-04-19T08:44:50.023Z</time></trkpt><trkpt lat="44.938245" lon="9.078725"><ele>418.0</ele><time>2026-04-19T08:44:52.024Z</time></trkpt><trkpt lat="44.9382417" lon="9.0788217"><ele>422.99999999999994</ele><time>2026-04-19T08:44:55.024Z</time></trkpt><trkpt lat="44.9382033" lon="9.0789217"><ele>428.0</ele><time>2026-04-19T08:44:58.023Z</time></trkpt><trkpt lat="44.9381933" lon="9.07901"><ele>428.59999999999997</ele><time>2026-04-19T08:45:09.024Z</time></trkpt><trkpt lat="44.9381583" lon="9.079175"><ele>429.19999999999993</ele><time>2026-04-19T08:45:11.023Z</time></trkpt><trkpt lat="44.9381367" lon="9.0792717"><ele>429.8</ele><time>2026-04-19T08:45:12.024Z</time></trkpt><trkpt lat="44.9381217" lon="9.0793583"><ele>430.4</ele><time>2026-04-19T08:45:13.024Z</time></trkpt><trkpt lat="44.9381" lon="9.0794917"><ele>431.0</ele><time>2026-04-19T08:45:15.023Z</time></trkpt><trkpt lat="44.9380433" lon="9.0796183"><ele>431.0</ele><time>2026-04-19T08:45:17.023Z</time></trkpt><trkpt lat="44.938005" lon="9.0797267"><ele>431.0</ele><time>2026-04-19T08:45:19.024Z</time></trkpt><trkpt lat="44.9379917" lon="9.079835"><ele>431.0</ele><time>2026-04-19T08:45:21.023Z</time></trkpt><trkpt lat="44.9380117" lon="9.0799767"><ele>431.0</ele><time>2026-04-19T08:45:23.024Z</time></trkpt><trkpt lat="44.9380483" lon="9.0800917"><ele>431.0</ele><time>2026-04-19T08:45:25.024Z</time></trkpt><trkpt lat="44.9381167" lon="9.0802717"><ele>431.8333333333333</ele><time>2026-04-19T08:45:27.023Z</time></trkpt><trkpt lat="44.938145" lon="9.0803567"><ele>432.66666666666663</ele><time>2026-04-19T08:45:28.024Z</time></trkpt><trkpt lat="44.9381417" lon="9.0804517"><ele>433.5</ele><time>2026-04-19T08:45:30.024Z</time></trkpt><trkpt lat="44.9380833" lon="9.0805967"><ele>434.33333333333337</ele><time>2026-04-19T08:45:32.024Z</time></trkpt><trkpt lat="44.938055" lon="9.0806767"><ele>435.1666666666667</ele><time>2026-04-19T08:45:33.023Z</time></trkpt><trkpt lat="44.9380283" lon="9.08082"><ele>436.0</ele><time>2026-04-19T08:45:35.023Z</time></trkpt><trkpt lat="44.9380483" lon="9.08099"><ele>436.50000000000006</ele><time>2026-04-19T08:45:37.024Z</time></trkpt><trkpt lat="44.9380617" lon="9.0810833"><ele>437.0</ele><time>2026-04-19T08:45:38.024Z</time></trkpt><trkpt lat="44.938075" lon="9.0811717"><ele>437.5</ele><time>2026-04-19T08:45:39.024Z</time></trkpt><trkpt lat="44.938085" lon="9.08126"><ele>438.0</ele><time>2026-04-19T08:45:40.024Z</time></trkpt><trkpt lat="44.9380967" lon="9.08135"><ele>438.50000000000006</ele><time>2026-04-19T08:45:41.024Z</time></trkpt><trkpt lat="44.9381383" lon="9.08151"><ele>439.0</ele><time>2026-04-19T08:45:43.023Z</time></trkpt><trkpt lat="44.93818" lon="9.0816683"><ele>440.4</ele><time>2026-04-19T08:45:45.024Z</time></trkpt><trkpt lat="44.93819" lon="9.0817867"><ele>441.79999999999995</ele><time>2026-04-19T08:45:47.024Z</time></trkpt><trkpt lat="44.938175" lon="9.0819083"><ele>443.20000000000005</ele><time>2026-04-19T08:45:49.024Z</time></trkpt><trkpt lat="44.938145" lon="9.0820733"><ele>444.6</ele><time>2026-04-19T08:45:51.024Z</time></trkpt><trkpt lat="44.9381467" lon="9.0822017"><ele>446.0</ele><time>2026-04-19T08:45:53.023Z</time></trkpt><trkpt lat="44.9381617" lon="9.0823183"><ele>446.20000000000005</ele><time>2026-04-19T08:45:55.024Z</time></trkpt><trkpt lat="44.9381317" lon="9.0824433"><ele>446.40000000000003</ele><time>2026-04-19T08:46:00.024Z</time></trkpt><trkpt lat="44.93807" lon="9.082565"><ele>446.6</ele><time>2026-04-19T08:46:02.024Z</time></trkpt><trkpt lat="44.9380383" lon="9.082645"><ele>446.8</ele><time>2026-04-19T08:46:03.023Z</time></trkpt><trkpt lat="44.938005" lon="9.082815"><ele>447.0</ele><time>2026-04-19T08:46:05.024Z</time></trkpt><trkpt lat="44.93799" lon="9.0829017"><ele>447.0</ele><time>2026-04-19T08:46:06.024Z</time></trkpt><trkpt lat="44.937975" lon="9.0830517"><ele>447.00000000000006</ele><time>2026-04-19T08:46:08.024Z</time></trkpt><trkpt lat="44.9379683" lon="9.08322"><ele>447.00000000000006</ele><time>2026-04-19T08:46:10.023Z</time></trkpt><trkpt lat="44.937965" lon="9.0833533"><ele>447.0</ele><time>2026-04-19T08:46:12.023Z</time></trkpt><trkpt lat="44.937965" lon="9.083455"><ele>447.0</ele><time>2026-04-19T08:46:14.024Z</time></trkpt><trkpt lat="44.9379167" lon="9.0835583"><ele>446.0</ele><time>2026-04-19T08:46:18.023Z</time></trkpt><trkpt lat="44.9378433" lon="9.0836367"><ele>445.00000000000006</ele><time>2026-04-19T08:46:20.023Z</time></trkpt><trkpt lat="44.93778" lon="9.083695"><ele>444.00000000000006</ele><time>2026-04-19T08:46:22.023Z</time></trkpt><trkpt lat="44.9376933" lon="9.083755"><ele>443.0</ele><time>2026-04-19T08:46:24.024Z</time></trkpt><trkpt lat="44.937595" lon="9.083815"><ele>442.0</ele><time>2026-04-19T08:46:26.023Z</time></trkpt><trkpt lat="44.9375067" lon="9.08387"><ele>438.20000000000005</ele><time>2026-04-19T08:46:28.024Z</time></trkpt><trkpt lat="44.9374417" lon="9.08394"><ele>434.40000000000003</ele><time>2026-04-19T08:46:30.023Z</time></trkpt><trkpt lat="44.937365" lon="9.0840133"><ele>430.6</ele><time>2026-04-19T08:46:32.023Z</time></trkpt><trkpt lat="44.9372817" lon="9.08409"><ele>426.79999999999995</ele><time>2026-04-19T08:46:34.024Z</time></trkpt><trkpt lat="44.9371917" lon="9.08414"><ele>423.0</ele><time>2026-04-19T08:46:36.024Z</time></trkpt><trkpt lat="44.9370933" lon="9.0841483"><ele>423.0</ele><time>2026-04-19T08:46:38.023Z</time></trkpt><trkpt lat="44.9369817" lon="9.084125"><ele>423.0</ele><time>2026-04-19T08:46:40.024Z</time></trkpt><trkpt lat="44.9368933" lon="9.0840767"><ele>423.0</ele><time>2026-04-19T08:46:42.023Z</time></trkpt><trkpt lat="44.93682" lon="9.0840567"><ele>423.0</ele><time>2026-04-19T08:46:44.024Z</time></trkpt><trkpt lat="44.936735" lon="9.084025"><ele>423.0</ele><time>2026-04-19T08:46:46.023Z</time></trkpt><trkpt lat="44.9366567" lon="9.0840067"><ele>423.1666666666667</ele><time>2026-04-19T08:46:48.023Z</time></trkpt><trkpt lat="44.9365717" lon="9.0840217"><ele>423.33333333333337</ele><time>2026-04-19T08:47:13.023Z</time></trkpt><trkpt lat="44.9365017" lon="9.0840433"><ele>423.5</ele><time>2026-04-19T08:47:14.023Z</time></trkpt><trkpt lat="44.93643" lon="9.0840683"><ele>423.6666666666667</ele><time>2026-04-19T08:47:15.024Z</time></trkpt><trkpt lat="44.9363283" lon="9.084105"><ele>423.83333333333337</ele><time>2026-04-19T08:47:17.023Z</time></trkpt><trkpt lat="44.9362467" lon="9.0841017"><ele>424.0</ele><time>2026-04-19T08:47:19.023Z</time></trkpt><trkpt lat="44.93615" lon="9.0841033"><ele>422.79999999999995</ele><time>2026-04-19T08:47:21.024Z</time></trkpt><trkpt lat="44.9360783" lon="9.084075"><ele>421.59999999999997</ele><time>2026-04-19T08:47:23.023Z</time></trkpt><trkpt lat="44.9360183" lon="9.0840433"><ele>420.4</ele><time>2026-04-19T08:47:50.024Z</time></trkpt><trkpt lat="44.93592" lon="9.0840233"><ele>419.2</ele><time>2026-04-19T08:47:52.024Z</time></trkpt><trkpt lat="44.9358083" lon="9.0840017"><ele>418.0</ele><time>2026-04-19T08:47:54.024Z</time></trkpt><trkpt lat="44.935705" lon="9.0839783"><ele>417.79999999999995</ele><time>2026-04-19T08:47:56.023Z</time></trkpt><trkpt lat="44.93561" lon="9.0839467"><ele>417.6</ele><time>2026-04-19T08:48:12.022Z</time></trkpt><trkpt lat="44.9355367" lon="9.0839167"><ele>417.4</ele><time>2026-04-19T08:48:13.023Z</time></trkpt><trkpt lat="44.9354433" lon="9.0838667"><ele>417.20000000000005</ele><time>2026-04-19T08:48:14.023Z</time></trkpt><trkpt lat="44.9353317" lon="9.0837917"><ele>417.0</ele><time>2026-04-19T08:48:15.022Z</time></trkpt><trkpt lat="44.9352083" lon="9.083695"><ele>417.0</ele><time>2026-04-19T08:48:16.023Z</time></trkpt><trkpt lat="44.9351" lon="9.083595"><ele>417.0</ele><time>2026-04-19T08:48:17.023Z</time></trkpt><trkpt lat="44.9349983" lon="9.0835183"><ele>417.0</ele><time>2026-04-19T08:48:18.023Z</time></trkpt><trkpt lat="44.9349033" lon="9.08345"><ele>417.0</ele><time>2026-04-19T08:48:19.023Z</time></trkpt><trkpt lat="44.9348083" lon="9.0833933"><ele>417.20000000000005</ele><time>2026-04-19T08:48:20.023Z</time></trkpt><trkpt lat="44.9347117" lon="9.0833583"><ele>417.4</ele><time>2026-04-19T08:48:21.023Z</time></trkpt><trkpt lat="44.93462" lon="9.0833317"><ele>417.6</ele><time>2026-04-19T08:48:22.023Z</time></trkpt><trkpt lat="44.9345517" lon="9.0833"><ele>417.79999999999995</ele><time>2026-04-19T08:48:23.022Z</time></trkpt><trkpt lat="44.9344667" lon="9.083235"><ele>418.0</ele><time>2026-04-19T08:48:25.023Z</time></trkpt><trkpt lat="44.9343683" lon="9.0831633"><ele>418.0</ele><time>2026-04-19T08:48:33.023Z</time></trkpt><trkpt lat="44.9342767" lon="9.0830867"><ele>418.0</ele><time>2026-04-19T08:48:34.022Z</time></trkpt><trkpt lat="44.9341667" lon="9.0829883"><ele>418.0</ele><time>2026-04-19T08:48:35.022Z</time></trkpt><trkpt lat="44.93408" lon="9.0828967"><ele>418.0</ele><time>2026-04-19T08:48:36.023Z</time></trkpt><trkpt lat="44.934005" lon="9.082815"><ele>418.0</ele><time>2026-04-19T08:48:37.022Z</time></trkpt><trkpt lat="44.93393" lon="9.0827317"><ele>417.6666666666667</ele><time>2026-04-19T08:48:38.023Z</time></trkpt><trkpt lat="44.9338667" lon="9.08267"><ele>417.33333333333337</ele><time>2026-04-19T08:48:39.022Z</time></trkpt><trkpt lat="44.933795" lon="9.0826133"><ele>417.0</ele><time>2026-04-19T08:48:40.023Z</time></trkpt><trkpt lat="44.9337233" lon="9.08256"><ele>416.66666666666663</ele><time>2026-04-19T08:48:41.023Z</time></trkpt><trkpt lat="44.93366" lon="9.08251"><ele>416.3333333333333</ele><time>2026-04-19T08:48:42.022Z</time></trkpt><trkpt lat="44.9335917" lon="9.082445"><ele>416.0</ele><time>2026-04-19T08:48:43.023Z</time></trkpt><trkpt lat="44.9335217" lon="9.0823783"><ele>415.99999999999994</ele><time>2026-04-19T08:48:44.023Z</time></trkpt><trkpt lat="44.933455" lon="9.082315"><ele>416.0</ele><time>2026-04-19T08:48:45.023Z</time></trkpt><trkpt lat="44.9333867" lon="9.0822683"><ele>416.0</ele><time>2026-04-19T08:48:46.022Z</time></trkpt><trkpt lat="44.93331" lon="9.0822117"><ele>416.0</ele><time>2026-04-19T08:48:47.023Z</time></trkpt><trkpt lat="44.9332333" lon="9.08215"><ele>415.99999999999994</ele><time>2026-04-19T08:48:48.023Z</time></trkpt><trkpt lat="44.9331517" lon="9.0820983"><ele>416.0</ele><time>2026-04-19T08:48:49.022Z</time></trkpt><trkpt lat="44.9330667" lon="9.0820533"><ele>417.66666666666663</ele><time>2026-04-19T08:48:50.022Z</time></trkpt><trkpt lat="44.932995" lon="9.0820233"><ele>419.3333333333333</ele><time>2026-04-19T08:48:51.023Z</time></trkpt><trkpt lat="44.93292" lon="9.0820117"><ele>421.0</ele><time>2026-04-19T08:48:52.023Z</time></trkpt><trkpt lat="44.93285" lon="9.0820117"><ele>422.66666666666663</ele><time>2026-04-19T08:48:53.023Z</time></trkpt><trkpt lat="44.9327633" lon="9.082025"><ele>424.3333333333333</ele><time>2026-04-19T08:48:55.023Z</time></trkpt><trkpt lat="44.93277" lon="9.0821233"><ele>426.0</ele><time>2026-04-19T08:49:05.023Z</time></trkpt><trkpt lat="44.9327" lon="9.082255"><ele>426.0</ele><time>2026-04-19T08:49:18.023Z</time></trkpt><trkpt lat="44.9326367" lon="9.0823633"><ele>426.0</ele><time>2026-04-19T08:49:20.022Z</time></trkpt><trkpt lat="44.932595" lon="9.0824317"><ele>426.0</ele><time>2026-04-19T08:49:21.022Z</time></trkpt><trkpt lat="44.932535" lon="9.0825417"><ele>426.0</ele><time>2026-04-19T08:49:23.022Z</time></trkpt><trkpt lat="44.93251" lon="9.0826483"><ele>426.0</ele><time>2026-04-19T08:49:25.023Z</time></trkpt><trkpt lat="44.9325283" lon="9.0827367"><ele>426.0</ele><time>2026-04-19T08:49:27.022Z</time></trkpt><trkpt lat="44.93256" lon="9.0828283"><ele>426.20000000000005</ele><time>2026-04-19T08:49:30.023Z</time></trkpt><trkpt lat="44.9326283" lon="9.0829117"><ele>426.40000000000003</ele><time>2026-04-19T08:49:41.023Z</time></trkpt><trkpt lat="44.932695" lon="9.08302"><ele>426.6</ele><time>2026-04-19T08:49:43.022Z</time></trkpt><trkpt lat="44.9327633" lon="9.0831483"><ele>426.8</ele><time>2026-04-19T08:49:45.023Z</time></trkpt><trkpt lat="44.9328117" lon="9.0832583"><ele>427.0</ele><time>2026-04-19T08:49:47.023Z</time></trkpt><trkpt lat="44.9328567" lon="9.0833533"><ele>427.00000000000006</ele><time>2026-04-19T08:49:49.022Z</time></trkpt><trkpt lat="44.9329067" lon="9.0834517"><ele>427.0</ele><time>2026-04-19T08:49:51.023Z</time></trkpt><trkpt lat="44.932935" lon="9.0835317"><ele>427.0</ele><time>2026-04-19T08:49:53.022Z</time></trkpt><trkpt lat="44.9329583" lon="9.0836433"><ele>427.0</ele><time>2026-04-19T08:49:55.022Z</time></trkpt><trkpt lat="44.93297" lon="9.083765"><ele>427.00000000000006</ele><time>2026-04-19T08:49:57.023Z</time></trkpt><trkpt lat="44.9329667" lon="9.08387"><ele>427.0</ele><time>2026-04-19T08:49:59.023Z</time></trkpt><trkpt lat="44.9330083" lon="9.0840117"><ele>427.8</ele><time>2026-04-19T08:51:14.023Z</time></trkpt><trkpt lat="44.9330483" lon="9.0841317"><ele>428.6</ele><time>2026-04-19T08:51:16.022Z</time></trkpt><trkpt lat="44.9330783" lon="9.0842733"><ele>429.40000000000003</ele><time>2026-04-19T08:51:18.023Z</time></trkpt><trkpt lat="44.9331" lon="9.0843867"><ele>430.20000000000005</ele><time>2026-04-19T08:51:20.023Z</time></trkpt><trkpt lat="44.9331217" lon="9.0845"><ele>431.0</ele><time>2026-04-19T08:51:30.022Z</time></trkpt><trkpt lat="44.9331667" lon="9.0846017"><ele>431.0</ele><time>2026-04-19T08:51:32.022Z</time></trkpt><trkpt lat="44.9332167" lon="9.0847133"><ele>431.0</ele><time>2026-04-19T08:51:34.023Z</time></trkpt><trkpt lat="44.93323" lon="9.0848367"><ele>431.0</ele><time>2026-04-19T08:53:26.023Z</time></trkpt><trkpt lat="44.9332067" lon="9.0849767"><ele>431.0</ele><time>2026-04-19T08:53:29.023Z</time></trkpt><trkpt lat="44.9331817" lon="9.0850817"><ele>431.0</ele><time>2026-04-19T08:53:31.023Z</time></trkpt><trkpt lat="44.9331517" lon="9.0851983"><ele>432.6</ele><time>2026-04-19T08:53:33.023Z</time></trkpt><trkpt lat="44.9331433" lon="9.085295"><ele>434.20000000000005</ele><time>2026-04-19T08:53:37.022Z</time></trkpt><trkpt lat="44.9331583" lon="9.08542"><ele>435.79999999999995</ele><time>2026-04-19T08:58:08.022Z</time></trkpt><trkpt lat="44.9331733" lon="9.0855383"><ele>437.4</ele><time>2026-04-19T09:03:28.021Z</time></trkpt><trkpt lat="44.9332133" lon="9.0856467"><ele>439.0</ele><time>2026-04-19T09:03:30.021Z</time></trkpt><trkpt lat="44.9332667" lon="9.0858067"><ele>441.0</ele><time>2026-04-19T09:03:32.021Z</time></trkpt><trkpt lat="44.9332783" lon="9.085895"><ele>443.0</ele><time>2026-04-19T09:03:33.021Z</time></trkpt><trkpt lat="44.9332917" lon="9.08606"><ele>445.0</ele><time>2026-04-19T09:03:35.021Z</time></trkpt><trkpt lat="44.9333033" lon="9.0862267"><ele>447.0</ele><time>2026-04-19T09:03:37.021Z</time></trkpt><trkpt lat="44.9332783" lon="9.0864"><ele>449.0</ele><time>2026-04-19T09:03:39.02Z</time></trkpt><trkpt lat="44.9332567" lon="9.08649"><ele>450.3333333333333</ele><time>2026-04-19T09:03:40.021Z</time></trkpt><trkpt lat="44.933205" lon="9.08662"><ele>451.66666666666663</ele><time>2026-04-19T09:03:42.021Z</time></trkpt><trkpt lat="44.9331833" lon="9.08672"><ele>453.0</ele><time>2026-04-19T09:03:44.021Z</time></trkpt><trkpt lat="44.9331833" lon="9.0868633"><ele>454.33333333333337</ele><time>2026-04-19T09:03:46.021Z</time></trkpt><trkpt lat="44.93319" lon="9.0869567"><ele>455.6666666666667</ele><time>2026-04-19T09:03:47.02Z</time></trkpt><trkpt lat="44.9331867" lon="9.0870483"><ele>457.0</ele><time>2026-04-19T09:03:48.021Z</time></trkpt><trkpt lat="44.93321" lon="9.0872167"><ele>457.0</ele><time>2026-04-19T09:03:50.021Z</time></trkpt><trkpt lat="44.9332333" lon="9.0873083"><ele>457.00000000000006</ele><time>2026-04-19T09:03:51.021Z</time></trkpt><trkpt lat="44.9332833" lon="9.08746"><ele>457.00000000000006</ele><time>2026-04-19T09:03:53.021Z</time></trkpt><trkpt lat="44.933345" lon="9.0876017"><ele>457.0</ele><time>2026-04-19T09:03:55.02Z</time></trkpt><trkpt lat="44.9333633" lon="9.0877217"><ele>457.0</ele><time>2026-04-19T09:03:57.021Z</time></trkpt><trkpt lat="44.9333717" lon="9.0878133"><ele>459.0</ele><time>2026-04-19T09:12:10.018Z</time></trkpt><trkpt lat="44.933325" lon="9.0879133"><ele>461.00000000000006</ele><time>2026-04-19T09:12:12.019Z</time></trkpt><trkpt lat="44.9332783" lon="9.088045"><ele>463.00000000000006</ele><time>2026-04-19T09:12:14.019Z</time></trkpt><trkpt lat="44.9332333" lon="9.088175"><ele>465.0</ele><time>2026-04-19T09:12:16.018Z</time></trkpt><trkpt lat="44.9332017" lon="9.0882867"><ele>467.0</ele><time>2026-04-19T09:12:18.019Z</time></trkpt><trkpt lat="44.93313" lon="9.0883433"><ele>466.99999999999994</ele><time>2026-04-19T09:12:20.018Z</time></trkpt><trkpt lat="44.9330467" lon="9.0883533"><ele>467.0</ele><time>2026-04-19T09:12:22.018Z</time></trkpt><trkpt lat="44.9329783" lon="9.0883083"><ele>467.0</ele><time>2026-04-19T09:12:24.019Z</time></trkpt><trkpt lat="44.93291" lon="9.0882267"><ele>467.0</ele><time>2026-04-19T09:12:26.018Z</time></trkpt><trkpt lat="44.9328267" lon="9.0881533"><ele>466.99999999999994</ele><time>2026-04-19T09:12:28.019Z</time></trkpt><trkpt lat="44.93275" lon="9.0880667"><ele>467.0</ele><time>2026-04-19T09:12:30.018Z</time></trkpt><trkpt lat="44.93268" lon="9.0880167"><ele>466.99999999999994</ele><time>2026-04-19T09:12:32.019Z</time></trkpt><trkpt lat="44.9326067" lon="9.0879917"><ele>467.0</ele><time>2026-04-19T09:12:34.018Z</time></trkpt><trkpt lat="44.932495" lon="9.08799"><ele>467.0</ele><time>2026-04-19T09:12:36.018Z</time></trkpt><trkpt lat="44.9324283" lon="9.0879933"><ele>467.0</ele><time>2026-04-19T09:12:37.019Z</time></trkpt><trkpt lat="44.9323633" lon="9.08801"><ele>466.99999999999994</ele><time>2026-04-19T09:12:38.019Z</time></trkpt><trkpt lat="44.9322667" lon="9.08805"><ele>467.0</ele><time>2026-04-19T09:12:40.018Z</time></trkpt><trkpt lat="44.932145" lon="9.088115"><ele>467.71428571428567</ele><time>2026-04-19T09:12:42.018Z</time></trkpt><trkpt lat="44.9320867" lon="9.088155"><ele>468.42857142857144</ele><time>2026-04-19T09:12:43.019Z</time></trkpt><trkpt lat="44.932025" lon="9.0881867"><ele>469.1428571428571</ele><time>2026-04-19T09:12:44.019Z</time></trkpt><trkpt lat="44.931965" lon="9.088225"><ele>469.85714285714283</ele><time>2026-04-19T09:12:45.019Z</time></trkpt><trkpt lat="44.9318983" lon="9.088255"><ele>470.57142857142856</ele><time>2026-04-19T09:12:46.018Z</time></trkpt><trkpt lat="44.9318317" lon="9.08828"><ele>471.2857142857143</ele><time>2026-04-19T09:12:47.019Z</time></trkpt><trkpt lat="44.93177" lon="9.0883067"><ele>472.0</ele><time>2026-04-19T09:12:48.019Z</time></trkpt><trkpt lat="44.9317067" lon="9.0883367"><ele>472.33333333333337</ele><time>2026-04-19T09:12:49.018Z</time></trkpt><trkpt lat="44.931645" lon="9.0883633"><ele>472.6666666666667</ele><time>2026-04-19T09:12:50.019Z</time></trkpt><trkpt lat="44.9315433" lon="9.0884333"><ele>473.0</ele><time>2026-04-19T09:12:52.019Z</time></trkpt><trkpt lat="44.9314767" lon="9.0884817"><ele>473.33333333333337</ele><time>2026-04-19T09:12:54.018Z</time></trkpt><trkpt lat="44.931415" lon="9.08853"><ele>473.6666666666667</ele><time>2026-04-19T09:12:57.018Z</time></trkpt><trkpt lat="44.931345" lon="9.08858"><ele>474.0</ele><time>2026-04-19T09:12:59.019Z</time></trkpt><trkpt lat="44.9312433" lon="9.088655"><ele>474.0</ele><time>2026-04-19T09:13:01.018Z</time></trkpt><trkpt lat="44.9311633" lon="9.0887167"><ele>474.0</ele><time>2026-04-19T09:13:03.019Z</time></trkpt><trkpt lat="44.931095" lon="9.0887817"><ele>474.0</ele><time>2026-04-19T09:13:07.018Z</time></trkpt><trkpt lat="44.9310167" lon="9.088865"><ele>474.0</ele><time>2026-04-19T09:13:09.019Z</time></trkpt><trkpt lat="44.930945" lon="9.088945"><ele>474.0</ele><time>2026-04-19T09:13:11.019Z</time></trkpt><trkpt lat="44.9308767" lon="9.0890267"><ele>472.6666666666667</ele><time>2026-04-19T09:13:13.019Z</time></trkpt><trkpt lat="44.9307933" lon="9.0890967"><ele>471.33333333333337</ele><time>2026-04-19T09:13:15.019Z</time></trkpt><trkpt lat="44.9307267" lon="9.08915"><ele>470.0</ele><time>2026-04-19T09:13:17.019Z</time></trkpt><trkpt lat="44.9306633" lon="9.089225"><ele>468.6666666666667</ele><time>2026-04-19T09:13:20.019Z</time></trkpt><trkpt lat="44.9305967" lon="9.0893217"><ele>467.33333333333337</ele><time>2026-04-19T09:13:33.019Z</time></trkpt><trkpt lat="44.9305617" lon="9.0894017"><ele>466.0</ele><time>2026-04-19T09:13:36.018Z</time></trkpt><trkpt lat="44.9305233" lon="9.08951"><ele>466.00000000000006</ele><time>2026-04-19T09:13:39.019Z</time></trkpt><trkpt lat="44.9304867" lon="9.0895983"><ele>466.0</ele><time>2026-04-19T09:13:41.019Z</time></trkpt><trkpt lat="44.9305" lon="9.0896983"><ele>466.0</ele><time>2026-04-19T09:13:44.019Z</time></trkpt><trkpt lat="44.9304767" lon="9.0898117"><ele>466.0</ele><time>2026-04-19T09:15:34.018Z</time></trkpt><trkpt lat="44.9304533" lon="9.0899433"><ele>466.00000000000006</ele><time>2026-04-19T09:15:36.018Z</time></trkpt><trkpt lat="44.93042" lon="9.0900667"><ele>466.0</ele><time>2026-04-19T09:15:38.017Z</time></trkpt><trkpt lat="44.9303817" lon="9.0901683"><ele>464.00000000000006</ele><time>2026-04-19T09:15:40.018Z</time></trkpt><trkpt lat="44.9303583" lon="9.090275"><ele>462.0</ele><time>2026-04-19T09:15:42.018Z</time></trkpt><trkpt lat="44.930335" lon="9.09037"><ele>460.0</ele><time>2026-04-19T09:15:44.017Z</time></trkpt><trkpt lat="44.93031" lon="9.090475"><ele>458.0</ele><time>2026-04-19T09:15:59.018Z</time></trkpt><trkpt lat="44.9303017" lon="9.0905733"><ele>456.00000000000006</ele><time>2026-04-19T09:16:01.017Z</time></trkpt><trkpt lat="44.9302767" lon="9.0906833"><ele>454.0</ele><time>2026-04-19T09:16:03.018Z</time></trkpt><trkpt lat="44.930245" lon="9.090795"><ele>452.00000000000006</ele><time>2026-04-19T09:16:05.018Z</time></trkpt><trkpt lat="44.9302083" lon="9.0909017"><ele>450.0</ele><time>2026-04-19T09:16:07.018Z</time></trkpt><trkpt lat="44.930155" lon="9.09101"><ele>448.0</ele><time>2026-04-19T09:16:09.018Z</time></trkpt><trkpt lat="44.9301283" lon="9.091105"><ele>446.0</ele><time>2026-04-19T09:16:11.018Z</time></trkpt><trkpt lat="44.93014" lon="9.0911983"><ele>444.00000000000006</ele><time>2026-04-19T09:16:25.018Z</time></trkpt><trkpt lat="44.9301683" lon="9.0912933"><ele>442.0</ele><time>2026-04-19T09:16:27.018Z</time></trkpt><trkpt lat="44.9301867" lon="9.0913967"><ele>442.00000000000006</ele><time>2026-04-19T09:16:29.018Z</time></trkpt><trkpt lat="44.9301767" lon="9.09153"><ele>442.0</ele><time>2026-04-19T09:16:32.018Z</time></trkpt><trkpt lat="44.9301683" lon="9.0916417"><ele>442.0</ele><time>2026-04-19T09:16:34.017Z</time></trkpt><trkpt lat="44.93014" lon="9.0917483"><ele>442.0</ele><time>2026-04-19T09:16:49.018Z</time></trkpt><trkpt lat="44.930105" lon="9.0918367"><ele>442.00000000000006</ele><time>2026-04-19T09:16:51.018Z</time></trkpt><trkpt lat="44.9300633" lon="9.0919417"><ele>442.0</ele><time>2026-04-19T09:16:53.017Z</time></trkpt><trkpt lat="44.9300217" lon="9.09202"><ele>444.6666666666667</ele><time>2026-04-19T09:16:55.018Z</time></trkpt><trkpt lat="44.9299517" lon="9.0920917"><ele>447.33333333333337</ele><time>2026-04-19T09:18:12.018Z</time></trkpt><trkpt lat="44.9298933" lon="9.09219"><ele>450.0</ele><time>2026-04-19T09:18:14.018Z</time></trkpt><trkpt lat="44.929845" lon="9.0922683"><ele>452.66666666666663</ele><time>2026-04-19T09:18:16.017Z</time></trkpt><trkpt lat="44.9298067" lon="9.09236"><ele>455.3333333333333</ele><time>2026-04-19T09:18:27.018Z</time></trkpt><trkpt lat="44.9297517" lon="9.0924683"><ele>458.0</ele><time>2026-04-19T09:18:30.017Z</time></trkpt><trkpt lat="44.929715" lon="9.0925583"><ele>457.99999999999994</ele><time>2026-04-19T09:18:32.017Z</time></trkpt><trkpt lat="44.929695" lon="9.0926783"><ele>458.0</ele><time>2026-04-19T09:18:34.018Z</time></trkpt><trkpt lat="44.929685" lon="9.0927683"><ele>458.0</ele><time>2026-04-19T09:18:36.018Z</time></trkpt><trkpt lat="44.929665" lon="9.0928717"><ele>458.0</ele><time>2026-04-19T09:18:38.018Z</time></trkpt><trkpt lat="44.9296467" lon="9.0929767"><ele>457.99999999999994</ele><time>2026-04-19T09:18:40.018Z</time></trkpt><trkpt lat="44.929625" lon="9.0930733"><ele>458.0</ele><time>2026-04-19T09:18:42.017Z</time></trkpt><trkpt lat="44.9295883" lon="9.093175"><ele>457.66666666666663</ele><time>2026-04-19T09:20:00.017Z</time></trkpt><trkpt lat="44.9295633" lon="9.0933333"><ele>457.3333333333333</ele><time>2026-04-19T09:20:02.018Z</time></trkpt><trkpt lat="44.92954" lon="9.0934317"><ele>457.0</ele><time>2026-04-19T09:20:03.017Z</time></trkpt><trkpt lat="44.9295167" lon="9.0935183"><ele>456.66666666666663</ele><time>2026-04-19T09:20:04.018Z</time></trkpt><trkpt lat="44.9294633" lon="9.09367"><ele>456.3333333333333</ele><time>2026-04-19T09:20:06.018Z</time></trkpt><trkpt lat="44.9294167" lon="9.0937333"><ele>456.0</ele><time>2026-04-19T09:20:08.018Z</time></trkpt><trkpt lat="44.92935" lon="9.0937867"><ele>456.0</ele><time>2026-04-19T09:20:11.018Z</time></trkpt><trkpt lat="44.9292767" lon="9.093835"><ele>456.0</ele><time>2026-04-19T09:20:14.017Z</time></trkpt><trkpt lat="44.9291983" lon="9.0938367"><ele>456.0</ele><time>2026-04-19T09:20:16.018Z</time></trkpt><trkpt lat="44.9290683" lon="9.0937917"><ele>456.0</ele><time>2026-04-19T09:20:18.018Z</time></trkpt><trkpt lat="44.9290017" lon="9.0937717"><ele>456.0</ele><time>2026-04-19T09:20:19.018Z</time></trkpt><trkpt lat="44.9289283" lon="9.0937483"><ele>456.0</ele><time>2026-04-19T09:20:20.018Z</time></trkpt><trkpt lat="44.9288517" lon="9.09373"><ele>461.1666666666667</ele><time>2026-04-19T09:20:21.017Z</time></trkpt><trkpt lat="44.9287817" lon="9.0937267"><ele>466.33333333333337</ele><time>2026-04-19T09:20:22.017Z</time></trkpt><trkpt lat="44.92871" lon="9.0937267"><ele>471.5</ele><time>2026-04-19T09:20:23.018Z</time></trkpt><trkpt lat="44.92864" lon="9.0937383"><ele>476.6666666666667</ele><time>2026-04-19T09:20:24.018Z</time></trkpt><trkpt lat="44.9285767" lon="9.093755"><ele>481.83333333333337</ele><time>2026-04-19T09:20:25.018Z</time></trkpt><trkpt lat="44.92847" lon="9.0938283"><ele>487.0</ele><time>2026-04-19T09:20:27.018Z</time></trkpt><trkpt lat="44.92837" lon="9.0939167"><ele>488.6</ele><time>2026-04-19T09:20:29.017Z</time></trkpt><trkpt lat="44.9282483" lon="9.0939917"><ele>490.20000000000005</ele><time>2026-04-19T09:20:31.018Z</time></trkpt><trkpt lat="44.9281867" lon="9.0940183"><ele>491.8</ele><time>2026-04-19T09:20:32.018Z</time></trkpt><trkpt lat="44.92807" lon="9.0940667"><ele>493.4</ele><time>2026-04-19T09:20:34.018Z</time></trkpt><trkpt lat="44.9279667" lon="9.0941267"><ele>495.0</ele><time>2026-04-19T09:20:36.018Z</time></trkpt><trkpt lat="44.9279083" lon="9.0941667"><ele>488.6</ele><time>2026-04-19T09:20:37.017Z</time></trkpt><trkpt lat="44.9278083" lon="9.0942417"><ele>482.2</ele><time>2026-04-19T09:20:39.018Z</time></trkpt><trkpt lat="44.927725" lon="9.094305"><ele>475.79999999999995</ele><time>2026-04-19T09:20:41.018Z</time></trkpt><trkpt lat="44.927625" lon="9.0943633"><ele>469.4</ele><time>2026-04-19T09:20:43.018Z</time></trkpt><trkpt lat="44.9275017" lon="9.094415"><ele>463.0</ele><time>2026-04-19T09:20:45.017Z</time></trkpt><trkpt lat="44.92744" lon="9.0944467"><ele>462.5</ele><time>2026-04-19T09:20:46.017Z</time></trkpt><trkpt lat="44.927325" lon="9.0944483"><ele>462.0</ele><time>2026-04-19T09:20:48.017Z</time></trkpt><trkpt lat="44.9272083" lon="9.0943967"><ele>461.5</ele><time>2026-04-19T09:20:50.017Z</time></trkpt><trkpt lat="44.9271083" lon="9.0943083"><ele>461.0</ele><time>2026-04-19T09:20:52.017Z</time></trkpt><trkpt lat="44.92704" lon="9.094205"><ele>460.99999999999994</ele><time>2026-04-19T09:20:54.016Z</time></trkpt><trkpt lat="44.92697" lon="9.0941383"><ele>461.0</ele><time>2026-04-19T09:20:56.017Z</time></trkpt><trkpt lat="44.926885" lon="9.0941067"><ele>461.0</ele><time>2026-04-19T09:20:58.017Z</time></trkpt><trkpt lat="44.9267917" lon="9.094105"><ele>461.0</ele><time>2026-04-19T09:21:00.016Z</time></trkpt><trkpt lat="44.9267217" lon="9.0941033"><ele>460.99999999999994</ele><time>2026-04-19T09:41:23.012Z</time></trkpt><trkpt lat="44.9266267" lon="9.09406"><ele>461.0</ele><time>2026-04-19T09:41:26.012Z</time></trkpt><trkpt lat="44.9265517" lon="9.0940183"><ele>462.99999999999994</ele><time>2026-04-19T09:41:28.013Z</time></trkpt><trkpt lat="44.926485" lon="9.0939533"><ele>465.0</ele><time>2026-04-19T09:41:30.013Z</time></trkpt><trkpt lat="44.9264133" lon="9.0939117"><ele>467.0</ele><time>2026-04-19T09:41:32.013Z</time></trkpt><trkpt lat="44.9263383" lon="9.093885"><ele>469.0</ele><time>2026-04-19T09:41:34.012Z</time></trkpt><trkpt lat="44.9262483" lon="9.093875"><ele>470.99999999999994</ele><time>2026-04-19T09:41:36.012Z</time></trkpt><trkpt lat="44.926145" lon="9.0938517"><ele>473.0</ele><time>2026-04-19T09:41:38.013Z</time></trkpt><trkpt lat="44.9260367" lon="9.0938167"><ele>472.99999999999994</ele><time>2026-04-19T09:41:40.013Z</time></trkpt><trkpt lat="44.92595" lon="9.0938017"><ele>473.0</ele><time>2026-04-19T09:41:42.013Z</time></trkpt><trkpt lat="44.92587" lon="9.0937717"><ele>473.0</ele><time>2026-04-19T09:41:44.012Z</time></trkpt><trkpt lat="44.9257817" lon="9.093775"><ele>473.0</ele><time>2026-04-19T09:41:46.013Z</time></trkpt><trkpt lat="44.9256983" lon="9.09379"><ele>472.99999999999994</ele><time>2026-04-19T09:41:49.013Z</time></trkpt><trkpt lat="44.9256367" lon="9.0938733"><ele>473.0</ele><time>2026-04-19T09:42:04.012Z</time></trkpt><trkpt lat="44.9255817" lon="9.0939983"><ele>470.66666666666663</ele><time>2026-04-19T09:42:06.012Z</time></trkpt><trkpt lat="44.9255117" lon="9.094125"><ele>468.3333333333333</ele><time>2026-04-19T09:42:08.011Z</time></trkpt><trkpt lat="44.925465" lon="9.09419"><ele>466.0</ele><time>2026-04-19T09:42:10.012Z</time></trkpt><trkpt lat="44.9254517" lon="9.0943133"><ele>463.66666666666663</ele><time>2026-04-19T09:42:14.011Z</time></trkpt><trkpt lat="44.9254633" lon="9.09442"><ele>461.3333333333333</ele><time>2026-04-19T09:42:16.011Z</time></trkpt><trkpt lat="44.9254733" lon="9.0945617"><ele>459.0</ele><time>2026-04-19T09:42:18.011Z</time></trkpt><trkpt lat="44.92548" lon="9.0947117"><ele>459.0</ele><time>2026-04-19T09:42:20.011Z</time></trkpt><trkpt lat="44.9255033" lon="9.0948533"><ele>459.0</ele><time>2026-04-19T09:42:22.011Z</time></trkpt><trkpt lat="44.9255183" lon="9.0949717"><ele>459.0</ele><time>2026-04-19T09:42:24.012Z</time></trkpt><trkpt lat="44.9255117" lon="9.0950617"><ele>459.0</ele><time>2026-04-19T09:42:26.012Z</time></trkpt><trkpt lat="44.925475" lon="9.09516"><ele>459.0</ele><time>2026-04-19T09:42:29.012Z</time></trkpt><trkpt lat="44.925405" lon="9.09521"><ele>459.0</ele><time>2026-04-19T09:42:32.012Z</time></trkpt><trkpt lat="44.92533" lon="9.0952383"><ele>457.6666666666667</ele><time>2026-04-19T09:42:34.012Z</time></trkpt><trkpt lat="44.9252517" lon="9.095285"><ele>456.33333333333337</ele><time>2026-04-19T09:42:36.012Z</time></trkpt><trkpt lat="44.92517" lon="9.0953183"><ele>455.0</ele><time>2026-04-19T09:42:38.012Z</time></trkpt><trkpt lat="44.9250967" lon="9.0953333"><ele>453.6666666666667</ele><time>2026-04-19T09:42:40.011Z</time></trkpt><trkpt lat="44.925035" lon="9.09543"><ele>452.33333333333337</ele><time>2026-04-19T09:42:49.011Z</time></trkpt><trkpt lat="44.9249617" lon="9.09551"><ele>451.0</ele><time>2026-04-19T09:42:51.012Z</time></trkpt><trkpt lat="44.9249117" lon="9.0956067"><ele>452.00000000000006</ele><time>2026-04-19T09:42:53.012Z</time></trkpt><trkpt lat="44.92487" lon="9.095715"><ele>453.0</ele><time>2026-04-19T09:42:55.011Z</time></trkpt><trkpt lat="44.9248283" lon="9.0958"><ele>454.0</ele><time>2026-04-19T09:42:57.012Z</time></trkpt><trkpt lat="44.9248083" lon="9.095885"><ele>455.0</ele><time>2026-04-19T09:42:59.011Z</time></trkpt><trkpt lat="44.9248333" lon="9.096005"><ele>456.00000000000006</ele><time>2026-04-19T09:43:10.011Z</time></trkpt><trkpt lat="44.9248617" lon="9.09617"><ele>457.0</ele><time>2026-04-19T09:43:12.012Z</time></trkpt><trkpt lat="44.9248783" lon="9.0962617"><ele>457.00000000000006</ele><time>2026-04-19T09:43:13.012Z</time></trkpt><trkpt lat="44.9248717" lon="9.096435"><ele>457.0</ele><time>2026-04-19T09:43:15.012Z</time></trkpt><trkpt lat="44.92486" lon="9.0965267"><ele>457.0</ele><time>2026-04-19T09:43:16.012Z</time></trkpt><trkpt lat="44.924865" lon="9.09666"><ele>457.0</ele><time>2026-04-19T09:43:18.012Z</time></trkpt><trkpt lat="44.924875" lon="9.0967817"><ele>457.00000000000006</ele><time>2026-04-19T09:43:20.011Z</time></trkpt><trkpt lat="44.9248933" lon="9.09688"><ele>457.0</ele><time>2026-04-19T09:43:22.012Z</time></trkpt><trkpt lat="44.9249383" lon="9.09697"><ele>456.0</ele><time>2026-04-19T09:43:24.011Z</time></trkpt><trkpt lat="44.9250117" lon="9.0970683"><ele>455.00000000000006</ele><time>2026-04-19T09:43:26.011Z</time></trkpt><trkpt lat="44.9251" lon="9.0971267"><ele>454.00000000000006</ele><time>2026-04-19T09:43:28.012Z</time></trkpt><trkpt lat="44.9252" lon="9.0972033"><ele>453.0</ele><time>2026-04-19T09:43:30.011Z</time></trkpt><trkpt lat="44.92529" lon="9.0973067"><ele>452.0</ele><time>2026-04-19T09:43:32.011Z</time></trkpt><trkpt lat="44.9253617" lon="9.0974283"><ele>447.20000000000005</ele><time>2026-04-19T09:43:34.011Z</time></trkpt><trkpt lat="44.9254317" lon="9.0975533"><ele>442.40000000000003</ele><time>2026-04-19T09:43:36.011Z</time></trkpt><trkpt lat="44.92547" lon="9.0976767"><ele>437.59999999999997</ele><time>2026-04-19T09:43:38.012Z</time></trkpt><trkpt lat="44.9254817" lon="9.09781"><ele>432.79999999999995</ele><time>2026-04-19T09:43:40.012Z</time></trkpt><trkpt lat="44.92549" lon="9.09792"><ele>428.0</ele><time>2026-04-19T09:43:42.011Z</time></trkpt><trkpt lat="44.9255067" lon="9.098035"><ele>427.99999999999994</ele><time>2026-04-19T09:43:44.012Z</time></trkpt><trkpt lat="44.9255267" lon="9.0981333"><ele>428.0</ele><time>2026-04-19T09:43:46.012Z</time></trkpt><trkpt lat="44.9255683" lon="9.098235"><ele>428.0</ele><time>2026-04-19T09:43:49.012Z</time></trkpt><trkpt lat="44.9256067" lon="9.0983183"><ele>428.0</ele><time>2026-04-19T09:43:51.011Z</time></trkpt><trkpt lat="44.9256233" lon="9.0984117"><ele>427.99999999999994</ele><time>2026-04-19T09:43:59.011Z</time></trkpt><trkpt lat="44.92565" lon="9.0985383"><ele>428.0</ele><time>2026-04-19T09:44:01.012Z</time></trkpt><trkpt lat="44.92568" lon="9.0986833"><ele>428.59999999999997</ele><time>2026-04-19T09:44:03.012Z</time></trkpt><trkpt lat="44.9257" lon="9.0988333"><ele>429.19999999999993</ele><time>2026-04-19T09:44:05.012Z</time></trkpt><trkpt lat="44.9257283" lon="9.0989317"><ele>429.8</ele><time>2026-04-19T09:44:07.012Z</time></trkpt><trkpt lat="44.9258" lon="9.099015"><ele>430.4</ele><time>2026-04-19T09:44:10.011Z</time></trkpt><trkpt lat="44.9258767" lon="9.0990333"><ele>431.0</ele><time>2026-04-19T09:44:13.012Z</time></trkpt><trkpt lat="44.9260117" lon="9.099095"><ele>425.6</ele><time>2026-04-19T09:44:42.011Z</time></trkpt><trkpt lat="44.9260633" lon="9.09919"><ele>420.20000000000005</ele><time>2026-04-19T09:46:22.011Z</time></trkpt><trkpt lat="44.92612" lon="9.0992817"><ele>414.79999999999995</ele><time>2026-04-19T09:46:24.011Z</time></trkpt><trkpt lat="44.9261717" lon="9.099385"><ele>409.4</ele><time>2026-04-19T09:46:26.011Z</time></trkpt><trkpt lat="44.9262283" lon="9.0995033"><ele>404.0</ele><time>2026-04-19T09:46:28.011Z</time></trkpt><trkpt lat="44.926305" lon="9.09962"><ele>403.99999999999994</ele><time>2026-04-19T09:46:30.01Z</time></trkpt><trkpt lat="44.9263867" lon="9.0997217"><ele>404.0</ele><time>2026-04-19T09:46:32.011Z</time></trkpt><trkpt lat="44.926445" lon="9.09982"><ele>404.0</ele><time>2026-04-19T09:46:34.01Z</time></trkpt><trkpt lat="44.9264667" lon="9.0999233"><ele>404.0</ele><time>2026-04-19T09:46:36.011Z</time></trkpt><trkpt lat="44.9264633" lon="9.1000217"><ele>403.99999999999994</ele><time>2026-04-19T09:47:06.011Z</time></trkpt><trkpt lat="44.92647" lon="9.1001483"><ele>404.0</ele><time>2026-04-19T09:47:09.011Z</time></trkpt><trkpt lat="44.9264433" lon="9.1002317"><ele>404.66666666666663</ele><time>2026-04-19T09:47:18.011Z</time></trkpt><trkpt lat="44.9264317" lon="9.1003383"><ele>405.3333333333333</ele><time>2026-04-19T09:47:20.011Z</time></trkpt><trkpt lat="44.9264117" lon="9.1004483"><ele>406.0</ele><time>2026-04-19T09:47:22.011Z</time></trkpt><trkpt lat="44.9263983" lon="9.100565"><ele>406.66666666666663</ele><time>2026-04-19T09:47:24.01Z</time></trkpt><trkpt lat="44.926385" lon="9.1006867"><ele>407.3333333333333</ele><time>2026-04-19T09:47:26.011Z</time></trkpt><trkpt lat="44.9264017" lon="9.1007783"><ele>408.0</ele><time>2026-04-19T09:47:28.011Z</time></trkpt><trkpt lat="44.9264417" lon="9.1008617"><ele>408.1666666666667</ele><time>2026-04-19T09:47:30.01Z</time></trkpt><trkpt lat="44.9264883" lon="9.1009433"><ele>408.33333333333337</ele><time>2026-04-19T09:47:33.011Z</time></trkpt><trkpt lat="44.9265233" lon="9.1010317"><ele>408.5</ele><time>2026-04-19T09:48:04.01Z</time></trkpt><trkpt lat="44.9265917" lon="9.1011467"><ele>408.6666666666667</ele><time>2026-04-19T09:48:06.011Z</time></trkpt><trkpt lat="44.9266433" lon="9.10121"><ele>408.83333333333337</ele><time>2026-04-19T09:48:07.01Z</time></trkpt><trkpt lat="44.9266933" lon="9.1012783"><ele>409.0</ele><time>2026-04-19T09:48:08.01Z</time></trkpt><trkpt lat="44.9267683" lon="9.101395"><ele>402.0</ele><time>2026-04-19T09:48:10.01Z</time></trkpt><trkpt lat="44.9268233" lon="9.1014883"><ele>395.0</ele><time>2026-04-19T09:48:12.011Z</time></trkpt><trkpt lat="44.92692" lon="9.101625"><ele>388.0</ele><time>2026-04-19T09:48:19.01Z</time></trkpt><trkpt lat="44.926995" lon="9.1017567"><ele>381.0</ele><time>2026-04-19T09:48:21.01Z</time></trkpt><trkpt lat="44.927075" lon="9.1018867"><ele>381.0</ele><time>2026-04-19T09:48:23.011Z</time></trkpt><trkpt lat="44.9271583" lon="9.102"><ele>381.0</ele><time>2026-04-19T09:48:25.01Z</time></trkpt><trkpt lat="44.9272083" lon="9.102055"><ele>381.0</ele><time>2026-04-19T09:48:26.011Z</time></trkpt><trkpt lat="44.9273133" lon="9.1021517"><ele>381.0</ele><time>2026-04-19T09:48:28.011Z</time></trkpt><trkpt lat="44.927365" lon="9.102205"><ele>381.0</ele><time>2026-04-19T09:48:29.011Z</time></trkpt><trkpt lat="44.9274517" lon="9.1023033"><ele>381.0</ele><time>2026-04-19T09:48:31.01Z</time></trkpt><trkpt lat="44.9275183" lon="9.10238"><ele>381.0</ele><time>2026-04-19T09:48:33.01Z</time></trkpt><trkpt lat="44.92758" lon="9.102405"><ele>381.0</ele><time>2026-04-19T09:48:44.011Z</time></trkpt><trkpt lat="44.92759" lon="9.1024967"><ele>381.0</ele><time>2026-04-19T09:48:46.011Z</time></trkpt><trkpt lat="44.9276067" lon="9.1026"><ele>381.0</ele><time>2026-04-19T09:48:48.01Z</time></trkpt><trkpt lat="44.9276117" lon="9.10269"><ele>381.0</ele><time>2026-04-19T09:48:50.01Z</time></trkpt><trkpt lat="44.9275917" lon="9.1027967"><ele>381.0</ele><time>2026-04-19T09:48:52.011Z</time></trkpt><trkpt lat="44.92754" lon="9.10287"><ele>383.0</ele><time>2026-04-19T09:48:54.011Z</time></trkpt><trkpt lat="44.9274583" lon="9.1028933"><ele>385.0</ele><time>2026-04-19T09:48:56.011Z</time></trkpt><trkpt lat="44.92739" lon="9.102915"><ele>387.0</ele><time>2026-04-19T09:48:58.01Z</time></trkpt><trkpt lat="44.927325" lon="9.1029983"><ele>389.0</ele><time>2026-04-19T09:49:01.011Z</time></trkpt><trkpt lat="44.9272783" lon="9.1030583"><ele>391.0</ele><time>2026-04-19T09:49:03.011Z</time></trkpt><trkpt lat="44.92721" lon="9.1031117"><ele>393.0</ele><time>2026-04-19T09:49:05.011Z</time></trkpt><trkpt lat="44.9271183" lon="9.1031333"><ele>393.0</ele><time>2026-04-19T09:49:07.01Z</time></trkpt><trkpt lat="44.927065" lon="9.1031867"><ele>393.0</ele><time>2026-04-19T09:49:09.01Z</time></trkpt><trkpt lat="44.9270017" lon="9.10334"><ele>393.0</ele><time>2026-04-19T09:49:11.01Z</time></trkpt><trkpt lat="44.9269717" lon="9.1034217"><ele>393.0</ele><time>2026-04-19T09:49:12.011Z</time></trkpt><trkpt lat="44.926915" lon="9.1035317"><ele>393.0</ele><time>2026-04-19T09:49:14.011Z</time></trkpt><trkpt lat="44.926855" lon="9.1036067"><ele>393.0</ele><time>2026-04-19T09:49:17.011Z</time></trkpt><trkpt lat="44.9267933" lon="9.1036733"><ele>393.5</ele><time>2026-04-19T09:49:20.011Z</time></trkpt><trkpt lat="44.9267367" lon="9.1037317"><ele>394.0</ele><time>2026-04-19T09:49:22.01Z</time></trkpt><trkpt lat="44.9266733" lon="9.1037883"><ele>394.5</ele><time>2026-04-19T09:49:25.011Z</time></trkpt><trkpt lat="44.9266217" lon="9.1038567"><ele>395.0</ele><time>2026-04-19T09:49:27.011Z</time></trkpt><trkpt lat="44.9265383" lon="9.1039117"><ele>395.5</ele><time>2026-04-19T09:49:29.01Z</time></trkpt><trkpt lat="44.9264483" lon="9.103945"><ele>396.0</ele><time>2026-04-19T09:49:31.01Z</time></trkpt><trkpt lat="44.9263817" lon="9.103965"><ele>396.0</ele><time>2026-04-19T09:49:33.011Z</time></trkpt><trkpt lat="44.92631" lon="9.1039833"><ele>396.0</ele><time>2026-04-19T09:49:35.011Z</time></trkpt><trkpt lat="44.9262217" lon="9.1040233"><ele>396.0</ele><time>2026-04-19T09:49:37.011Z</time></trkpt><trkpt lat="44.9261333" lon="9.1040483"><ele>396.0</ele><time>2026-04-19T09:49:40.011Z</time></trkpt><trkpt lat="44.92604" lon="9.1040583"><ele>396.0</ele><time>2026-04-19T09:49:43.011Z</time></trkpt><trkpt lat="44.925955" lon="9.1040917"><ele>396.0</ele><time>2026-04-19T09:49:45.011Z</time></trkpt><trkpt lat="44.9258533" lon="9.1041367"><ele>390.0</ele><time>2026-04-19T09:49:47.011Z</time></trkpt><trkpt lat="44.9257683" lon="9.1041783"><ele>384.0</ele><time>2026-04-19T09:50:14.009Z</time></trkpt><trkpt lat="44.9257067" lon="9.10422"><ele>378.0</ele><time>2026-04-19T09:50:16.01Z</time></trkpt><trkpt lat="44.92563" lon="9.1042817"><ele>372.0</ele><time>2026-04-19T09:50:18.009Z</time></trkpt><trkpt lat="44.92558" lon="9.1044283"><ele>366.0</ele><time>2026-04-19T09:50:24.01Z</time></trkpt><trkpt lat="44.925575" lon="9.1045583"><ele>366.0</ele><time>2026-04-19T09:50:26.01Z</time></trkpt><trkpt lat="44.92557" lon="9.1047017"><ele>366.0</ele><time>2026-04-19T09:50:28.01Z</time></trkpt><trkpt lat="44.9255367" lon="9.10482"><ele>366.0</ele><time>2026-04-19T09:51:11.01Z</time></trkpt><trkpt lat="44.9255" lon="9.1049383"><ele>366.0</ele><time>2026-04-19T09:51:13.01Z</time></trkpt><trkpt lat="44.9254717" lon="9.1050783"><ele>366.0</ele><time>2026-04-19T09:51:15.01Z</time></trkpt><trkpt lat="44.925505" lon="9.105215"><ele>364.3333333333333</ele><time>2026-04-19T09:51:17.01Z</time></trkpt><trkpt lat="44.9255467" lon="9.1053433"><ele>362.6666666666667</ele><time>2026-04-19T09:51:19.01Z</time></trkpt><trkpt lat="44.92559" lon="9.10544"><ele>361.0</ele><time>2026-04-19T09:51:21.01Z</time></trkpt><trkpt lat="44.9256283" lon="9.1055267"><ele>359.33333333333337</ele><time>2026-04-19T09:51:23.01Z</time></trkpt><trkpt lat="44.9256617" lon="9.105605"><ele>357.6666666666667</ele><time>2026-04-19T09:51:25.01Z</time></trkpt><trkpt lat="44.9256833" lon="9.1057017"><ele>356.0</ele><time>2026-04-19T09:51:28.009Z</time></trkpt><trkpt lat="44.9257317" lon="9.1058333"><ele>356.0</ele><time>2026-04-19T09:51:30.009Z</time></trkpt><trkpt lat="44.925775" lon="9.1059083"><ele>356.0</ele><time>2026-04-19T09:51:31.01Z</time></trkpt><trkpt lat="44.9258367" lon="9.1060417"><ele>356.0</ele><time>2026-04-19T09:51:33.009Z</time></trkpt><trkpt lat="44.9259067" lon="9.1061433"><ele>356.0</ele><time>2026-04-19T09:51:35.01Z</time></trkpt><trkpt lat="44.9259917" lon="9.1062117"><ele>356.0</ele><time>2026-04-19T09:51:37.01Z</time></trkpt><trkpt lat="44.9260633" lon="9.106285"><ele>353.1666666666667</ele><time>2026-04-19T09:51:39.01Z</time></trkpt><trkpt lat="44.9261383" lon="9.1063333"><ele>350.33333333333337</ele><time>2026-04-19T09:51:41.01Z</time></trkpt><trkpt lat="44.9261983" lon="9.1063617"><ele>347.5</ele><time>2026-04-19T09:51:43.009Z</time></trkpt><trkpt lat="44.926265" lon="9.1063733"><ele>344.6666666666667</ele><time>2026-04-19T09:51:45.009Z</time></trkpt><trkpt lat="44.92635" lon="9.1064033"><ele>341.8333333333333</ele><time>2026-04-19T09:51:47.009Z</time></trkpt><trkpt lat="44.9264383" lon="9.1064533"><ele>339.0</ele><time>2026-04-19T09:51:49.01Z</time></trkpt><trkpt lat="44.9265317" lon="9.1065667"><ele>337.8333333333333</ele><time>2026-04-19T09:51:51.01Z</time></trkpt><trkpt lat="44.9265833" lon="9.1066617"><ele>336.6666666666667</ele><time>2026-04-19T09:51:52.01Z</time></trkpt><trkpt lat="44.92665" lon="9.1067517"><ele>335.5</ele><time>2026-04-19T09:51:53.01Z</time></trkpt><trkpt lat="44.9267133" lon="9.10685"><ele>334.33333333333337</ele><time>2026-04-19T09:51:54.01Z</time></trkpt><trkpt lat="44.926765" lon="9.106945"><ele>333.1666666666667</ele><time>2026-04-19T09:51:55.009Z</time></trkpt><trkpt lat="44.9268083" lon="9.1070417"><ele>332.0</ele><time>2026-04-19T09:51:56.01Z</time></trkpt><trkpt lat="44.9268567" lon="9.107115"><ele>332.0</ele><time>2026-04-19T09:51:57.009Z</time></trkpt><trkpt lat="44.9269133" lon="9.1072767"><ele>332.0</ele><time>2026-04-19T09:51:59.01Z</time></trkpt><trkpt lat="44.9269433" lon="9.1073633"><ele>332.0</ele><time>2026-04-19T09:52:00.01Z</time></trkpt><trkpt lat="44.926965" lon="9.10745"><ele>332.0</ele><time>2026-04-19T09:52:01.009Z</time></trkpt><trkpt lat="44.9270017" lon="9.1076083"><ele>332.0</ele><time>2026-04-19T09:52:03.009Z</time></trkpt><trkpt lat="44.9270383" lon="9.1077367"><ele>334.0</ele><time>2026-04-19T09:52:05.009Z</time></trkpt><trkpt lat="44.9270517" lon="9.10783"><ele>336.0</ele><time>2026-04-19T09:52:08.009Z</time></trkpt><trkpt lat="44.9270533" lon="9.1079217"><ele>338.0</ele><time>2026-04-19T09:52:10.01Z</time></trkpt><trkpt lat="44.9270417" lon="9.1080617"><ele>340.0</ele><time>2026-04-19T09:52:12.01Z</time></trkpt><trkpt lat="44.927065" lon="9.1081783"><ele>342.0</ele><time>2026-04-19T09:52:14.009Z</time></trkpt><trkpt lat="44.9271383" lon="9.1082633"><ele>344.0</ele><time>2026-04-19T09:52:16.01Z</time></trkpt><trkpt lat="44.92724" lon="9.1083317"><ele>343.1666666666667</ele><time>2026-04-19T09:52:18.01Z</time></trkpt><trkpt lat="44.92735" lon="9.1084133"><ele>342.33333333333337</ele><time>2026-04-19T09:52:20.01Z</time></trkpt><trkpt lat="44.927415" lon="9.1084667"><ele>341.5</ele><time>2026-04-19T09:52:21.01Z</time></trkpt><trkpt lat="44.92748" lon="9.1085067"><ele>340.6666666666667</ele><time>2026-04-19T09:52:22.01Z</time></trkpt><trkpt lat="44.927555" lon="9.1085467"><ele>339.8333333333333</ele><time>2026-04-19T09:52:24.009Z</time></trkpt><trkpt lat="44.92763" lon="9.1085967"><ele>339.0</ele><time>2026-04-19T09:52:34.009Z</time></trkpt><trkpt lat="44.9277317" lon="9.1086583"><ele>339.0</ele><time>2026-04-19T09:52:36.009Z</time></trkpt><trkpt lat="44.927785" lon="9.108715"><ele>339.0</ele><time>2026-04-19T09:52:37.01Z</time></trkpt><trkpt lat="44.9278317" lon="9.1087767"><ele>339.0</ele><time>2026-04-19T09:52:38.01Z</time></trkpt><trkpt lat="44.92789" lon="9.1088733"><ele>339.0</ele><time>2026-04-19T09:52:40.01Z</time></trkpt><trkpt lat="44.927925" lon="9.10895"><ele>339.0</ele><time>2026-04-19T09:52:42.01Z</time></trkpt><trkpt lat="44.9279817" lon="9.1090333"><ele>339.0</ele><time>2026-04-19T09:52:44.01Z</time></trkpt><trkpt lat="44.9280683" lon="9.1091483"><ele>339.8333333333333</ele><time>2026-04-19T09:52:46.01Z</time></trkpt><trkpt lat="44.9281117" lon="9.1092233"><ele>340.6666666666667</ele><time>2026-04-19T09:52:47.009Z</time></trkpt><trkpt lat="44.92816" lon="9.109285"><ele>341.5</ele><time>2026-04-19T09:52:48.01Z</time></trkpt><trkpt lat="44.928205" lon="9.1093517"><ele>342.33333333333337</ele><time>2026-04-19T09:52:49.01Z</time></trkpt><trkpt lat="44.9282933" lon="9.1094633"><ele>343.1666666666667</ele><time>2026-04-19T09:52:51.01Z</time></trkpt><trkpt lat="44.9283483" lon="9.1095133"><ele>344.0</ele><time>2026-04-19T09:52:52.009Z</time></trkpt><trkpt lat="44.9284167" lon="9.109565"><ele>344.0</ele><time>2026-04-19T09:52:54.009Z</time></trkpt><trkpt lat="44.928335" lon="9.1096133"><ele>344.0</ele><time>2026-04-19T09:52:58.01Z</time></trkpt><trkpt lat="44.9282567" lon="9.109645"><ele>344.0</ele><time>2026-04-19T09:53:00.009Z</time></trkpt><trkpt lat="44.9281933" lon="9.1096417"><ele>344.0</ele><time>2026-04-19T09:53:01.009Z</time></trkpt><trkpt lat="44.9281283" lon="9.1096317"><ele>344.0</ele><time>2026-04-19T09:53:02.009Z</time></trkpt><trkpt lat="44.928005" lon="9.1096033"><ele>344.0</ele><time>2026-04-19T09:53:04.009Z</time></trkpt><trkpt lat="44.9278867" lon="9.1095667"><ele>344.0</ele><time>2026-04-19T09:53:06.01Z</time></trkpt><trkpt lat="44.9278217" lon="9.10954"><ele>344.0</ele><time>2026-04-19T09:53:07.009Z</time></trkpt><trkpt lat="44.9277533" lon="9.1094933"><ele>344.0</ele><time>2026-04-19T09:53:08.01Z</time></trkpt><trkpt lat="44.9276817" lon="9.10945"><ele>344.0</ele><time>2026-04-19T09:53:09.01Z</time></trkpt><trkpt lat="44.9276133" lon="9.1094283"><ele>344.0</ele><time>2026-04-19T09:53:10.01Z</time></trkpt><trkpt lat="44.92753" lon="9.1094383"><ele>344.0</ele><time>2026-04-19T09:53:11.01Z</time></trkpt><trkpt lat="44.9274533" lon="9.1094567"><ele>345.33333333333337</ele><time>2026-04-19T09:53:12.01Z</time></trkpt><trkpt lat="44.927385" lon="9.1094767"><ele>346.6666666666667</ele><time>2026-04-19T09:53:13.01Z</time></trkpt><trkpt lat="44.9273183" lon="9.1094933"><ele>348.0</ele><time>2026-04-19T09:53:14.01Z</time></trkpt><trkpt lat="44.9272567" lon="9.1095183"><ele>349.3333333333333</ele><time>2026-04-19T09:53:15.01Z</time></trkpt><trkpt lat="44.927145" lon="9.1095867"><ele>350.66666666666663</ele><time>2026-04-19T09:53:17.01Z</time></trkpt><trkpt lat="44.92705" lon="9.1096217"><ele>352.0</ele><time>2026-04-19T09:53:19.01Z</time></trkpt><trkpt lat="44.926995" lon="9.1095283"><ele>352.0</ele><time>2026-04-19T09:53:21.01Z</time></trkpt><trkpt lat="44.92691" lon="9.1095067"><ele>352.0</ele><time>2026-04-19T09:53:23.01Z</time></trkpt><trkpt lat="44.9268" lon="9.10959"><ele>352.0</ele><time>2026-04-19T09:53:25.01Z</time></trkpt><trkpt lat="44.9267367" lon="9.1096117"><ele>352.0</ele><time>2026-04-19T09:53:26.01Z</time></trkpt><trkpt lat="44.9266067" lon="9.1096183"><ele>352.0</ele><time>2026-04-19T09:53:28.01Z</time></trkpt><trkpt lat="44.926525" lon="9.1096283"><ele>353.6</ele><time>2026-04-19T09:53:29.009Z</time></trkpt><trkpt lat="44.9264317" lon="9.1096367"><ele>355.20000000000005</ele><time>2026-04-19T09:53:30.009Z</time></trkpt><trkpt lat="44.9263283" lon="9.109655"><ele>356.8</ele><time>2026-04-19T09:53:31.009Z</time></trkpt><trkpt lat="44.9262283" lon="9.1096633"><ele>358.4</ele><time>2026-04-19T09:53:32.01Z</time></trkpt><trkpt lat="44.9261333" lon="9.1096567"><ele>360.0</ele><time>2026-04-19T09:53:33.01Z</time></trkpt><trkpt lat="44.9260417" lon="9.1096417"><ele>360.0</ele><time>2026-04-19T09:53:34.01Z</time></trkpt><trkpt lat="44.92595" lon="9.1096483"><ele>360.0</ele><time>2026-04-19T09:53:35.009Z</time></trkpt><trkpt lat="44.9258533" lon="9.1096517"><ele>360.0</ele><time>2026-04-19T09:53:36.01Z</time></trkpt><trkpt lat="44.925755" lon="9.1096817"><ele>360.0</ele><time>2026-04-19T09:53:37.01Z</time></trkpt><trkpt lat="44.925665" lon="9.1097167"><ele>360.0</ele><time>2026-04-19T09:53:38.01Z</time></trkpt><trkpt lat="44.9255767" lon="9.1097617"><ele>360.6666666666667</ele><time>2026-04-19T09:53:39.01Z</time></trkpt><trkpt lat="44.925495" lon="9.1097967"><ele>361.3333333333333</ele><time>2026-04-19T09:53:40.009Z</time></trkpt><trkpt lat="44.92542" lon="9.1098117"><ele>362.0</ele><time>2026-04-19T09:53:41.009Z</time></trkpt><trkpt lat="44.9253517" lon="9.1098"><ele>362.66666666666663</ele><time>2026-04-19T09:53:42.01Z</time></trkpt><trkpt lat="44.9252783" lon="9.1097783"><ele>363.3333333333333</ele><time>2026-04-19T09:53:43.01Z</time></trkpt><trkpt lat="44.9252133" lon="9.1097417"><ele>364.0</ele><time>2026-04-19T09:53:44.01Z</time></trkpt><trkpt lat="44.92515" lon="9.1096817"><ele>364.0</ele><time>2026-04-19T09:53:45.01Z</time></trkpt><trkpt lat="44.9250917" lon="9.1096167"><ele>364.0</ele><time>2026-04-19T09:53:46.009Z</time></trkpt><trkpt lat="44.9250333" lon="9.109555"><ele>364.0</ele><time>2026-04-19T09:53:47.009Z</time></trkpt><trkpt lat="44.924935" lon="9.1094733"><ele>364.0</ele><time>2026-04-19T09:53:49.01Z</time></trkpt><trkpt lat="44.924865" lon="9.1095133"><ele>364.0</ele><time>2026-04-19T09:53:51.01Z</time></trkpt><trkpt lat="44.9248467" lon="9.1096683"><ele>364.0</ele><time>2026-04-19T09:53:53.009Z</time></trkpt><trkpt lat="44.924835" lon="9.1098333"><ele>363.6</ele><time>2026-04-19T09:53:55.01Z</time></trkpt><trkpt lat="44.9247967" lon="9.1099617"><ele>363.2</ele><time>2026-04-19T09:53:57.009Z</time></trkpt><trkpt lat="44.9247167" lon="9.1100333"><ele>362.8</ele><time>2026-04-19T09:53:59.01Z</time></trkpt><trkpt lat="44.92461" lon="9.11008"><ele>362.40000000000003</ele><time>2026-04-19T09:54:01.01Z</time></trkpt><trkpt lat="44.9244917" lon="9.1101033"><ele>362.0</ele><time>2026-04-19T09:54:03.009Z</time></trkpt><trkpt lat="44.9244283" lon="9.1101217"><ele>362.0</ele><time>2026-04-19T09:54:04.009Z</time></trkpt><trkpt lat="44.924365" lon="9.110145"><ele>362.0</ele><time>2026-04-19T09:54:05.009Z</time></trkpt><trkpt lat="44.9242983" lon="9.110175"><ele>362.0</ele><time>2026-04-19T09:54:06.01Z</time></trkpt><trkpt lat="44.9242267" lon="9.1101933"><ele>362.0</ele><time>2026-04-19T09:54:07.01Z</time></trkpt><trkpt lat="44.9241517" lon="9.1102217"><ele>362.0</ele><time>2026-04-19T09:54:08.009Z</time></trkpt><trkpt lat="44.9240779" lon="9.1102708"><ele>362.0</ele><time>2026-04-19T09:54:09.01Z</time></trkpt><trkpt lat="44.9240119" lon="9.1103343"><ele>362.0</ele><time>2026-04-19T09:54:10.01Z</time></trkpt><trkpt lat="44.9239493" lon="9.1104149"><ele>362.5</ele><time>2026-04-19T09:54:11.009Z</time></trkpt><trkpt lat="44.9238918" lon="9.1105088"><ele>363.0</ele><time>2026-04-19T09:54:12.01Z</time></trkpt><trkpt lat="44.9238402" lon="9.1106026"><ele>363.5</ele><time>2026-04-19T09:54:13.01Z</time></trkpt><trkpt lat="44.9237823" lon="9.1106886"><ele>364.0</ele><time>2026-04-19T09:54:14.01Z</time></trkpt><trkpt lat="44.9237216" lon="9.1107605"><ele>364.5</ele><time>2026-04-19T09:54:15.01Z</time></trkpt><trkpt lat="44.9236602" lon="9.1108146"><ele>365.0</ele><time>2026-04-19T09:54:16.01Z</time></trkpt><trkpt lat="44.9236001" lon="9.1108443"><ele>365.0</ele><time>2026-04-19T09:54:17.01Z</time></trkpt><trkpt lat="44.9235329" lon="9.1108552"><ele>365.0</ele><time>2026-04-19T09:54:18.01Z</time></trkpt><trkpt lat="44.9234589" lon="9.110854"><ele>365.0</ele><time>2026-04-19T09:54:19.009Z</time></trkpt><trkpt lat="44.9233845" lon="9.1108488"><ele>365.0</ele><time>2026-04-19T09:54:20.01Z</time></trkpt><trkpt lat="44.9233026" lon="9.1108644"><ele>365.0</ele><time>2026-04-19T09:54:21.01Z</time></trkpt><trkpt lat="44.9232108" lon="9.1108893"><ele>365.0</ele><time>2026-04-19T09:54:22.009Z</time></trkpt><trkpt lat="44.9231107" lon="9.1109263"><ele>368.25</ele><time>2026-04-19T09:54:23.009Z</time></trkpt><trkpt lat="44.9230014" lon="9.1109862"><ele>371.5</ele><time>2026-04-19T09:54:24.009Z</time></trkpt><trkpt lat="44.92288" lon="9.1110747"><ele>374.75</ele><time>2026-04-19T09:54:25.008Z</time></trkpt><trkpt lat="44.9227634" lon="9.111179"><ele>378.0</ele><time>2026-04-19T09:54:26.009Z</time></trkpt><trkpt lat="44.9226518" lon="9.1112875"><ele>378.0</ele><time>2026-04-19T09:54:27.009Z</time></trkpt><trkpt lat="44.9225384" lon="9.111389"><ele>378.0</ele><time>2026-04-19T09:54:28.009Z</time></trkpt><trkpt lat="44.9224254" lon="9.1114862"><ele>378.0</ele><time>2026-04-19T09:54:29.008Z</time></trkpt><trkpt lat="44.9223228" lon="9.1115749"><ele>378.0</ele><time>2026-04-19T09:54:30.008Z</time></trkpt><trkpt lat="44.9222296" lon="9.1116531"><ele>378.0</ele><time>2026-04-19T09:54:31.009Z</time></trkpt><trkpt lat="44.9221339" lon="9.1117342"><ele>378.0</ele><time>2026-04-19T09:54:32.009Z</time></trkpt><trkpt lat="44.9220371" lon="9.1118151"><ele>378.0</ele><time>2026-04-19T09:54:33.009Z</time></trkpt><trkpt lat="44.9219374" lon="9.1118883"><ele>378.0</ele><time>2026-04-19T09:54:34.009Z</time></trkpt><trkpt lat="44.921838" lon="9.1119602"><ele>378.0</ele><time>2026-04-19T09:54:35.008Z</time></trkpt><trkpt lat="44.9217388" lon="9.1120287"><ele>381.79999999999995</ele><time>2026-04-19T09:54:36.008Z</time></trkpt><trkpt lat="44.9216443" lon="9.1120828"><ele>385.6</ele><time>2026-04-19T09:54:37.009Z</time></trkpt><trkpt lat="44.9215492" lon="9.1121317"><ele>389.4</ele><time>2026-04-19T09:54:38.009Z</time></trkpt><trkpt lat="44.9214502" lon="9.1121891"><ele>393.20000000000005</ele><time>2026-04-19T09:54:39.009Z</time></trkpt><trkpt lat="44.9213496" lon="9.1122474"><ele>397.0</ele><time>2026-04-19T09:54:40.008Z</time></trkpt><trkpt lat="44.92125" lon="9.1122967"><ele>397.00000000000006</ele><time>2026-04-19T09:54:41.008Z</time></trkpt><trkpt lat="44.921155" lon="9.11236"><ele>397.0</ele><time>2026-04-19T09:54:42.009Z</time></trkpt><trkpt lat="44.92107" lon="9.1124267"><ele>397.0</ele><time>2026-04-19T09:54:43.008Z</time></trkpt><trkpt lat="44.92099" lon="9.1124767"><ele>397.0</ele><time>2026-04-19T09:54:44.009Z</time></trkpt><trkpt lat="44.9209133" lon="9.11252"><ele>397.00000000000006</ele><time>2026-04-19T09:54:45.009Z</time></trkpt><trkpt lat="44.9208483" lon="9.112555"><ele>397.0</ele><time>2026-04-19T09:54:46.009Z</time></trkpt><trkpt lat="44.9207433" lon="9.1125983"><ele>397.6666666666667</ele><time>2026-04-19T09:54:48.009Z</time></trkpt><trkpt lat="44.9206383" lon="9.1126217"><ele>398.33333333333337</ele><time>2026-04-19T09:54:50.009Z</time></trkpt><trkpt lat="44.9205667" lon="9.112635"><ele>399.0</ele><time>2026-04-19T09:54:51.009Z</time></trkpt><trkpt lat="44.9204917" lon="9.1126633"><ele>399.66666666666663</ele><time>2026-04-19T09:54:52.008Z</time></trkpt><trkpt lat="44.920425" lon="9.1127117"><ele>400.3333333333333</ele><time>2026-04-19T09:54:53.008Z</time></trkpt><trkpt lat="44.92035" lon="9.1127633"><ele>401.0</ele><time>2026-04-19T09:54:54.008Z</time></trkpt><trkpt lat="44.92028" lon="9.11283"><ele>400.99999999999994</ele><time>2026-04-19T09:54:55.008Z</time></trkpt><trkpt lat="44.9202117" lon="9.1128917"><ele>401.0</ele><time>2026-04-19T09:54:56.008Z</time></trkpt><trkpt lat="44.9201467" lon="9.1129433"><ele>401.0</ele><time>2026-04-19T09:54:57.008Z</time></trkpt><trkpt lat="44.920075" lon="9.112985"><ele>401.0</ele><time>2026-04-19T09:54:58.008Z</time></trkpt><trkpt lat="44.9200017" lon="9.11303"><ele>400.99999999999994</ele><time>2026-04-19T09:54:59.008Z</time></trkpt><trkpt lat="44.919925" lon="9.11307"><ele>401.0</ele><time>2026-04-19T09:55:00.009Z</time></trkpt><trkpt lat="44.9198533" lon="9.1131067"><ele>400.4</ele><time>2026-04-19T09:55:01.009Z</time></trkpt><trkpt lat="44.91977" lon="9.1131433"><ele>399.8</ele><time>2026-04-19T09:55:02.009Z</time></trkpt><trkpt lat="44.9196733" lon="9.1131833"><ele>399.2</ele><time>2026-04-19T09:55:03.009Z</time></trkpt><trkpt lat="44.9195767" lon="9.113225"><ele>398.59999999999997</ele><time>2026-04-19T09:55:04.009Z</time></trkpt><trkpt lat="44.919465" lon="9.113275"><ele>398.0</ele><time>2026-04-19T09:55:05.009Z</time></trkpt><trkpt lat="44.919355" lon="9.1133217"><ele>398.0</ele><time>2026-04-19T09:55:06.009Z</time></trkpt><trkpt lat="44.91925" lon="9.1133667"><ele>398.0</ele><time>2026-04-19T09:55:07.008Z</time></trkpt><trkpt lat="44.919155" lon="9.1134117"><ele>398.0</ele><time>2026-04-19T09:55:08.009Z</time></trkpt><trkpt lat="44.919085" lon="9.1134683"><ele>398.0</ele><time>2026-04-19T09:55:09.008Z</time></trkpt><trkpt lat="44.91904" lon="9.1135367"><ele>398.0</ele><time>2026-04-19T09:55:10.009Z</time></trkpt><trkpt lat="44.919" lon="9.113675"><ele>400.79999999999995</ele><time>2026-04-19T09:55:12.008Z</time></trkpt><trkpt lat="44.9190167" lon="9.1138117"><ele>403.6</ele><time>2026-04-19T09:55:14.009Z</time></trkpt><trkpt lat="44.91905" lon="9.113945"><ele>406.4</ele><time>2026-04-19T09:55:16.009Z</time></trkpt><trkpt lat="44.9190517" lon="9.1140783"><ele>409.20000000000005</ele><time>2026-04-19T09:55:18.009Z</time></trkpt><trkpt lat="44.9190167" lon="9.1142533"><ele>412.0</ele><time>2026-04-19T09:55:20.009Z</time></trkpt><trkpt lat="44.918985" lon="9.1143633"><ele>412.00000000000006</ele><time>2026-04-19T09:55:21.009Z</time></trkpt><trkpt lat="44.91897" lon="9.114475"><ele>412.0</ele><time>2026-04-19T09:55:22.008Z</time></trkpt><trkpt lat="44.9189567" lon="9.1145833"><ele>412.0</ele><time>2026-04-19T09:55:23.009Z</time></trkpt><trkpt lat="44.9189617" lon="9.1146767"><ele>412.0</ele><time>2026-04-19T09:55:24.008Z</time></trkpt><trkpt lat="44.9189783" lon="9.1148117"><ele>412.00000000000006</ele><time>2026-04-19T09:55:26.008Z</time></trkpt><trkpt lat="44.91899" lon="9.1149567"><ele>412.0</ele><time>2026-04-19T09:55:39.009Z</time></trkpt><trkpt lat="44.919065" lon="9.11506"><ele>412.0</ele><time>2026-04-19T09:55:41.008Z</time></trkpt><trkpt lat="44.9191367" lon="9.11516"><ele>412.0</ele><time>2026-04-19T09:55:43.009Z</time></trkpt><trkpt lat="44.9191683" lon="9.11524"><ele>412.0</ele><time>2026-04-19T09:55:45.009Z</time></trkpt><trkpt lat="44.9191183" lon="9.11517"><ele>412.0</ele><time>2026-04-19T09:56:05.008Z</time></trkpt><trkpt lat="44.91902" lon="9.1150017"><ele>412.0</ele><time>2026-04-19T09:56:19.009Z</time></trkpt><trkpt lat="44.9189433" lon="9.1148883"><ele>412.0</ele><time>2026-04-19T09:56:33.008Z</time></trkpt><trkpt lat="44.9188833" lon="9.1147917"><ele>412.0</ele><time>2026-04-19T09:56:35.009Z</time></trkpt><trkpt lat="44.91887" lon="9.1146867"><ele>412.0</ele><time>2026-04-19T09:56:37.008Z</time></trkpt><trkpt lat="44.9188717" lon="9.1145467"><ele>412.0</ele><time>2026-04-19T09:56:39.008Z</time></trkpt><trkpt lat="44.91885" lon="9.114405"><ele>412.0</ele><time>2026-04-19T09:56:41.009Z</time></trkpt><trkpt lat="44.9188317" lon="9.114265"><ele>412.00000000000006</ele><time>2026-04-19T09:56:43.009Z</time></trkpt><trkpt lat="44.91881" lon="9.1141417"><ele>412.0</ele><time>2026-04-19T09:56:45.008Z</time></trkpt><trkpt lat="44.91879" lon="9.1140567"><ele>412.0</ele><time>2026-04-19T09:56:47.009Z</time></trkpt><trkpt lat="44.9187517" lon="9.113975"><ele>412.0</ele><time>2026-04-19T09:56:50.009Z</time></trkpt><trkpt lat="44.9187" lon="9.1138967"><ele>412.00000000000006</ele><time>2026-04-19T09:56:52.008Z</time></trkpt><trkpt lat="44.9186417" lon="9.11383"><ele>412.0</ele><time>2026-04-19T09:56:54.009Z</time></trkpt><trkpt lat="44.9185833" lon="9.113745"><ele>412.00000000000006</ele><time>2026-04-19T09:56:57.009Z</time></trkpt><trkpt lat="44.9185067" lon="9.1137033"><ele>412.0</ele><time>2026-04-19T09:57:00.009Z</time></trkpt><trkpt lat="44.9184433" lon="9.1136733"><ele>412.0</ele><time>2026-04-19T09:57:02.008Z</time></trkpt><trkpt lat="44.9183617" lon="9.1136867"><ele>412.0</ele><time>2026-04-19T09:57:05.009Z</time></trkpt><trkpt lat="44.9182817" lon="9.11373"><ele>412.00000000000006</ele><time>2026-04-19T09:57:09.009Z</time></trkpt><trkpt lat="44.9182133" lon="9.11377"><ele>412.0</ele><time>2026-04-19T09:57:12.009Z</time></trkpt><trkpt lat="44.9181433" lon="9.11381"><ele>414.00000000000006</ele><time>2026-04-19T09:57:15.009Z</time></trkpt><trkpt lat="44.9180417" lon="9.11387"><ele>416.0</ele><time>2026-04-19T09:57:29.009Z</time></trkpt><trkpt lat="44.9179683" lon="9.1139033"><ele>418.0</ele><time>2026-04-19T09:57:30.008Z</time></trkpt><trkpt lat="44.9178917" lon="9.1139417"><ele>420.0</ele><time>2026-04-19T09:57:31.009Z</time></trkpt><trkpt lat="44.91781" lon="9.1139833"><ele>422.00000000000006</ele><time>2026-04-19T09:57:32.009Z</time></trkpt><trkpt lat="44.917735" lon="9.11403"><ele>424.0</ele><time>2026-04-19T09:57:33.009Z</time></trkpt><trkpt lat="44.917665" lon="9.1140683"><ele>424.33333333333337</ele><time>2026-04-19T09:57:34.009Z</time></trkpt><trkpt lat="44.91761" lon="9.1141267"><ele>424.6666666666667</ele><time>2026-04-19T09:57:35.009Z</time></trkpt><trkpt lat="44.917565" lon="9.114195"><ele>425.0</ele><time>2026-04-19T09:57:36.009Z</time></trkpt><trkpt lat="44.91753" lon="9.1143633"><ele>425.33333333333337</ele><time>2026-04-19T09:57:38.008Z</time></trkpt><trkpt lat="44.9175283" lon="9.114455"><ele>425.6666666666667</ele><time>2026-04-19T09:57:39.009Z</time></trkpt><trkpt lat="44.9175233" lon="9.114555"><ele>426.0</ele><time>2026-04-19T09:57:40.009Z</time></trkpt><trkpt lat="44.917515" lon="9.1146683"><ele>423.6666666666667</ele><time>2026-04-19T09:57:41.009Z</time></trkpt><trkpt lat="44.9175017" lon="9.1147867"><ele>421.33333333333337</ele><time>2026-04-19T09:57:42.009Z</time></trkpt><trkpt lat="44.9174917" lon="9.1149"><ele>419.0</ele><time>2026-04-19T09:57:43.009Z</time></trkpt><trkpt lat="44.9174833" lon="9.1150133"><ele>416.6666666666667</ele><time>2026-04-19T09:57:44.009Z</time></trkpt><trkpt lat="44.9174633" lon="9.1151317"><ele>414.33333333333337</ele><time>2026-04-19T09:57:45.009Z</time></trkpt><trkpt lat="44.917465" lon="9.1152633"><ele>412.0</ele><time>2026-04-19T09:57:46.008Z</time></trkpt><trkpt lat="44.91747" lon="9.1154017"><ele>412.0</ele><time>2026-04-19T09:57:47.008Z</time></trkpt><trkpt lat="44.9174783" lon="9.1155433"><ele>412.0</ele><time>2026-04-19T09:57:48.008Z</time></trkpt><trkpt lat="44.9174767" lon="9.1156983"><ele>412.0</ele><time>2026-04-19T09:57:49.009Z</time></trkpt><trkpt lat="44.9174733" lon="9.115845"><ele>412.0</ele><time>2026-04-19T09:57:50.009Z</time></trkpt><trkpt lat="44.9174733" lon="9.115985"><ele>412.0</ele><time>2026-04-19T09:57:51.009Z</time></trkpt><trkpt lat="44.9174717" lon="9.1161117"><ele>411.50000000000006</ele><time>2026-04-19T09:57:52.008Z</time></trkpt><trkpt lat="44.9174667" lon="9.116225"><ele>411.0</ele><time>2026-04-19T09:57:53.009Z</time></trkpt><trkpt lat="44.9174717" lon="9.1163517"><ele>410.5</ele><time>2026-04-19T09:57:54.009Z</time></trkpt><trkpt lat="44.917495" lon="9.1164533"><ele>410.0</ele><time>2026-04-19T09:57:55.008Z</time></trkpt><trkpt lat="44.9175317" lon="9.1165567"><ele>409.50000000000006</ele><time>2026-04-19T09:57:56.009Z</time></trkpt><trkpt lat="44.9175817" lon="9.1166533"><ele>409.0</ele><time>2026-04-19T09:57:57.009Z</time></trkpt><trkpt lat="44.91763" lon="9.116755"><ele>413.79999999999995</ele><time>2026-04-19T09:57:58.008Z</time></trkpt><trkpt lat="44.9176617" lon="9.1168733"><ele>418.59999999999997</ele><time>2026-04-19T09:57:59.008Z</time></trkpt><trkpt lat="44.917685" lon="9.1169967"><ele>423.4</ele><time>2026-04-19T09:58:00.009Z</time></trkpt><trkpt lat="44.9177067" lon="9.1171117"><ele>428.2</ele><time>2026-04-19T09:58:01.008Z</time></trkpt><trkpt lat="44.91772" lon="9.1172433"><ele>433.0</ele><time>2026-04-19T09:58:02.009Z</time></trkpt><trkpt lat="44.91774" lon="9.1173817"><ele>431.2</ele><time>2026-04-19T09:58:03.008Z</time></trkpt><trkpt lat="44.917745" lon="9.1175217"><ele>429.4</ele><time>2026-04-19T09:58:04.009Z</time></trkpt><trkpt lat="44.9177533" lon="9.1176783"><ele>427.59999999999997</ele><time>2026-04-19T09:58:05.008Z</time></trkpt><trkpt lat="44.917755" lon="9.1178283"><ele>425.79999999999995</ele><time>2026-04-19T09:58:06.009Z</time></trkpt><trkpt lat="44.9177417" lon="9.1179767"><ele>424.0</ele><time>2026-04-19T09:58:07.008Z</time></trkpt><trkpt lat="44.91771" lon="9.1181133"><ele>424.6</ele><time>2026-04-19T09:58:08.009Z</time></trkpt><trkpt lat="44.91767" lon="9.118245"><ele>425.2</ele><time>2026-04-19T09:58:09.009Z</time></trkpt><trkpt lat="44.917625" lon="9.1183683"><ele>425.80000000000007</ele><time>2026-04-19T09:58:10.009Z</time></trkpt><trkpt lat="44.91756" lon="9.118495"><ele>426.40000000000003</ele><time>2026-04-19T09:58:11.008Z</time></trkpt><trkpt lat="44.91749" lon="9.1186067"><ele>427.0</ele><time>2026-04-19T09:58:12.009Z</time></trkpt><trkpt lat="44.9174283" lon="9.11872"><ele>421.40000000000003</ele><time>2026-04-19T09:58:13.009Z</time></trkpt><trkpt lat="44.91738" lon="9.1188433"><ele>415.80000000000007</ele><time>2026-04-19T09:58:14.008Z</time></trkpt><trkpt lat="44.9173367" lon="9.1189633"><ele>410.2</ele><time>2026-04-19T09:58:15.009Z</time></trkpt><trkpt lat="44.917295" lon="9.119085"><ele>404.6</ele><time>2026-04-19T09:58:16.009Z</time></trkpt><trkpt lat="44.9172767" lon="9.1192133"><ele>399.0</ele><time>2026-04-19T09:58:17.008Z</time></trkpt><trkpt lat="44.9172767" lon="9.1193433"><ele>399.0</ele><time>2026-04-19T09:58:18.009Z</time></trkpt><trkpt lat="44.9172983" lon="9.1194733"><ele>399.0</ele><time>2026-04-19T09:58:19.008Z</time></trkpt><trkpt lat="44.91734" lon="9.1195917"><ele>399.0</ele><time>2026-04-19T09:58:20.009Z</time></trkpt><trkpt lat="44.9174117" lon="9.1197117"><ele>399.0</ele><time>2026-04-19T09:58:21.009Z</time></trkpt><trkpt lat="44.9175017" lon="9.1198183"><ele>399.0</ele><time>2026-04-19T09:58:22.009Z</time></trkpt><trkpt lat="44.9175883" lon="9.11991"><ele>403.6</ele><time>2026-04-19T09:58:23.009Z</time></trkpt><trkpt lat="44.9176617" lon="9.1199867"><ele>408.2</ele><time>2026-04-19T09:58:24.009Z</time></trkpt><trkpt lat="44.917715" lon="9.1200617"><ele>412.8</ele><time>2026-04-19T09:58:25.009Z</time></trkpt><trkpt lat="44.9177567" lon="9.1202"><ele>417.40000000000003</ele><time>2026-04-19T09:58:27.009Z</time></trkpt><trkpt lat="44.9176967" lon="9.1203633"><ele>422.0</ele><time>2026-04-19T09:58:29.009Z</time></trkpt><trkpt lat="44.9176267" lon="9.1204467"><ele>416.0</ele><time>2026-04-19T09:58:30.008Z</time></trkpt><trkpt lat="44.9175517" lon="9.1205367"><ele>410.0</ele><time>2026-04-19T09:58:31.009Z</time></trkpt><trkpt lat="44.91748" lon="9.1206233"><ele>404.0</ele><time>2026-04-19T09:58:32.008Z</time></trkpt><trkpt lat="44.9174067" lon="9.120715"><ele>398.0</ele><time>2026-04-19T09:58:33.009Z</time></trkpt><trkpt lat="44.9173433" lon="9.1208233"><ele>392.0</ele><time>2026-04-19T09:58:34.009Z</time></trkpt><trkpt lat="44.91728" lon="9.12093"><ele>391.6</ele><time>2026-04-19T09:58:35.009Z</time></trkpt><trkpt lat="44.917235" lon="9.1210583"><ele>391.20000000000005</ele><time>2026-04-19T09:58:36.008Z</time></trkpt><trkpt lat="44.9171833" lon="9.1211583"><ele>390.8</ele><time>2026-04-19T09:58:37.008Z</time></trkpt><trkpt lat="44.917135" lon="9.121265"><ele>390.4</ele><time>2026-04-19T09:58:38.008Z</time></trkpt><trkpt lat="44.9170917" lon="9.1213783"><ele>390.0</ele><time>2026-04-19T09:58:39.008Z</time></trkpt><trkpt lat="44.91705" lon="9.1214767"><ele>391.6666666666667</ele><time>2026-04-19T09:58:40.009Z</time></trkpt><trkpt lat="44.9170083" lon="9.1215817"><ele>393.33333333333337</ele><time>2026-04-19T09:58:41.009Z</time></trkpt><trkpt lat="44.91698" lon="9.1216983"><ele>395.0</ele><time>2026-04-19T09:58:42.008Z</time></trkpt><trkpt lat="44.9169733" lon="9.1218117"><ele>396.6666666666667</ele><time>2026-04-19T09:58:43.008Z</time></trkpt><trkpt lat="44.9169783" lon="9.12194"><ele>398.33333333333337</ele><time>2026-04-19T09:58:44.009Z</time></trkpt><trkpt lat="44.9169717" lon="9.1220833"><ele>400.0</ele><time>2026-04-19T09:58:45.008Z</time></trkpt><trkpt lat="44.9169483" lon="9.1222367"><ele>400.0</ele><time>2026-04-19T09:58:46.008Z</time></trkpt><trkpt lat="44.9169417" lon="9.1223717"><ele>400.0</ele><time>2026-04-19T09:58:47.009Z</time></trkpt><trkpt lat="44.9169467" lon="9.1225033"><ele>400.0</ele><time>2026-04-19T09:58:48.008Z</time></trkpt><trkpt lat="44.9169733" lon="9.1226217"><ele>400.0</ele><time>2026-04-19T09:58:49.009Z</time></trkpt><trkpt lat="44.9170267" lon="9.12275"><ele>400.0</ele><time>2026-04-19T09:58:50.008Z</time></trkpt><trkpt lat="44.91708" lon="9.1228733"><ele>400.1666666666667</ele><time>2026-04-19T09:58:51.009Z</time></trkpt><trkpt lat="44.917115" lon="9.1229783"><ele>400.33333333333337</ele><time>2026-04-19T09:58:52.009Z</time></trkpt><trkpt lat="44.9171333" lon="9.123085"><ele>400.5</ele><time>2026-04-19T09:58:53.008Z</time></trkpt><trkpt lat="44.9171383" lon="9.12319"><ele>400.66666666666663</ele><time>2026-04-19T09:58:54.009Z</time></trkpt><trkpt lat="44.91712" lon="9.1232883"><ele>400.8333333333333</ele><time>2026-04-19T09:58:55.009Z</time></trkpt><trkpt lat="44.917085" lon="9.1233783"><ele>401.0</ele><time>2026-04-19T09:58:56.009Z</time></trkpt><trkpt lat="44.9170267" lon="9.1235083"><ele>399.8</ele><time>2026-04-19T09:58:58.009Z</time></trkpt><trkpt lat="44.9169833" lon="9.12358"><ele>398.6</ele><time>2026-04-19T09:59:00.009Z</time></trkpt><trkpt lat="44.916935" lon="9.123685"><ele>397.4</ele><time>2026-04-19T10:00:09.007Z</time></trkpt><trkpt lat="44.91686" lon="9.1238383"><ele>396.2</ele><time>2026-04-19T10:00:11.008Z</time></trkpt><trkpt lat="44.9168267" lon="9.1239483"><ele>395.0</ele><time>2026-04-19T10:00:12.008Z</time></trkpt><trkpt lat="44.91679" lon="9.1240583"><ele>395.16666666666663</ele><time>2026-04-19T10:00:13.008Z</time></trkpt><trkpt lat="44.9167517" lon="9.124155"><ele>395.3333333333333</ele><time>2026-04-19T10:00:14.008Z</time></trkpt><trkpt lat="44.9167183" lon="9.1242367"><ele>395.5</ele><time>2026-04-19T10:00:15.008Z</time></trkpt><trkpt lat="44.916665" lon="9.12439"><ele>395.66666666666663</ele><time>2026-04-19T10:00:17.008Z</time></trkpt><trkpt lat="44.91666" lon="9.1244833"><ele>395.8333333333333</ele><time>2026-04-19T10:00:18.008Z</time></trkpt><trkpt lat="44.916665" lon="9.1245833"><ele>396.0</ele><time>2026-04-19T10:00:19.008Z</time></trkpt><trkpt lat="44.91667" lon="9.1246883"><ele>392.14285714285717</ele><time>2026-04-19T10:00:20.007Z</time></trkpt><trkpt lat="44.9166733" lon="9.1247917"><ele>388.2857142857143</ele><time>2026-04-19T10:00:21.007Z</time></trkpt><trkpt lat="44.91667" lon="9.1249033"><ele>384.42857142857144</ele><time>2026-04-19T10:00:22.008Z</time></trkpt><trkpt lat="44.916645" lon="9.1250117"><ele>380.57142857142856</ele><time>2026-04-19T10:00:23.008Z</time></trkpt><trkpt lat="44.91661" lon="9.1251017"><ele>376.71428571428567</ele><time>2026-04-19T10:00:24.007Z</time></trkpt><trkpt lat="44.91656" lon="9.12517"><ele>372.85714285714283</ele><time>2026-04-19T10:00:25.007Z</time></trkpt><trkpt lat="44.9165017" lon="9.125205"><ele>369.0</ele><time>2026-04-19T10:00:26.007Z</time></trkpt><trkpt lat="44.9164333" lon="9.1252233"><ele>368.0</ele><time>2026-04-19T10:00:27.007Z</time></trkpt><trkpt lat="44.9163517" lon="9.1252233"><ele>367.0</ele><time>2026-04-19T10:00:28.008Z</time></trkpt><trkpt lat="44.9162617" lon="9.12522"><ele>366.0</ele><time>2026-04-19T10:00:29.008Z</time></trkpt><trkpt lat="44.9161667" lon="9.1252033"><ele>365.0</ele><time>2026-04-19T10:00:30.008Z</time></trkpt><trkpt lat="44.9160767" lon="9.1252"><ele>364.0</ele><time>2026-04-19T10:00:31.007Z</time></trkpt><trkpt lat="44.9159783" lon="9.1252183"><ele>361.0</ele><time>2026-04-19T10:00:32.007Z</time></trkpt><trkpt lat="44.9158833" lon="9.125255"><ele>358.0</ele><time>2026-04-19T10:00:33.008Z</time></trkpt><trkpt lat="44.9158067" lon="9.125315"><ele>355.0</ele><time>2026-04-19T10:00:34.008Z</time></trkpt><trkpt lat="44.9157433" lon="9.1253967"><ele>352.0</ele><time>2026-04-19T10:00:35.008Z</time></trkpt><trkpt lat="44.9156983" lon="9.1254967"><ele>349.0</ele><time>2026-04-19T10:00:36.008Z</time></trkpt><trkpt lat="44.9156683" lon="9.12561"><ele>346.0</ele><time>2026-04-19T10:00:37.007Z</time></trkpt><trkpt lat="44.9156367" lon="9.1257233"><ele>346.4</ele><time>2026-04-19T10:00:38.008Z</time></trkpt><trkpt lat="44.915605" lon="9.1258383"><ele>346.8</ele><time>2026-04-19T10:00:39.007Z</time></trkpt><trkpt lat="44.9155733" lon="9.1259633"><ele>347.2</ele><time>2026-04-19T10:00:40.008Z</time></trkpt><trkpt lat="44.9155283" lon="9.1260817"><ele>347.59999999999997</ele><time>2026-04-19T10:00:41.008Z</time></trkpt><trkpt lat="44.915465" lon="9.126175"><ele>348.0</ele><time>2026-04-19T10:00:42.008Z</time></trkpt><trkpt lat="44.9153933" lon="9.1262467"><ele>348.0</ele><time>2026-04-19T10:00:43.008Z</time></trkpt><trkpt lat="44.9152983" lon="9.1262933"><ele>348.0</ele><time>2026-04-19T10:00:44.008Z</time></trkpt><trkpt lat="44.9151983" lon="9.1263383"><ele>348.0</ele><time>2026-04-19T10:00:45.008Z</time></trkpt><trkpt lat="44.9150983" lon="9.1263817"><ele>348.0</ele><time>2026-04-19T10:00:46.008Z</time></trkpt><trkpt lat="44.9149967" lon="9.1264333"><ele>348.0</ele><time>2026-04-19T10:00:47.008Z</time></trkpt><trkpt lat="44.9148867" lon="9.1264767"><ele>345.2</ele><time>2026-04-19T10:00:48.008Z</time></trkpt><trkpt lat="44.91479" lon="9.1265167"><ele>342.4</ele><time>2026-04-19T10:00:49.008Z</time></trkpt><trkpt lat="44.9146917" lon="9.1265517"><ele>339.59999999999997</ele><time>2026-04-19T10:00:50.008Z</time></trkpt><trkpt lat="44.9145933" lon="9.1265867"><ele>336.79999999999995</ele><time>2026-04-19T10:00:51.008Z</time></trkpt><trkpt lat="44.9145017" lon="9.1266183"><ele>334.0</ele><time>2026-04-19T10:00:52.008Z</time></trkpt><trkpt lat="44.9144333" lon="9.1266633"><ele>334.0</ele><time>2026-04-19T10:00:53.007Z</time></trkpt><trkpt lat="44.9143383" lon="9.1267667"><ele>334.0</ele><time>2026-04-19T10:00:55.007Z</time></trkpt><trkpt lat="44.9143117" lon="9.1268483"><ele>334.0</ele><time>2026-04-19T10:00:56.008Z</time></trkpt><trkpt lat="44.91429" lon="9.1269433"><ele>334.0</ele><time>2026-04-19T10:00:57.007Z</time></trkpt><trkpt lat="44.91428" lon="9.1270467"><ele>334.0</ele><time>2026-04-19T10:00:58.008Z</time></trkpt><trkpt lat="44.9142883" lon="9.127155"><ele>334.0</ele><time>2026-04-19T10:00:59.007Z</time></trkpt><trkpt lat="44.9142933" lon="9.12725"><ele>334.0</ele><time>2026-04-19T10:01:00.008Z</time></trkpt><trkpt lat="44.9142967" lon="9.127365"><ele>334.0</ele><time>2026-04-19T10:01:02.007Z</time></trkpt><trkpt lat="44.9142817" lon="9.1274867"><ele>334.0</ele><time>2026-04-19T10:01:05.008Z</time></trkpt><trkpt lat="44.9142267" lon="9.1276267"><ele>334.0</ele><time>2026-04-19T10:01:07.008Z</time></trkpt><trkpt lat="44.91417" lon="9.1277333"><ele>334.0</ele><time>2026-04-19T10:01:08.007Z</time></trkpt><trkpt lat="44.9141083" lon="9.12784"><ele>333.0</ele><time>2026-04-19T10:01:09.008Z</time></trkpt><trkpt lat="44.9140517" lon="9.1279283"><ele>332.0</ele><time>2026-04-19T10:01:10.008Z</time></trkpt><trkpt lat="44.913965" lon="9.1280183"><ele>331.0</ele><time>2026-04-19T10:01:12.007Z</time></trkpt><trkpt lat="44.9138983" lon="9.128035"><ele>330.0</ele><time>2026-04-19T10:01:14.007Z</time></trkpt><trkpt lat="44.9138717" lon="9.1281267"><ele>329.0</ele><time>2026-04-19T10:01:18.008Z</time></trkpt><trkpt lat="44.9138867" lon="9.1282183"><ele>328.0</ele><time>2026-04-19T10:01:35.008Z</time></trkpt><trkpt lat="44.9138867" lon="9.1283283"><ele>326.8333333333333</ele><time>2026-04-19T10:01:37.008Z</time></trkpt><trkpt lat="44.9138633" lon="9.1284767"><ele>325.66666666666663</ele><time>2026-04-19T10:01:39.008Z</time></trkpt><trkpt lat="44.91385" lon="9.128615"><ele>324.5</ele><time>2026-04-19T10:01:41.007Z</time></trkpt><trkpt lat="44.9138367" lon="9.128705"><ele>323.3333333333333</ele><time>2026-04-19T10:01:43.007Z</time></trkpt><trkpt lat="44.9138367" lon="9.1287967"><ele>322.1666666666667</ele><time>2026-04-19T10:01:45.007Z</time></trkpt><trkpt lat="44.9137867" lon="9.1289133"><ele>321.0</ele><time>2026-04-19T10:01:47.007Z</time></trkpt><trkpt lat="44.91374" lon="9.1289833"><ele>321.0</ele><time>2026-04-19T10:01:48.007Z</time></trkpt><trkpt lat="44.91368" lon="9.1290467"><ele>321.0</ele><time>2026-04-19T10:01:49.008Z</time></trkpt><trkpt lat="44.9136083" lon="9.12911"><ele>321.0</ele><time>2026-04-19T10:01:50.007Z</time></trkpt><trkpt lat="44.9135417" lon="9.1291683"><ele>321.0</ele><time>2026-04-19T10:01:51.008Z</time></trkpt><trkpt lat="44.9134833" lon="9.1292267"><ele>321.0</ele><time>2026-04-19T10:01:52.008Z</time></trkpt><trkpt lat="44.9134183" lon="9.1293667"><ele>321.0</ele><time>2026-04-19T10:01:54.008Z</time></trkpt><trkpt lat="44.9133767" lon="9.1295217"><ele>320.6666666666667</ele><time>2026-04-19T10:01:56.008Z</time></trkpt><trkpt lat="44.9133733" lon="9.1296133"><ele>320.3333333333333</ele><time>2026-04-19T10:01:57.007Z</time></trkpt><trkpt lat="44.9134067" lon="9.1297483"><ele>320.0</ele><time>2026-04-19T10:01:59.008Z</time></trkpt><trkpt lat="44.9135117" lon="9.1297033"><ele>319.66666666666663</ele><time>2026-04-19T10:02:01.007Z</time></trkpt><trkpt lat="44.91358" lon="9.12965"><ele>319.3333333333333</ele><time>2026-04-19T10:02:02.008Z</time></trkpt><trkpt lat="44.9136383" lon="9.1296083"><ele>319.0</ele><time>2026-04-19T10:02:03.008Z</time></trkpt><trkpt lat="44.91376" lon="9.12962"><ele>320.3333333333333</ele><time>2026-04-19T10:02:05.007Z</time></trkpt><trkpt lat="44.9137967" lon="9.1296933"><ele>321.66666666666663</ele><time>2026-04-19T10:02:06.007Z</time></trkpt><trkpt lat="44.9138233" lon="9.1297833"><ele>323.0</ele><time>2026-04-19T10:02:07.008Z</time></trkpt><trkpt lat="44.9139033" lon="9.1299017"><ele>324.3333333333333</ele><time>2026-04-19T10:02:09.007Z</time></trkpt><trkpt lat="44.913965" lon="9.1299433"><ele>325.6666666666667</ele><time>2026-04-19T10:02:10.008Z</time></trkpt><trkpt lat="44.9140283" lon="9.1299833"><ele>327.0</ele><time>2026-04-19T10:02:11.008Z</time></trkpt><trkpt lat="44.9140967" lon="9.1300133"><ele>328.40000000000003</ele><time>2026-04-19T10:02:12.008Z</time></trkpt><trkpt lat="44.9142017" lon="9.13008"><ele>329.8</ele><time>2026-04-19T10:02:14.007Z</time></trkpt><trkpt lat="44.9143067" lon="9.1301283"><ele>331.2</ele><time>2026-04-19T10:02:16.007Z</time></trkpt><trkpt lat="44.9144117" lon="9.13017"><ele>332.6</ele><time>2026-04-19T10:02:18.008Z</time></trkpt><trkpt lat="44.91449" lon="9.1302017"><ele>334.0</ele><time>2026-04-19T10:02:20.007Z</time></trkpt><trkpt lat="44.9145583" lon="9.1302217"><ele>335.3333333333333</ele><time>2026-04-19T10:02:22.008Z</time></trkpt><trkpt lat="44.9146267" lon="9.13026"><ele>336.66666666666663</ele><time>2026-04-19T10:02:24.008Z</time></trkpt><trkpt lat="44.9147" lon="9.1302483"><ele>338.0</ele><time>2026-04-19T10:03:19.007Z</time></trkpt><trkpt lat="44.914805" lon="9.1302"><ele>339.3333333333333</ele><time>2026-04-19T10:03:21.008Z</time></trkpt><trkpt lat="44.9148683" lon="9.130175"><ele>340.6666666666667</ele><time>2026-04-19T10:03:22.007Z</time></trkpt><trkpt lat="44.914985" lon="9.1301133"><ele>342.0</ele><time>2026-04-19T10:03:24.007Z</time></trkpt><trkpt lat="44.9150433" lon="9.1300767"><ele>343.8333333333333</ele><time>2026-04-19T10:03:25.007Z</time></trkpt><trkpt lat="44.915105" lon="9.1300467"><ele>345.6666666666667</ele><time>2026-04-19T10:03:26.007Z</time></trkpt><trkpt lat="44.9152283" lon="9.1299783"><ele>347.5</ele><time>2026-04-19T10:03:28.008Z</time></trkpt><trkpt lat="44.9152967" lon="9.1299533"><ele>349.33333333333337</ele><time>2026-04-19T10:03:29.007Z</time></trkpt><trkpt lat="44.915365" lon="9.1299183"><ele>351.1666666666667</ele><time>2026-04-19T10:03:30.008Z</time></trkpt><trkpt lat="44.9154283" lon="9.12987"><ele>353.0</ele><time>2026-04-19T10:03:31.008Z</time></trkpt><trkpt lat="44.915495" lon="9.12983"><ele>353.0</ele><time>2026-04-19T10:03:32.007Z</time></trkpt><trkpt lat="44.9155983" lon="9.129835"><ele>353.0</ele><time>2026-04-19T10:03:34.008Z</time></trkpt><trkpt lat="44.9156533" lon="9.1298983"><ele>353.0</ele><time>2026-04-19T10:03:35.008Z</time></trkpt><trkpt lat="44.9157017" lon="9.12999"><ele>353.0</ele><time>2026-04-19T10:03:36.007Z</time></trkpt><trkpt lat="44.9157583" lon="9.13008"><ele>353.0</ele><time>2026-04-19T10:03:37.007Z</time></trkpt><trkpt lat="44.9158183" lon="9.1301717"><ele>353.0</ele><time>2026-04-19T10:03:38.007Z</time></trkpt><trkpt lat="44.9158767" lon="9.1302567"><ele>355.83333333333337</ele><time>2026-04-19T10:03:39.007Z</time></trkpt><trkpt lat="44.915935" lon="9.1303383"><ele>358.6666666666667</ele><time>2026-04-19T10:03:40.007Z</time></trkpt><trkpt lat="44.91599" lon="9.1304233"><ele>361.5</ele><time>2026-04-19T10:03:41.008Z</time></trkpt><trkpt lat="44.916035" lon="9.1304967"><ele>364.3333333333333</ele><time>2026-04-19T10:03:42.008Z</time></trkpt><trkpt lat="44.916075" lon="9.1305783"><ele>367.16666666666663</ele><time>2026-04-19T10:03:43.007Z</time></trkpt><trkpt lat="44.916125" lon="9.1306717"><ele>370.0</ele><time>2026-04-19T10:03:44.008Z</time></trkpt><trkpt lat="44.916175" lon="9.1307717"><ele>370.0</ele><time>2026-04-19T10:03:45.008Z</time></trkpt><trkpt lat="44.9162217" lon="9.1308917"><ele>370.0</ele><time>2026-04-19T10:03:46.008Z</time></trkpt><trkpt lat="44.9162683" lon="9.13101"><ele>370.0</ele><time>2026-04-19T10:03:47.008Z</time></trkpt><trkpt lat="44.91631" lon="9.1311267"><ele>370.0</ele><time>2026-04-19T10:03:48.007Z</time></trkpt><trkpt lat="44.916355" lon="9.1312317"><ele>370.0</ele><time>2026-04-19T10:03:49.007Z</time></trkpt><trkpt lat="44.9164233" lon="9.1313167"><ele>370.0</ele><time>2026-04-19T10:03:50.008Z</time></trkpt><trkpt lat="44.9165083" lon="9.13138"><ele>370.0</ele><time>2026-04-19T10:03:51.007Z</time></trkpt><trkpt lat="44.9166033" lon="9.13145"><ele>370.0</ele><time>2026-04-19T10:03:52.008Z</time></trkpt><trkpt lat="44.9167033" lon="9.1315283"><ele>370.0</ele><time>2026-04-19T10:03:53.008Z</time></trkpt><trkpt lat="44.9168017" lon="9.1316117"><ele>370.0</ele><time>2026-04-19T10:03:54.008Z</time></trkpt><trkpt lat="44.916905" lon="9.1316867"><ele>371.0</ele><time>2026-04-19T10:03:55.007Z</time></trkpt><trkpt lat="44.9170233" lon="9.1317467"><ele>372.0</ele><time>2026-04-19T10:03:56.008Z</time></trkpt><trkpt lat="44.9171417" lon="9.13181"><ele>373.0</ele><time>2026-04-19T10:03:57.007Z</time></trkpt><trkpt lat="44.9172617" lon="9.1318633"><ele>374.0</ele><time>2026-04-19T10:03:58.008Z</time></trkpt><trkpt lat="44.917375" lon="9.13191"><ele>374.0</ele><time>2026-04-19T10:03:59.006Z</time></trkpt><trkpt lat="44.917475" lon="9.131955"><ele>374.0</ele><time>2026-04-19T10:04:00.007Z</time></trkpt><trkpt lat="44.9175717" lon="9.1319783"><ele>374.0</ele><time>2026-04-19T10:04:01.006Z</time></trkpt><trkpt lat="44.9176617" lon="9.1319817"><ele>374.0</ele><time>2026-04-19T10:04:02.006Z</time></trkpt><trkpt lat="44.9177517" lon="9.131965"><ele>374.0</ele><time>2026-04-19T10:04:03.007Z</time></trkpt><trkpt lat="44.91783" lon="9.1319417"><ele>375.6666666666667</ele><time>2026-04-19T10:04:04.007Z</time></trkpt><trkpt lat="44.9179133" lon="9.13193"><ele>377.33333333333337</ele><time>2026-04-19T10:04:05.006Z</time></trkpt><trkpt lat="44.9180017" lon="9.1319317"><ele>379.0</ele><time>2026-04-19T10:04:06.007Z</time></trkpt><trkpt lat="44.9180867" lon="9.1319333"><ele>380.6666666666667</ele><time>2026-04-19T10:04:07.006Z</time></trkpt><trkpt lat="44.9181683" lon="9.1319433"><ele>382.3333333333333</ele><time>2026-04-19T10:04:08.007Z</time></trkpt><trkpt lat="44.91824" lon="9.1319533"><ele>384.0</ele><time>2026-04-19T10:04:09.006Z</time></trkpt><trkpt lat="44.918315" lon="9.1319717"><ele>384.0</ele><time>2026-04-19T10:04:10.006Z</time></trkpt><trkpt lat="44.918385" lon="9.13203"><ele>384.0</ele><time>2026-04-19T10:04:11.007Z</time></trkpt><trkpt lat="44.9184533" lon="9.1321167"><ele>384.0</ele><time>2026-04-19T10:04:12.007Z</time></trkpt><trkpt lat="44.9185217" lon="9.1322167"><ele>384.0</ele><time>2026-04-19T10:04:13.007Z</time></trkpt><trkpt lat="44.9185817" lon="9.132315"><ele>384.0</ele><time>2026-04-19T10:04:14.007Z</time></trkpt><trkpt lat="44.9186567" lon="9.132405"><ele>383.25</ele><time>2026-04-19T10:04:15.007Z</time></trkpt><trkpt lat="44.91875" lon="9.132485"><ele>382.5</ele><time>2026-04-19T10:04:16.007Z</time></trkpt><trkpt lat="44.9188567" lon="9.1325633"><ele>381.75</ele><time>2026-04-19T10:04:17.007Z</time></trkpt><trkpt lat="44.918965" lon="9.1326283"><ele>381.0</ele><time>2026-04-19T10:04:18.007Z</time></trkpt><trkpt lat="44.9190833" lon="9.1326967"><ele>381.0</ele><time>2026-04-19T10:04:19.007Z</time></trkpt><trkpt lat="44.919205" lon="9.13276"><ele>381.0</ele><time>2026-04-19T10:04:20.006Z</time></trkpt><trkpt lat="44.9193267" lon="9.1328167"><ele>381.0</ele><time>2026-04-19T10:04:21.006Z</time></trkpt><trkpt lat="44.9194433" lon="9.132875"><ele>381.0</ele><time>2026-04-19T10:04:22.006Z</time></trkpt><trkpt lat="44.91956" lon="9.13295"><ele>381.25</ele><time>2026-04-19T10:04:23.007Z</time></trkpt><trkpt lat="44.91968" lon="9.133035"><ele>381.5</ele><time>2026-04-19T10:04:24.006Z</time></trkpt><trkpt lat="44.9198" lon="9.13312"><ele>381.75</ele><time>2026-04-19T10:04:25.007Z</time></trkpt><trkpt lat="44.9199033" lon="9.133225"><ele>382.0</ele><time>2026-04-19T10:04:26.007Z</time></trkpt><trkpt lat="44.9199917" lon="9.1333367"><ele>381.40000000000003</ele><time>2026-04-19T10:04:27.006Z</time></trkpt><trkpt lat="44.92008" lon="9.1334617"><ele>380.8</ele><time>2026-04-19T10:04:28.006Z</time></trkpt><trkpt lat="44.920155" lon="9.1335683"><ele>380.2</ele><time>2026-04-19T10:04:29.006Z</time></trkpt><trkpt lat="44.9202183" lon="9.1336633"><ele>379.6</ele><time>2026-04-19T10:04:30.007Z</time></trkpt><trkpt lat="44.9202867" lon="9.1337333"><ele>379.0</ele><time>2026-04-19T10:04:31.007Z</time></trkpt><trkpt lat="44.920345" lon="9.1337833"><ele>379.0</ele><time>2026-04-19T10:04:32.007Z</time></trkpt><trkpt lat="44.9204467" lon="9.133845"><ele>379.0</ele><time>2026-04-19T10:04:34.007Z</time></trkpt><trkpt lat="44.9205217" lon="9.13387"><ele>379.0</ele><time>2026-04-19T10:04:36.006Z</time></trkpt><trkpt lat="44.92064" lon="9.1338917"><ele>379.0</ele><time>2026-04-19T10:04:51.007Z</time></trkpt><trkpt lat="44.92072" lon="9.1339217"><ele>379.0</ele><time>2026-04-19T10:04:52.006Z</time></trkpt><trkpt lat="44.9207933" lon="9.133965"><ele>379.0</ele><time>2026-04-19T10:04:53.007Z</time></trkpt><trkpt lat="44.9208767" lon="9.134005"><ele>379.0</ele><time>2026-04-19T10:04:54.006Z</time></trkpt><trkpt lat="44.9209517" lon="9.1340467"><ele>379.0</ele><time>2026-04-19T10:04:55.006Z</time></trkpt><trkpt lat="44.9210317" lon="9.1340817"><ele>379.0</ele><time>2026-04-19T10:04:56.006Z</time></trkpt><trkpt lat="44.9211067" lon="9.1341067"><ele>379.0</ele><time>2026-04-19T10:04:57.007Z</time></trkpt><trkpt lat="44.92117" lon="9.1341333"><ele>379.0</ele><time>2026-04-19T10:04:58.007Z</time></trkpt><trkpt lat="44.9212333" lon="9.1341683"><ele>379.3333333333333</ele><time>2026-04-19T10:04:59.007Z</time></trkpt><trkpt lat="44.9213317" lon="9.1342583"><ele>379.66666666666663</ele><time>2026-04-19T10:05:01.006Z</time></trkpt><trkpt lat="44.9213867" lon="9.1343133"><ele>380.0</ele><time>2026-04-19T10:05:02.007Z</time></trkpt><trkpt lat="44.921435" lon="9.1343833"><ele>380.3333333333333</ele><time>2026-04-19T10:05:03.007Z</time></trkpt><trkpt lat="44.9214833" lon="9.1344433"><ele>380.6666666666667</ele><time>2026-04-19T10:05:04.006Z</time></trkpt><trkpt lat="44.9215433" lon="9.134555"><ele>381.0</ele><time>2026-04-19T10:05:06.007Z</time></trkpt><trkpt lat="44.9215533" lon="9.13471"><ele>381.0</ele><time>2026-04-19T10:05:08.007Z</time></trkpt><trkpt lat="44.9215533" lon="9.134815"><ele>381.0</ele><time>2026-04-19T10:05:09.006Z</time></trkpt><trkpt lat="44.921565" lon="9.1349217"><ele>381.0</ele><time>2026-04-19T10:05:10.007Z</time></trkpt><trkpt lat="44.9215933" lon="9.135025"><ele>381.0</ele><time>2026-04-19T10:05:11.007Z</time></trkpt><trkpt lat="44.921625" lon="9.1351417"><ele>381.0</ele><time>2026-04-19T10:05:12.007Z</time></trkpt><trkpt lat="44.9216667" lon="9.1352533"><ele>381.0</ele><time>2026-04-19T10:05:13.007Z</time></trkpt><trkpt lat="44.9216967" lon="9.1353683"><ele>382.6666666666667</ele><time>2026-04-19T10:05:14.007Z</time></trkpt><trkpt lat="44.9217267" lon="9.1354683"><ele>384.33333333333337</ele><time>2026-04-19T10:05:15.007Z</time></trkpt><trkpt lat="44.921765" lon="9.13557"><ele>386.0</ele><time>2026-04-19T10:05:16.006Z</time></trkpt><trkpt lat="44.9217933" lon="9.135665"><ele>387.6666666666667</ele><time>2026-04-19T10:05:17.007Z</time></trkpt><trkpt lat="44.9218283" lon="9.135755"><ele>389.33333333333337</ele><time>2026-04-19T10:05:18.007Z</time></trkpt><trkpt lat="44.9218667" lon="9.135845"><ele>391.0</ele><time>2026-04-19T10:05:19.006Z</time></trkpt><trkpt lat="44.9218933" lon="9.1359483"><ele>391.20000000000005</ele><time>2026-04-19T10:05:20.006Z</time></trkpt><trkpt lat="44.9219517" lon="9.1360717"><ele>391.40000000000003</ele><time>2026-04-19T10:05:22.006Z</time></trkpt><trkpt lat="44.921965" lon="9.1361633"><ele>391.6</ele><time>2026-04-19T10:05:24.007Z</time></trkpt><trkpt lat="44.9219433" lon="9.1363083"><ele>391.8</ele><time>2026-04-19T10:05:26.006Z</time></trkpt><trkpt lat="44.9219233" lon="9.1364817"><ele>392.0</ele><time>2026-04-19T10:05:28.006Z</time></trkpt><trkpt lat="44.92191" lon="9.1365833"><ele>392.0</ele><time>2026-04-19T10:05:29.006Z</time></trkpt><trkpt lat="44.9218883" lon="9.1366783"><ele>392.0</ele><time>2026-04-19T10:05:30.006Z</time></trkpt><trkpt lat="44.92186" lon="9.1367683"><ele>392.0</ele><time>2026-04-19T10:05:31.007Z</time></trkpt><trkpt lat="44.92179" lon="9.1369017"><ele>392.0</ele><time>2026-04-19T10:05:33.006Z</time></trkpt><trkpt lat="44.9217033" lon="9.137055"><ele>392.0</ele><time>2026-04-19T10:05:35.006Z</time></trkpt><trkpt lat="44.9216483" lon="9.1371717"><ele>391.66666666666663</ele><time>2026-04-19T10:05:36.006Z</time></trkpt><trkpt lat="44.9215933" lon="9.1372983"><ele>391.3333333333333</ele><time>2026-04-19T10:05:37.006Z</time></trkpt><trkpt lat="44.9215417" lon="9.1374017"><ele>391.0</ele><time>2026-04-19T10:05:38.007Z</time></trkpt><trkpt lat="44.9215067" lon="9.1374983"><ele>390.66666666666663</ele><time>2026-04-19T10:05:39.006Z</time></trkpt><trkpt lat="44.9214783" lon="9.137595"><ele>390.3333333333333</ele><time>2026-04-19T10:05:40.006Z</time></trkpt><trkpt lat="44.9214617" lon="9.13769"><ele>390.0</ele><time>2026-04-19T10:05:41.007Z</time></trkpt><trkpt lat="44.9214433" lon="9.137795"><ele>389.8333333333333</ele><time>2026-04-19T10:05:42.006Z</time></trkpt><trkpt lat="44.9214383" lon="9.137895"><ele>389.66666666666663</ele><time>2026-04-19T10:05:43.006Z</time></trkpt><trkpt lat="44.9214117" lon="9.137995"><ele>389.5</ele><time>2026-04-19T10:05:44.006Z</time></trkpt><trkpt lat="44.9213933" lon="9.138095"><ele>389.3333333333333</ele><time>2026-04-19T10:05:45.007Z</time></trkpt><trkpt lat="44.9214017" lon="9.1382033"><ele>389.16666666666663</ele><time>2026-04-19T10:05:46.006Z</time></trkpt><trkpt lat="44.9214083" lon="9.13831"><ele>389.0</ele><time>2026-04-19T10:05:47.006Z</time></trkpt><trkpt lat="44.921405" lon="9.1384233"><ele>388.2857142857143</ele><time>2026-04-19T10:05:48.007Z</time></trkpt><trkpt lat="44.9214017" lon="9.1385333"><ele>387.57142857142856</ele><time>2026-04-19T10:05:49.006Z</time></trkpt><trkpt lat="44.9213933" lon="9.138635"><ele>386.85714285714283</ele><time>2026-04-19T10:05:50.007Z</time></trkpt><trkpt lat="44.9213833" lon="9.13873"><ele>386.1428571428571</ele><time>2026-04-19T10:05:51.006Z</time></trkpt><trkpt lat="44.9213567" lon="9.138825"><ele>385.42857142857144</ele><time>2026-04-19T10:05:52.007Z</time></trkpt><trkpt lat="44.9213317" lon="9.1389133"><ele>384.71428571428567</ele><time>2026-04-19T10:05:53.007Z</time></trkpt><trkpt lat="44.9213" lon="9.139005"><ele>384.0</ele><time>2026-04-19T10:05:54.007Z</time></trkpt><trkpt lat="44.9212583" lon="9.1390983"><ele>382.8333333333333</ele><time>2026-04-19T10:05:55.007Z</time></trkpt><trkpt lat="44.9212083" lon="9.1391817"><ele>381.6666666666667</ele><time>2026-04-19T10:05:56.007Z</time></trkpt><trkpt lat="44.92116" lon="9.1392733"><ele>380.5</ele><time>2026-04-19T10:05:57.006Z</time></trkpt><trkpt lat="44.9211117" lon="9.1393683"><ele>379.33333333333337</ele><time>2026-04-19T10:05:58.006Z</time></trkpt><trkpt lat="44.9210717" lon="9.1394733"><ele>378.1666666666667</ele><time>2026-04-19T10:05:59.006Z</time></trkpt><trkpt lat="44.9210183" lon="9.139585"><ele>377.0</ele><time>2026-04-19T10:06:00.007Z</time></trkpt><trkpt lat="44.920965" lon="9.1396917"><ele>377.0</ele><time>2026-04-19T10:06:01.007Z</time></trkpt><trkpt lat="44.920915" lon="9.1397967"><ele>377.0</ele><time>2026-04-19T10:06:02.006Z</time></trkpt><trkpt lat="44.9208567" lon="9.1399067"><ele>377.0</ele><time>2026-04-19T10:06:03.006Z</time></trkpt><trkpt lat="44.9207983" lon="9.140015"><ele>377.0</ele><time>2026-04-19T10:06:04.007Z</time></trkpt><trkpt lat="44.9207367" lon="9.1401217"><ele>377.0</ele><time>2026-04-19T10:06:05.006Z</time></trkpt><trkpt lat="44.9206733" lon="9.1402283"><ele>377.8</ele><time>2026-04-19T10:06:06.007Z</time></trkpt><trkpt lat="44.9205967" lon="9.1403317"><ele>378.6</ele><time>2026-04-19T10:06:07.007Z</time></trkpt><trkpt lat="44.920525" lon="9.1404267"><ele>379.40000000000003</ele><time>2026-04-19T10:06:08.007Z</time></trkpt><trkpt lat="44.92045" lon="9.14052"><ele>380.20000000000005</ele><time>2026-04-19T10:06:09.006Z</time></trkpt><trkpt lat="44.9203817" lon="9.1406167"><ele>381.0</ele><time>2026-04-19T10:06:10.007Z</time></trkpt><trkpt lat="44.9203167" lon="9.140695"><ele>380.6666666666667</ele><time>2026-04-19T10:06:11.007Z</time></trkpt><trkpt lat="44.9202533" lon="9.14078"><ele>380.3333333333333</ele><time>2026-04-19T10:06:12.007Z</time></trkpt><trkpt lat="44.9201883" lon="9.14086"><ele>380.0</ele><time>2026-04-19T10:06:13.007Z</time></trkpt><trkpt lat="44.92014" lon="9.1409467"><ele>379.66666666666663</ele><time>2026-04-19T10:06:14.007Z</time></trkpt><trkpt lat="44.9200883" lon="9.14105"><ele>379.3333333333333</ele><time>2026-04-19T10:06:15.006Z</time></trkpt><trkpt lat="44.9200367" lon="9.1411583"><ele>379.0</ele><time>2026-04-19T10:06:16.006Z</time></trkpt><trkpt lat="44.919975" lon="9.141265"><ele>380.3333333333333</ele><time>2026-04-19T10:06:17.006Z</time></trkpt><trkpt lat="44.9199167" lon="9.14136"><ele>381.66666666666663</ele><time>2026-04-19T10:06:18.006Z</time></trkpt><trkpt lat="44.9198583" lon="9.1414433"><ele>383.0</ele><time>2026-04-19T10:06:19.006Z</time></trkpt><trkpt lat="44.9197983" lon="9.141525"><ele>384.3333333333333</ele><time>2026-04-19T10:06:20.007Z</time></trkpt><trkpt lat="44.91974" lon="9.141605"><ele>385.6666666666667</ele><time>2026-04-19T10:06:21.006Z</time></trkpt><trkpt lat="44.9196917" lon="9.14168"><ele>387.0</ele><time>2026-04-19T10:06:22.007Z</time></trkpt><trkpt lat="44.9196483" lon="9.1417617"><ele>387.3333333333333</ele><time>2026-04-19T10:06:23.007Z</time></trkpt><trkpt lat="44.9196033" lon="9.1418567"><ele>387.66666666666663</ele><time>2026-04-19T10:06:24.007Z</time></trkpt><trkpt lat="44.9195567" lon="9.14195"><ele>388.0</ele><time>2026-04-19T10:06:25.007Z</time></trkpt><trkpt lat="44.91951" lon="9.14205"><ele>388.3333333333333</ele><time>2026-04-19T10:06:26.007Z</time></trkpt><trkpt lat="44.9194717" lon="9.1421467"><ele>388.66666666666663</ele><time>2026-04-19T10:06:27.007Z</time></trkpt><trkpt lat="44.9194383" lon="9.1422417"><ele>389.0</ele><time>2026-04-19T10:06:28.007Z</time></trkpt><trkpt lat="44.91941" lon="9.1423383"><ele>389.4</ele><time>2026-04-19T10:06:29.007Z</time></trkpt><trkpt lat="44.91939" lon="9.142425"><ele>389.79999999999995</ele><time>2026-04-19T10:06:30.006Z</time></trkpt><trkpt lat="44.919345" lon="9.1425583"><ele>390.20000000000005</ele><time>2026-04-19T10:06:32.006Z</time></trkpt><trkpt lat="44.9193017" lon="9.1426867"><ele>390.6</ele><time>2026-04-19T10:06:34.006Z</time></trkpt><trkpt lat="44.9192433" lon="9.1427967"><ele>391.0</ele><time>2026-04-19T10:06:36.006Z</time></trkpt><trkpt lat="44.91917" lon="9.1429183"><ele>391.00000000000006</ele><time>2026-04-19T10:06:38.007Z</time></trkpt><trkpt lat="44.919075" lon="9.1430433"><ele>391.0</ele><time>2026-04-19T10:06:40.007Z</time></trkpt><trkpt lat="44.91901" lon="9.14312"><ele>391.0</ele><time>2026-04-19T10:06:41.007Z</time></trkpt><trkpt lat="44.9189483" lon="9.1431933"><ele>391.0</ele><time>2026-04-19T10:06:42.007Z</time></trkpt><trkpt lat="44.9188917" lon="9.1432633"><ele>391.00000000000006</ele><time>2026-04-19T10:06:43.007Z</time></trkpt><trkpt lat="44.9188317" lon="9.1433317"><ele>391.0</ele><time>2026-04-19T10:06:44.006Z</time></trkpt><trkpt lat="44.91877" lon="9.1434033"><ele>391.50000000000006</ele><time>2026-04-19T10:06:45.007Z</time></trkpt><trkpt lat="44.9187117" lon="9.1434683"><ele>392.0</ele><time>2026-04-19T10:06:46.006Z</time></trkpt><trkpt lat="44.9186483" lon="9.1435267"><ele>392.5</ele><time>2026-04-19T10:06:47.006Z</time></trkpt><trkpt lat="44.91859" lon="9.143565"><ele>393.0</ele><time>2026-04-19T10:06:48.006Z</time></trkpt><trkpt lat="44.9184933" lon="9.1435967"><ele>393.50000000000006</ele><time>2026-04-19T10:06:50.007Z</time></trkpt><trkpt lat="44.918405" lon="9.1436183"><ele>394.0</ele><time>2026-04-19T10:06:52.006Z</time></trkpt><trkpt lat="44.9183433" lon="9.143655"><ele>394.79999999999995</ele><time>2026-04-19T10:07:01.007Z</time></trkpt><trkpt lat="44.9182433" lon="9.143615"><ele>395.59999999999997</ele><time>2026-04-19T10:07:03.006Z</time></trkpt><trkpt lat="44.91814" lon="9.1435633"><ele>396.4</ele><time>2026-04-19T10:07:05.007Z</time></trkpt><trkpt lat="44.9180633" lon="9.143525"><ele>397.2</ele><time>2026-04-19T10:07:07.007Z</time></trkpt><trkpt lat="44.9179833" lon="9.1434533"><ele>398.0</ele><time>2026-04-19T10:07:10.007Z</time></trkpt><trkpt lat="44.91792" lon="9.1433967"><ele>397.99999999999994</ele><time>2026-04-19T10:07:12.006Z</time></trkpt><trkpt lat="44.9178467" lon="9.1433967"><ele>398.0</ele><time>2026-04-19T10:07:35.007Z</time></trkpt><trkpt lat="44.9177833" lon="9.1434017"><ele>398.0</ele><time>2026-04-19T10:07:38.006Z</time></trkpt><trkpt lat="44.9178667" lon="9.143405"><ele>398.0</ele><time>2026-04-19T10:08:00.007Z</time></trkpt><trkpt lat="44.91787" lon="9.1433133"><ele>397.99999999999994</ele><time>2026-04-19T10:09:06.006Z</time></trkpt><trkpt lat="44.9177883" lon="9.1432133"><ele>398.0</ele><time>2026-04-19T10:09:08.006Z</time></trkpt><trkpt lat="44.9177367" lon="9.1431467"><ele>396.16666666666663</ele><time>2026-04-19T10:09:09.006Z</time></trkpt><trkpt lat="44.91768" lon="9.1430783"><ele>394.3333333333333</ele><time>2026-04-19T10:09:10.006Z</time></trkpt><trkpt lat="44.91763" lon="9.14302"><ele>392.5</ele><time>2026-04-19T10:09:11.006Z</time></trkpt><trkpt lat="44.91752" lon="9.142945"><ele>390.66666666666663</ele><time>2026-04-19T10:09:13.006Z</time></trkpt><trkpt lat="44.9174417" lon="9.1428817"><ele>388.8333333333333</ele><time>2026-04-19T10:09:15.005Z</time></trkpt><trkpt lat="44.9173867" lon="9.14277"><ele>387.0</ele><time>2026-04-19T10:09:17.005Z</time></trkpt><trkpt lat="44.917285" lon="9.1427167"><ele>390.6666666666667</ele><time>2026-04-19T10:09:25.006Z</time></trkpt><trkpt lat="44.9172017" lon="9.1427767"><ele>394.33333333333337</ele><time>2026-04-19T10:09:27.005Z</time></trkpt><trkpt lat="44.9171267" lon="9.142785"><ele>398.0</ele><time>2026-04-19T10:09:31.006Z</time></trkpt><trkpt lat="44.9170233" lon="9.1427783"><ele>401.6666666666667</ele><time>2026-04-19T10:09:33.005Z</time></trkpt><trkpt lat="44.9169333" lon="9.142785"><ele>405.33333333333337</ele><time>2026-04-19T10:09:35.006Z</time></trkpt><trkpt lat="44.91686" lon="9.1428283"><ele>409.0</ele><time>2026-04-19T10:09:37.006Z</time></trkpt><trkpt lat="44.9167783" lon="9.142895"><ele>410.0</ele><time>2026-04-19T10:09:39.006Z</time></trkpt><trkpt lat="44.9166767" lon="9.142975"><ele>411.0</ele><time>2026-04-19T10:09:41.006Z</time></trkpt><trkpt lat="44.9166117" lon="9.1430317"><ele>412.0</ele><time>2026-04-19T10:09:42.006Z</time></trkpt><trkpt lat="44.916545" lon="9.1430933"><ele>413.0</ele><time>2026-04-19T10:09:43.005Z</time></trkpt><trkpt lat="44.9164717" lon="9.1431583"><ele>414.0</ele><time>2026-04-19T10:09:44.006Z</time></trkpt><trkpt lat="44.91639" lon="9.1432217"><ele>414.0</ele><time>2026-04-19T10:09:45.006Z</time></trkpt><trkpt lat="44.9163133" lon="9.143275"><ele>414.0</ele><time>2026-04-19T10:09:46.006Z</time></trkpt><trkpt lat="44.9162267" lon="9.143325"><ele>414.0</ele><time>2026-04-19T10:09:47.005Z</time></trkpt><trkpt lat="44.9161533" lon="9.1433717"><ele>414.0</ele><time>2026-04-19T10:09:48.006Z</time></trkpt><trkpt lat="44.916085" lon="9.1434133"><ele>414.0</ele><time>2026-04-19T10:09:49.006Z</time></trkpt><trkpt lat="44.9160167" lon="9.14345"><ele>414.0</ele><time>2026-04-19T10:09:50.006Z</time></trkpt><trkpt lat="44.9159517" lon="9.1434883"><ele>416.1666666666667</ele><time>2026-04-19T10:09:51.005Z</time></trkpt><trkpt lat="44.9158433" lon="9.1435233"><ele>418.33333333333337</ele><time>2026-04-19T10:09:53.005Z</time></trkpt><trkpt lat="44.91578" lon="9.1435567"><ele>420.5</ele><time>2026-04-19T10:09:54.006Z</time></trkpt><trkpt lat="44.9156983" lon="9.1436017"><ele>422.6666666666667</ele><time>2026-04-19T10:09:55.005Z</time></trkpt><trkpt lat="44.9156183" lon="9.143645"><ele>424.83333333333337</ele><time>2026-04-19T10:09:56.005Z</time></trkpt><trkpt lat="44.9155433" lon="9.1436883"><ele>427.0</ele><time>2026-04-19T10:09:57.005Z</time></trkpt><trkpt lat="44.91548" lon="9.1437233"><ele>427.00000000000006</ele><time>2026-04-19T10:09:58.006Z</time></trkpt><trkpt lat="44.9153917" lon="9.1437533"><ele>427.0</ele><time>2026-04-19T10:10:00.006Z</time></trkpt><trkpt lat="44.9153133" lon="9.1437933"><ele>427.0</ele><time>2026-04-19T10:10:09.005Z</time></trkpt><trkpt lat="44.915255" lon="9.1438817"><ele>427.0</ele><time>2026-04-19T10:10:11.006Z</time></trkpt><trkpt lat="44.9152133" lon="9.1439683"><ele>427.00000000000006</ele><time>2026-04-19T10:10:13.006Z</time></trkpt><trkpt lat="44.915185" lon="9.14405"><ele>427.0</ele><time>2026-04-19T10:10:22.006Z</time></trkpt><trkpt lat="44.915125" lon="9.1441633"><ele>427.1666666666667</ele><time>2026-04-19T10:10:24.006Z</time></trkpt><trkpt lat="44.915075" lon="9.1442717"><ele>427.33333333333337</ele><time>2026-04-19T10:10:26.006Z</time></trkpt><trkpt lat="44.9150367" lon="9.1443667"><ele>427.5</ele><time>2026-04-19T10:10:28.005Z</time></trkpt><trkpt lat="44.9149883" lon="9.1444717"><ele>427.66666666666663</ele><time>2026-04-19T10:10:30.006Z</time></trkpt><trkpt lat="44.9149333" lon="9.14458"><ele>427.8333333333333</ele><time>2026-04-19T10:10:32.005Z</time></trkpt><trkpt lat="44.9148883" lon="9.1446833"><ele>428.0</ele><time>2026-04-19T10:10:34.006Z</time></trkpt><trkpt lat="44.914865" lon="9.1447933"><ele>426.4</ele><time>2026-04-19T10:10:36.006Z</time></trkpt><trkpt lat="44.9148433" lon="9.144955"><ele>424.79999999999995</ele><time>2026-04-19T10:12:59.005Z</time></trkpt><trkpt lat="44.9148417" lon="9.1450917"><ele>423.2</ele><time>2026-04-19T10:13:01.005Z</time></trkpt><trkpt lat="44.9148367" lon="9.1451867"><ele>421.6</ele><time>2026-04-19T10:13:02.005Z</time></trkpt><trkpt lat="44.9148183" lon="9.1453"><ele>420.0</ele><time>2026-04-19T10:13:04.005Z</time></trkpt><trkpt lat="44.9148317" lon="9.145105"><ele>420.0</ele><time>2026-04-19T10:13:21.006Z</time></trkpt><trkpt lat="44.9148417" lon="9.1450033"><ele>420.0</ele><time>2026-04-19T10:13:22.006Z</time></trkpt><trkpt lat="44.914855" lon="9.1448767"><ele>420.0</ele><time>2026-04-19T10:13:24.005Z</time></trkpt><trkpt lat="44.9148733" lon="9.14478"><ele>420.0</ele><time>2026-04-19T10:13:27.006Z</time></trkpt><trkpt lat="44.91491" lon="9.14467"><ele>420.0</ele><time>2026-04-19T10:13:36.006Z</time></trkpt><trkpt lat="44.9149483" lon="9.14459"><ele>420.0</ele><time>2026-04-19T10:13:38.006Z</time></trkpt><trkpt lat="44.914985" lon="9.144515"><ele>419.8333333333333</ele><time>2026-04-19T10:13:40.005Z</time></trkpt><trkpt lat="44.9150283" lon="9.1444217"><ele>419.66666666666663</ele><time>2026-04-19T10:13:42.006Z</time></trkpt><trkpt lat="44.9150817" lon="9.1443067"><ele>419.5</ele><time>2026-04-19T10:13:44.005Z</time></trkpt><trkpt lat="44.9151283" lon="9.1442033"><ele>419.3333333333333</ele><time>2026-04-19T10:13:46.005Z</time></trkpt><trkpt lat="44.9151717" lon="9.144105"><ele>419.16666666666663</ele><time>2026-04-19T10:13:48.006Z</time></trkpt><trkpt lat="44.9152167" lon="9.1439883"><ele>419.0</ele><time>2026-04-19T10:13:50.005Z</time></trkpt><trkpt lat="44.915255" lon="9.14386"><ele>420.6</ele><time>2026-04-19T10:13:52.005Z</time></trkpt><trkpt lat="44.915305" lon="9.14377"><ele>422.2</ele><time>2026-04-19T10:13:54.005Z</time></trkpt><trkpt lat="44.91538" lon="9.1437417"><ele>423.80000000000007</ele><time>2026-04-19T10:13:57.005Z</time></trkpt><trkpt lat="44.9154867" lon="9.1437433"><ele>425.40000000000003</ele><time>2026-04-19T10:14:00.004Z</time></trkpt><trkpt lat="44.91556" lon="9.1437117"><ele>427.0</ele><time>2026-04-19T10:14:02.005Z</time></trkpt><trkpt lat="44.915665" lon="9.14367"><ele>427.0</ele><time>2026-04-19T10:14:04.004Z</time></trkpt><trkpt lat="44.915725" lon="9.1436383"><ele>427.00000000000006</ele><time>2026-04-19T10:14:05.005Z</time></trkpt><trkpt lat="44.9158217" lon="9.14359"><ele>427.00000000000006</ele><time>2026-04-19T10:14:07.005Z</time></trkpt><trkpt lat="44.9159167" lon="9.1435583"><ele>427.0</ele><time>2026-04-19T10:14:09.005Z</time></trkpt><trkpt lat="44.9160117" lon="9.1434933"><ele>427.0</ele><time>2026-04-19T10:14:11.005Z</time></trkpt><trkpt lat="44.9161217" lon="9.143425"><ele>425.00000000000006</ele><time>2026-04-19T10:14:13.004Z</time></trkpt><trkpt lat="44.9161783" lon="9.14338"><ele>423.0</ele><time>2026-04-19T10:14:14.005Z</time></trkpt><trkpt lat="44.916235" lon="9.143335"><ele>421.0</ele><time>2026-04-19T10:14:15.004Z</time></trkpt><trkpt lat="44.9162933" lon="9.14329"><ele>419.0</ele><time>2026-04-19T10:14:16.004Z</time></trkpt><trkpt lat="44.9163533" lon="9.1432367"><ele>417.00000000000006</ele><time>2026-04-19T10:14:17.004Z</time></trkpt><trkpt lat="44.91645" lon="9.1431317"><ele>415.0</ele><time>2026-04-19T10:14:19.005Z</time></trkpt><trkpt lat="44.9165517" lon="9.1430083"><ele>415.00000000000006</ele><time>2026-04-19T10:14:21.005Z</time></trkpt><trkpt lat="44.9166083" lon="9.1429633"><ele>415.0</ele><time>2026-04-19T10:14:22.004Z</time></trkpt><trkpt lat="44.91672" lon="9.1428533"><ele>415.0</ele><time>2026-04-19T10:14:24.004Z</time></trkpt><trkpt lat="44.9167833" lon="9.1428017"><ele>415.0</ele><time>2026-04-19T10:14:25.004Z</time></trkpt><trkpt lat="44.916865" lon="9.1427533"><ele>415.00000000000006</ele><time>2026-04-19T10:14:27.005Z</time></trkpt><trkpt lat="44.916935" lon="9.14276"><ele>415.0</ele><time>2026-04-19T10:14:29.004Z</time></trkpt><trkpt lat="44.9170117" lon="9.14277"><ele>414.00000000000006</ele><time>2026-04-19T10:14:31.004Z</time></trkpt><trkpt lat="44.9170783" lon="9.1427917"><ele>413.0</ele><time>2026-04-19T10:14:33.005Z</time></trkpt><trkpt lat="44.91717" lon="9.1427567"><ele>412.0</ele><time>2026-04-19T10:14:36.005Z</time></trkpt><trkpt lat="44.9172217" lon="9.1426933"><ele>411.0</ele><time>2026-04-19T10:14:38.005Z</time></trkpt><trkpt lat="44.9172983" lon="9.1427183"><ele>410.00000000000006</ele><time>2026-04-19T10:14:40.004Z</time></trkpt><trkpt lat="44.9173417" lon="9.1428067"><ele>409.0</ele><time>2026-04-19T10:14:42.004Z</time></trkpt><trkpt lat="44.9173867" lon="9.1429267"><ele>409.0</ele><time>2026-04-19T10:14:44.005Z</time></trkpt><trkpt lat="44.9174667" lon="9.1430067"><ele>409.0</ele><time>2026-04-19T10:14:46.004Z</time></trkpt><trkpt lat="44.9175533" lon="9.1430383"><ele>409.0</ele><time>2026-04-19T10:14:48.005Z</time></trkpt><trkpt lat="44.917625" lon="9.1431"><ele>409.0</ele><time>2026-04-19T10:14:50.004Z</time></trkpt><trkpt lat="44.917705" lon="9.1431883"><ele>409.0</ele><time>2026-04-19T10:14:52.005Z</time></trkpt><trkpt lat="44.9177867" lon="9.14328"><ele>407.4285714285714</ele><time>2026-04-19T10:14:54.005Z</time></trkpt><trkpt lat="44.9178317" lon="9.143355"><ele>405.8571428571429</ele><time>2026-04-19T10:14:56.005Z</time></trkpt><trkpt lat="44.91776" lon="9.1433767"><ele>404.2857142857143</ele><time>2026-04-19T10:15:00.005Z</time></trkpt><trkpt lat="44.9178083" lon="9.143435"><ele>402.71428571428567</ele><time>2026-04-19T10:15:07.005Z</time></trkpt><trkpt lat="44.9178733" lon="9.1434017"><ele>401.1428571428571</ele><time>2026-04-19T10:15:09.004Z</time></trkpt><trkpt lat="44.9179383" lon="9.1434367"><ele>399.57142857142856</ele><time>2026-04-19T10:15:11.005Z</time></trkpt><trkpt lat="44.9180217" lon="9.143525"><ele>398.0</ele><time>2026-04-19T10:15:14.005Z</time></trkpt><trkpt lat="44.9181267" lon="9.1435867"><ele>398.0</ele><time>2026-04-19T10:15:16.005Z</time></trkpt><trkpt lat="44.9182383" lon="9.1436267"><ele>398.0</ele><time>2026-04-19T10:15:18.004Z</time></trkpt><trkpt lat="44.91835" lon="9.1436583"><ele>398.0</ele><time>2026-04-19T10:15:20.005Z</time></trkpt><trkpt lat="44.9184433" lon="9.1436467"><ele>398.0</ele><time>2026-04-19T10:15:22.005Z</time></trkpt><trkpt lat="44.9185267" lon="9.1436217"><ele>398.0</ele><time>2026-04-19T10:15:24.005Z</time></trkpt><trkpt lat="44.9186183" lon="9.143575"><ele>397.2</ele><time>2026-04-19T10:15:26.005Z</time></trkpt><trkpt lat="44.9187033" lon="9.1435"><ele>396.4</ele><time>2026-04-19T10:15:28.004Z</time></trkpt><trkpt lat="44.91878" lon="9.143415"><ele>395.59999999999997</ele><time>2026-04-19T10:15:30.005Z</time></trkpt><trkpt lat="44.9188667" lon="9.1433133"><ele>394.79999999999995</ele><time>2026-04-19T10:15:32.004Z</time></trkpt><trkpt lat="44.9189567" lon="9.1432033"><ele>394.0</ele><time>2026-04-19T10:15:34.004Z</time></trkpt><trkpt lat="44.9190467" lon="9.1430917"><ele>393.25</ele><time>2026-04-19T10:15:36.004Z</time></trkpt><trkpt lat="44.9191333" lon="9.1429933"><ele>392.5</ele><time>2026-04-19T10:15:38.005Z</time></trkpt><trkpt lat="44.9192183" lon="9.1428867"><ele>391.75</ele><time>2026-04-19T10:15:40.004Z</time></trkpt><trkpt lat="44.919305" lon="9.1427617"><ele>391.0</ele><time>2026-04-19T10:15:42.005Z</time></trkpt><trkpt lat="44.9193533" lon="9.1426183"><ele>390.6</ele><time>2026-04-19T10:15:44.005Z</time></trkpt><trkpt lat="44.919395" lon="9.1424683"><ele>390.20000000000005</ele><time>2026-04-19T10:15:46.004Z</time></trkpt><trkpt lat="44.919425" lon="9.14232"><ele>389.79999999999995</ele><time>2026-04-19T10:15:48.005Z</time></trkpt><trkpt lat="44.919455" lon="9.1421917"><ele>389.4</ele><time>2026-04-19T10:15:50.004Z</time></trkpt><trkpt lat="44.9194983" lon="9.142095"><ele>389.0</ele><time>2026-04-19T10:15:52.005Z</time></trkpt><trkpt lat="44.9195583" lon="9.1419583"><ele>389.0</ele><time>2026-04-19T10:15:54.004Z</time></trkpt><trkpt lat="44.9195933" lon="9.14188"><ele>389.0</ele><time>2026-04-19T10:15:55.005Z</time></trkpt><trkpt lat="44.9196383" lon="9.1418117"><ele>389.0</ele><time>2026-04-19T10:15:56.004Z</time></trkpt><trkpt lat="44.91971" lon="9.14167"><ele>389.0</ele><time>2026-04-19T10:15:58.005Z</time></trkpt><trkpt lat="44.9197983" lon="9.1415317"><ele>389.0</ele><time>2026-04-19T10:16:00.005Z</time></trkpt><trkpt lat="44.9198467" lon="9.1414533"><ele>388.66666666666663</ele><time>2026-04-19T10:16:01.005Z</time></trkpt><trkpt lat="44.9198967" lon="9.1413833"><ele>388.3333333333333</ele><time>2026-04-19T10:16:02.004Z</time></trkpt><trkpt lat="44.91995" lon="9.14132"><ele>388.0</ele><time>2026-04-19T10:16:03.005Z</time></trkpt><trkpt lat="44.9200217" lon="9.1411733"><ele>387.66666666666663</ele><time>2026-04-19T10:16:05.005Z</time></trkpt><trkpt lat="44.9200667" lon="9.1410867"><ele>387.3333333333333</ele><time>2026-04-19T10:16:06.005Z</time></trkpt><trkpt lat="44.920105" lon="9.14101"><ele>387.0</ele><time>2026-04-19T10:16:07.005Z</time></trkpt><trkpt lat="44.92015" lon="9.1409283"><ele>386.0</ele><time>2026-04-19T10:16:08.005Z</time></trkpt><trkpt lat="44.9201967" lon="9.1408533"><ele>385.0</ele><time>2026-04-19T10:16:09.004Z</time></trkpt><trkpt lat="44.9202433" lon="9.140785"><ele>384.0</ele><time>2026-04-19T10:16:10.005Z</time></trkpt><trkpt lat="44.920295" lon="9.1407217"><ele>383.0</ele><time>2026-04-19T10:16:11.005Z</time></trkpt><trkpt lat="44.9203617" lon="9.1406383"><ele>382.0</ele><time>2026-04-19T10:16:13.004Z</time></trkpt><trkpt lat="44.92042" lon="9.1405817"><ele>381.0</ele><time>2026-04-19T10:16:15.004Z</time></trkpt><trkpt lat="44.9205133" lon="9.14047"><ele>381.0</ele><time>2026-04-19T10:16:17.005Z</time></trkpt><trkpt lat="44.9205717" lon="9.140395"><ele>381.0</ele><time>2026-04-19T10:16:18.005Z</time></trkpt><trkpt lat="44.9206267" lon="9.1403167"><ele>381.0</ele><time>2026-04-19T10:16:19.005Z</time></trkpt><trkpt lat="44.92068" lon="9.1402317"><ele>381.0</ele><time>2026-04-19T10:16:20.004Z</time></trkpt><trkpt lat="44.9207333" lon="9.1401433"><ele>381.0</ele><time>2026-04-19T10:16:21.005Z</time></trkpt><trkpt lat="44.920775" lon="9.1400583"><ele>381.0</ele><time>2026-04-19T10:16:22.005Z</time></trkpt><trkpt lat="44.9208183" lon="9.1399767"><ele>381.0</ele><time>2026-04-19T10:16:23.005Z</time></trkpt><trkpt lat="44.9208533" lon="9.139895"><ele>381.0</ele><time>2026-04-19T10:16:24.005Z</time></trkpt><trkpt lat="44.920895" lon="9.1398233"><ele>381.0</ele><time>2026-04-19T10:16:25.004Z</time></trkpt><trkpt lat="44.92094" lon="9.1397433"><ele>381.0</ele><time>2026-04-19T10:16:26.005Z</time></trkpt><trkpt lat="44.9209817" lon="9.139665"><ele>381.0</ele><time>2026-04-19T10:16:27.004Z</time></trkpt><trkpt lat="44.9210217" lon="9.1395867"><ele>381.0</ele><time>2026-04-19T10:16:28.005Z</time></trkpt><trkpt lat="44.921065" lon="9.1395033"><ele>381.0</ele><time>2026-04-19T10:16:29.005Z</time></trkpt><trkpt lat="44.9210967" lon="9.1394167"><ele>381.5</ele><time>2026-04-19T10:16:30.004Z</time></trkpt><trkpt lat="44.92113" lon="9.1393283"><ele>382.0</ele><time>2026-04-19T10:16:31.004Z</time></trkpt><trkpt lat="44.9212067" lon="9.1391933"><ele>382.5</ele><time>2026-04-19T10:16:33.005Z</time></trkpt><trkpt lat="44.9212517" lon="9.1391183"><ele>383.0</ele><time>2026-04-19T10:16:34.005Z</time></trkpt><trkpt lat="44.92129" lon="9.1390433"><ele>383.5</ele><time>2026-04-19T10:16:35.005Z</time></trkpt><trkpt lat="44.921325" lon="9.1389483"><ele>384.0</ele><time>2026-04-19T10:16:36.004Z</time></trkpt><trkpt lat="44.9213517" lon="9.13885"><ele>384.0</ele><time>2026-04-19T10:16:37.005Z</time></trkpt><trkpt lat="44.9213667" lon="9.1387367"><ele>384.0</ele><time>2026-04-19T10:16:38.004Z</time></trkpt><trkpt lat="44.9213767" lon="9.1386217"><ele>384.0</ele><time>2026-04-19T10:16:39.005Z</time></trkpt><trkpt lat="44.9213867" lon="9.1385"><ele>384.0</ele><time>2026-04-19T10:16:40.005Z</time></trkpt><trkpt lat="44.9213933" lon="9.1383833"><ele>384.0</ele><time>2026-04-19T10:16:41.005Z</time></trkpt><trkpt lat="44.9213917" lon="9.1382883"><ele>384.0</ele><time>2026-04-19T10:16:42.005Z</time></trkpt><trkpt lat="44.9213917" lon="9.1381383"><ele>385.0</ele><time>2026-04-19T10:16:44.005Z</time></trkpt><trkpt lat="44.9214033" lon="9.137985"><ele>386.0</ele><time>2026-04-19T10:16:46.005Z</time></trkpt><trkpt lat="44.9214217" lon="9.1378333"><ele>387.0</ele><time>2026-04-19T10:16:48.005Z</time></trkpt><trkpt lat="44.9214633" lon="9.1377033"><ele>388.0</ele><time>2026-04-19T10:16:50.004Z</time></trkpt><trkpt lat="44.9215" lon="9.137545"><ele>389.0</ele><time>2026-04-19T10:16:52.004Z</time></trkpt><trkpt lat="44.9215183" lon="9.1374583"><ele>389.16666666666663</ele><time>2026-04-19T10:16:53.005Z</time></trkpt><trkpt lat="44.9215467" lon="9.137375"><ele>389.3333333333333</ele><time>2026-04-19T10:16:54.004Z</time></trkpt><trkpt lat="44.9215867" lon="9.1372917"><ele>389.5</ele><time>2026-04-19T10:16:55.005Z</time></trkpt><trkpt lat="44.9216383" lon="9.1371967"><ele>389.66666666666663</ele><time>2026-04-19T10:16:56.004Z</time></trkpt><trkpt lat="44.9216867" lon="9.13711"><ele>389.8333333333333</ele><time>2026-04-19T10:16:57.005Z</time></trkpt><trkpt lat="44.921735" lon="9.1370117"><ele>390.0</ele><time>2026-04-19T10:16:58.004Z</time></trkpt><trkpt lat="44.9217867" lon="9.1369267"><ele>390.2857142857143</ele><time>2026-04-19T10:16:59.005Z</time></trkpt><trkpt lat="44.9218317" lon="9.1368533"><ele>390.57142857142856</ele><time>2026-04-19T10:17:00.005Z</time></trkpt><trkpt lat="44.9218717" lon="9.1367767"><ele>390.8571428571429</ele><time>2026-04-19T10:17:01.004Z</time></trkpt><trkpt lat="44.9219033" lon="9.13668"><ele>391.1428571428571</ele><time>2026-04-19T10:17:02.004Z</time></trkpt><trkpt lat="44.9219233" lon="9.1365733"><ele>391.42857142857144</ele><time>2026-04-19T10:17:03.005Z</time></trkpt><trkpt lat="44.92194" lon="9.1364633"><ele>391.7142857142857</ele><time>2026-04-19T10:17:04.004Z</time></trkpt><trkpt lat="44.921945" lon="9.1363617"><ele>392.0</ele><time>2026-04-19T10:17:05.005Z</time></trkpt><trkpt lat="44.9219533" lon="9.1362733"><ele>392.99999999999994</ele><time>2026-04-19T10:17:06.005Z</time></trkpt><trkpt lat="44.9219583" lon="9.1361383"><ele>394.0</ele><time>2026-04-19T10:17:08.004Z</time></trkpt><trkpt lat="44.9219317" lon="9.1360567"><ele>395.0</ele><time>2026-04-19T10:17:10.005Z</time></trkpt><trkpt lat="44.9218667" lon="9.1359917"><ele>396.0</ele><time>2026-04-19T10:17:12.005Z</time></trkpt><trkpt lat="44.92182" lon="9.1359"><ele>396.99999999999994</ele><time>2026-04-19T10:17:14.004Z</time></trkpt><trkpt lat="44.9217833" lon="9.135775"><ele>398.0</ele><time>2026-04-19T10:17:16.005Z</time></trkpt><trkpt lat="44.9217433" lon="9.1356017"><ele>396.8333333333333</ele><time>2026-04-19T10:17:18.005Z</time></trkpt><trkpt lat="44.9217267" lon="9.1355133"><ele>395.66666666666663</ele><time>2026-04-19T10:17:19.005Z</time></trkpt><trkpt lat="44.921715" lon="9.135415"><ele>394.5</ele><time>2026-04-19T10:17:20.005Z</time></trkpt><trkpt lat="44.9216917" lon="9.13531"><ele>393.33333333333337</ele><time>2026-04-19T10:17:21.004Z</time></trkpt><trkpt lat="44.921665" lon="9.135215"><ele>392.1666666666667</ele><time>2026-04-19T10:17:22.005Z</time></trkpt><trkpt lat="44.921635" lon="9.1351183"><ele>391.0</ele><time>2026-04-19T10:17:23.005Z</time></trkpt><trkpt lat="44.92159" lon="9.1349817"><ele>389.0</ele><time>2026-04-19T10:17:25.004Z</time></trkpt><trkpt lat="44.9215583" lon="9.1348267"><ele>387.0</ele><time>2026-04-19T10:17:27.005Z</time></trkpt><trkpt lat="44.9215517" lon="9.1346533"><ele>385.0</ele><time>2026-04-19T10:17:29.005Z</time></trkpt><trkpt lat="44.9215633" lon="9.134535"><ele>383.0</ele><time>2026-04-19T10:17:31.004Z</time></trkpt><trkpt lat="44.921505" lon="9.1344317"><ele>381.0</ele><time>2026-04-19T10:17:34.005Z</time></trkpt><trkpt lat="44.9214183" lon="9.1343217"><ele>381.0</ele><time>2026-04-19T10:17:36.004Z</time></trkpt><trkpt lat="44.921355" lon="9.134255"><ele>381.0</ele><time>2026-04-19T10:17:37.004Z</time></trkpt><trkpt lat="44.9212817" lon="9.1341867"><ele>381.0</ele><time>2026-04-19T10:17:38.005Z</time></trkpt><trkpt lat="44.921205" lon="9.1341267"><ele>381.0</ele><time>2026-04-19T10:17:39.005Z</time></trkpt><trkpt lat="44.92112" lon="9.13409"><ele>381.0</ele><time>2026-04-19T10:17:40.005Z</time></trkpt><trkpt lat="44.92103" lon="9.1340583"><ele>381.0</ele><time>2026-04-19T10:17:41.005Z</time></trkpt><trkpt lat="44.920935" lon="9.13402"><ele>380.6666666666667</ele><time>2026-04-19T10:17:42.005Z</time></trkpt><trkpt lat="44.92084" lon="9.133985"><ele>380.3333333333333</ele><time>2026-04-19T10:17:43.004Z</time></trkpt><trkpt lat="44.9207667" lon="9.13394"><ele>380.0</ele><time>2026-04-19T10:17:44.005Z</time></trkpt><trkpt lat="44.920705" lon="9.13391"><ele>379.66666666666663</ele><time>2026-04-19T10:17:45.004Z</time></trkpt><trkpt lat="44.920605" lon="9.1338667"><ele>379.3333333333333</ele><time>2026-04-19T10:17:47.004Z</time></trkpt><trkpt lat="44.9205233" lon="9.133825"><ele>379.0</ele><time>2026-04-19T10:17:49.004Z</time></trkpt><trkpt lat="44.9204533" lon="9.1338083"><ele>379.0</ele><time>2026-04-19T10:17:52.005Z</time></trkpt><trkpt lat="44.9203717" lon="9.1337867"><ele>379.0</ele><time>2026-04-19T10:17:55.005Z</time></trkpt><trkpt lat="44.920315" lon="9.1337367"><ele>379.0</ele><time>2026-04-19T10:17:58.005Z</time></trkpt><trkpt lat="44.9202633" lon="9.1336817"><ele>379.0</ele><time>2026-04-19T10:18:01.004Z</time></trkpt><trkpt lat="44.9202033" lon="9.1336133"><ele>379.0</ele><time>2026-04-19T10:22:32.004Z</time></trkpt><trkpt lat="44.9201317" lon="9.1335483"><ele>379.0</ele><time>2026-04-19T10:22:34.004Z</time></trkpt><trkpt lat="44.9200567" lon="9.1334567"><ele>379.5</ele><time>2026-04-19T10:22:36.003Z</time></trkpt><trkpt lat="44.919975" lon="9.1333417"><ele>380.0</ele><time>2026-04-19T10:22:38.003Z</time></trkpt><trkpt lat="44.9199317" lon="9.1332767"><ele>380.5</ele><time>2026-04-19T10:22:39.004Z</time></trkpt><trkpt lat="44.919845" lon="9.1331517"><ele>381.0</ele><time>2026-04-19T10:22:41.003Z</time></trkpt><trkpt lat="44.9197883" lon="9.133095"><ele>381.5</ele><time>2026-04-19T10:22:42.003Z</time></trkpt><trkpt lat="44.9197317" lon="9.1330433"><ele>382.0</ele><time>2026-04-19T10:22:43.004Z</time></trkpt><trkpt lat="44.91967" lon="9.132995"><ele>381.8333333333333</ele><time>2026-04-19T10:22:44.004Z</time></trkpt><trkpt lat="44.9196067" lon="9.132955"><ele>381.66666666666663</ele><time>2026-04-19T10:22:45.004Z</time></trkpt><trkpt lat="44.9195383" lon="9.1329133"><ele>381.5</ele><time>2026-04-19T10:22:46.004Z</time></trkpt><trkpt lat="44.9194683" lon="9.1328683"><ele>381.3333333333333</ele><time>2026-04-19T10:22:47.004Z</time></trkpt><trkpt lat="44.9193983" lon="9.1328217"><ele>381.1666666666667</ele><time>2026-04-19T10:22:48.004Z</time></trkpt><trkpt lat="44.9193167" lon="9.132775"><ele>381.0</ele><time>2026-04-19T10:22:49.004Z</time></trkpt><trkpt lat="44.9192317" lon="9.132725"><ele>381.0</ele><time>2026-04-19T10:22:50.003Z</time></trkpt><trkpt lat="44.9191533" lon="9.1326817"><ele>381.0</ele><time>2026-04-19T10:22:51.003Z</time></trkpt><trkpt lat="44.9190733" lon="9.1326333"><ele>381.0</ele><time>2026-04-19T10:22:52.003Z</time></trkpt><trkpt lat="44.918995" lon="9.1325917"><ele>381.0</ele><time>2026-04-19T10:22:53.004Z</time></trkpt><trkpt lat="44.9189133" lon="9.1325483"><ele>381.0</ele><time>2026-04-19T10:22:54.004Z</time></trkpt><trkpt lat="44.9188333" lon="9.132495"><ele>381.0</ele><time>2026-04-19T10:22:55.003Z</time></trkpt><trkpt lat="44.9187583" lon="9.132445"><ele>381.5</ele><time>2026-04-19T10:22:56.004Z</time></trkpt><trkpt lat="44.9186867" lon="9.1323833"><ele>382.0</ele><time>2026-04-19T10:22:57.003Z</time></trkpt><trkpt lat="44.9186167" lon="9.1323067"><ele>382.5</ele><time>2026-04-19T10:22:58.003Z</time></trkpt><trkpt lat="44.918555" lon="9.1322283"><ele>383.0</ele><time>2026-04-19T10:22:59.003Z</time></trkpt><trkpt lat="44.9184983" lon="9.1321483"><ele>383.5</ele><time>2026-04-19T10:23:00.003Z</time></trkpt><trkpt lat="44.9184333" lon="9.132065"><ele>384.0</ele><time>2026-04-19T10:23:01.003Z</time></trkpt><trkpt lat="44.9183583" lon="9.131995"><ele>384.0</ele><time>2026-04-19T10:23:02.003Z</time></trkpt><trkpt lat="44.91828" lon="9.131945"><ele>384.0</ele><time>2026-04-19T10:23:03.003Z</time></trkpt><trkpt lat="44.9182017" lon="9.1319117"><ele>384.0</ele><time>2026-04-19T10:23:04.003Z</time></trkpt><trkpt lat="44.9181183" lon="9.1319017"><ele>384.0</ele><time>2026-04-19T10:23:05.003Z</time></trkpt><trkpt lat="44.9180283" lon="9.1318983"><ele>384.0</ele><time>2026-04-19T10:23:06.003Z</time></trkpt><trkpt lat="44.9179433" lon="9.13189"><ele>384.0</ele><time>2026-04-19T10:23:07.002Z</time></trkpt><trkpt lat="44.91786" lon="9.13189"><ele>384.0</ele><time>2026-04-19T10:23:08.003Z</time></trkpt><trkpt lat="44.9177683" lon="9.1319033"><ele>384.0</ele><time>2026-04-19T10:23:09.003Z</time></trkpt><trkpt lat="44.9176883" lon="9.1319233"><ele>384.0</ele><time>2026-04-19T10:23:10.002Z</time></trkpt><trkpt lat="44.917615" lon="9.1319367"><ele>384.0</ele><time>2026-04-19T10:23:11.002Z</time></trkpt><trkpt lat="44.9175467" lon="9.1319483"><ele>384.0</ele><time>2026-04-19T10:23:12.003Z</time></trkpt><trkpt lat="44.917475" lon="9.1319367"><ele>384.0</ele><time>2026-04-19T10:23:13.003Z</time></trkpt><trkpt lat="44.91741" lon="9.1319117"><ele>382.3333333333333</ele><time>2026-04-19T10:23:14.003Z</time></trkpt><trkpt lat="44.9173367" lon="9.13188"><ele>380.6666666666667</ele><time>2026-04-19T10:23:15.003Z</time></trkpt><trkpt lat="44.917265" lon="9.13184"><ele>379.0</ele><time>2026-04-19T10:23:16.003Z</time></trkpt><trkpt lat="44.9172017" lon="9.1318067"><ele>377.33333333333337</ele><time>2026-04-19T10:23:17.002Z</time></trkpt><trkpt lat="44.917135" lon="9.1317717"><ele>375.6666666666667</ele><time>2026-04-19T10:23:18.002Z</time></trkpt><trkpt lat="44.9170133" lon="9.131705"><ele>374.0</ele><time>2026-04-19T10:23:20.002Z</time></trkpt><trkpt lat="44.9169467" lon="9.1316567"><ele>374.0</ele><time>2026-04-19T10:23:21.003Z</time></trkpt><trkpt lat="44.9168867" lon="9.1316133"><ele>374.0</ele><time>2026-04-19T10:23:22.003Z</time></trkpt><trkpt lat="44.9168183" lon="9.1315633"><ele>374.0</ele><time>2026-04-19T10:23:23.003Z</time></trkpt><trkpt lat="44.9167483" lon="9.1315133"><ele>374.0</ele><time>2026-04-19T10:23:24.002Z</time></trkpt><trkpt lat="44.9166733" lon="9.1314533"><ele>374.0</ele><time>2026-04-19T10:23:25.003Z</time></trkpt><trkpt lat="44.916605" lon="9.1314"><ele>374.0</ele><time>2026-04-19T10:23:26.002Z</time></trkpt><trkpt lat="44.9165433" lon="9.1313617"><ele>373.2</ele><time>2026-04-19T10:23:27.003Z</time></trkpt><trkpt lat="44.9164783" lon="9.1313217"><ele>372.4</ele><time>2026-04-19T10:23:28.002Z</time></trkpt><trkpt lat="44.916415" lon="9.1312767"><ele>371.6</ele><time>2026-04-19T10:23:29.003Z</time></trkpt><trkpt lat="44.9163233" lon="9.1311617"><ele>370.8</ele><time>2026-04-19T10:23:31.002Z</time></trkpt><trkpt lat="44.9162517" lon="9.13101"><ele>370.0</ele><time>2026-04-19T10:23:33.002Z</time></trkpt><trkpt lat="44.916215" lon="9.1309283"><ele>370.0</ele><time>2026-04-19T10:23:34.003Z</time></trkpt><trkpt lat="44.916165" lon="9.1308367"><ele>370.0</ele><time>2026-04-19T10:23:35.003Z</time></trkpt><trkpt lat="44.9161267" lon="9.1307383"><ele>370.0</ele><time>2026-04-19T10:23:36.002Z</time></trkpt><trkpt lat="44.9160817" lon="9.1306417"><ele>370.0</ele><time>2026-04-19T10:23:37.003Z</time></trkpt><trkpt lat="44.9160467" lon="9.1305467"><ele>370.0</ele><time>2026-04-19T10:23:38.003Z</time></trkpt><trkpt lat="44.9159933" lon="9.1304633"><ele>370.0</ele><time>2026-04-19T10:23:39.003Z</time></trkpt><trkpt lat="44.9159433" lon="9.1303767"><ele>367.5</ele><time>2026-04-19T10:23:40.003Z</time></trkpt><trkpt lat="44.9158917" lon="9.1302933"><ele>365.0</ele><time>2026-04-19T10:23:41.003Z</time></trkpt><trkpt lat="44.9158433" lon="9.13021"><ele>362.5</ele><time>2026-04-19T10:23:42.002Z</time></trkpt><trkpt lat="44.9157867" lon="9.1301367"><ele>360.0</ele><time>2026-04-19T10:23:43.003Z</time></trkpt><trkpt lat="44.91574" lon="9.130055"><ele>357.5</ele><time>2026-04-19T10:23:44.003Z</time></trkpt><trkpt lat="44.915685" lon="9.1299717"><ele>355.0</ele><time>2026-04-19T10:23:45.003Z</time></trkpt><trkpt lat="44.9156433" lon="9.1299033"><ele>355.0</ele><time>2026-04-19T10:23:46.002Z</time></trkpt><trkpt lat="44.9155483" lon="9.1298317"><ele>355.0</ele><time>2026-04-19T10:23:48.002Z</time></trkpt><trkpt lat="44.9154333" lon="9.1298733"><ele>355.0</ele><time>2026-04-19T10:23:50.002Z</time></trkpt><trkpt lat="44.9153783" lon="9.129925"><ele>355.0</ele><time>2026-04-19T10:23:51.003Z</time></trkpt><trkpt lat="44.9153167" lon="9.129975"><ele>355.0</ele><time>2026-04-19T10:23:52.003Z</time></trkpt><trkpt lat="44.915255" lon="9.1300083"><ele>355.0</ele><time>2026-04-19T10:23:53.002Z</time></trkpt><trkpt lat="44.915185" lon="9.1300383"><ele>355.0</ele><time>2026-04-19T10:23:54.003Z</time></trkpt><trkpt lat="44.91512" lon="9.130065"><ele>355.0</ele><time>2026-04-19T10:23:55.003Z</time></trkpt><trkpt lat="44.91505" lon="9.1301017"><ele>355.0</ele><time>2026-04-19T10:23:56.002Z</time></trkpt><trkpt lat="44.9149833" lon="9.1301367"><ele>355.0</ele><time>2026-04-19T10:23:57.002Z</time></trkpt><trkpt lat="44.91492" lon="9.130175"><ele>355.0</ele><time>2026-04-19T10:23:58.003Z</time></trkpt><trkpt lat="44.9148517" lon="9.1302067"><ele>355.0</ele><time>2026-04-19T10:23:59.003Z</time></trkpt><trkpt lat="44.9147867" lon="9.13024"><ele>355.0</ele><time>2026-04-19T10:24:00.002Z</time></trkpt><trkpt lat="44.9146817" lon="9.1302883"><ele>352.4</ele><time>2026-04-19T10:24:02.003Z</time></trkpt><trkpt lat="44.9145917" lon="9.130255"><ele>349.8</ele><time>2026-04-19T10:24:04.003Z</time></trkpt><trkpt lat="44.9145033" lon="9.1302033"><ele>347.20000000000005</ele><time>2026-04-19T10:24:06.002Z</time></trkpt><trkpt lat="44.914415" lon="9.1301683"><ele>344.6</ele><time>2026-04-19T10:24:08.003Z</time></trkpt><trkpt lat="44.9143317" lon="9.1301467"><ele>342.0</ele><time>2026-04-19T10:24:10.003Z</time></trkpt><trkpt lat="44.9142233" lon="9.1300533"><ele>340.6666666666667</ele><time>2026-04-19T10:24:12.003Z</time></trkpt><trkpt lat="44.9141483" lon="9.1299983"><ele>339.3333333333333</ele><time>2026-04-19T10:24:13.003Z</time></trkpt><trkpt lat="44.9140683" lon="9.1299617"><ele>338.0</ele><time>2026-04-19T10:24:14.002Z</time></trkpt><trkpt lat="44.9140017" lon="9.1299117"><ele>336.66666666666663</ele><time>2026-04-19T10:24:15.003Z</time></trkpt><trkpt lat="44.9139333" lon="9.1298767"><ele>335.3333333333333</ele><time>2026-04-19T10:24:16.002Z</time></trkpt><trkpt lat="44.9138733" lon="9.1298483"><ele>334.0</ele><time>2026-04-19T10:24:17.003Z</time></trkpt><trkpt lat="44.9137783" lon="9.129735"><ele>332.6</ele><time>2026-04-19T10:24:19.002Z</time></trkpt><trkpt lat="44.9137" lon="9.129625"><ele>331.2</ele><time>2026-04-19T10:24:21.002Z</time></trkpt><trkpt lat="44.913585" lon="9.129635"><ele>329.8</ele><time>2026-04-19T10:24:23.002Z</time></trkpt><trkpt lat="44.9134817" lon="9.1297267"><ele>328.40000000000003</ele><time>2026-04-19T10:24:25.003Z</time></trkpt><trkpt lat="44.9133983" lon="9.12974"><ele>327.0</ele><time>2026-04-19T10:24:27.003Z</time></trkpt><trkpt lat="44.9133683" lon="9.1296167"><ele>327.0</ele><time>2026-04-19T10:24:29.002Z</time></trkpt><trkpt lat="44.9133767" lon="9.1295067"><ele>327.0</ele><time>2026-04-19T10:24:30.003Z</time></trkpt><trkpt lat="44.913395" lon="9.129405"><ele>327.0</ele><time>2026-04-19T10:24:31.003Z</time></trkpt><trkpt lat="44.9134317" lon="9.1293233"><ele>327.0</ele><time>2026-04-19T10:24:32.002Z</time></trkpt><trkpt lat="44.91347" lon="9.1292517"><ele>327.0</ele><time>2026-04-19T10:24:33.003Z</time></trkpt><trkpt lat="44.91352" lon="9.1291833"><ele>327.0</ele><time>2026-04-19T10:24:34.003Z</time></trkpt><trkpt lat="44.9135633" lon="9.129115"><ele>327.0</ele><time>2026-04-19T10:24:35.002Z</time></trkpt><trkpt lat="44.913615" lon="9.1290633"><ele>325.8</ele><time>2026-04-19T10:24:36.002Z</time></trkpt><trkpt lat="44.913705" lon="9.1289733"><ele>324.6</ele><time>2026-04-19T10:24:38.003Z</time></trkpt><trkpt lat="44.9138017" lon="9.1289083"><ele>323.40000000000003</ele><time>2026-04-19T10:24:40.002Z</time></trkpt><trkpt lat="44.91386" lon="9.1287967"><ele>322.20000000000005</ele><time>2026-04-19T10:24:42.003Z</time></trkpt><trkpt lat="44.91387" lon="9.1286767"><ele>321.0</ele><time>2026-04-19T10:24:44.003Z</time></trkpt><trkpt lat="44.9138817" lon="9.1285433"><ele>321.0</ele><time>2026-04-19T10:24:46.002Z</time></trkpt><trkpt lat="44.9138933" lon="9.128455"><ele>321.0</ele><time>2026-04-19T10:24:47.003Z</time></trkpt><trkpt lat="44.9138967" lon="9.12835"><ele>321.0</ele><time>2026-04-19T10:24:48.002Z</time></trkpt><trkpt lat="44.9139067" lon="9.1282517"><ele>321.0</ele><time>2026-04-19T10:24:49.003Z</time></trkpt><trkpt lat="44.9139217" lon="9.128095"><ele>321.0</ele><time>2026-04-19T10:24:51.002Z</time></trkpt><trkpt lat="44.9139667" lon="9.1280117"><ele>321.0</ele><time>2026-04-19T10:25:02.003Z</time></trkpt><trkpt lat="44.91406" lon="9.12794"><ele>321.99999999999994</ele><time>2026-04-19T10:25:04.002Z</time></trkpt><trkpt lat="44.91411" lon="9.127885"><ele>323.0</ele><time>2026-04-19T10:25:05.003Z</time></trkpt><trkpt lat="44.914155" lon="9.12782"><ele>324.0</ele><time>2026-04-19T10:25:06.003Z</time></trkpt><trkpt lat="44.9142033" lon="9.1277533"><ele>325.0</ele><time>2026-04-19T10:25:07.002Z</time></trkpt><trkpt lat="44.9142467" lon="9.127675"><ele>326.0</ele><time>2026-04-19T10:25:08.002Z</time></trkpt><trkpt lat="44.91429" lon="9.127595"><ele>326.99999999999994</ele><time>2026-04-19T10:25:09.002Z</time></trkpt><trkpt lat="44.91434" lon="9.1274583"><ele>328.0</ele><time>2026-04-19T10:25:11.002Z</time></trkpt><trkpt lat="44.9143533" lon="9.12734"><ele>329.2</ele><time>2026-04-19T10:25:13.003Z</time></trkpt><trkpt lat="44.9143283" lon="9.12719"><ele>330.4</ele><time>2026-04-19T10:25:15.003Z</time></trkpt><trkpt lat="44.9142967" lon="9.1270483"><ele>331.59999999999997</ele><time>2026-04-19T10:25:17.003Z</time></trkpt><trkpt lat="44.9142983" lon="9.1269233"><ele>332.79999999999995</ele><time>2026-04-19T10:25:19.002Z</time></trkpt><trkpt lat="44.9143467" lon="9.1268167"><ele>334.0</ele><time>2026-04-19T10:25:21.003Z</time></trkpt><trkpt lat="44.91442" lon="9.1267217"><ele>334.0</ele><time>2026-04-19T10:25:23.003Z</time></trkpt><trkpt lat="44.9145233" lon="9.126685"><ele>334.0</ele><time>2026-04-19T10:25:25.003Z</time></trkpt><trkpt lat="44.9145967" lon="9.1266533"><ele>334.0</ele><time>2026-04-19T10:25:26.003Z</time></trkpt><trkpt lat="44.9146633" lon="9.12663"><ele>334.0</ele><time>2026-04-19T10:25:27.003Z</time></trkpt><trkpt lat="44.9147283" lon="9.1266117"><ele>334.0</ele><time>2026-04-19T10:25:28.003Z</time></trkpt><trkpt lat="44.9148533" lon="9.1265617"><ele>334.0</ele><time>2026-04-19T10:25:30.003Z</time></trkpt><trkpt lat="44.9149117" lon="9.1265267"><ele>333.57142857142856</ele><time>2026-04-19T10:25:31.003Z</time></trkpt><trkpt lat="44.9149733" lon="9.12649"><ele>333.14285714285717</ele><time>2026-04-19T10:25:32.002Z</time></trkpt><trkpt lat="44.9150367" lon="9.1264533"><ele>332.7142857142857</ele><time>2026-04-19T10:25:33.003Z</time></trkpt><trkpt lat="44.9150983" lon="9.1264183"><ele>332.2857142857143</ele><time>2026-04-19T10:25:34.003Z</time></trkpt><trkpt lat="44.9151633" lon="9.1263867"><ele>331.85714285714283</ele><time>2026-04-19T10:25:35.003Z</time></trkpt><trkpt lat="44.9152283" lon="9.126355"><ele>331.42857142857144</ele><time>2026-04-19T10:25:36.002Z</time></trkpt><trkpt lat="44.91529" lon="9.1263217"><ele>331.0</ele><time>2026-04-19T10:25:37.003Z</time></trkpt><trkpt lat="44.9153583" lon="9.126285"><ele>333.42857142857144</ele><time>2026-04-19T10:25:38.002Z</time></trkpt><trkpt lat="44.9154167" lon="9.1262433"><ele>335.85714285714283</ele><time>2026-04-19T10:25:39.002Z</time></trkpt><trkpt lat="44.9154817" lon="9.1262067"><ele>338.2857142857143</ele><time>2026-04-19T10:25:40.003Z</time></trkpt><trkpt lat="44.9155317" lon="9.1261483"><ele>340.7142857142857</ele><time>2026-04-19T10:25:41.002Z</time></trkpt><trkpt lat="44.9155767" lon="9.1260667"><ele>343.14285714285717</ele><time>2026-04-19T10:25:42.003Z</time></trkpt><trkpt lat="44.915605" lon="9.12598"><ele>345.57142857142856</ele><time>2026-04-19T10:25:43.003Z</time></trkpt><trkpt lat="44.9156317" lon="9.1258883"><ele>348.0</ele><time>2026-04-19T10:25:44.002Z</time></trkpt><trkpt lat="44.9156583" lon="9.1257967"><ele>347.7142857142857</ele><time>2026-04-19T10:25:45.003Z</time></trkpt><trkpt lat="44.9156783" lon="9.1257067"><ele>347.42857142857144</ele><time>2026-04-19T10:25:46.003Z</time></trkpt><trkpt lat="44.9157083" lon="9.1256167"><ele>347.1428571428571</ele><time>2026-04-19T10:25:47.003Z</time></trkpt><trkpt lat="44.9157333" lon="9.12553"><ele>346.8571428571429</ele><time>2026-04-19T10:25:48.002Z</time></trkpt><trkpt lat="44.91576" lon="9.1254483"><ele>346.5714285714286</ele><time>2026-04-19T10:25:49.002Z</time></trkpt><trkpt lat="44.915795" lon="9.1253733"><ele>346.2857142857143</ele><time>2026-04-19T10:25:50.003Z</time></trkpt><trkpt lat="44.9158417" lon="9.1253017"><ele>346.0</ele><time>2026-04-19T10:25:51.003Z</time></trkpt><trkpt lat="44.9158967" lon="9.125255"><ele>349.0</ele><time>2026-04-19T10:25:52.003Z</time></trkpt><trkpt lat="44.9159667" lon="9.1252367"><ele>352.0</ele><time>2026-04-19T10:25:53.002Z</time></trkpt><trkpt lat="44.916035" lon="9.1252267"><ele>355.0</ele><time>2026-04-19T10:25:54.002Z</time></trkpt><trkpt lat="44.9161017" lon="9.1252267"><ele>358.0</ele><time>2026-04-19T10:25:55.003Z</time></trkpt><trkpt lat="44.9162233" lon="9.1252333"><ele>361.0</ele><time>2026-04-19T10:25:57.002Z</time></trkpt><trkpt lat="44.9162883" lon="9.125245"><ele>364.0</ele><time>2026-04-19T10:25:58.003Z</time></trkpt><trkpt lat="44.91636" lon="9.1252533"><ele>364.0</ele><time>2026-04-19T10:25:59.003Z</time></trkpt><trkpt lat="44.9164317" lon="9.1252517"><ele>364.0</ele><time>2026-04-19T10:26:00.003Z</time></trkpt><trkpt lat="44.916495" lon="9.1252467"><ele>364.0</ele><time>2026-04-19T10:26:01.003Z</time></trkpt><trkpt lat="44.91662" lon="9.1251667"><ele>364.0</ele><time>2026-04-19T10:26:03.003Z</time></trkpt><trkpt lat="44.9166683" lon="9.125095"><ele>364.0</ele><time>2026-04-19T10:26:04.002Z</time></trkpt><trkpt lat="44.9167017" lon="9.125015"><ele>364.0</ele><time>2026-04-19T10:26:05.002Z</time></trkpt><trkpt lat="44.9167183" lon="9.124915"><ele>364.7142857142857</ele><time>2026-04-19T10:26:06.002Z</time></trkpt><trkpt lat="44.9167283" lon="9.1248083"><ele>365.42857142857144</ele><time>2026-04-19T10:26:07.002Z</time></trkpt><trkpt lat="44.9167217" lon="9.1247"><ele>366.1428571428571</ele><time>2026-04-19T10:26:08.003Z</time></trkpt><trkpt lat="44.9167083" lon="9.1245933"><ele>366.8571428571429</ele><time>2026-04-19T10:26:09.002Z</time></trkpt><trkpt lat="44.9167017" lon="9.1244883"><ele>367.57142857142856</ele><time>2026-04-19T10:26:10.003Z</time></trkpt><trkpt lat="44.9167083" lon="9.124385"><ele>368.2857142857143</ele><time>2026-04-19T10:26:11.003Z</time></trkpt><trkpt lat="44.916725" lon="9.124295"><ele>369.0</ele><time>2026-04-19T10:26:12.003Z</time></trkpt><trkpt lat="44.9167583" lon="9.1242083"><ele>373.3333333333333</ele><time>2026-04-19T10:26:13.002Z</time></trkpt><trkpt lat="44.9167967" lon="9.1241067"><ele>377.66666666666663</ele><time>2026-04-19T10:26:14.002Z</time></trkpt><trkpt lat="44.9168383" lon="9.1240033"><ele>382.0</ele><time>2026-04-19T10:26:15.003Z</time></trkpt><trkpt lat="44.9168733" lon="9.1239033"><ele>386.3333333333333</ele><time>2026-04-19T10:26:16.002Z</time></trkpt><trkpt lat="44.91691" lon="9.123805"><ele>390.66666666666663</ele><time>2026-04-19T10:26:17.002Z</time></trkpt><trkpt lat="44.9169583" lon="9.1237183"><ele>395.0</ele><time>2026-04-19T10:26:18.003Z</time></trkpt><trkpt lat="44.9170017" lon="9.1236233"><ele>394.99999999999994</ele><time>2026-04-19T10:26:19.003Z</time></trkpt><trkpt lat="44.9170433" lon="9.123535"><ele>395.0</ele><time>2026-04-19T10:26:20.002Z</time></trkpt><trkpt lat="44.9170817" lon="9.123435"><ele>395.0</ele><time>2026-04-19T10:26:21.002Z</time></trkpt><trkpt lat="44.9171133" lon="9.1233367"><ele>395.0</ele><time>2026-04-19T10:26:22.003Z</time></trkpt><trkpt lat="44.9171433" lon="9.123235"><ele>394.99999999999994</ele><time>2026-04-19T10:26:23.002Z</time></trkpt><trkpt lat="44.917155" lon="9.1231367"><ele>395.0</ele><time>2026-04-19T10:26:24.002Z</time></trkpt><trkpt lat="44.9171417" lon="9.123035"><ele>395.99999999999994</ele><time>2026-04-19T10:26:25.003Z</time></trkpt><trkpt lat="44.9171117" lon="9.1229233"><ele>397.0</ele><time>2026-04-19T10:26:26.003Z</time></trkpt><trkpt lat="44.9170817" lon="9.1228183"><ele>398.0</ele><time>2026-04-19T10:26:27.003Z</time></trkpt><trkpt lat="44.9170367" lon="9.1227167"><ele>399.0</ele><time>2026-04-19T10:26:28.003Z</time></trkpt><trkpt lat="44.9169983" lon="9.122615"><ele>399.99999999999994</ele><time>2026-04-19T10:26:29.002Z</time></trkpt><trkpt lat="44.91697" lon="9.12251"><ele>401.0</ele><time>2026-04-19T10:26:30.003Z</time></trkpt><trkpt lat="44.91695" lon="9.12241"><ele>400.8333333333333</ele><time>2026-04-19T10:26:31.002Z</time></trkpt><trkpt lat="44.9169617" lon="9.12231"><ele>400.66666666666663</ele><time>2026-04-19T10:26:32.003Z</time></trkpt><trkpt lat="44.91697" lon="9.1222083"><ele>400.5</ele><time>2026-04-19T10:26:33.003Z</time></trkpt><trkpt lat="44.9169833" lon="9.1221017"><ele>400.33333333333337</ele><time>2026-04-19T10:26:34.003Z</time></trkpt><trkpt lat="44.9169967" lon="9.1219883"><ele>400.1666666666667</ele><time>2026-04-19T10:26:35.002Z</time></trkpt><trkpt lat="44.917005" lon="9.1218783"><ele>400.0</ele><time>2026-04-19T10:26:36.003Z</time></trkpt><trkpt lat="44.917015" lon="9.12177"><ele>400.00000000000006</ele><time>2026-04-19T10:26:37.002Z</time></trkpt><trkpt lat="44.9170317" lon="9.1216817"><ele>400.0</ele><time>2026-04-19T10:26:38.003Z</time></trkpt><trkpt lat="44.91705" lon="9.12159"><ele>400.0</ele><time>2026-04-19T10:26:39.002Z</time></trkpt><trkpt lat="44.9170683" lon="9.1215017"><ele>400.0</ele><time>2026-04-19T10:26:40.002Z</time></trkpt><trkpt lat="44.9170967" lon="9.1214117"><ele>400.0</ele><time>2026-04-19T10:26:41.003Z</time></trkpt><trkpt lat="44.9171367" lon="9.1213217"><ele>400.00000000000006</ele><time>2026-04-19T10:26:42.003Z</time></trkpt><trkpt lat="44.91718" lon="9.1212267"><ele>400.0</ele><time>2026-04-19T10:26:43.002Z</time></trkpt><trkpt lat="44.9172233" lon="9.121135"><ele>398.6666666666667</ele><time>2026-04-19T10:26:44.003Z</time></trkpt><trkpt lat="44.917265" lon="9.121055"><ele>397.33333333333337</ele><time>2026-04-19T10:26:45.003Z</time></trkpt><trkpt lat="44.91731" lon="9.1209667"><ele>396.0</ele><time>2026-04-19T10:26:46.002Z</time></trkpt><trkpt lat="44.917355" lon="9.1208717"><ele>394.66666666666663</ele><time>2026-04-19T10:26:47.003Z</time></trkpt><trkpt lat="44.9173983" lon="9.12078"><ele>393.3333333333333</ele><time>2026-04-19T10:26:48.002Z</time></trkpt><trkpt lat="44.9174483" lon="9.1206833"><ele>392.0</ele><time>2026-04-19T10:26:49.002Z</time></trkpt><trkpt lat="44.9175017" lon="9.1205883"><ele>391.99999999999994</ele><time>2026-04-19T10:26:50.003Z</time></trkpt><trkpt lat="44.9175633" lon="9.1205"><ele>392.0</ele><time>2026-04-19T10:26:51.003Z</time></trkpt><trkpt lat="44.9176283" lon="9.1204217"><ele>392.0</ele><time>2026-04-19T10:26:52.003Z</time></trkpt><trkpt lat="44.9176783" lon="9.1203383"><ele>392.0</ele><time>2026-04-19T10:26:53.002Z</time></trkpt><trkpt lat="44.9177133" lon="9.1202467"><ele>391.99999999999994</ele><time>2026-04-19T10:26:54.003Z</time></trkpt><trkpt lat="44.9177333" lon="9.1201583"><ele>392.0</ele><time>2026-04-19T10:26:55.002Z</time></trkpt><trkpt lat="44.91773" lon="9.120005"><ele>393.16666666666663</ele><time>2026-04-19T10:26:57.003Z</time></trkpt><trkpt lat="44.9176833" lon="9.11993"><ele>394.3333333333333</ele><time>2026-04-19T10:26:58.003Z</time></trkpt><trkpt lat="44.9176183" lon="9.119865"><ele>395.5</ele><time>2026-04-19T10:26:59.003Z</time></trkpt><trkpt lat="44.91754" lon="9.1197817"><ele>396.66666666666663</ele><time>2026-04-19T10:27:00.002Z</time></trkpt><trkpt lat="44.9174683" lon="9.11969"><ele>397.8333333333333</ele><time>2026-04-19T10:27:01.002Z</time></trkpt><trkpt lat="44.9174083" lon="9.1196067"><ele>399.0</ele><time>2026-04-19T10:27:02.003Z</time></trkpt><trkpt lat="44.917355" lon="9.1195183"><ele>399.0</ele><time>2026-04-19T10:27:03.003Z</time></trkpt><trkpt lat="44.917315" lon="9.1194333"><ele>399.0</ele><time>2026-04-19T10:27:04.003Z</time></trkpt><trkpt lat="44.917285" lon="9.1193367"><ele>399.0</ele><time>2026-04-19T10:27:05.003Z</time></trkpt><trkpt lat="44.9172667" lon="9.1192333"><ele>399.0</ele><time>2026-04-19T10:27:06.002Z</time></trkpt><trkpt lat="44.9172633" lon="9.1191233"><ele>399.0</ele><time>2026-04-19T10:27:07.003Z</time></trkpt><trkpt lat="44.9172917" lon="9.119005"><ele>399.0</ele><time>2026-04-19T10:27:08.003Z</time></trkpt><trkpt lat="44.91734" lon="9.1188933"><ele>398.0</ele><time>2026-04-19T10:27:09.003Z</time></trkpt><trkpt lat="44.9173917" lon="9.1187717"><ele>397.0</ele><time>2026-04-19T10:27:10.003Z</time></trkpt><trkpt lat="44.9174533" lon="9.118665"><ele>396.0</ele><time>2026-04-19T10:27:11.003Z</time></trkpt><trkpt lat="44.9175167" lon="9.118575"><ele>395.0</ele><time>2026-04-19T10:27:12.002Z</time></trkpt><trkpt lat="44.9175767" lon="9.1184883"><ele>394.0</ele><time>2026-04-19T10:27:13.002Z</time></trkpt><trkpt lat="44.9176367" lon="9.11839"><ele>400.0</ele><time>2026-04-19T10:27:14.001Z</time></trkpt><trkpt lat="44.9176983" lon="9.118305"><ele>406.0</ele><time>2026-04-19T10:27:15.002Z</time></trkpt><trkpt lat="44.9177283" lon="9.11818"><ele>412.0</ele><time>2026-04-19T10:27:16.002Z</time></trkpt><trkpt lat="44.9177517" lon="9.1180533"><ele>418.0</ele><time>2026-04-19T10:27:17.002Z</time></trkpt><trkpt lat="44.9177617" lon="9.1179183"><ele>424.0</ele><time>2026-04-19T10:27:18.001Z</time></trkpt><trkpt lat="44.9177717" lon="9.1177783"><ele>424.00000000000006</ele><time>2026-04-19T10:27:19.002Z</time></trkpt><trkpt lat="44.9177733" lon="9.1176467"><ele>424.0</ele><time>2026-04-19T10:27:20.001Z</time></trkpt><trkpt lat="44.91777" lon="9.1175133"><ele>424.0</ele><time>2026-04-19T10:27:21.002Z</time></trkpt><trkpt lat="44.9177667" lon="9.1174"><ele>424.0</ele><time>2026-04-19T10:27:22.002Z</time></trkpt><trkpt lat="44.9177567" lon="9.1172867"><ele>424.00000000000006</ele><time>2026-04-19T10:27:23.002Z</time></trkpt><trkpt lat="44.9177417" lon="9.117175"><ele>424.0</ele><time>2026-04-19T10:27:24.002Z</time></trkpt><trkpt lat="44.9177283" lon="9.117075"><ele>425.79999999999995</ele><time>2026-04-19T10:27:25.002Z</time></trkpt><trkpt lat="44.91772" lon="9.1169"><ele>427.59999999999997</ele><time>2026-04-19T10:27:27.001Z</time></trkpt><trkpt lat="44.9176933" lon="9.116785"><ele>429.4</ele><time>2026-04-19T10:27:28.002Z</time></trkpt><trkpt lat="44.917645" lon="9.116675"><ele>431.2</ele><time>2026-04-19T10:27:29.002Z</time></trkpt><trkpt lat="44.917605" lon="9.116585"><ele>433.0</ele><time>2026-04-19T10:27:30.001Z</time></trkpt><trkpt lat="44.917555" lon="9.1164667"><ele>429.57142857142856</ele><time>2026-04-19T10:27:31.002Z</time></trkpt><trkpt lat="44.9175167" lon="9.1163683"><ele>426.1428571428571</ele><time>2026-04-19T10:27:32.001Z</time></trkpt><trkpt lat="44.9174917" lon="9.1162817"><ele>422.71428571428567</ele><time>2026-04-19T10:27:33.002Z</time></trkpt><trkpt lat="44.9174817" lon="9.1161933"><ele>419.2857142857143</ele><time>2026-04-19T10:27:34.002Z</time></trkpt><trkpt lat="44.917475" lon="9.1161017"><ele>415.8571428571429</ele><time>2026-04-19T10:27:35.002Z</time></trkpt><trkpt lat="44.9174733" lon="9.1160083"><ele>412.4285714285714</ele><time>2026-04-19T10:27:36.002Z</time></trkpt><trkpt lat="44.91748" lon="9.11591"><ele>409.0</ele><time>2026-04-19T10:27:37.001Z</time></trkpt><trkpt lat="44.917485" lon="9.115815"><ele>409.50000000000006</ele><time>2026-04-19T10:27:38.002Z</time></trkpt><trkpt lat="44.9174933" lon="9.1157233"><ele>410.0</ele><time>2026-04-19T10:27:39.001Z</time></trkpt><trkpt lat="44.9174933" lon="9.1155483"><ele>410.5</ele><time>2026-04-19T10:27:41.001Z</time></trkpt><trkpt lat="44.91747" lon="9.11546"><ele>411.0</ele><time>2026-04-19T10:27:42.002Z</time></trkpt><trkpt lat="44.9174667" lon="9.1153583"><ele>411.50000000000006</ele><time>2026-04-19T10:27:43.002Z</time></trkpt><trkpt lat="44.9174683" lon="9.115265"><ele>412.0</ele><time>2026-04-19T10:27:44.001Z</time></trkpt><trkpt lat="44.9174767" lon="9.1151717"><ele>411.99999999999994</ele><time>2026-04-19T10:27:45.001Z</time></trkpt><trkpt lat="44.9174833" lon="9.1150733"><ele>412.0</ele><time>2026-04-19T10:27:46.002Z</time></trkpt><trkpt lat="44.917495" lon="9.1149733"><ele>412.0</ele><time>2026-04-19T10:27:47.002Z</time></trkpt><trkpt lat="44.9175033" lon="9.1148733"><ele>412.0</ele><time>2026-04-19T10:27:48.001Z</time></trkpt><trkpt lat="44.9175167" lon="9.114775"><ele>412.0</ele><time>2026-04-19T10:27:49.002Z</time></trkpt><trkpt lat="44.91753" lon="9.1146717"><ele>411.99999999999994</ele><time>2026-04-19T10:27:50.002Z</time></trkpt><trkpt lat="44.9175417" lon="9.11457"><ele>412.0</ele><time>2026-04-19T10:27:51.001Z</time></trkpt><trkpt lat="44.9175483" lon="9.114465"><ele>414.00000000000006</ele><time>2026-04-19T10:27:52.001Z</time></trkpt><trkpt lat="44.917585" lon="9.1142967"><ele>416.0</ele><time>2026-04-19T10:27:54.002Z</time></trkpt><trkpt lat="44.91762" lon="9.114205"><ele>418.0</ele><time>2026-04-19T10:27:55.001Z</time></trkpt><trkpt lat="44.9176667" lon="9.114135"><ele>420.0</ele><time>2026-04-19T10:27:56.002Z</time></trkpt><trkpt lat="44.9177233" lon="9.11407"><ele>422.00000000000006</ele><time>2026-04-19T10:27:57.001Z</time></trkpt><trkpt lat="44.9177917" lon="9.1140183"><ele>424.0</ele><time>2026-04-19T10:27:58.002Z</time></trkpt><trkpt lat="44.91786" lon="9.113965"><ele>424.00000000000006</ele><time>2026-04-19T10:27:59.002Z</time></trkpt><trkpt lat="44.9179317" lon="9.1139283"><ele>424.0</ele><time>2026-04-19T10:28:00.001Z</time></trkpt><trkpt lat="44.9180067" lon="9.1139"><ele>424.0</ele><time>2026-04-19T10:28:01.002Z</time></trkpt><trkpt lat="44.9180867" lon="9.1138717"><ele>424.0</ele><time>2026-04-19T10:28:02.001Z</time></trkpt><trkpt lat="44.918165" lon="9.1138317"><ele>424.00000000000006</ele><time>2026-04-19T10:28:03.002Z</time></trkpt><trkpt lat="44.9182367" lon="9.11379"><ele>424.0</ele><time>2026-04-19T10:28:04.002Z</time></trkpt><trkpt lat="44.918305" lon="9.1137483"><ele>424.0</ele><time>2026-04-19T10:28:05.001Z</time></trkpt><trkpt lat="44.9183617" lon="9.1137083"><ele>424.0</ele><time>2026-04-19T10:28:06.001Z</time></trkpt><trkpt lat="44.9184667" lon="9.1136783"><ele>424.0</ele><time>2026-04-19T10:28:08.002Z</time></trkpt><trkpt lat="44.9185717" lon="9.1137283"><ele>424.0</ele><time>2026-04-19T10:28:10.002Z</time></trkpt><trkpt lat="44.9186383" lon="9.1137933"><ele>424.0</ele><time>2026-04-19T10:28:11.002Z</time></trkpt><trkpt lat="44.9187033" lon="9.1138767"><ele>422.2857142857143</ele><time>2026-04-19T10:28:12.002Z</time></trkpt><trkpt lat="44.9187517" lon="9.113965"><ele>420.57142857142856</ele><time>2026-04-19T10:28:13.002Z</time></trkpt><trkpt lat="44.9187867" lon="9.1140467"><ele>418.85714285714283</ele><time>2026-04-19T10:28:14.002Z</time></trkpt><trkpt lat="44.9188167" lon="9.1141433"><ele>417.1428571428571</ele><time>2026-04-19T10:28:15.001Z</time></trkpt><trkpt lat="44.91884" lon="9.114245"><ele>415.42857142857144</ele><time>2026-04-19T10:28:16.001Z</time></trkpt><trkpt lat="44.918855" lon="9.114345"><ele>413.71428571428567</ele><time>2026-04-19T10:28:17.001Z</time></trkpt><trkpt lat="44.9188733" lon="9.1144483"><ele>412.0</ele><time>2026-04-19T10:28:18.001Z</time></trkpt><trkpt lat="44.91888" lon="9.11456"><ele>411.99999999999994</ele><time>2026-04-19T10:28:19.001Z</time></trkpt><trkpt lat="44.9188917" lon="9.114665"><ele>412.0</ele><time>2026-04-19T10:28:20.002Z</time></trkpt><trkpt lat="44.9189067" lon="9.1147567"><ele>412.0</ele><time>2026-04-19T10:28:21.002Z</time></trkpt><trkpt lat="44.91894" lon="9.1148717"><ele>412.0</ele><time>2026-04-19T10:28:23.001Z</time></trkpt><trkpt lat="44.9189883" lon="9.1149383"><ele>412.0</ele><time>2026-04-19T10:28:26.002Z</time></trkpt><trkpt lat="44.9190483" lon="9.115005"><ele>411.99999999999994</ele><time>2026-04-19T10:28:28.002Z</time></trkpt><trkpt lat="44.9190983" lon="9.1150833"><ele>412.0</ele><time>2026-04-19T10:28:30.002Z</time></trkpt><trkpt lat="44.9191417" lon="9.11516"><ele>412.0</ele><time>2026-04-19T10:28:32.002Z</time></trkpt><trkpt lat="44.919085" lon="9.1150433"><ele>412.0</ele><time>2026-04-19T10:28:51.002Z</time></trkpt><trkpt lat="44.9190367" lon="9.1148867"><ele>412.0</ele><time>2026-04-19T10:28:53.001Z</time></trkpt><trkpt lat="44.91901" lon="9.1147883"><ele>412.0</ele><time>2026-04-19T10:28:54.002Z</time></trkpt><trkpt lat="44.918995" lon="9.1146083"><ele>412.0</ele><time>2026-04-19T10:28:56.002Z</time></trkpt><trkpt lat="44.9189917" lon="9.1145117"><ele>412.00000000000006</ele><time>2026-04-19T10:28:57.002Z</time></trkpt><trkpt lat="44.9189983" lon="9.1144133"><ele>412.0</ele><time>2026-04-19T10:28:58.001Z</time></trkpt><trkpt lat="44.9190333" lon="9.114235"><ele>412.0</ele><time>2026-04-19T10:29:00.001Z</time></trkpt><trkpt lat="44.9190517" lon="9.114135"><ele>412.0</ele><time>2026-04-19T10:29:01.002Z</time></trkpt><trkpt lat="44.91906" lon="9.1140417"><ele>412.00000000000006</ele><time>2026-04-19T10:29:02.002Z</time></trkpt><trkpt lat="44.91906" lon="9.1139467"><ele>412.0</ele><time>2026-04-19T10:29:03.001Z</time></trkpt><trkpt lat="44.919055" lon="9.1137933"><ele>412.0</ele><time>2026-04-19T10:29:05.001Z</time></trkpt><trkpt lat="44.9190533" lon="9.1136383"><ele>412.0</ele><time>2026-04-19T10:29:07.001Z</time></trkpt><trkpt lat="44.9190783" lon="9.1135267"><ele>412.0</ele><time>2026-04-19T10:29:09.001Z</time></trkpt><trkpt lat="44.91916" lon="9.1134383"><ele>412.0</ele><time>2026-04-19T10:29:11.001Z</time></trkpt><trkpt lat="44.9192733" lon="9.1133767"><ele>412.0</ele><time>2026-04-19T10:29:13.001Z</time></trkpt><trkpt lat="44.919335" lon="9.113355"><ele>411.33333333333337</ele><time>2026-04-19T10:29:14.002Z</time></trkpt><trkpt lat="44.9194" lon="9.1133333"><ele>410.6666666666667</ele><time>2026-04-19T10:29:15.002Z</time></trkpt><trkpt lat="44.9194667" lon="9.1133083"><ele>410.0</ele><time>2026-04-19T10:29:16.001Z</time></trkpt><trkpt lat="44.9195333" lon="9.113285"><ele>409.33333333333337</ele><time>2026-04-19T10:29:17.001Z</time></trkpt><trkpt lat="44.9196033" lon="9.1132533"><ele>408.6666666666667</ele><time>2026-04-19T10:29:18.002Z</time></trkpt><trkpt lat="44.919665" lon="9.1132267"><ele>408.0</ele><time>2026-04-19T10:29:19.002Z</time></trkpt><trkpt lat="44.9197717" lon="9.1131717"><ele>408.0</ele><time>2026-04-19T10:29:21.002Z</time></trkpt><trkpt lat="44.9198367" lon="9.1131417"><ele>408.0</ele><time>2026-04-19T10:29:22.002Z</time></trkpt><trkpt lat="44.919915" lon="9.1131033"><ele>408.0</ele><time>2026-04-19T10:29:23.002Z</time></trkpt><trkpt lat="44.919995" lon="9.1130583"><ele>408.0</ele><time>2026-04-19T10:29:24.001Z</time></trkpt><trkpt lat="44.9200717" lon="9.1130067"><ele>408.0</ele><time>2026-04-19T10:29:25.002Z</time></trkpt><trkpt lat="44.9201433" lon="9.112955"><ele>408.0</ele><time>2026-04-19T10:29:26.002Z</time></trkpt><trkpt lat="44.9202067" lon="9.1129017"><ele>407.0</ele><time>2026-04-19T10:29:27.001Z</time></trkpt><trkpt lat="44.9202683" lon="9.1128383"><ele>406.0</ele><time>2026-04-19T10:29:28.002Z</time></trkpt><trkpt lat="44.9203317" lon="9.1127783"><ele>405.0</ele><time>2026-04-19T10:29:29.002Z</time></trkpt><trkpt lat="44.920395" lon="9.112725"><ele>404.0</ele><time>2026-04-19T10:29:30.002Z</time></trkpt><trkpt lat="44.9204583" lon="9.112685"><ele>403.0</ele><time>2026-04-19T10:29:31.002Z</time></trkpt><trkpt lat="44.9205267" lon="9.11265"><ele>402.0</ele><time>2026-04-19T10:29:32.001Z</time></trkpt><trkpt lat="44.9205967" lon="9.1126217"><ele>401.0</ele><time>2026-04-19T10:29:33.002Z</time></trkpt><trkpt lat="44.9206617" lon="9.1126067"><ele>400.99999999999994</ele><time>2026-04-19T10:29:34.002Z</time></trkpt><trkpt lat="44.9207317" lon="9.1125867"><ele>401.0</ele><time>2026-04-19T10:29:35.002Z</time></trkpt><trkpt lat="44.9208083" lon="9.1125633"><ele>401.0</ele><time>2026-04-19T10:29:36.002Z</time></trkpt><trkpt lat="44.92088" lon="9.112535"><ele>401.0</ele><time>2026-04-19T10:29:37.001Z</time></trkpt><trkpt lat="44.9209533" lon="9.1124933"><ele>400.99999999999994</ele><time>2026-04-19T10:29:38.001Z</time></trkpt><trkpt lat="44.92102" lon="9.1124467"><ele>401.0</ele><time>2026-04-19T10:29:39.002Z</time></trkpt><trkpt lat="44.92109" lon="9.1123983"><ele>400.42857142857144</ele><time>2026-04-19T10:29:40.002Z</time></trkpt><trkpt lat="44.921155" lon="9.112345"><ele>399.8571428571429</ele><time>2026-04-19T10:29:41.002Z</time></trkpt><trkpt lat="44.921225" lon="9.1123067"><ele>399.2857142857143</ele><time>2026-04-19T10:29:42.002Z</time></trkpt><trkpt lat="44.9213" lon="9.1122633"><ele>398.7142857142857</ele><time>2026-04-19T10:29:43.001Z</time></trkpt><trkpt lat="44.9213617" lon="9.112215"><ele>398.1428571428571</ele><time>2026-04-19T10:29:44.001Z</time></trkpt><trkpt lat="44.9214267" lon="9.112175"><ele>397.57142857142856</ele><time>2026-04-19T10:29:45.001Z</time></trkpt><trkpt lat="44.9214917" lon="9.1121417"><ele>397.0</ele><time>2026-04-19T10:29:46.002Z</time></trkpt><trkpt lat="44.9215617" lon="9.1121167"><ele>397.0</ele><time>2026-04-19T10:29:47.002Z</time></trkpt><trkpt lat="44.921625" lon="9.1120867"><ele>397.0</ele><time>2026-04-19T10:29:48.001Z</time></trkpt><trkpt lat="44.921735" lon="9.1120317"><ele>397.0</ele><time>2026-04-19T10:29:50.002Z</time></trkpt><trkpt lat="44.9218333" lon="9.1119633"><ele>397.0</ele><time>2026-04-19T10:29:52.002Z</time></trkpt><trkpt lat="44.9219383" lon="9.1118917"><ele>397.0</ele><time>2026-04-19T10:29:54.002Z</time></trkpt><trkpt lat="44.922045" lon="9.1118333"><ele>394.6</ele><time>2026-04-19T10:29:56.002Z</time></trkpt><trkpt lat="44.92214" lon="9.1117633"><ele>392.20000000000005</ele><time>2026-04-19T10:29:58.001Z</time></trkpt><trkpt lat="44.9222333" lon="9.1116833"><ele>389.8</ele><time>2026-04-19T10:30:00.002Z</time></trkpt><trkpt lat="44.9223217" lon="9.1116067"><ele>387.4</ele><time>2026-04-19T10:30:02.001Z</time></trkpt><trkpt lat="44.92242" lon="9.1115283"><ele>385.0</ele><time>2026-04-19T10:30:04.001Z</time></trkpt><trkpt lat="44.9225217" lon="9.1114467"><ele>383.83333333333337</ele><time>2026-04-19T10:30:06.002Z</time></trkpt><trkpt lat="44.9225767" lon="9.1114"><ele>382.6666666666667</ele><time>2026-04-19T10:30:07.001Z</time></trkpt><trkpt lat="44.9226317" lon="9.1113517"><ele>381.5</ele><time>2026-04-19T10:30:08.001Z</time></trkpt><trkpt lat="44.9226883" lon="9.1112883"><ele>380.33333333333337</ele><time>2026-04-19T10:30:09.002Z</time></trkpt><trkpt lat="44.92274" lon="9.1112267"><ele>379.1666666666667</ele><time>2026-04-19T10:30:10.001Z</time></trkpt><trkpt lat="44.9227917" lon="9.1111633"><ele>378.0</ele><time>2026-04-19T10:30:11.001Z</time></trkpt><trkpt lat="44.9229" lon="9.1110583"><ele>378.0</ele><time>2026-04-19T10:30:13.002Z</time></trkpt><trkpt lat="44.9229617" lon="9.1110133"><ele>378.0</ele><time>2026-04-19T10:30:14.002Z</time></trkpt><trkpt lat="44.923035" lon="9.11098"><ele>378.0</ele><time>2026-04-19T10:30:15.002Z</time></trkpt><trkpt lat="44.9231017" lon="9.11095"><ele>378.0</ele><time>2026-04-19T10:30:16.002Z</time></trkpt><trkpt lat="44.92317" lon="9.110925"><ele>378.0</ele><time>2026-04-19T10:30:17.001Z</time></trkpt><trkpt lat="44.9232417" lon="9.1109033"><ele>378.0</ele><time>2026-04-19T10:30:18.001Z</time></trkpt><trkpt lat="44.9233083" lon="9.1108767"><ele>378.0</ele><time>2026-04-19T10:30:19.002Z</time></trkpt><trkpt lat="44.9233833" lon="9.1108533"><ele>377.4</ele><time>2026-04-19T10:30:20.002Z</time></trkpt><trkpt lat="44.92345" lon="9.1108383"><ele>376.79999999999995</ele><time>2026-04-19T10:30:21.002Z</time></trkpt><trkpt lat="44.923515" lon="9.1108333"><ele>376.2</ele><time>2026-04-19T10:30:22.001Z</time></trkpt><trkpt lat="44.9235783" lon="9.1108267"><ele>375.6</ele><time>2026-04-19T10:30:23.002Z</time></trkpt><trkpt lat="44.9237017" lon="9.1107983"><ele>375.0</ele><time>2026-04-19T10:30:25.002Z</time></trkpt><trkpt lat="44.9238067" lon="9.1106867"><ele>375.0</ele><time>2026-04-19T10:30:27.002Z</time></trkpt><trkpt lat="44.92385" lon="9.1106083"><ele>375.0</ele><time>2026-04-19T10:30:28.001Z</time></trkpt><trkpt lat="44.9239067" lon="9.1105283"><ele>375.0</ele><time>2026-04-19T10:30:29.001Z</time></trkpt><trkpt lat="44.9239617" lon="9.1104483"><ele>375.0</ele><time>2026-04-19T10:30:30.002Z</time></trkpt><trkpt lat="44.9240217" lon="9.110365"><ele>375.0</ele><time>2026-04-19T10:30:31.002Z</time></trkpt><trkpt lat="44.9240867" lon="9.1102983"><ele>375.0</ele><time>2026-04-19T10:30:32.001Z</time></trkpt><trkpt lat="44.924155" lon="9.1102417"><ele>375.0</ele><time>2026-04-19T10:30:33.002Z</time></trkpt><trkpt lat="44.9242267" lon="9.1102167"><ele>375.0</ele><time>2026-04-19T10:30:34.002Z</time></trkpt><trkpt lat="44.924305" lon="9.110195"><ele>375.0</ele><time>2026-04-19T10:30:35.002Z</time></trkpt><trkpt lat="44.9243833" lon="9.1101717"><ele>375.0</ele><time>2026-04-19T10:30:36.001Z</time></trkpt><trkpt lat="44.92446" lon="9.1101483"><ele>375.0</ele><time>2026-04-19T10:30:37.002Z</time></trkpt><trkpt lat="44.9245317" lon="9.110125"><ele>375.0</ele><time>2026-04-19T10:30:38.002Z</time></trkpt><trkpt lat="44.9246" lon="9.1100967"><ele>374.8</ele><time>2026-04-19T10:30:39.001Z</time></trkpt><trkpt lat="44.9246633" lon="9.1100683"><ele>374.6</ele><time>2026-04-19T10:30:40.002Z</time></trkpt><trkpt lat="44.9247283" lon="9.110035"><ele>374.4</ele><time>2026-04-19T10:30:41.001Z</time></trkpt><trkpt lat="44.9248217" lon="9.109955"><ele>374.2</ele><time>2026-04-19T10:30:43.002Z</time></trkpt><trkpt lat="44.9248633" lon="9.109825"><ele>374.0</ele><time>2026-04-19T10:30:45.002Z</time></trkpt><trkpt lat="44.9248733" lon="9.1096733"><ele>374.0</ele><time>2026-04-19T10:30:47.001Z</time></trkpt><trkpt lat="44.9248783" lon="9.1095467"><ele>374.0</ele><time>2026-04-19T10:30:49.002Z</time></trkpt><trkpt lat="44.924925" lon="9.10946"><ele>374.0</ele><time>2026-04-19T10:30:51.001Z</time></trkpt><trkpt lat="44.9249983" lon="9.1094817"><ele>374.0</ele><time>2026-04-19T10:30:53.001Z</time></trkpt><trkpt lat="44.9250833" lon="9.109575"><ele>374.0</ele><time>2026-04-19T10:30:55.002Z</time></trkpt><trkpt lat="44.9251567" lon="9.10967"><ele>374.0</ele><time>2026-04-19T10:30:57.002Z</time></trkpt><trkpt lat="44.9252433" lon="9.10974"><ele>372.33333333333337</ele><time>2026-04-19T10:30:59.002Z</time></trkpt><trkpt lat="44.9253417" lon="9.1098017"><ele>370.6666666666667</ele><time>2026-04-19T10:31:01.001Z</time></trkpt><trkpt lat="44.92545" lon="9.1097983"><ele>369.0</ele><time>2026-04-19T10:31:03.002Z</time></trkpt><trkpt lat="44.9255133" lon="9.1097817"><ele>367.3333333333333</ele><time>2026-04-19T10:31:04.001Z</time></trkpt><trkpt lat="44.9255767" lon="9.1097583"><ele>365.66666666666663</ele><time>2026-04-19T10:31:05.002Z</time></trkpt><trkpt lat="44.9256383" lon="9.1097333"><ele>364.0</ele><time>2026-04-19T10:31:06.001Z</time></trkpt><trkpt lat="44.9257017" lon="9.1097"><ele>364.0</ele><time>2026-04-19T10:31:07.001Z</time></trkpt><trkpt lat="44.9257667" lon="9.109675"><ele>364.0</ele><time>2026-04-19T10:31:08.001Z</time></trkpt><trkpt lat="44.925835" lon="9.10965"><ele>364.0</ele><time>2026-04-19T10:31:09.002Z</time></trkpt><trkpt lat="44.925905" lon="9.1096383"><ele>364.0</ele><time>2026-04-19T10:31:10.002Z</time></trkpt><trkpt lat="44.9259767" lon="9.1096417"><ele>364.0</ele><time>2026-04-19T10:31:11.002Z</time></trkpt><trkpt lat="44.9260467" lon="9.1096583"><ele>364.0</ele><time>2026-04-19T10:31:12.002Z</time></trkpt><trkpt lat="44.9261133" lon="9.1096667"><ele>364.0</ele><time>2026-04-19T10:31:13.002Z</time></trkpt><trkpt lat="44.9261833" lon="9.109685"><ele>363.2</ele><time>2026-04-19T10:31:14.002Z</time></trkpt><trkpt lat="44.9262517" lon="9.1096917"><ele>362.4</ele><time>2026-04-19T10:31:15.002Z</time></trkpt><trkpt lat="44.9263217" lon="9.1096933"><ele>361.6</ele><time>2026-04-19T10:31:16.002Z</time></trkpt><trkpt lat="44.926385" lon="9.1096833"><ele>360.8</ele><time>2026-04-19T10:31:17.002Z</time></trkpt><trkpt lat="44.9265233" lon="9.1096817"><ele>360.0</ele><time>2026-04-19T10:31:19.001Z</time></trkpt><trkpt lat="44.9266483" lon="9.1096633"><ele>358.4</ele><time>2026-04-19T10:31:21.002Z</time></trkpt><trkpt lat="44.9267633" lon="9.1096183"><ele>356.8</ele><time>2026-04-19T10:31:23.002Z</time></trkpt><trkpt lat="44.92683" lon="9.1095917"><ele>355.20000000000005</ele><time>2026-04-19T10:31:24.002Z</time></trkpt><trkpt lat="44.9269433" lon="9.1095433"><ele>353.6</ele><time>2026-04-19T10:31:26.001Z</time></trkpt><trkpt lat="44.92702" lon="9.10955"><ele>352.0</ele><time>2026-04-19T10:31:29.002Z</time></trkpt><trkpt lat="44.9270333" lon="9.1096417"><ele>352.0</ele><time>2026-04-19T10:31:31.002Z</time></trkpt><trkpt lat="44.92709" lon="9.1097133"><ele>352.0</ele><time>2026-04-19T10:31:34.002Z</time></trkpt><trkpt lat="44.92717" lon="9.10965"><ele>352.0</ele><time>2026-04-19T10:31:36.001Z</time></trkpt><trkpt lat="44.9272667" lon="9.1095567"><ele>352.0</ele><time>2026-04-19T10:31:38.001Z</time></trkpt><trkpt lat="44.9273683" lon="9.1094983"><ele>352.0</ele><time>2026-04-19T10:31:40.002Z</time></trkpt><trkpt lat="44.9274517" lon="9.1094617"><ele>352.0</ele><time>2026-04-19T10:31:42.002Z</time></trkpt><trkpt lat="44.9275417" lon="9.10946"><ele>352.0</ele><time>2026-04-19T10:31:45.001Z</time></trkpt><trkpt lat="44.92761" lon="9.109475"><ele>352.0</ele><time>2026-04-19T10:31:48.002Z</time></trkpt><trkpt lat="44.927665" lon="9.1094283"><ele>352.0</ele><time>2026-04-19T10:31:52.001Z</time></trkpt><trkpt lat="44.92758" lon="9.10947"><ele>352.0</ele><time>2026-04-19T10:32:19Z</time></trkpt><trkpt lat="44.927555" lon="9.10938"><ele>352.0</ele><time>2026-04-19T10:32:23Z</time></trkpt><trkpt lat="44.9276033" lon="9.1092817"><ele>352.20000000000005</ele><time>2026-04-19T10:32:25.001Z</time></trkpt><trkpt lat="44.9276717" lon="9.1091683"><ele>352.4</ele><time>2026-04-19T10:32:27.001Z</time></trkpt><trkpt lat="44.927715" lon="9.1090717"><ele>352.6</ele><time>2026-04-19T10:32:29.001Z</time></trkpt><trkpt lat="44.927685" lon="9.1089383"><ele>352.79999999999995</ele><time>2026-04-19T10:32:32Z</time></trkpt><trkpt lat="44.9276133" lon="9.1088433"><ele>353.0</ele><time>2026-04-19T10:32:34.001Z</time></trkpt><trkpt lat="44.9275467" lon="9.1087617"><ele>353.0</ele><time>2026-04-19T10:32:36.001Z</time></trkpt><trkpt lat="44.9275133" lon="9.10868"><ele>353.0</ele><time>2026-04-19T10:32:38.001Z</time></trkpt><trkpt lat="44.9274983" lon="9.1085717"><ele>353.0</ele><time>2026-04-19T10:32:41Z</time></trkpt><trkpt lat="44.92744" lon="9.1084983"><ele>353.0</ele><time>2026-04-19T10:32:43.001Z</time></trkpt><trkpt lat="44.9273567" lon="9.1084183"><ele>353.0</ele><time>2026-04-19T10:32:45Z</time></trkpt><trkpt lat="44.9272983" lon="9.10838"><ele>353.0</ele><time>2026-04-19T10:32:46.001Z</time></trkpt><trkpt lat="44.9272383" lon="9.1083317"><ele>353.0</ele><time>2026-04-19T10:32:47Z</time></trkpt><trkpt lat="44.927155" lon="9.108275"><ele>353.0</ele><time>2026-04-19T10:32:49.001Z</time></trkpt><trkpt lat="44.9270883" lon="9.108205"><ele>353.0</ele><time>2026-04-19T10:32:52.001Z</time></trkpt><trkpt lat="44.9270533" lon="9.10813"><ele>353.0</ele><time>2026-04-19T10:33:01.001Z</time></trkpt><trkpt lat="44.9270433" lon="9.108005"><ele>353.0</ele><time>2026-04-19T10:33:04.001Z</time></trkpt><trkpt lat="44.927065" lon="9.1079033"><ele>353.0</ele><time>2026-04-19T10:33:06.001Z</time></trkpt><trkpt lat="44.9270617" lon="9.1077933"><ele>351.5</ele><time>2026-04-19T10:33:09.001Z</time></trkpt><trkpt lat="44.9270317" lon="9.1076717"><ele>350.0</ele><time>2026-04-19T10:33:12Z</time></trkpt><trkpt lat="44.9270017" lon="9.1075917"><ele>348.5</ele><time>2026-04-19T10:33:14.001Z</time></trkpt><trkpt lat="44.9269633" lon="9.1074717"><ele>347.0</ele><time>2026-04-19T10:33:16.001Z</time></trkpt><trkpt lat="44.9269183" lon="9.10735"><ele>345.5</ele><time>2026-04-19T10:33:18Z</time></trkpt><trkpt lat="44.9268783" lon="9.10722"><ele>344.0</ele><time>2026-04-19T10:33:20.001Z</time></trkpt><trkpt lat="44.9268417" lon="9.1071017"><ele>343.1666666666667</ele><time>2026-04-19T10:33:22.001Z</time></trkpt><trkpt lat="44.926815" lon="9.1070033"><ele>342.33333333333337</ele><time>2026-04-19T10:33:24.001Z</time></trkpt><trkpt lat="44.9267733" lon="9.1069333"><ele>341.5</ele><time>2026-04-19T10:33:26Z</time></trkpt><trkpt lat="44.926715" lon="9.1068567"><ele>340.6666666666667</ele><time>2026-04-19T10:33:28.001Z</time></trkpt><trkpt lat="44.9266467" lon="9.1067533"><ele>339.8333333333333</ele><time>2026-04-19T10:33:30.001Z</time></trkpt><trkpt lat="44.9265867" lon="9.10667"><ele>339.0</ele><time>2026-04-19T10:33:32Z</time></trkpt><trkpt lat="44.9265167" lon="9.1065717"><ele>339.0</ele><time>2026-04-19T10:33:34.001Z</time></trkpt><trkpt lat="44.9264383" lon="9.10648"><ele>339.0</ele><time>2026-04-19T10:33:36Z</time></trkpt><trkpt lat="44.9263617" lon="9.1064433"><ele>339.0</ele><time>2026-04-19T10:33:38.001Z</time></trkpt><trkpt lat="44.9262733" lon="9.1064183"><ele>339.0</ele><time>2026-04-19T10:33:41.001Z</time></trkpt><trkpt lat="44.9262017" lon="9.1064133"><ele>339.0</ele><time>2026-04-19T10:33:43.001Z</time></trkpt><trkpt lat="44.9261283" lon="9.10637"><ele>339.0</ele><time>2026-04-19T10:33:45Z</time></trkpt><trkpt lat="44.9260467" lon="9.1063"><ele>339.0</ele><time>2026-04-19T10:33:47Z</time></trkpt><trkpt lat="44.92599" lon="9.1062183"><ele>339.0</ele><time>2026-04-19T10:33:49.001Z</time></trkpt><trkpt lat="44.9259367" lon="9.10615"><ele>339.0</ele><time>2026-04-19T10:33:51.001Z</time></trkpt><trkpt lat="44.9258867" lon="9.1060783"><ele>339.0</ele><time>2026-04-19T10:33:53.001Z</time></trkpt><trkpt lat="44.9258383" lon="9.1060033"><ele>339.0</ele><time>2026-04-19T10:33:55.001Z</time></trkpt><trkpt lat="44.9257933" lon="9.1059167"><ele>339.0</ele><time>2026-04-19T10:33:57Z</time></trkpt><trkpt lat="44.92575" lon="9.10582"><ele>340.8333333333333</ele><time>2026-04-19T10:33:59Z</time></trkpt><trkpt lat="44.9257233" lon="9.1057233"><ele>342.6666666666667</ele><time>2026-04-19T10:34:01Z</time></trkpt><trkpt lat="44.9256867" lon="9.1056417"><ele>344.5</ele><time>2026-04-19T10:34:03Z</time></trkpt><trkpt lat="44.9256483" lon="9.10557"><ele>346.33333333333337</ele><time>2026-04-19T10:34:05.001Z</time></trkpt><trkpt lat="44.9255917" lon="9.1054683"><ele>348.1666666666667</ele><time>2026-04-19T10:34:08.001Z</time></trkpt><trkpt lat="44.9255517" lon="9.10538"><ele>350.0</ele><time>2026-04-19T10:34:10Z</time></trkpt><trkpt lat="44.9255267" lon="9.1052583"><ele>350.0</ele><time>2026-04-19T10:34:12.001Z</time></trkpt><trkpt lat="44.9254933" lon="9.105145"><ele>350.0</ele><time>2026-04-19T10:34:14.001Z</time></trkpt><trkpt lat="44.925495" lon="9.1050383"><ele>350.0</ele><time>2026-04-19T10:34:16Z</time></trkpt><trkpt lat="44.92553" lon="9.1049117"><ele>350.0</ele><time>2026-04-19T10:34:18Z</time></trkpt><trkpt lat="44.9255583" lon="9.104805"><ele>350.0</ele><time>2026-04-19T10:34:20.001Z</time></trkpt><trkpt lat="44.9255617" lon="9.104705"><ele>350.0</ele><time>2026-04-19T10:34:22Z</time></trkpt><trkpt lat="44.9255633" lon="9.1046083"><ele>352.6666666666667</ele><time>2026-04-19T10:34:24Z</time></trkpt><trkpt lat="44.9255717" lon="9.1045167"><ele>355.33333333333337</ele><time>2026-04-19T10:34:26.001Z</time></trkpt><trkpt lat="44.92557" lon="9.104425"><ele>358.0</ele><time>2026-04-19T10:34:34Z</time></trkpt><trkpt lat="44.925595" lon="9.1043167"><ele>360.6666666666667</ele><time>2026-04-19T10:34:36Z</time></trkpt><trkpt lat="44.925675" lon="9.10421"><ele>363.3333333333333</ele><time>2026-04-19T10:34:38.001Z</time></trkpt><trkpt lat="44.9257533" lon="9.1041733"><ele>366.0</ele><time>2026-04-19T10:34:40.001Z</time></trkpt><trkpt lat="44.9258433" lon="9.1041517"><ele>365.6666666666667</ele><time>2026-04-19T10:34:43.001Z</time></trkpt><trkpt lat="44.9259167" lon="9.10412"><ele>365.3333333333333</ele><time>2026-04-19T10:34:46Z</time></trkpt><trkpt lat="44.9260033" lon="9.1041133"><ele>365.0</ele><time>2026-04-19T10:34:49.001Z</time></trkpt><trkpt lat="44.9260667" lon="9.104115"><ele>364.66666666666663</ele><time>2026-04-19T10:34:51Z</time></trkpt><trkpt lat="44.92614" lon="9.104105"><ele>364.3333333333333</ele><time>2026-04-19T10:34:53.001Z</time></trkpt><trkpt lat="44.926225" lon="9.1040817"><ele>364.0</ele><time>2026-04-19T10:34:56.001Z</time></trkpt><trkpt lat="44.9262983" lon="9.104055"><ele>368.2</ele><time>2026-04-19T10:34:58.001Z</time></trkpt><trkpt lat="44.926375" lon="9.104025"><ele>372.4</ele><time>2026-04-19T10:35:00.001Z</time></trkpt><trkpt lat="44.9264783" lon="9.1039983"><ele>376.6</ele><time>2026-04-19T10:35:02.001Z</time></trkpt><trkpt lat="44.9265883" lon="9.103965"><ele>380.8</ele><time>2026-04-19T10:35:04Z</time></trkpt><trkpt lat="44.9266883" lon="9.1039183"><ele>385.0</ele><time>2026-04-19T10:35:06.001Z</time></trkpt><trkpt lat="44.92676" lon="9.10383"><ele>385.0</ele><time>2026-04-19T10:35:08.001Z</time></trkpt><trkpt lat="44.9268233" lon="9.1037067"><ele>385.0</ele><time>2026-04-19T10:35:10.001Z</time></trkpt><trkpt lat="44.926875" lon="9.1035867"><ele>385.0</ele><time>2026-04-19T10:35:12.001Z</time></trkpt><trkpt lat="44.9269217" lon="9.1034517"><ele>385.0</ele><time>2026-04-19T10:35:14.001Z</time></trkpt><trkpt lat="44.9269667" lon="9.1033317"><ele>385.0</ele><time>2026-04-19T10:35:16Z</time></trkpt><trkpt lat="44.9270133" lon="9.1032633"><ele>385.00000000000006</ele><time>2026-04-19T10:35:18.001Z</time></trkpt><trkpt lat="44.9271083" lon="9.1032533"><ele>385.0</ele><time>2026-04-19T10:35:20.001Z</time></trkpt><trkpt lat="44.9271983" lon="9.103235"><ele>385.0</ele><time>2026-04-19T10:35:22.001Z</time></trkpt><trkpt lat="44.927255" lon="9.1031533"><ele>385.0</ele><time>2026-04-19T10:35:24Z</time></trkpt><trkpt lat="44.92729" lon="9.1030683"><ele>385.00000000000006</ele><time>2026-04-19T10:35:26.001Z</time></trkpt><trkpt lat="44.927355" lon="9.1029917"><ele>385.0</ele><time>2026-04-19T10:35:29.001Z</time></trkpt><trkpt lat="44.9274367" lon="9.1029817"><ele>384.33333333333337</ele><time>2026-04-19T10:35:31Z</time></trkpt><trkpt lat="44.92751" lon="9.102925"><ele>383.6666666666667</ele><time>2026-04-19T10:35:33.001Z</time></trkpt><trkpt lat="44.9275533" lon="9.102835"><ele>383.0</ele><time>2026-04-19T10:35:35Z</time></trkpt><trkpt lat="44.9275817" lon="9.1027283"><ele>382.33333333333337</ele><time>2026-04-19T10:35:37Z</time></trkpt><trkpt lat="44.92759" lon="9.1026333"><ele>381.6666666666667</ele><time>2026-04-19T10:35:39.001Z</time></trkpt><trkpt lat="44.9275867" lon="9.1025117"><ele>381.0</ele><time>2026-04-19T10:35:42.001Z</time></trkpt><trkpt lat="44.9275317" lon="9.1024017"><ele>381.0</ele><time>2026-04-19T10:35:45.001Z</time></trkpt><trkpt lat="44.9274617" lon="9.1023283"><ele>381.0</ele><time>2026-04-19T10:35:47.001Z</time></trkpt><trkpt lat="44.9273917" lon="9.1022567"><ele>381.0</ele><time>2026-04-19T10:35:49Z</time></trkpt><trkpt lat="44.92732" lon="9.1021817"><ele>381.0</ele><time>2026-04-19T10:35:51.001Z</time></trkpt><trkpt lat="44.9272633" lon="9.10211"><ele>381.0</ele><time>2026-04-19T10:35:53.001Z</time></trkpt><trkpt lat="44.9272017" lon="9.10204"><ele>381.0</ele><time>2026-04-19T10:35:55.001Z</time></trkpt><trkpt lat="44.927135" lon="9.10194"><ele>381.0</ele><time>2026-04-19T10:35:57Z</time></trkpt><trkpt lat="44.9270533" lon="9.1018217"><ele>381.0</ele><time>2026-04-19T10:35:59Z</time></trkpt><trkpt lat="44.9269667" lon="9.1017267"><ele>381.0</ele><time>2026-04-19T10:36:01Z</time></trkpt><trkpt lat="44.9268783" lon="9.1016383"><ele>381.0</ele><time>2026-04-19T10:36:03Z</time></trkpt><trkpt lat="44.9268233" lon="9.10156"><ele>381.0</ele><time>2026-04-19T10:36:05.001Z</time></trkpt><trkpt lat="44.9267667" lon="9.1014633"><ele>385.6666666666667</ele><time>2026-04-19T10:36:07Z</time></trkpt><trkpt lat="44.92671" lon="9.1013733"><ele>390.33333333333337</ele><time>2026-04-19T10:36:09.001Z</time></trkpt><trkpt lat="44.926635" lon="9.1013067"><ele>395.0</ele><time>2026-04-19T10:36:11.001Z</time></trkpt><trkpt lat="44.9265667" lon="9.1012367"><ele>399.6666666666667</ele><time>2026-04-19T10:36:13.001Z</time></trkpt><trkpt lat="44.9265167" lon="9.101165"><ele>404.33333333333337</ele><time>2026-04-19T10:36:16Z</time></trkpt><trkpt lat="44.92649" lon="9.1010817"><ele>409.0</ele><time>2026-04-19T10:36:19Z</time></trkpt><trkpt lat="44.92643" lon="9.1010083"><ele>409.0</ele><time>2026-04-19T10:36:23Z</time></trkpt><trkpt lat="44.9263783" lon="9.1009333"><ele>409.0</ele><time>2026-04-19T10:36:25Z</time></trkpt><trkpt lat="44.9263567" lon="9.1008"><ele>409.0</ele><time>2026-04-19T10:36:27.001Z</time></trkpt><trkpt lat="44.9263633" lon="9.1006983"><ele>409.0</ele><time>2026-04-19T10:36:29.001Z</time></trkpt><trkpt lat="44.9263733" lon="9.1005433"><ele>409.0</ele><time>2026-04-19T10:36:31.001Z</time></trkpt><trkpt lat="44.926395" lon="9.1003733"><ele>408.83333333333337</ele><time>2026-04-19T10:36:33Z</time></trkpt><trkpt lat="44.9264183" lon="9.1002117"><ele>408.6666666666667</ele><time>2026-04-19T10:36:35Z</time></trkpt><trkpt lat="44.926435" lon="9.100085"><ele>408.5</ele><time>2026-04-19T10:36:37.001Z</time></trkpt><trkpt lat="44.9264383" lon="9.0999867"><ele>408.33333333333337</ele><time>2026-04-19T10:36:39.001Z</time></trkpt><trkpt lat="44.9264183" lon="9.0998883"><ele>408.1666666666667</ele><time>2026-04-19T10:36:41.001Z</time></trkpt><trkpt lat="44.92637" lon="9.0997933"><ele>408.0</ele><time>2026-04-19T10:36:43.001Z</time></trkpt><trkpt lat="44.9263033" lon="9.0997117"><ele>407.2</ele><time>2026-04-19T10:36:45.001Z</time></trkpt><trkpt lat="44.926245" lon="9.099615"><ele>406.4</ele><time>2026-04-19T10:36:47Z</time></trkpt><trkpt lat="44.9261783" lon="9.0995217"><ele>405.59999999999997</ele><time>2026-04-19T10:36:49Z</time></trkpt><trkpt lat="44.92613" lon="9.0994067"><ele>404.79999999999995</ele><time>2026-04-19T10:36:51.001Z</time></trkpt><trkpt lat="44.9260817" lon="9.099305"><ele>404.0</ele><time>2026-04-19T10:36:53Z</time></trkpt><trkpt lat="44.9260333" lon="9.0992067"><ele>403.99999999999994</ele><time>2026-04-19T10:36:55Z</time></trkpt><trkpt lat="44.9260967" lon="9.099275"><ele>404.0</ele><time>2026-04-19T10:38:41Z</time></trkpt><trkpt lat="44.9261567" lon="9.0993717"><ele>404.0</ele><time>2026-04-19T10:38:42.999Z</time></trkpt><trkpt lat="44.9262017" lon="9.0994833"><ele>404.0</ele><time>2026-04-19T10:38:44.999Z</time></trkpt><trkpt lat="44.9262317" lon="9.0995767"><ele>403.99999999999994</ele><time>2026-04-19T10:38:46.999Z</time></trkpt><trkpt lat="44.9262917" lon="9.0996817"><ele>404.0</ele><time>2026-04-19T10:38:49Z</time></trkpt><trkpt lat="44.9263433" lon="9.0997717"><ele>403.99999999999994</ele><time>2026-04-19T10:38:51Z</time></trkpt><trkpt lat="44.9264" lon="9.0998917"><ele>404.0</ele><time>2026-04-19T10:38:52.999Z</time></trkpt><trkpt lat="44.9264283" lon="9.099995"><ele>404.0</ele><time>2026-04-19T10:38:55Z</time></trkpt><trkpt lat="44.9264233" lon="9.1000983"><ele>404.0</ele><time>2026-04-19T10:38:56.999Z</time></trkpt><trkpt lat="44.9264117" lon="9.1002"><ele>403.99999999999994</ele><time>2026-04-19T10:38:58.999Z</time></trkpt><trkpt lat="44.926395" lon="9.1002883"><ele>404.0</ele><time>2026-04-19T10:39:00.999Z</time></trkpt><trkpt lat="44.926375" lon="9.10039"><ele>404.66666666666663</ele><time>2026-04-19T10:39:03Z</time></trkpt><trkpt lat="44.9263383" lon="9.10051"><ele>405.3333333333333</ele><time>2026-04-19T10:39:05Z</time></trkpt><trkpt lat="44.9263117" lon="9.10063"><ele>406.0</ele><time>2026-04-19T10:39:07Z</time></trkpt><trkpt lat="44.9263083" lon="9.1007467"><ele>406.66666666666663</ele><time>2026-04-19T10:39:08.999Z</time></trkpt><trkpt lat="44.9263617" lon="9.1008217"><ele>407.3333333333333</ele><time>2026-04-19T10:39:11Z</time></trkpt><trkpt lat="44.926415" lon="9.1008867"><ele>408.0</ele><time>2026-04-19T10:39:12.999Z</time></trkpt><trkpt lat="44.9264617" lon="9.1009933"><ele>408.2</ele><time>2026-04-19T10:39:14.999Z</time></trkpt><trkpt lat="44.926505" lon="9.10109"><ele>408.4</ele><time>2026-04-19T10:39:16.999Z</time></trkpt><trkpt lat="44.9265717" lon="9.10117"><ele>408.59999999999997</ele><time>2026-04-19T10:39:19Z</time></trkpt><trkpt lat="44.9266383" lon="9.1012667"><ele>408.79999999999995</ele><time>2026-04-19T10:39:20.999Z</time></trkpt><trkpt lat="44.9266917" lon="9.1013683"><ele>409.0</ele><time>2026-04-19T10:39:23Z</time></trkpt><trkpt lat="44.9267667" lon="9.101465"><ele>404.33333333333337</ele><time>2026-04-19T10:39:25Z</time></trkpt><trkpt lat="44.9268333" lon="9.1015433"><ele>399.6666666666667</ele><time>2026-04-19T10:39:27Z</time></trkpt><trkpt lat="44.9269033" lon="9.10165"><ele>395.0</ele><time>2026-04-19T10:39:29Z</time></trkpt><trkpt lat="44.9269667" lon="9.1017467"><ele>390.33333333333337</ele><time>2026-04-19T10:39:30.999Z</time></trkpt><trkpt lat="44.92701" lon="9.1018333"><ele>385.6666666666667</ele><time>2026-04-19T10:39:33Z</time></trkpt><trkpt lat="44.9270667" lon="9.10193"><ele>381.0</ele><time>2026-04-19T10:39:35Z</time></trkpt><trkpt lat="44.9271233" lon="9.1020017"><ele>381.0</ele><time>2026-04-19T10:39:36.999Z</time></trkpt><trkpt lat="44.9272" lon="9.1020917"><ele>381.0</ele><time>2026-04-19T10:39:38.999Z</time></trkpt><trkpt lat="44.92729" lon="9.1021717"><ele>381.0</ele><time>2026-04-19T10:39:41Z</time></trkpt><trkpt lat="44.92735" lon="9.1022167"><ele>381.0</ele><time>2026-04-19T10:39:42Z</time></trkpt><trkpt lat="44.9274033" lon="9.1022667"><ele>381.0</ele><time>2026-04-19T10:39:42.999Z</time></trkpt><trkpt lat="44.9274517" lon="9.102325"><ele>381.0</ele><time>2026-04-19T10:39:44Z</time></trkpt><trkpt lat="44.92753" lon="9.1024267"><ele>383.0</ele><time>2026-04-19T10:39:46Z</time></trkpt><trkpt lat="44.92755" lon="9.102515"><ele>385.0</ele><time>2026-04-19T10:39:47.999Z</time></trkpt><trkpt lat="44.9275717" lon="9.1026017"><ele>387.0</ele><time>2026-04-19T10:39:50Z</time></trkpt><trkpt lat="44.9275667" lon="9.1027317"><ele>389.0</ele><time>2026-04-19T10:39:51.999Z</time></trkpt><trkpt lat="44.9275333" lon="9.1028517"><ele>391.0</ele><time>2026-04-19T10:39:54Z</time></trkpt><trkpt lat="44.9274667" lon="9.1029167"><ele>393.0</ele><time>2026-04-19T10:39:55.999Z</time></trkpt><trkpt lat="44.92741" lon="9.1029567"><ele>393.0</ele><time>2026-04-19T10:39:58Z</time></trkpt><trkpt lat="44.927355" lon="9.1030467"><ele>393.0</ele><time>2026-04-19T10:40:00Z</time></trkpt><trkpt lat="44.9273083" lon="9.103165"><ele>393.0</ele><time>2026-04-19T10:40:02Z</time></trkpt><trkpt lat="44.9272417" lon="9.1032167"><ele>393.0</ele><time>2026-04-19T10:40:03.999Z</time></trkpt><trkpt lat="44.9271467" lon="9.1032383"><ele>393.0</ele><time>2026-04-19T10:40:05.999Z</time></trkpt><trkpt lat="44.9270717" lon="9.1032933"><ele>393.0</ele><time>2026-04-19T10:40:08Z</time></trkpt><trkpt lat="44.927015" lon="9.1034083"><ele>393.5</ele><time>2026-04-19T10:40:10Z</time></trkpt><trkpt lat="44.9269583" lon="9.10354"><ele>394.0</ele><time>2026-04-19T10:40:12Z</time></trkpt><trkpt lat="44.9268967" lon="9.103665"><ele>394.5</ele><time>2026-04-19T10:40:14Z</time></trkpt><trkpt lat="44.9268417" lon="9.103755"><ele>395.0</ele><time>2026-04-19T10:40:16Z</time></trkpt><trkpt lat="44.9267883" lon="9.1038233"><ele>395.5</ele><time>2026-04-19T10:40:18Z</time></trkpt><trkpt lat="44.9267317" lon="9.1038683"><ele>396.0</ele><time>2026-04-19T10:40:19.999Z</time></trkpt><trkpt lat="44.92664" lon="9.1038917"><ele>396.0</ele><time>2026-04-19T10:40:22.999Z</time></trkpt><trkpt lat="44.926575" lon="9.1038967"><ele>396.0</ele><time>2026-04-19T10:40:24.999Z</time></trkpt><trkpt lat="44.9264733" lon="9.10394"><ele>396.0</ele><time>2026-04-19T10:40:26.999Z</time></trkpt><trkpt lat="44.9264133" lon="9.1039717"><ele>396.0</ele><time>2026-04-19T10:40:28Z</time></trkpt><trkpt lat="44.9263283" lon="9.1039967"><ele>396.0</ele><time>2026-04-19T10:40:30Z</time></trkpt><trkpt lat="44.9262217" lon="9.10401"><ele>396.0</ele><time>2026-04-19T10:40:31.999Z</time></trkpt><trkpt lat="44.926125" lon="9.10401"><ele>396.0</ele><time>2026-04-19T10:40:33.999Z</time></trkpt><trkpt lat="44.92604" lon="9.1039967"><ele>396.0</ele><time>2026-04-19T10:40:36Z</time></trkpt><trkpt lat="44.92596" lon="9.1040017"><ele>396.0</ele><time>2026-04-19T10:40:37.999Z</time></trkpt><trkpt lat="44.9258717" lon="9.1040467"><ele>396.0</ele><time>2026-04-19T10:40:40Z</time></trkpt><trkpt lat="44.9257783" lon="9.10409"><ele>396.0</ele><time>2026-04-19T10:40:42Z</time></trkpt><trkpt lat="44.925685" lon="9.1041633"><ele>390.0</ele><time>2026-04-19T10:40:43.999Z</time></trkpt><trkpt lat="44.9256233" lon="9.1042733"><ele>384.0</ele><time>2026-04-19T10:40:46Z</time></trkpt><trkpt lat="44.925615" lon="9.1043883"><ele>378.0</ele><time>2026-04-19T10:40:47.999Z</time></trkpt><trkpt lat="44.9255983" lon="9.1044867"><ele>372.0</ele><time>2026-04-19T10:40:49.999Z</time></trkpt><trkpt lat="44.925575" lon="9.1046333"><ele>366.0</ele><time>2026-04-19T10:40:51.999Z</time></trkpt><trkpt lat="44.925515" lon="9.1047933"><ele>366.0</ele><time>2026-04-19T10:40:54Z</time></trkpt><trkpt lat="44.9254917" lon="9.1048783"><ele>366.0</ele><time>2026-04-19T10:40:55Z</time></trkpt><trkpt lat="44.9254783" lon="9.1050217"><ele>366.0</ele><time>2026-04-19T10:40:57Z</time></trkpt><trkpt lat="44.9255117" lon="9.1051667"><ele>366.0</ele><time>2026-04-19T10:40:59Z</time></trkpt><trkpt lat="44.92553" lon="9.1052533"><ele>366.0</ele><time>2026-04-19T10:40:59.999Z</time></trkpt><trkpt lat="44.925555" lon="9.1053433"><ele>366.0</ele><time>2026-04-19T10:41:00.999Z</time></trkpt><trkpt lat="44.9256067" lon="9.1054967"><ele>364.0</ele><time>2026-04-19T10:41:02.999Z</time></trkpt><trkpt lat="44.9256567" lon="9.105625"><ele>362.0</ele><time>2026-04-19T10:41:05Z</time></trkpt><trkpt lat="44.9256917" lon="9.1057367"><ele>360.0</ele><time>2026-04-19T10:41:07Z</time></trkpt><trkpt lat="44.9257333" lon="9.105875"><ele>358.0</ele><time>2026-04-19T10:41:09Z</time></trkpt><trkpt lat="44.9257967" lon="9.1059883"><ele>356.0</ele><time>2026-04-19T10:41:11Z</time></trkpt><trkpt lat="44.9258633" lon="9.1060867"><ele>352.6</ele><time>2026-04-19T10:41:13Z</time></trkpt><trkpt lat="44.9259483" lon="9.1061817"><ele>349.20000000000005</ele><time>2026-04-19T10:41:15Z</time></trkpt><trkpt lat="44.926035" lon="9.1062633"><ele>345.79999999999995</ele><time>2026-04-19T10:41:17Z</time></trkpt><trkpt lat="44.926125" lon="9.1063317"><ele>342.4</ele><time>2026-04-19T10:41:19Z</time></trkpt><trkpt lat="44.9262267" lon="9.1063617"><ele>339.0</ele><time>2026-04-19T10:41:21Z</time></trkpt><trkpt lat="44.92633" lon="9.1063867"><ele>339.0</ele><time>2026-04-19T10:41:23Z</time></trkpt><trkpt lat="44.9264183" lon="9.106425"><ele>339.0</ele><time>2026-04-19T10:41:25Z</time></trkpt><trkpt lat="44.92652" lon="9.106515"><ele>339.0</ele><time>2026-04-19T10:41:27Z</time></trkpt><trkpt lat="44.9265983" lon="9.1066433"><ele>339.0</ele><time>2026-04-19T10:41:28.999Z</time></trkpt><trkpt lat="44.9266733" lon="9.106755"><ele>339.0</ele><time>2026-04-19T10:41:31Z</time></trkpt><trkpt lat="44.9267333" lon="9.10689"><ele>340.0</ele><time>2026-04-19T10:41:33Z</time></trkpt><trkpt lat="44.9267833" lon="9.1070133"><ele>341.0</ele><time>2026-04-19T10:41:34.999Z</time></trkpt><trkpt lat="44.9268433" lon="9.1071733"><ele>342.0</ele><time>2026-04-19T10:41:37Z</time></trkpt><trkpt lat="44.9268967" lon="9.1073367"><ele>343.0</ele><time>2026-04-19T10:41:39Z</time></trkpt><trkpt lat="44.9269233" lon="9.10742"><ele>344.0</ele><time>2026-04-19T10:41:40Z</time></trkpt><trkpt lat="44.9269817" lon="9.1075567"><ele>344.0</ele><time>2026-04-19T10:41:41.999Z</time></trkpt><trkpt lat="44.92702" lon="9.1076967"><ele>344.0</ele><time>2026-04-19T10:41:43.999Z</time></trkpt><trkpt lat="44.9270433" lon="9.10781"><ele>344.0</ele><time>2026-04-19T10:41:45.999Z</time></trkpt><trkpt lat="44.9270417" lon="9.107905"><ele>344.0</ele><time>2026-04-19T10:41:47.999Z</time></trkpt><trkpt lat="44.9270383" lon="9.10804"><ele>344.0</ele><time>2026-04-19T10:41:50Z</time></trkpt><trkpt lat="44.927075" lon="9.1081567"><ele>344.0</ele><time>2026-04-19T10:41:52Z</time></trkpt><trkpt lat="44.9271383" lon="9.1082367"><ele>345.79999999999995</ele><time>2026-04-19T10:41:54Z</time></trkpt><trkpt lat="44.92721" lon="9.1083117"><ele>347.59999999999997</ele><time>2026-04-19T10:41:56Z</time></trkpt><trkpt lat="44.9273083" lon="9.10836"><ele>349.4</ele><time>2026-04-19T10:41:58Z</time></trkpt><trkpt lat="44.9273867" lon="9.108425"><ele>351.2</ele><time>2026-04-19T10:41:59.999Z</time></trkpt><trkpt lat="44.9274583" lon="9.10848"><ele>353.0</ele><time>2026-04-19T10:42:02Z</time></trkpt><trkpt lat="44.9275433" lon="9.10852"><ele>350.2</ele><time>2026-04-19T10:42:04.999Z</time></trkpt><trkpt lat="44.9276333" lon="9.108565"><ele>347.4</ele><time>2026-04-19T10:42:07Z</time></trkpt><trkpt lat="44.9277167" lon="9.108645"><ele>344.59999999999997</ele><time>2026-04-19T10:42:09Z</time></trkpt><trkpt lat="44.9277833" lon="9.1087317"><ele>341.79999999999995</ele><time>2026-04-19T10:42:10.999Z</time></trkpt><trkpt lat="44.9278383" lon="9.1088267"><ele>339.0</ele><time>2026-04-19T10:42:12.999Z</time></trkpt><trkpt lat="44.9279083" lon="9.1088883"><ele>339.0</ele><time>2026-04-19T10:42:14.999Z</time></trkpt><trkpt lat="44.9279667" lon="9.10898"><ele>339.0</ele><time>2026-04-19T10:42:17Z</time></trkpt><trkpt lat="44.9280383" lon="9.1090817"><ele>339.0</ele><time>2026-04-19T10:42:18.999Z</time></trkpt><trkpt lat="44.92811" lon="9.1091817"><ele>339.0</ele><time>2026-04-19T10:42:20.999Z</time></trkpt><trkpt lat="44.9281933" lon="9.1092767"><ele>339.0</ele><time>2026-04-19T10:42:22.998Z</time></trkpt><trkpt lat="44.9282767" lon="9.1093917"><ele>340.0</ele><time>2026-04-19T10:42:24.998Z</time></trkpt><trkpt lat="44.9283583" lon="9.1094583"><ele>341.0</ele><time>2026-04-19T10:42:26.998Z</time></trkpt><trkpt lat="44.928405" lon="9.1095483"><ele>342.0</ele><time>2026-04-19T10:42:29.999Z</time></trkpt><trkpt lat="44.9283117" lon="9.1095967"><ele>343.0</ele><time>2026-04-19T10:42:32.999Z</time></trkpt><trkpt lat="44.9281967" lon="9.1095917"><ele>344.0</ele><time>2026-04-19T10:42:34.999Z</time></trkpt><trkpt lat="44.9280983" lon="9.1095733"><ele>344.0</ele><time>2026-04-19T10:42:36.998Z</time></trkpt><trkpt lat="44.92799" lon="9.1095467"><ele>344.0</ele><time>2026-04-19T10:42:38.998Z</time></trkpt><trkpt lat="44.9278683" lon="9.10951"><ele>344.0</ele><time>2026-04-19T10:42:40.999Z</time></trkpt><trkpt lat="44.9278067" lon="9.109475"><ele>344.0</ele><time>2026-04-19T10:42:41.999Z</time></trkpt><trkpt lat="44.9277467" lon="9.1094367"><ele>344.0</ele><time>2026-04-19T10:42:42.999Z</time></trkpt><trkpt lat="44.927685" lon="9.1094033"><ele>344.0</ele><time>2026-04-19T10:42:43.999Z</time></trkpt><trkpt lat="44.92756" lon="9.1093717"><ele>345.33333333333337</ele><time>2026-04-19T10:42:45.999Z</time></trkpt><trkpt lat="44.9274867" lon="9.1093833"><ele>346.6666666666667</ele><time>2026-04-19T10:42:46.998Z</time></trkpt><trkpt lat="44.9273583" lon="9.1094283"><ele>348.0</ele><time>2026-04-19T10:42:48.999Z</time></trkpt><trkpt lat="44.9272967" lon="9.1094667"><ele>349.3333333333333</ele><time>2026-04-19T10:42:49.999Z</time></trkpt><trkpt lat="44.9272283" lon="9.1095317"><ele>350.66666666666663</ele><time>2026-04-19T10:42:50.999Z</time></trkpt><trkpt lat="44.92716" lon="9.1095833"><ele>352.0</ele><time>2026-04-19T10:42:51.998Z</time></trkpt><trkpt lat="44.927095" lon="9.1096067"><ele>352.0</ele><time>2026-04-19T10:42:52.999Z</time></trkpt><trkpt lat="44.9270067" lon="9.1095833"><ele>352.0</ele><time>2026-04-19T10:42:54.999Z</time></trkpt><trkpt lat="44.9269333" lon="9.10952"><ele>352.0</ele><time>2026-04-19T10:42:57.999Z</time></trkpt><trkpt lat="44.9268233" lon="9.109565"><ele>352.0</ele><time>2026-04-19T10:42:59.999Z</time></trkpt><trkpt lat="44.9266967" lon="9.1096083"><ele>352.0</ele><time>2026-04-19T10:43:01.999Z</time></trkpt><trkpt lat="44.92663" lon="9.1096267"><ele>353.14285714285717</ele><time>2026-04-19T10:43:02.998Z</time></trkpt><trkpt lat="44.9265617" lon="9.1096267"><ele>354.2857142857143</ele><time>2026-04-19T10:43:03.999Z</time></trkpt><trkpt lat="44.92646" lon="9.10966"><ele>355.42857142857144</ele><time>2026-04-19T10:43:05.998Z</time></trkpt><trkpt lat="44.9263967" lon="9.1096517"><ele>356.57142857142856</ele><time>2026-04-19T10:43:06.999Z</time></trkpt><trkpt lat="44.9263267" lon="9.1096417"><ele>357.7142857142857</ele><time>2026-04-19T10:43:07.998Z</time></trkpt><trkpt lat="44.926255" lon="9.1096367"><ele>358.85714285714283</ele><time>2026-04-19T10:43:08.999Z</time></trkpt><trkpt lat="44.926185" lon="9.10963"><ele>360.0</ele><time>2026-04-19T10:43:09.999Z</time></trkpt><trkpt lat="44.9261083" lon="9.1096333"><ele>360.0</ele><time>2026-04-19T10:43:10.999Z</time></trkpt><trkpt lat="44.926035" lon="9.1096267"><ele>360.0</ele><time>2026-04-19T10:43:11.999Z</time></trkpt><trkpt lat="44.9259667" lon="9.1096233"><ele>360.0</ele><time>2026-04-19T10:43:12.998Z</time></trkpt><trkpt lat="44.9259033" lon="9.1096283"><ele>360.0</ele><time>2026-04-19T10:43:13.999Z</time></trkpt><trkpt lat="44.9258417" lon="9.1096467"><ele>360.0</ele><time>2026-04-19T10:43:14.998Z</time></trkpt><trkpt lat="44.925775" lon="9.1096667"><ele>360.0</ele><time>2026-04-19T10:43:15.998Z</time></trkpt><trkpt lat="44.9257133" lon="9.1096917"><ele>360.0</ele><time>2026-04-19T10:43:16.998Z</time></trkpt><trkpt lat="44.9256467" lon="9.10972"><ele>361.0</ele><time>2026-04-19T10:43:17.999Z</time></trkpt><trkpt lat="44.925535" lon="9.1097567"><ele>362.0</ele><time>2026-04-19T10:43:19.999Z</time></trkpt><trkpt lat="44.925415" lon="9.1097717"><ele>363.0</ele><time>2026-04-19T10:43:21.999Z</time></trkpt><trkpt lat="44.9252933" lon="9.1097517"><ele>364.0</ele><time>2026-04-19T10:43:23.999Z</time></trkpt><trkpt lat="44.9251967" lon="9.109695"><ele>364.0</ele><time>2026-04-19T10:43:25.999Z</time></trkpt><trkpt lat="44.9251083" lon="9.1095983"><ele>364.0</ele><time>2026-04-19T10:43:27.999Z</time></trkpt><trkpt lat="44.92502" lon="9.1095"><ele>364.0</ele><time>2026-04-19T10:43:29.999Z</time></trkpt><trkpt lat="44.9249417" lon="9.1094433"><ele>364.0</ele><time>2026-04-19T10:43:31.998Z</time></trkpt><trkpt lat="44.9248717" lon="9.109465"><ele>364.0</ele><time>2026-04-19T10:43:33.998Z</time></trkpt><trkpt lat="44.9248383" lon="9.1095767"><ele>363.6</ele><time>2026-04-19T10:43:35.999Z</time></trkpt><trkpt lat="44.924845" lon="9.1096983"><ele>363.2</ele><time>2026-04-19T10:43:37.999Z</time></trkpt><trkpt lat="44.924845" lon="9.10983"><ele>362.8</ele><time>2026-04-19T10:43:39.999Z</time></trkpt><trkpt lat="44.9247983" lon="9.1099583"><ele>362.40000000000003</ele><time>2026-04-19T10:43:41.998Z</time></trkpt><trkpt lat="44.9247217" lon="9.1100367"><ele>362.0</ele><time>2026-04-19T10:43:43.998Z</time></trkpt><trkpt lat="44.92463" lon="9.110075"><ele>362.0</ele><time>2026-04-19T10:43:45.999Z</time></trkpt><trkpt lat="44.924515" lon="9.11011"><ele>362.0</ele><time>2026-04-19T10:43:47.998Z</time></trkpt><trkpt lat="44.9243917" lon="9.1101533"><ele>362.0</ele><time>2026-04-19T10:43:49.999Z</time></trkpt><trkpt lat="44.92427" lon="9.1101967"><ele>362.0</ele><time>2026-04-19T10:43:51.999Z</time></trkpt><trkpt lat="44.9242033" lon="9.1102217"><ele>362.0</ele><time>2026-04-19T10:43:52.999Z</time></trkpt><trkpt lat="44.924135" lon="9.1102467"><ele>362.5</ele><time>2026-04-19T10:43:53.999Z</time></trkpt><trkpt lat="44.9240283" lon="9.1103233"><ele>363.0</ele><time>2026-04-19T10:43:55.999Z</time></trkpt><trkpt lat="44.9239433" lon="9.1104533"><ele>363.5</ele><time>2026-04-19T10:43:57.998Z</time></trkpt><trkpt lat="44.9239033" lon="9.1105233"><ele>364.0</ele><time>2026-04-19T10:43:58.999Z</time></trkpt><trkpt lat="44.923855" lon="9.1105967"><ele>364.5</ele><time>2026-04-19T10:43:59.999Z</time></trkpt><trkpt lat="44.9238083" lon="9.1106633"><ele>365.0</ele><time>2026-04-19T10:44:00.999Z</time></trkpt><trkpt lat="44.9237267" lon="9.1107567"><ele>365.0</ele><time>2026-04-19T10:44:02.998Z</time></trkpt><trkpt lat="44.9236133" lon="9.1108333"><ele>365.0</ele><time>2026-04-19T10:44:04.999Z</time></trkpt><trkpt lat="44.9235467" lon="9.1108433"><ele>365.0</ele><time>2026-04-19T10:44:05.998Z</time></trkpt><trkpt lat="44.9234733" lon="9.110835"><ele>365.0</ele><time>2026-04-19T10:44:06.998Z</time></trkpt><trkpt lat="44.9234033" lon="9.110825"><ele>365.0</ele><time>2026-04-19T10:44:07.998Z</time></trkpt><trkpt lat="44.9233283" lon="9.110845"><ele>365.0</ele><time>2026-04-19T10:44:08.998Z</time></trkpt><trkpt lat="44.923255" lon="9.1108733"><ele>367.1666666666667</ele><time>2026-04-19T10:44:09.998Z</time></trkpt><trkpt lat="44.9231667" lon="9.11091"><ele>369.33333333333337</ele><time>2026-04-19T10:44:10.999Z</time></trkpt><trkpt lat="44.9231067" lon="9.11094"><ele>371.5</ele><time>2026-04-19T10:44:11.998Z</time></trkpt><trkpt lat="44.9230433" lon="9.11097"><ele>373.6666666666667</ele><time>2026-04-19T10:44:12.999Z</time></trkpt><trkpt lat="44.92293" lon="9.1110133"><ele>375.8333333333333</ele><time>2026-04-19T10:44:14.999Z</time></trkpt><trkpt lat="44.92287" lon="9.11106"><ele>378.0</ele><time>2026-04-19T10:44:15.999Z</time></trkpt><trkpt lat="44.92276" lon="9.111145"><ele>378.0</ele><time>2026-04-19T10:44:17.998Z</time></trkpt><trkpt lat="44.9226683" lon="9.1112517"><ele>378.0</ele><time>2026-04-19T10:44:19.999Z</time></trkpt><trkpt lat="44.92262" lon="9.1113133"><ele>378.0</ele><time>2026-04-19T10:44:20.999Z</time></trkpt><trkpt lat="44.9225183" lon="9.1114067"><ele>378.0</ele><time>2026-04-19T10:44:22.998Z</time></trkpt><trkpt lat="44.9224633" lon="9.1114517"><ele>378.0</ele><time>2026-04-19T10:44:23.998Z</time></trkpt><trkpt lat="44.9223733" lon="9.111525"><ele>378.0</ele><time>2026-04-19T10:44:25.999Z</time></trkpt><trkpt lat="44.922275" lon="9.1116017"><ele>378.0</ele><time>2026-04-19T10:44:27.999Z</time></trkpt><trkpt lat="44.922185" lon="9.1116767"><ele>378.0</ele><time>2026-04-19T10:44:29.998Z</time></trkpt><trkpt lat="44.9220967" lon="9.111745"><ele>378.0</ele><time>2026-04-19T10:44:31.999Z</time></trkpt><trkpt lat="44.922005" lon="9.111825"><ele>378.0</ele><time>2026-04-19T10:44:33.999Z</time></trkpt><trkpt lat="44.92191" lon="9.1119067"><ele>378.0</ele><time>2026-04-19T10:44:35.998Z</time></trkpt><trkpt lat="44.92181" lon="9.1119933"><ele>378.0</ele><time>2026-04-19T10:44:37.998Z</time></trkpt><trkpt lat="44.9217167" lon="9.1120467"><ele>378.0</ele><time>2026-04-19T10:44:39.998Z</time></trkpt><trkpt lat="44.9216217" lon="9.1120967"><ele>378.0</ele><time>2026-04-19T10:44:41.998Z</time></trkpt><trkpt lat="44.9215483" lon="9.112145"><ele>378.0</ele><time>2026-04-19T10:44:43.999Z</time></trkpt><trkpt lat="44.9214717" lon="9.1121867"><ele>380.0</ele><time>2026-04-19T10:44:45.998Z</time></trkpt><trkpt lat="44.9213817" lon="9.1122133"><ele>382.0</ele><time>2026-04-19T10:44:47.999Z</time></trkpt><trkpt lat="44.921295" lon="9.11226"><ele>384.0</ele><time>2026-04-19T10:44:49.999Z</time></trkpt><trkpt lat="44.92121" lon="9.1123017"><ele>386.0</ele><time>2026-04-19T10:44:51.999Z</time></trkpt><trkpt lat="44.921125" lon="9.1123517"><ele>388.0</ele><time>2026-04-19T10:44:53.999Z</time></trkpt><trkpt lat="44.92103" lon="9.1124367"><ele>388.0</ele><time>2026-04-19T10:44:55.999Z</time></trkpt><trkpt lat="44.9209433" lon="9.1124933"><ele>388.0</ele><time>2026-04-19T10:44:57.999Z</time></trkpt><trkpt lat="44.920845" lon="9.11254"><ele>388.0</ele><time>2026-04-19T10:44:59.999Z</time></trkpt><trkpt lat="44.9207433" lon="9.112575"><ele>388.0</ele><time>2026-04-19T10:45:01.999Z</time></trkpt><trkpt lat="44.92065" lon="9.1126083"><ele>388.0</ele><time>2026-04-19T10:45:03.998Z</time></trkpt><trkpt lat="44.9205533" lon="9.112635"><ele>390.59999999999997</ele><time>2026-04-19T10:45:05.999Z</time></trkpt><trkpt lat="44.92046" lon="9.1126683"><ele>393.2</ele><time>2026-04-19T10:45:07.999Z</time></trkpt><trkpt lat="44.9203683" lon="9.1127283"><ele>395.8</ele><time>2026-04-19T10:45:09.998Z</time></trkpt><trkpt lat="44.9202583" lon="9.1128133"><ele>398.4</ele><time>2026-04-19T10:45:11.999Z</time></trkpt><trkpt lat="44.9201683" lon="9.11291"><ele>401.0</ele><time>2026-04-19T10:45:13.999Z</time></trkpt><trkpt lat="44.9200667" lon="9.1129917"><ele>402.4</ele><time>2026-04-19T10:45:15.998Z</time></trkpt><trkpt lat="44.9199517" lon="9.11306"><ele>403.8</ele><time>2026-04-19T10:45:17.999Z</time></trkpt><trkpt lat="44.9198383" lon="9.113125"><ele>405.2</ele><time>2026-04-19T10:45:19.999Z</time></trkpt><trkpt lat="44.9197683" lon="9.11316"><ele>406.59999999999997</ele><time>2026-04-19T10:45:20.999Z</time></trkpt><trkpt lat="44.919695" lon="9.1131867"><ele>408.0</ele><time>2026-04-19T10:45:21.999Z</time></trkpt><trkpt lat="44.9196283" lon="9.1132133"><ele>408.6666666666667</ele><time>2026-04-19T10:45:22.998Z</time></trkpt><trkpt lat="44.919565" lon="9.11324"><ele>409.33333333333337</ele><time>2026-04-19T10:45:23.998Z</time></trkpt><trkpt lat="44.9195033" lon="9.1132617"><ele>410.0</ele><time>2026-04-19T10:45:24.998Z</time></trkpt><trkpt lat="44.9194417" lon="9.1132883"><ele>410.6666666666667</ele><time>2026-04-19T10:45:25.999Z</time></trkpt><trkpt lat="44.91938" lon="9.1133067"><ele>411.33333333333337</ele><time>2026-04-19T10:45:26.999Z</time></trkpt><trkpt lat="44.9192717" lon="9.1133567"><ele>412.0</ele><time>2026-04-19T10:45:28.998Z</time></trkpt><trkpt lat="44.9191567" lon="9.113405"><ele>412.0</ele><time>2026-04-19T10:45:30.999Z</time></trkpt><trkpt lat="44.9190983" lon="9.1134433"><ele>412.0</ele><time>2026-04-19T10:45:31.999Z</time></trkpt><trkpt lat="44.9190233" lon="9.1135417"><ele>412.0</ele><time>2026-04-19T10:45:33.998Z</time></trkpt><trkpt lat="44.9189983" lon="9.11366"><ele>412.0</ele><time>2026-04-19T10:45:35.999Z</time></trkpt><trkpt lat="44.9190133" lon="9.1138183"><ele>412.0</ele><time>2026-04-19T10:45:37.999Z</time></trkpt><trkpt lat="44.9190367" lon="9.1139633"><ele>412.0</ele><time>2026-04-19T10:45:39.998Z</time></trkpt><trkpt lat="44.9190317" lon="9.1141033"><ele>412.0</ele><time>2026-04-19T10:45:41.998Z</time></trkpt><trkpt lat="44.9190033" lon="9.114235"><ele>412.0</ele><time>2026-04-19T10:45:43.998Z</time></trkpt><trkpt lat="44.91898" lon="9.1144"><ele>412.0</ele><time>2026-04-19T10:45:45.999Z</time></trkpt><trkpt lat="44.9189617" lon="9.11456"><ele>412.0</ele><time>2026-04-19T10:45:47.999Z</time></trkpt><trkpt lat="44.918975" lon="9.114705"><ele>412.00000000000006</ele><time>2026-04-19T10:45:49.998Z</time></trkpt><trkpt lat="44.9189683" lon="9.1147967"><ele>412.0</ele><time>2026-04-19T10:45:51.999Z</time></trkpt><trkpt lat="44.9189033" lon="9.1148133"><ele>412.0</ele><time>2026-04-19T10:45:54.998Z</time></trkpt><trkpt lat="44.9188767" lon="9.1147133"><ele>412.0</ele><time>2026-04-19T10:45:56.999Z</time></trkpt><trkpt lat="44.918855" lon="9.1145433"><ele>412.00000000000006</ele><time>2026-04-19T10:45:58.998Z</time></trkpt><trkpt lat="44.9188467" lon="9.1144533"><ele>412.0</ele><time>2026-04-19T10:45:59.999Z</time></trkpt><trkpt lat="44.918835" lon="9.1143567"><ele>412.00000000000006</ele><time>2026-04-19T10:46:00.999Z</time></trkpt><trkpt lat="44.9188233" lon="9.1142533"><ele>412.0</ele><time>2026-04-19T10:46:01.999Z</time></trkpt><trkpt lat="44.9188017" lon="9.1141583"><ele>412.0</ele><time>2026-04-19T10:46:02.999Z</time></trkpt><trkpt lat="44.91877" lon="9.1140467"><ele>412.0</ele><time>2026-04-19T10:46:03.999Z</time></trkpt><trkpt lat="44.9187283" lon="9.113945"><ele>412.00000000000006</ele><time>2026-04-19T10:46:04.998Z</time></trkpt><trkpt lat="44.91867" lon="9.1138433"><ele>412.0</ele><time>2026-04-19T10:46:05.998Z</time></trkpt><trkpt lat="44.9186067" lon="9.1137717"><ele>412.00000000000006</ele><time>2026-04-19T10:46:06.999Z</time></trkpt><trkpt lat="44.9185533" lon="9.1137117"><ele>412.0</ele><time>2026-04-19T10:46:07.998Z</time></trkpt><trkpt lat="44.9184933" lon="9.1136583"><ele>412.0</ele><time>2026-04-19T10:46:08.998Z</time></trkpt><trkpt lat="44.9184283" lon="9.11365"><ele>412.0</ele><time>2026-04-19T10:46:09.998Z</time></trkpt><trkpt lat="44.91836" lon="9.1136567"><ele>412.00000000000006</ele><time>2026-04-19T10:46:10.999Z</time></trkpt><trkpt lat="44.9182467" lon="9.1137367"><ele>412.0</ele><time>2026-04-19T10:46:12.998Z</time></trkpt><trkpt lat="44.918135" lon="9.1138017"><ele>413.71428571428567</ele><time>2026-04-19T10:46:14.999Z</time></trkpt><trkpt lat="44.91807" lon="9.11384"><ele>415.42857142857144</ele><time>2026-04-19T10:46:15.998Z</time></trkpt><trkpt lat="44.9179983" lon="9.11388"><ele>417.1428571428571</ele><time>2026-04-19T10:46:16.999Z</time></trkpt><trkpt lat="44.9179333" lon="9.1139083"><ele>418.85714285714283</ele><time>2026-04-19T10:46:17.999Z</time></trkpt><trkpt lat="44.9178767" lon="9.1139533"><ele>420.57142857142856</ele><time>2026-04-19T10:46:18.998Z</time></trkpt><trkpt lat="44.9178117" lon="9.114"><ele>422.2857142857143</ele><time>2026-04-19T10:46:19.999Z</time></trkpt><trkpt lat="44.9177417" lon="9.11404"><ele>424.0</ele><time>2026-04-19T10:46:20.999Z</time></trkpt><trkpt lat="44.9176733" lon="9.1140817"><ele>424.33333333333337</ele><time>2026-04-19T10:46:21.998Z</time></trkpt><trkpt lat="44.9176183" lon="9.1141283"><ele>424.6666666666667</ele><time>2026-04-19T10:46:22.999Z</time></trkpt><trkpt lat="44.9175533" lon="9.1142767"><ele>425.0</ele><time>2026-04-19T10:46:24.999Z</time></trkpt><trkpt lat="44.9175433" lon="9.1143717"><ele>425.33333333333337</ele><time>2026-04-19T10:46:25.998Z</time></trkpt><trkpt lat="44.91754" lon="9.1144683"><ele>425.6666666666667</ele><time>2026-04-19T10:46:26.998Z</time></trkpt><trkpt lat="44.91752" lon="9.11464"><ele>426.0</ele><time>2026-04-19T10:46:28.998Z</time></trkpt><trkpt lat="44.9175117" lon="9.1148117"><ele>422.5</ele><time>2026-04-19T10:46:30.998Z</time></trkpt><trkpt lat="44.9175" lon="9.1149833"><ele>419.0</ele><time>2026-04-19T10:46:32.999Z</time></trkpt><trkpt lat="44.9174867" lon="9.11515"><ele>415.5</ele><time>2026-04-19T10:46:34.999Z</time></trkpt><trkpt lat="44.9174983" lon="9.11531"><ele>412.0</ele><time>2026-04-19T10:46:36.999Z</time></trkpt><trkpt lat="44.9175017" lon="9.1154683"><ele>412.0</ele><time>2026-04-19T10:46:38.999Z</time></trkpt><trkpt lat="44.9174883" lon="9.115645"><ele>412.0</ele><time>2026-04-19T10:46:40.999Z</time></trkpt><trkpt lat="44.91748" lon="9.1158083"><ele>412.0</ele><time>2026-04-19T10:46:42.999Z</time></trkpt><trkpt lat="44.9174717" lon="9.1159617"><ele>412.0</ele><time>2026-04-19T10:46:44.999Z</time></trkpt><trkpt lat="44.9174717" lon="9.1161233"><ele>411.50000000000006</ele><time>2026-04-19T10:46:46.999Z</time></trkpt><trkpt lat="44.917475" lon="9.1162883"><ele>411.0</ele><time>2026-04-19T10:46:48.998Z</time></trkpt><trkpt lat="44.9174767" lon="9.11638"><ele>410.5</ele><time>2026-04-19T10:46:49.999Z</time></trkpt><trkpt lat="44.91749" lon="9.1164717"><ele>410.0</ele><time>2026-04-19T10:46:50.999Z</time></trkpt><trkpt lat="44.917525" lon="9.11655"><ele>409.50000000000006</ele><time>2026-04-19T10:46:51.999Z</time></trkpt><trkpt lat="44.9175667" lon="9.1166283"><ele>409.0</ele><time>2026-04-19T10:46:52.998Z</time></trkpt><trkpt lat="44.9176017" lon="9.11671"><ele>413.79999999999995</ele><time>2026-04-19T10:46:53.999Z</time></trkpt><trkpt lat="44.9176317" lon="9.1167883"><ele>418.59999999999997</ele><time>2026-04-19T10:46:54.998Z</time></trkpt><trkpt lat="44.9176733" lon="9.11693"><ele>423.4</ele><time>2026-04-19T10:46:56.998Z</time></trkpt><trkpt lat="44.9176933" lon="9.1170767"><ele>428.2</ele><time>2026-04-19T10:46:58.999Z</time></trkpt><trkpt lat="44.9177267" lon="9.1172283"><ele>433.0</ele><time>2026-04-19T10:47:00.999Z</time></trkpt><trkpt lat="44.9177617" lon="9.1173733"><ele>431.2</ele><time>2026-04-19T10:47:02.998Z</time></trkpt><trkpt lat="44.9177783" lon="9.117525"><ele>429.4</ele><time>2026-04-19T10:47:04.999Z</time></trkpt><trkpt lat="44.9177883" lon="9.1176933"><ele>427.59999999999997</ele><time>2026-04-19T10:47:06.999Z</time></trkpt><trkpt lat="44.9177717" lon="9.1178433"><ele>425.79999999999995</ele><time>2026-04-19T10:47:08.999Z</time></trkpt><trkpt lat="44.917745" lon="9.1179867"><ele>424.0</ele><time>2026-04-19T10:47:10.999Z</time></trkpt><trkpt lat="44.91772" lon="9.118135"><ele>424.6</ele><time>2026-04-19T10:47:12.998Z</time></trkpt><trkpt lat="44.9176733" lon="9.1182717"><ele>425.2</ele><time>2026-04-19T10:47:14.998Z</time></trkpt><trkpt lat="44.9176083" lon="9.1183933"><ele>425.80000000000007</ele><time>2026-04-19T10:47:16.998Z</time></trkpt><trkpt lat="44.9175333" lon="9.1184983"><ele>426.40000000000003</ele><time>2026-04-19T10:47:18.998Z</time></trkpt><trkpt lat="44.9174717" lon="9.1186133"><ele>427.0</ele><time>2026-04-19T10:47:20.999Z</time></trkpt><trkpt lat="44.9174267" lon="9.118725"><ele>421.40000000000003</ele><time>2026-04-19T10:47:22.999Z</time></trkpt><trkpt lat="44.9173833" lon="9.1188417"><ele>415.80000000000007</ele><time>2026-04-19T10:47:24.999Z</time></trkpt><trkpt lat="44.9173367" lon="9.1189867"><ele>410.2</ele><time>2026-04-19T10:47:26.999Z</time></trkpt><trkpt lat="44.9173083" lon="9.1191517"><ele>404.6</ele><time>2026-04-19T10:47:28.998Z</time></trkpt><trkpt lat="44.9173383" lon="9.119285"><ele>399.0</ele><time>2026-04-19T10:47:30.998Z</time></trkpt><trkpt lat="44.9173833" lon="9.11944"><ele>399.0</ele><time>2026-04-19T10:47:32.999Z</time></trkpt><trkpt lat="44.91746" lon="9.1195767"><ele>399.0</ele><time>2026-04-19T10:47:34.998Z</time></trkpt><trkpt lat="44.9175067" lon="9.1196383"><ele>399.0</ele><time>2026-04-19T10:47:35.998Z</time></trkpt><trkpt lat="44.9175583" lon="9.1196967"><ele>399.0</ele><time>2026-04-19T10:47:36.998Z</time></trkpt><trkpt lat="44.9176117" lon="9.1197567"><ele>399.0</ele><time>2026-04-19T10:47:37.998Z</time></trkpt><trkpt lat="44.91771" lon="9.1198717"><ele>399.0</ele><time>2026-04-19T10:47:39.999Z</time></trkpt><trkpt lat="44.9177567" lon="9.1199383"><ele>397.8333333333333</ele><time>2026-04-19T10:47:40.998Z</time></trkpt><trkpt lat="44.91776" lon="9.1201183"><ele>396.66666666666663</ele><time>2026-04-19T10:47:42.998Z</time></trkpt><trkpt lat="44.91773" lon="9.1202083"><ele>395.5</ele><time>2026-04-19T10:47:43.999Z</time></trkpt><trkpt lat="44.91768" lon="9.1202867"><ele>394.3333333333333</ele><time>2026-04-19T10:47:44.999Z</time></trkpt><trkpt lat="44.917625" lon="9.120365"><ele>393.16666666666663</ele><time>2026-04-19T10:47:45.999Z</time></trkpt><trkpt lat="44.9175767" lon="9.1204367"><ele>392.0</ele><time>2026-04-19T10:47:46.999Z</time></trkpt><trkpt lat="44.9175217" lon="9.1205083"><ele>391.99999999999994</ele><time>2026-04-19T10:47:47.998Z</time></trkpt><trkpt lat="44.917475" lon="9.1205767"><ele>392.0</ele><time>2026-04-19T10:47:48.998Z</time></trkpt><trkpt lat="44.9174" lon="9.1207133"><ele>392.0</ele><time>2026-04-19T10:47:50.999Z</time></trkpt><trkpt lat="44.9173567" lon="9.1207867"><ele>392.0</ele><time>2026-04-19T10:47:51.999Z</time></trkpt><trkpt lat="44.9173183" lon="9.120875"><ele>391.99999999999994</ele><time>2026-04-19T10:47:52.999Z</time></trkpt><trkpt lat="44.917275" lon="9.12096"><ele>392.0</ele><time>2026-04-19T10:47:53.999Z</time></trkpt><trkpt lat="44.9172367" lon="9.1210367"><ele>391.6</ele><time>2026-04-19T10:47:54.998Z</time></trkpt><trkpt lat="44.9172" lon="9.1211183"><ele>391.20000000000005</ele><time>2026-04-19T10:47:55.998Z</time></trkpt><trkpt lat="44.9171617" lon="9.1211983"><ele>390.8</ele><time>2026-04-19T10:47:56.999Z</time></trkpt><trkpt lat="44.9170933" lon="9.1213533"><ele>390.4</ele><time>2026-04-19T10:47:58.998Z</time></trkpt><trkpt lat="44.9170683" lon="9.1214533"><ele>390.0</ele><time>2026-04-19T10:47:59.998Z</time></trkpt><trkpt lat="44.91703" lon="9.121625"><ele>392.0</ele><time>2026-04-19T10:48:01.998Z</time></trkpt><trkpt lat="44.9170017" lon="9.1218"><ele>394.0</ele><time>2026-04-19T10:48:03.998Z</time></trkpt><trkpt lat="44.9169933" lon="9.1219117"><ele>396.0</ele><time>2026-04-19T10:48:04.998Z</time></trkpt><trkpt lat="44.9169883" lon="9.1220017"><ele>398.0</ele><time>2026-04-19T10:48:05.998Z</time></trkpt><trkpt lat="44.916995" lon="9.1220967"><ele>400.0</ele><time>2026-04-19T10:48:06.997Z</time></trkpt><trkpt lat="44.9169733" lon="9.1222817"><ele>400.00000000000006</ele><time>2026-04-19T10:48:08.998Z</time></trkpt><trkpt lat="44.916965" lon="9.1223917"><ele>400.0</ele><time>2026-04-19T10:48:09.998Z</time></trkpt><trkpt lat="44.9169667" lon="9.1225133"><ele>400.0</ele><time>2026-04-19T10:48:10.998Z</time></trkpt><trkpt lat="44.9169917" lon="9.1226233"><ele>400.0</ele><time>2026-04-19T10:48:11.997Z</time></trkpt><trkpt lat="44.917035" lon="9.1227333"><ele>400.00000000000006</ele><time>2026-04-19T10:48:12.997Z</time></trkpt><trkpt lat="44.917075" lon="9.122835"><ele>400.0</ele><time>2026-04-19T10:48:13.997Z</time></trkpt><trkpt lat="44.9171" lon="9.1229267"><ele>400.2</ele><time>2026-04-19T10:48:14.998Z</time></trkpt><trkpt lat="44.91712" lon="9.1230117"><ele>400.4</ele><time>2026-04-19T10:48:15.998Z</time></trkpt><trkpt lat="44.917145" lon="9.123185"><ele>400.6</ele><time>2026-04-19T10:48:17.997Z</time></trkpt><trkpt lat="44.9171067" lon="9.12334"><ele>400.8</ele><time>2026-04-19T10:48:19.997Z</time></trkpt><trkpt lat="44.917045" lon="9.12349"><ele>401.0</ele><time>2026-04-19T10:48:21.997Z</time></trkpt><trkpt lat="44.91697" lon="9.12364"><ele>400.16666666666663</ele><time>2026-04-19T10:48:23.997Z</time></trkpt><trkpt lat="44.9169183" lon="9.1237317"><ele>399.3333333333333</ele><time>2026-04-19T10:48:24.997Z</time></trkpt><trkpt lat="44.9168733" lon="9.1238267"><ele>398.5</ele><time>2026-04-19T10:48:25.997Z</time></trkpt><trkpt lat="44.9168417" lon="9.123915"><ele>397.66666666666663</ele><time>2026-04-19T10:48:26.997Z</time></trkpt><trkpt lat="44.9167717" lon="9.12407"><ele>396.8333333333333</ele><time>2026-04-19T10:48:28.998Z</time></trkpt><trkpt lat="44.9167383" lon="9.1241717"><ele>396.0</ele><time>2026-04-19T10:48:29.998Z</time></trkpt><trkpt lat="44.9167067" lon="9.124265"><ele>390.6</ele><time>2026-04-19T10:48:30.997Z</time></trkpt><trkpt lat="44.9166817" lon="9.1243483"><ele>385.20000000000005</ele><time>2026-04-19T10:48:31.998Z</time></trkpt><trkpt lat="44.9166817" lon="9.1245117"><ele>379.79999999999995</ele><time>2026-04-19T10:48:33.997Z</time></trkpt><trkpt lat="44.9166917" lon="9.1246983"><ele>374.4</ele><time>2026-04-19T10:48:35.998Z</time></trkpt><trkpt lat="44.9166867" lon="9.1248567"><ele>369.0</ele><time>2026-04-19T10:48:37.998Z</time></trkpt><trkpt lat="44.916665" lon="9.1249517"><ele>368.1666666666667</ele><time>2026-04-19T10:48:38.997Z</time></trkpt><trkpt lat="44.9165983" lon="9.1251033"><ele>367.3333333333333</ele><time>2026-04-19T10:48:40.998Z</time></trkpt><trkpt lat="44.9165467" lon="9.1251567"><ele>366.5</ele><time>2026-04-19T10:48:41.998Z</time></trkpt><trkpt lat="44.9164867" lon="9.1251983"><ele>365.66666666666663</ele><time>2026-04-19T10:48:42.998Z</time></trkpt><trkpt lat="44.9163983" lon="9.1252083"><ele>364.8333333333333</ele><time>2026-04-19T10:48:43.997Z</time></trkpt><trkpt lat="44.916305" lon="9.1252083"><ele>364.0</ele><time>2026-04-19T10:48:44.998Z</time></trkpt><trkpt lat="44.916215" lon="9.1251917"><ele>364.0</ele><time>2026-04-19T10:48:45.997Z</time></trkpt><trkpt lat="44.91613" lon="9.1251783"><ele>364.0</ele><time>2026-04-19T10:48:46.997Z</time></trkpt><trkpt lat="44.9160383" lon="9.125185"><ele>364.0</ele><time>2026-04-19T10:48:47.997Z</time></trkpt><trkpt lat="44.91595" lon="9.12521"><ele>364.0</ele><time>2026-04-19T10:48:48.998Z</time></trkpt><trkpt lat="44.9158683" lon="9.125235"><ele>364.0</ele><time>2026-04-19T10:48:49.998Z</time></trkpt><trkpt lat="44.9157967" lon="9.1252783"><ele>364.0</ele><time>2026-04-19T10:48:50.998Z</time></trkpt><trkpt lat="44.91575" lon="9.12534"><ele>361.7142857142857</ele><time>2026-04-19T10:48:51.998Z</time></trkpt><trkpt lat="44.915715" lon="9.1254217"><ele>359.42857142857144</ele><time>2026-04-19T10:48:52.998Z</time></trkpt><trkpt lat="44.9156883" lon="9.1255233"><ele>357.1428571428571</ele><time>2026-04-19T10:48:53.998Z</time></trkpt><trkpt lat="44.9156717" lon="9.1256167"><ele>354.8571428571429</ele><time>2026-04-19T10:48:54.998Z</time></trkpt><trkpt lat="44.9156483" lon="9.1257067"><ele>352.57142857142856</ele><time>2026-04-19T10:48:55.998Z</time></trkpt><trkpt lat="44.9156183" lon="9.1257967"><ele>350.2857142857143</ele><time>2026-04-19T10:48:56.998Z</time></trkpt><trkpt lat="44.9155983" lon="9.1258817"><ele>348.0</ele><time>2026-04-19T10:48:57.997Z</time></trkpt><trkpt lat="44.915545" lon="9.1260467"><ele>348.0</ele><time>2026-04-19T10:48:59.997Z</time></trkpt><trkpt lat="44.9155083" lon="9.126125"><ele>348.0</ele><time>2026-04-19T10:49:00.998Z</time></trkpt><trkpt lat="44.9154617" lon="9.1261883"><ele>348.0</ele><time>2026-04-19T10:49:01.998Z</time></trkpt><trkpt lat="44.915405" lon="9.126235"><ele>348.0</ele><time>2026-04-19T10:49:02.998Z</time></trkpt><trkpt lat="44.9153467" lon="9.1262717"><ele>348.0</ele><time>2026-04-19T10:49:03.998Z</time></trkpt><trkpt lat="44.9152833" lon="9.126305"><ele>348.0</ele><time>2026-04-19T10:49:04.998Z</time></trkpt><trkpt lat="44.9152183" lon="9.1263383"><ele>348.0</ele><time>2026-04-19T10:49:05.998Z</time></trkpt><trkpt lat="44.9151567" lon="9.1263633"><ele>348.0</ele><time>2026-04-19T10:49:06.998Z</time></trkpt><trkpt lat="44.9150983" lon="9.1263983"><ele>348.0</ele><time>2026-04-19T10:49:07.998Z</time></trkpt><trkpt lat="44.915035" lon="9.12644"><ele>348.0</ele><time>2026-04-19T10:49:08.997Z</time></trkpt><trkpt lat="44.9149633" lon="9.12647"><ele>348.0</ele><time>2026-04-19T10:49:09.998Z</time></trkpt><trkpt lat="44.914895" lon="9.1265"><ele>348.0</ele><time>2026-04-19T10:49:10.998Z</time></trkpt><trkpt lat="44.91482" lon="9.126515"><ele>348.0</ele><time>2026-04-19T10:49:11.998Z</time></trkpt><trkpt lat="44.9147467" lon="9.1265433"><ele>348.0</ele><time>2026-04-19T10:49:12.998Z</time></trkpt><trkpt lat="44.9146717" lon="9.126565"><ele>345.6666666666667</ele><time>2026-04-19T10:49:13.998Z</time></trkpt><trkpt lat="44.9146" lon="9.126585"><ele>343.3333333333333</ele><time>2026-04-19T10:49:14.997Z</time></trkpt><trkpt lat="44.9145317" lon="9.126605"><ele>341.0</ele><time>2026-04-19T10:49:15.997Z</time></trkpt><trkpt lat="44.9144667" lon="9.1266233"><ele>338.66666666666663</ele><time>2026-04-19T10:49:16.997Z</time></trkpt><trkpt lat="44.9144083" lon="9.12666"><ele>336.3333333333333</ele><time>2026-04-19T10:49:17.998Z</time></trkpt><trkpt lat="44.914335" lon="9.1267667"><ele>334.0</ele><time>2026-04-19T10:49:19.997Z</time></trkpt><trkpt lat="44.914305" lon="9.12692"><ele>334.0</ele><time>2026-04-19T10:49:21.998Z</time></trkpt><trkpt lat="44.91429" lon="9.1270517"><ele>334.0</ele><time>2026-04-19T10:49:23.998Z</time></trkpt><trkpt lat="44.9142917" lon="9.1272067"><ele>334.0</ele><time>2026-04-19T10:49:25.998Z</time></trkpt><trkpt lat="44.9143083" lon="9.12737"><ele>334.0</ele><time>2026-04-19T10:49:27.998Z</time></trkpt><trkpt lat="44.9142767" lon="9.1274933"><ele>334.0</ele><time>2026-04-19T10:49:29.998Z</time></trkpt><trkpt lat="44.9142017" lon="9.12764"><ele>333.0</ele><time>2026-04-19T10:49:31.997Z</time></trkpt><trkpt lat="44.9141433" lon="9.1277283"><ele>332.0</ele><time>2026-04-19T10:49:32.997Z</time></trkpt><trkpt lat="44.91409" lon="9.1278233"><ele>331.0</ele><time>2026-04-19T10:49:33.998Z</time></trkpt><trkpt lat="44.9140283" lon="9.1278933"><ele>330.0</ele><time>2026-04-19T10:49:34.998Z</time></trkpt><trkpt lat="44.91393" lon="9.1279667"><ele>329.0</ele><time>2026-04-19T10:49:36.998Z</time></trkpt><trkpt lat="44.9138783" lon="9.1280333"><ele>328.0</ele><time>2026-04-19T10:49:38.997Z</time></trkpt><trkpt lat="44.9138617" lon="9.1281717"><ele>326.8333333333333</ele><time>2026-04-19T10:49:40.998Z</time></trkpt><trkpt lat="44.9138517" lon="9.1282783"><ele>325.66666666666663</ele><time>2026-04-19T10:49:41.998Z</time></trkpt><trkpt lat="44.913845" lon="9.1283867"><ele>324.5</ele><time>2026-04-19T10:49:42.997Z</time></trkpt><trkpt lat="44.9138433" lon="9.128495"><ele>323.3333333333333</ele><time>2026-04-19T10:49:43.997Z</time></trkpt><trkpt lat="44.91384" lon="9.1285883"><ele>322.1666666666667</ele><time>2026-04-19T10:49:44.997Z</time></trkpt><trkpt lat="44.9138333" lon="9.1286833"><ele>321.0</ele><time>2026-04-19T10:49:45.998Z</time></trkpt><trkpt lat="44.9138117" lon="9.128845"><ele>321.0</ele><time>2026-04-19T10:49:47.997Z</time></trkpt><trkpt lat="44.9137467" lon="9.1289617"><ele>321.0</ele><time>2026-04-19T10:49:49.998Z</time></trkpt><trkpt lat="44.9136733" lon="9.1290417"><ele>321.0</ele><time>2026-04-19T10:49:51.998Z</time></trkpt><trkpt lat="44.9135733" lon="9.129135"><ele>321.0</ele><time>2026-04-19T10:49:53.998Z</time></trkpt><trkpt lat="44.9134817" lon="9.1292183"><ele>321.0</ele><time>2026-04-19T10:49:55.998Z</time></trkpt><trkpt lat="44.9134317" lon="9.1293033"><ele>322.0</ele><time>2026-04-19T10:49:57.997Z</time></trkpt><trkpt lat="44.9134083" lon="9.129405"><ele>323.0</ele><time>2026-04-19T10:49:59.998Z</time></trkpt><trkpt lat="44.9134167" lon="9.12953"><ele>324.0</ele><time>2026-04-19T10:50:01.997Z</time></trkpt><trkpt lat="44.9134867" lon="9.1296183"><ele>325.0</ele><time>2026-04-19T10:50:03.998Z</time></trkpt><trkpt lat="44.9135617" lon="9.1295883"><ele>326.0</ele><time>2026-04-19T10:50:05.997Z</time></trkpt><trkpt lat="44.913635" lon="9.1295567"><ele>327.0</ele><time>2026-04-19T10:50:07.998Z</time></trkpt><trkpt lat="44.91373" lon="9.1296117"><ele>327.0</ele><time>2026-04-19T10:50:09.998Z</time></trkpt><trkpt lat="44.9138283" lon="9.1297233"><ele>327.0</ele><time>2026-04-19T10:50:11.998Z</time></trkpt><trkpt lat="44.91391" lon="9.1298333"><ele>327.0</ele><time>2026-04-19T10:50:13.997Z</time></trkpt><trkpt lat="44.914005" lon="9.1298933"><ele>327.0</ele><time>2026-04-19T10:50:15.998Z</time></trkpt><trkpt lat="44.9141217" lon="9.12997"><ele>328.40000000000003</ele><time>2026-04-19T10:50:17.998Z</time></trkpt><trkpt lat="44.9141883" lon="9.1300167"><ele>329.8</ele><time>2026-04-19T10:50:18.997Z</time></trkpt><trkpt lat="44.91431" lon="9.1300783"><ele>331.2</ele><time>2026-04-19T10:50:20.998Z</time></trkpt><trkpt lat="44.9143967" lon="9.1301317"><ele>332.6</ele><time>2026-04-19T10:50:22.998Z</time></trkpt><trkpt lat="44.9144583" lon="9.1301817"><ele>334.0</ele><time>2026-04-19T10:50:24.997Z</time></trkpt><trkpt lat="44.914545" lon="9.1302517"><ele>335.1428571428571</ele><time>2026-04-19T10:50:27.998Z</time></trkpt><trkpt lat="44.91464" lon="9.130245"><ele>336.2857142857143</ele><time>2026-04-19T10:50:29.997Z</time></trkpt><trkpt lat="44.9147017" lon="9.1302167"><ele>337.42857142857144</ele><time>2026-04-19T10:50:30.997Z</time></trkpt><trkpt lat="44.91477" lon="9.13018"><ele>338.57142857142856</ele><time>2026-04-19T10:50:31.997Z</time></trkpt><trkpt lat="44.9148317" lon="9.1301433"><ele>339.7142857142857</ele><time>2026-04-19T10:50:32.997Z</time></trkpt><trkpt lat="44.9148967" lon="9.1301133"><ele>340.85714285714283</ele><time>2026-04-19T10:50:33.998Z</time></trkpt><trkpt lat="44.9149567" lon="9.13008"><ele>342.0</ele><time>2026-04-19T10:50:34.998Z</time></trkpt><trkpt lat="44.9150183" lon="9.1300533"><ele>343.57142857142856</ele><time>2026-04-19T10:50:35.998Z</time></trkpt><trkpt lat="44.91508" lon="9.1300183"><ele>345.1428571428571</ele><time>2026-04-19T10:50:36.998Z</time></trkpt><trkpt lat="44.91514" lon="9.1299883"><ele>346.71428571428567</ele><time>2026-04-19T10:50:37.997Z</time></trkpt><trkpt lat="44.9152033" lon="9.1299617"><ele>348.2857142857143</ele><time>2026-04-19T10:50:38.998Z</time></trkpt><trkpt lat="44.9152683" lon="9.1299333"><ele>349.8571428571429</ele><time>2026-04-19T10:50:39.998Z</time></trkpt><trkpt lat="44.91533" lon="9.1298983"><ele>351.4285714285714</ele><time>2026-04-19T10:50:40.998Z</time></trkpt><trkpt lat="44.9153933" lon="9.1298667"><ele>353.0</ele><time>2026-04-19T10:50:41.998Z</time></trkpt><trkpt lat="44.9154533" lon="9.1298333"><ele>353.0</ele><time>2026-04-19T10:50:42.998Z</time></trkpt><trkpt lat="44.9155717" lon="9.129835"><ele>353.0</ele><time>2026-04-19T10:50:44.997Z</time></trkpt><trkpt lat="44.9156783" lon="9.1299583"><ele>353.0</ele><time>2026-04-19T10:50:46.998Z</time></trkpt><trkpt lat="44.9157333" lon="9.1300533"><ele>353.0</ele><time>2026-04-19T10:50:47.998Z</time></trkpt><trkpt lat="44.9157883" lon="9.1301383"><ele>353.0</ele><time>2026-04-19T10:50:48.998Z</time></trkpt><trkpt lat="44.9158333" lon="9.1302183"><ele>353.33333333333337</ele><time>2026-04-19T10:50:49.998Z</time></trkpt><trkpt lat="44.9158783" lon="9.130295"><ele>353.6666666666667</ele><time>2026-04-19T10:50:50.998Z</time></trkpt><trkpt lat="44.9159233" lon="9.1303717"><ele>354.0</ele><time>2026-04-19T10:50:51.998Z</time></trkpt><trkpt lat="44.9159733" lon="9.1304467"><ele>354.3333333333333</ele><time>2026-04-19T10:50:52.998Z</time></trkpt><trkpt lat="44.9160267" lon="9.130535"><ele>354.66666666666663</ele><time>2026-04-19T10:50:53.998Z</time></trkpt><trkpt lat="44.9160717" lon="9.1306333"><ele>355.0</ele><time>2026-04-19T10:50:54.998Z</time></trkpt><trkpt lat="44.916125" lon="9.13074"><ele>357.5</ele><time>2026-04-19T10:50:55.998Z</time></trkpt><trkpt lat="44.9161683" lon="9.1308467"><ele>360.0</ele><time>2026-04-19T10:50:56.998Z</time></trkpt><trkpt lat="44.91621" lon="9.130945"><ele>362.5</ele><time>2026-04-19T10:50:57.997Z</time></trkpt><trkpt lat="44.9162483" lon="9.1310383"><ele>365.0</ele><time>2026-04-19T10:50:58.997Z</time></trkpt><trkpt lat="44.9162817" lon="9.131135"><ele>367.5</ele><time>2026-04-19T10:50:59.998Z</time></trkpt><trkpt lat="44.9163267" lon="9.1312183"><ele>370.0</ele><time>2026-04-19T10:51:00.998Z</time></trkpt><trkpt lat="44.916375" lon="9.1312917"><ele>369.99999999999994</ele><time>2026-04-19T10:51:01.998Z</time></trkpt><trkpt lat="44.916435" lon="9.1313517"><ele>370.0</ele><time>2026-04-19T10:51:02.998Z</time></trkpt><trkpt lat="44.9165017" lon="9.1314083"><ele>370.0</ele><time>2026-04-19T10:51:03.997Z</time></trkpt><trkpt lat="44.9165683" lon="9.1314617"><ele>370.0</ele><time>2026-04-19T10:51:04.998Z</time></trkpt><trkpt lat="44.9166283" lon="9.1315117"><ele>370.0</ele><time>2026-04-19T10:51:05.998Z</time></trkpt><trkpt lat="44.91669" lon="9.1315517"><ele>369.99999999999994</ele><time>2026-04-19T10:51:06.998Z</time></trkpt><trkpt lat="44.9167517" lon="9.1316017"><ele>370.0</ele><time>2026-04-19T10:51:07.998Z</time></trkpt><trkpt lat="44.9168133" lon="9.1316533"><ele>370.66666666666663</ele><time>2026-04-19T10:51:08.998Z</time></trkpt><trkpt lat="44.916885" lon="9.1317117"><ele>371.3333333333333</ele><time>2026-04-19T10:51:09.997Z</time></trkpt><trkpt lat="44.9169633" lon="9.13175"><ele>372.0</ele><time>2026-04-19T10:51:10.998Z</time></trkpt><trkpt lat="44.9170417" lon="9.1317867"><ele>372.6666666666667</ele><time>2026-04-19T10:51:11.998Z</time></trkpt><trkpt lat="44.91712" lon="9.1318183"><ele>373.33333333333337</ele><time>2026-04-19T10:51:12.998Z</time></trkpt><trkpt lat="44.9172" lon="9.1318517"><ele>374.0</ele><time>2026-04-19T10:51:13.998Z</time></trkpt><trkpt lat="44.9172783" lon="9.1318783"><ele>374.0</ele><time>2026-04-19T10:51:14.997Z</time></trkpt><trkpt lat="44.9173517" lon="9.1319017"><ele>374.0</ele><time>2026-04-19T10:51:15.997Z</time></trkpt><trkpt lat="44.9174217" lon="9.1319317"><ele>374.0</ele><time>2026-04-19T10:51:16.997Z</time></trkpt><trkpt lat="44.9174867" lon="9.1319633"><ele>374.0</ele><time>2026-04-19T10:51:17.998Z</time></trkpt><trkpt lat="44.9175533" lon="9.1319767"><ele>374.0</ele><time>2026-04-19T10:51:18.997Z</time></trkpt><trkpt lat="44.917625" lon="9.1319717"><ele>374.0</ele><time>2026-04-19T10:51:19.998Z</time></trkpt><trkpt lat="44.9176933" lon="9.1319533"><ele>374.0</ele><time>2026-04-19T10:51:20.997Z</time></trkpt><trkpt lat="44.9177583" lon="9.13194"><ele>375.6666666666667</ele><time>2026-04-19T10:51:21.998Z</time></trkpt><trkpt lat="44.9178283" lon="9.1319333"><ele>377.33333333333337</ele><time>2026-04-19T10:51:22.997Z</time></trkpt><trkpt lat="44.9179633" lon="9.1319267"><ele>379.0</ele><time>2026-04-19T10:51:24.998Z</time></trkpt><trkpt lat="44.91804" lon="9.1319317"><ele>380.6666666666667</ele><time>2026-04-19T10:51:25.998Z</time></trkpt><trkpt lat="44.9181133" lon="9.13193"><ele>382.3333333333333</ele><time>2026-04-19T10:51:26.998Z</time></trkpt><trkpt lat="44.918185" lon="9.1319333"><ele>384.0</ele><time>2026-04-19T10:51:27.997Z</time></trkpt><trkpt lat="44.9182567" lon="9.1319483"><ele>384.0</ele><time>2026-04-19T10:51:28.997Z</time></trkpt><trkpt lat="44.91832" lon="9.1319833"><ele>384.0</ele><time>2026-04-19T10:51:29.998Z</time></trkpt><trkpt lat="44.9184283" lon="9.1320867"><ele>384.0</ele><time>2026-04-19T10:51:31.998Z</time></trkpt><trkpt lat="44.918485" lon="9.1321567"><ele>384.0</ele><time>2026-04-19T10:51:32.998Z</time></trkpt><trkpt lat="44.9185367" lon="9.1322383"><ele>384.0</ele><time>2026-04-19T10:51:33.998Z</time></trkpt><trkpt lat="44.9185967" lon="9.1323267"><ele>384.0</ele><time>2026-04-19T10:51:34.997Z</time></trkpt><trkpt lat="44.9186567" lon="9.1324033"><ele>383.5</ele><time>2026-04-19T10:51:35.998Z</time></trkpt><trkpt lat="44.9187267" lon="9.13247"><ele>383.0</ele><time>2026-04-19T10:51:36.998Z</time></trkpt><trkpt lat="44.9187933" lon="9.1325133"><ele>382.5</ele><time>2026-04-19T10:51:37.998Z</time></trkpt><trkpt lat="44.91886" lon="9.1325583"><ele>382.0</ele><time>2026-04-19T10:51:38.998Z</time></trkpt><trkpt lat="44.9189317" lon="9.132605"><ele>381.5</ele><time>2026-04-19T10:51:39.998Z</time></trkpt><trkpt lat="44.91901" lon="9.132645"><ele>381.0</ele><time>2026-04-19T10:51:40.998Z</time></trkpt><trkpt lat="44.9190933" lon="9.1326917"><ele>381.0</ele><time>2026-04-19T10:51:41.998Z</time></trkpt><trkpt lat="44.9191683" lon="9.132735"><ele>381.0</ele><time>2026-04-19T10:51:42.998Z</time></trkpt><trkpt lat="44.919235" lon="9.1327567"><ele>381.0</ele><time>2026-04-19T10:51:43.997Z</time></trkpt><trkpt lat="44.9193083" lon="9.132795"><ele>381.0</ele><time>2026-04-19T10:51:44.998Z</time></trkpt><trkpt lat="44.9193817" lon="9.1328433"><ele>381.0</ele><time>2026-04-19T10:51:45.997Z</time></trkpt><trkpt lat="44.919465" lon="9.1328983"><ele>381.0</ele><time>2026-04-19T10:51:46.998Z</time></trkpt><trkpt lat="44.9195467" lon="9.13294"><ele>381.20000000000005</ele><time>2026-04-19T10:51:47.998Z</time></trkpt><trkpt lat="44.91963" lon="9.1329867"><ele>381.40000000000003</ele><time>2026-04-19T10:51:48.997Z</time></trkpt><trkpt lat="44.919715" lon="9.1330417"><ele>381.6</ele><time>2026-04-19T10:51:49.998Z</time></trkpt><trkpt lat="44.9198017" lon="9.1330967"><ele>381.8</ele><time>2026-04-19T10:51:50.997Z</time></trkpt><trkpt lat="44.91988" lon="9.1331683"><ele>382.0</ele><time>2026-04-19T10:51:51.997Z</time></trkpt><trkpt lat="44.91995" lon="9.1332667"><ele>382.0</ele><time>2026-04-19T10:51:52.997Z</time></trkpt><trkpt lat="44.9200117" lon="9.1333633"><ele>382.0</ele><time>2026-04-19T10:51:53.997Z</time></trkpt><trkpt lat="44.920075" lon="9.133455"><ele>382.0</ele><time>2026-04-19T10:51:54.997Z</time></trkpt><trkpt lat="44.920135" lon="9.1335433"><ele>382.0</ele><time>2026-04-19T10:51:55.997Z</time></trkpt><trkpt lat="44.9201967" lon="9.1336267"><ele>382.0</ele><time>2026-04-19T10:51:56.998Z</time></trkpt><trkpt lat="44.9202683" lon="9.133705"><ele>382.0</ele><time>2026-04-19T10:51:57.998Z</time></trkpt><trkpt lat="44.92034" lon="9.133775"><ele>381.5</ele><time>2026-04-19T10:51:58.998Z</time></trkpt><trkpt lat="44.92041" lon="9.13383"><ele>381.0</ele><time>2026-04-19T10:51:59.998Z</time></trkpt><trkpt lat="44.920485" lon="9.1338533"><ele>380.5</ele><time>2026-04-19T10:52:00.997Z</time></trkpt><trkpt lat="44.9205533" lon="9.13387"><ele>380.0</ele><time>2026-04-19T10:52:01.997Z</time></trkpt><trkpt lat="44.9206167" lon="9.1338917"><ele>379.5</ele><time>2026-04-19T10:52:02.998Z</time></trkpt><trkpt lat="44.92072" lon="9.1339283"><ele>379.0</ele><time>2026-04-19T10:52:04.997Z</time></trkpt><trkpt lat="44.9208117" lon="9.1339883"><ele>379.5</ele><time>2026-04-19T10:52:06.997Z</time></trkpt><trkpt lat="44.92091" lon="9.1340383"><ele>380.0</ele><time>2026-04-19T10:52:08.998Z</time></trkpt><trkpt lat="44.9210233" lon="9.13409"><ele>380.5</ele><time>2026-04-19T10:52:10.998Z</time></trkpt><trkpt lat="44.92114" lon="9.1341367"><ele>381.0</ele><time>2026-04-19T10:52:12.997Z</time></trkpt><trkpt lat="44.9212467" lon="9.1341867"><ele>381.0</ele><time>2026-04-19T10:52:14.997Z</time></trkpt><trkpt lat="44.9213367" lon="9.1342767"><ele>381.0</ele><time>2026-04-19T10:52:16.997Z</time></trkpt><trkpt lat="44.9213883" lon="9.1343333"><ele>381.0</ele><time>2026-04-19T10:52:17.998Z</time></trkpt><trkpt lat="44.9214717" lon="9.1344383"><ele>381.0</ele><time>2026-04-19T10:52:19.997Z</time></trkpt><trkpt lat="44.9215283" lon="9.1345267"><ele>381.0</ele><time>2026-04-19T10:52:21.998Z</time></trkpt><trkpt lat="44.9215467" lon="9.1346283"><ele>381.0</ele><time>2026-04-19T10:52:23.998Z</time></trkpt><trkpt lat="44.9215483" lon="9.1347633"><ele>383.0</ele><time>2026-04-19T10:52:25.997Z</time></trkpt><trkpt lat="44.9215517" lon="9.134915"><ele>385.0</ele><time>2026-04-19T10:52:27.998Z</time></trkpt><trkpt lat="44.92159" lon="9.1350517"><ele>387.0</ele><time>2026-04-19T10:52:29.997Z</time></trkpt><trkpt lat="44.9216367" lon="9.1351883"><ele>389.0</ele><time>2026-04-19T10:52:31.997Z</time></trkpt><trkpt lat="44.92168" lon="9.1353033"><ele>391.0</ele><time>2026-04-19T10:52:33.998Z</time></trkpt><trkpt lat="44.9217183" lon="9.13541"><ele>392.4</ele><time>2026-04-19T10:52:35.997Z</time></trkpt><trkpt lat="44.92174" lon="9.1355317"><ele>393.8</ele><time>2026-04-19T10:52:37.998Z</time></trkpt><trkpt lat="44.9217717" lon="9.1356667"><ele>395.2</ele><time>2026-04-19T10:52:39.998Z</time></trkpt><trkpt lat="44.92181" lon="9.13581"><ele>396.59999999999997</ele><time>2026-04-19T10:52:41.997Z</time></trkpt><trkpt lat="44.9218633" lon="9.13596"><ele>398.0</ele><time>2026-04-19T10:52:43.997Z</time></trkpt><trkpt lat="44.92192" lon="9.13606"><ele>398.49999999999994</ele><time>2026-04-19T10:52:45.998Z</time></trkpt><trkpt lat="44.9219567" lon="9.1361383"><ele>399.0</ele><time>2026-04-19T10:52:47.998Z</time></trkpt><trkpt lat="44.92193" lon="9.1362383"><ele>399.5</ele><time>2026-04-19T10:52:49.998Z</time></trkpt><trkpt lat="44.921915" lon="9.1363383"><ele>400.0</ele><time>2026-04-19T10:52:51.998Z</time></trkpt><trkpt lat="44.9219133" lon="9.1364633"><ele>400.49999999999994</ele><time>2026-04-19T10:52:53.997Z</time></trkpt><trkpt lat="44.9218867" lon="9.136575"><ele>401.0</ele><time>2026-04-19T10:52:55.998Z</time></trkpt><trkpt lat="44.9218417" lon="9.1366883"><ele>399.49999999999994</ele><time>2026-04-19T10:52:57.998Z</time></trkpt><trkpt lat="44.92179" lon="9.136795"><ele>398.0</ele><time>2026-04-19T10:52:59.998Z</time></trkpt><trkpt lat="44.9217467" lon="9.136885"><ele>396.5</ele><time>2026-04-19T10:53:01.998Z</time></trkpt><trkpt lat="44.9217033" lon="9.136985"><ele>395.0</ele><time>2026-04-19T10:53:03.997Z</time></trkpt><trkpt lat="44.9216583" lon="9.13709"><ele>393.49999999999994</ele><time>2026-04-19T10:53:05.998Z</time></trkpt><trkpt lat="44.921615" lon="9.1371717"><ele>392.0</ele><time>2026-04-19T10:53:07.998Z</time></trkpt><trkpt lat="44.92158" lon="9.137255"><ele>391.6</ele><time>2026-04-19T10:53:09.997Z</time></trkpt><trkpt lat="44.9215467" lon="9.13734"><ele>391.20000000000005</ele><time>2026-04-19T10:53:11.998Z</time></trkpt><trkpt lat="44.92152" lon="9.1374417"><ele>390.8</ele><time>2026-04-19T10:53:13.997Z</time></trkpt><trkpt lat="44.9214867" lon="9.1375717"><ele>390.4</ele><time>2026-04-19T10:53:15.997Z</time></trkpt><trkpt lat="44.9214533" lon="9.1377133"><ele>390.0</ele><time>2026-04-19T10:53:17.997Z</time></trkpt><trkpt lat="44.9214333" lon="9.1378867"><ele>389.8</ele><time>2026-04-19T10:53:19.997Z</time></trkpt><trkpt lat="44.9214233" lon="9.1380483"><ele>389.6</ele><time>2026-04-19T10:53:21.998Z</time></trkpt><trkpt lat="44.9214217" lon="9.1381433"><ele>389.4</ele><time>2026-04-19T10:53:22.997Z</time></trkpt><trkpt lat="44.9214117" lon="9.1383083"><ele>389.2</ele><time>2026-04-19T10:53:24.998Z</time></trkpt><trkpt lat="44.9213917" lon="9.1384817"><ele>389.0</ele><time>2026-04-19T10:53:26.997Z</time></trkpt><trkpt lat="44.9213767" lon="9.1386233"><ele>388.0</ele><time>2026-04-19T10:53:28.997Z</time></trkpt><trkpt lat="44.9213567" lon="9.138755"><ele>387.0</ele><time>2026-04-19T10:53:30.998Z</time></trkpt><trkpt lat="44.9213217" lon="9.1388767"><ele>386.0</ele><time>2026-04-19T10:53:32.998Z</time></trkpt><trkpt lat="44.9212733" lon="9.1390067"><ele>385.0</ele><time>2026-04-19T10:53:34.998Z</time></trkpt><trkpt lat="44.9212117" lon="9.13912"><ele>384.0</ele><time>2026-04-19T10:53:36.998Z</time></trkpt><trkpt lat="44.9211467" lon="9.1392283"><ele>382.6</ele><time>2026-04-19T10:53:38.998Z</time></trkpt><trkpt lat="44.9210967" lon="9.139315"><ele>381.2</ele><time>2026-04-19T10:53:40.998Z</time></trkpt><trkpt lat="44.9210583" lon="9.1394217"><ele>379.8</ele><time>2026-04-19T10:53:42.998Z</time></trkpt><trkpt lat="44.9210117" lon="9.13953"><ele>378.40000000000003</ele><time>2026-04-19T10:53:44.996Z</time></trkpt><trkpt lat="44.92095" lon="9.1396383"><ele>377.0</ele><time>2026-04-19T10:53:46.997Z</time></trkpt><trkpt lat="44.9208917" lon="9.1397517"><ele>377.0</ele><time>2026-04-19T10:53:48.997Z</time></trkpt><trkpt lat="44.9208383" lon="9.1398583"><ele>377.0</ele><time>2026-04-19T10:53:50.997Z</time></trkpt><trkpt lat="44.92079" lon="9.1399583"><ele>377.0</ele><time>2026-04-19T10:53:52.997Z</time></trkpt><trkpt lat="44.9207417" lon="9.1400517"><ele>377.0</ele><time>2026-04-19T10:53:54.996Z</time></trkpt><trkpt lat="44.9206833" lon="9.1401617"><ele>377.0</ele><time>2026-04-19T10:53:56.997Z</time></trkpt><trkpt lat="44.9206233" lon="9.1402583"><ele>377.0</ele><time>2026-04-19T10:53:58.996Z</time></trkpt><trkpt lat="44.9205633" lon="9.1403517"><ele>377.33333333333337</ele><time>2026-04-19T10:54:00.996Z</time></trkpt><trkpt lat="44.9204967" lon="9.1404367"><ele>377.6666666666667</ele><time>2026-04-19T10:54:02.996Z</time></trkpt><trkpt lat="44.9204333" lon="9.1405333"><ele>378.0</ele><time>2026-04-19T10:54:04.996Z</time></trkpt><trkpt lat="44.9203683" lon="9.1406183"><ele>378.3333333333333</ele><time>2026-04-19T10:54:06.996Z</time></trkpt><trkpt lat="44.9203067" lon="9.14068"><ele>378.66666666666663</ele><time>2026-04-19T10:54:08.997Z</time></trkpt><trkpt lat="44.9202567" lon="9.14075"><ele>379.0</ele><time>2026-04-19T10:54:10.997Z</time></trkpt><trkpt lat="44.9202067" lon="9.1408267"><ele>379.0</ele><time>2026-04-19T10:54:12.996Z</time></trkpt><trkpt lat="44.920155" lon="9.1408983"><ele>379.0</ele><time>2026-04-19T10:54:14.996Z</time></trkpt><trkpt lat="44.9201133" lon="9.140975"><ele>379.0</ele><time>2026-04-19T10:54:16.997Z</time></trkpt><trkpt lat="44.9200467" lon="9.1410883"><ele>379.0</ele><time>2026-04-19T10:54:18.997Z</time></trkpt><trkpt lat="44.9199767" lon="9.141205"><ele>379.0</ele><time>2026-04-19T10:54:20.996Z</time></trkpt><trkpt lat="44.9199267" lon="9.1412983"><ele>379.0</ele><time>2026-04-19T10:54:22.996Z</time></trkpt><trkpt lat="44.91986" lon="9.1414017"><ele>380.6</ele><time>2026-04-19T10:54:24.996Z</time></trkpt><trkpt lat="44.91978" lon="9.1415167"><ele>382.2</ele><time>2026-04-19T10:54:26.996Z</time></trkpt><trkpt lat="44.919715" lon="9.1416317"><ele>383.8</ele><time>2026-04-19T10:54:28.997Z</time></trkpt><trkpt lat="44.9196733" lon="9.14173"><ele>385.40000000000003</ele><time>2026-04-19T10:54:30.997Z</time></trkpt><trkpt lat="44.9196133" lon="9.14183"><ele>387.0</ele><time>2026-04-19T10:54:32.997Z</time></trkpt><trkpt lat="44.919545" lon="9.14196"><ele>387.40000000000003</ele><time>2026-04-19T10:54:34.996Z</time></trkpt><trkpt lat="44.9194917" lon="9.1420817"><ele>387.8</ele><time>2026-04-19T10:54:36.996Z</time></trkpt><trkpt lat="44.91944" lon="9.142205"><ele>388.2</ele><time>2026-04-19T10:54:38.996Z</time></trkpt><trkpt lat="44.9194067" lon="9.1423383"><ele>388.6</ele><time>2026-04-19T10:54:40.997Z</time></trkpt><trkpt lat="44.9193617" lon="9.1424917"><ele>389.0</ele><time>2026-04-19T10:54:42.997Z</time></trkpt><trkpt lat="44.9193317" lon="9.1426233"><ele>389.4</ele><time>2026-04-19T10:54:44.997Z</time></trkpt><trkpt lat="44.9192817" lon="9.14273"><ele>389.79999999999995</ele><time>2026-04-19T10:54:46.996Z</time></trkpt><trkpt lat="44.9192133" lon="9.14284"><ele>390.20000000000005</ele><time>2026-04-19T10:54:48.997Z</time></trkpt><trkpt lat="44.9191333" lon="9.1429383"><ele>390.6</ele><time>2026-04-19T10:54:50.996Z</time></trkpt><trkpt lat="44.9190567" lon="9.14303"><ele>391.0</ele><time>2026-04-19T10:54:52.997Z</time></trkpt><trkpt lat="44.9189867" lon="9.1431133"><ele>391.0</ele><time>2026-04-19T10:54:54.996Z</time></trkpt><trkpt lat="44.91891" lon="9.143195"><ele>391.0</ele><time>2026-04-19T10:54:56.997Z</time></trkpt><trkpt lat="44.9188383" lon="9.1432783"><ele>391.0</ele><time>2026-04-19T10:54:58.997Z</time></trkpt><trkpt lat="44.91877" lon="9.14337"><ele>391.0</ele><time>2026-04-19T10:55:00.996Z</time></trkpt><trkpt lat="44.9187033" lon="9.14345"><ele>391.0</ele><time>2026-04-19T10:55:02.997Z</time></trkpt><trkpt lat="44.9186217" lon="9.1435317"><ele>391.4285714285714</ele><time>2026-04-19T10:55:04.996Z</time></trkpt><trkpt lat="44.918545" lon="9.14357"><ele>391.85714285714283</ele><time>2026-04-19T10:55:06.996Z</time></trkpt><trkpt lat="44.9184767" lon="9.1436017"><ele>392.2857142857143</ele><time>2026-04-19T10:55:08.997Z</time></trkpt><trkpt lat="44.918415" lon="9.14363"><ele>392.71428571428567</ele><time>2026-04-19T10:55:10.997Z</time></trkpt><trkpt lat="44.9183433" lon="9.1436383"><ele>393.14285714285717</ele><time>2026-04-19T10:55:12.997Z</time></trkpt><trkpt lat="44.9182717" lon="9.1436183"><ele>393.57142857142856</ele><time>2026-04-19T10:55:14.997Z</time></trkpt><trkpt lat="44.918205" lon="9.143595"><ele>394.0</ele><time>2026-04-19T10:55:17.997Z</time></trkpt><trkpt lat="44.918145" lon="9.1435567"><ele>394.6666666666667</ele><time>2026-04-19T10:55:19.997Z</time></trkpt><trkpt lat="44.918075" lon="9.1435083"><ele>395.33333333333337</ele><time>2026-04-19T10:55:21.997Z</time></trkpt><trkpt lat="44.9179933" lon="9.1434583"><ele>396.0</ele><time>2026-04-19T10:55:23.997Z</time></trkpt><trkpt lat="44.91792" lon="9.143395"><ele>396.66666666666663</ele><time>2026-04-19T10:55:25.997Z</time></trkpt><trkpt lat="44.9178583" lon="9.1433067"><ele>397.3333333333333</ele><time>2026-04-19T10:55:28.997Z</time></trkpt><trkpt lat="44.9177917" lon="9.1432267"><ele>398.0</ele><time>2026-04-19T10:55:31.997Z</time></trkpt><trkpt lat="44.9177267" lon="9.1431767"><ele>396.4285714285714</ele><time>2026-04-19T10:55:33.997Z</time></trkpt><trkpt lat="44.917665" lon="9.1431"><ele>394.85714285714283</ele><time>2026-04-19T10:55:35.997Z</time></trkpt><trkpt lat="44.9176133" lon="9.14304"><ele>393.2857142857143</ele><time>2026-04-19T10:55:37.997Z</time></trkpt><trkpt lat="44.9175533" lon="9.1430083"><ele>391.71428571428567</ele><time>2026-04-19T10:55:39.997Z</time></trkpt><trkpt lat="44.917485" lon="9.1429633"><ele>390.14285714285717</ele><time>2026-04-19T10:55:41.997Z</time></trkpt><trkpt lat="44.9174267" lon="9.1428867"><ele>388.57142857142856</ele><time>2026-04-19T10:55:43.997Z</time></trkpt><trkpt lat="44.9173917" lon="9.1427883"><ele>387.0</ele><time>2026-04-19T10:55:45.997Z</time></trkpt><trkpt lat="44.91733" lon="9.142695"><ele>390.6666666666667</ele><time>2026-04-19T10:55:48.997Z</time></trkpt><trkpt lat="44.9172633" lon="9.142725"><ele>394.33333333333337</ele><time>2026-04-19T10:55:50.996Z</time></trkpt><trkpt lat="44.917185" lon="9.1427833"><ele>398.0</ele><time>2026-04-19T10:55:52.997Z</time></trkpt><trkpt lat="44.9170983" lon="9.1427867"><ele>401.6666666666667</ele><time>2026-04-19T10:55:54.997Z</time></trkpt><trkpt lat="44.9170217" lon="9.14277"><ele>405.33333333333337</ele><time>2026-04-19T10:55:56.997Z</time></trkpt><trkpt lat="44.9169467" lon="9.142765"><ele>409.0</ele><time>2026-04-19T10:55:58.996Z</time></trkpt><trkpt lat="44.9168683" lon="9.1427983"><ele>409.00000000000006</ele><time>2026-04-19T10:56:01.997Z</time></trkpt><trkpt lat="44.9168067" lon="9.1428517"><ele>409.0</ele><time>2026-04-19T10:56:03.997Z</time></trkpt><trkpt lat="44.9167433" lon="9.1428883"><ele>409.0</ele><time>2026-04-19T10:56:05.996Z</time></trkpt><trkpt lat="44.91668" lon="9.1429367"><ele>409.0</ele><time>2026-04-19T10:56:07.997Z</time></trkpt><trkpt lat="44.9166117" lon="9.142995"><ele>409.00000000000006</ele><time>2026-04-19T10:56:09.997Z</time></trkpt><trkpt lat="44.916545" lon="9.1430483"><ele>409.0</ele><time>2026-04-19T10:56:11.997Z</time></trkpt><trkpt lat="44.9164633" lon="9.14311"><ele>410.0</ele><time>2026-04-19T10:56:13.997Z</time></trkpt><trkpt lat="44.9163883" lon="9.14318"><ele>411.0</ele><time>2026-04-19T10:56:15.996Z</time></trkpt><trkpt lat="44.916315" lon="9.1432433"><ele>412.0</ele><time>2026-04-19T10:56:17.997Z</time></trkpt><trkpt lat="44.9162267" lon="9.1433117"><ele>413.0</ele><time>2026-04-19T10:56:19.997Z</time></trkpt><trkpt lat="44.9161517" lon="9.1433717"><ele>414.0</ele><time>2026-04-19T10:56:21.997Z</time></trkpt><trkpt lat="44.9160633" lon="9.1434183"><ele>414.0</ele><time>2026-04-19T10:56:23.996Z</time></trkpt><trkpt lat="44.91598" lon="9.1434617"><ele>414.0</ele><time>2026-04-19T10:56:25.997Z</time></trkpt><trkpt lat="44.9159067" lon="9.14353"><ele>414.0</ele><time>2026-04-19T10:56:27.996Z</time></trkpt><trkpt lat="44.9158233" lon="9.14357"><ele>414.0</ele><time>2026-04-19T10:56:29.997Z</time></trkpt><trkpt lat="44.915725" lon="9.1436233"><ele>414.0</ele><time>2026-04-19T10:56:31.997Z</time></trkpt><trkpt lat="44.915615" lon="9.1436717"><ele>416.1666666666667</ele><time>2026-04-19T10:56:33.996Z</time></trkpt><trkpt lat="44.9155217" lon="9.143695"><ele>418.33333333333337</ele><time>2026-04-19T10:56:35.997Z</time></trkpt><trkpt lat="44.91543" lon="9.1437283"><ele>420.5</ele><time>2026-04-19T10:56:37.997Z</time></trkpt><trkpt lat="44.9153667" lon="9.14373"><ele>422.6666666666667</ele><time>2026-04-19T10:56:39.996Z</time></trkpt><trkpt lat="44.9152917" lon="9.1437733"><ele>424.83333333333337</ele><time>2026-04-19T10:56:42.997Z</time></trkpt><trkpt lat="44.9152467" lon="9.143875"><ele>427.0</ele><time>2026-04-19T10:56:45.997Z</time></trkpt><trkpt lat="44.9152183" lon="9.1439567"><ele>427.1666666666667</ele><time>2026-04-19T10:56:47.997Z</time></trkpt><trkpt lat="44.9151767" lon="9.14405"><ele>427.33333333333337</ele><time>2026-04-19T10:56:50.996Z</time></trkpt><trkpt lat="44.915135" lon="9.1441317"><ele>427.5</ele><time>2026-04-19T10:56:53.997Z</time></trkpt><trkpt lat="44.9150933" lon="9.144225"><ele>427.66666666666663</ele><time>2026-04-19T10:56:56.997Z</time></trkpt><trkpt lat="44.9150467" lon="9.144315"><ele>427.8333333333333</ele><time>2026-04-19T10:56:59.996Z</time></trkpt><trkpt lat="44.9150083" lon="9.14439"><ele>428.0</ele><time>2026-04-19T10:57:02.996Z</time></trkpt><trkpt lat="44.9149683" lon="9.1444867"><ele>427.99999999999994</ele><time>2026-04-19T10:57:05.996Z</time></trkpt><trkpt lat="44.9149167" lon="9.14457"><ele>428.0</ele><time>2026-04-19T10:57:08.997Z</time></trkpt><trkpt lat="44.9148933" lon="9.14466"><ele>428.0</ele><time>2026-04-19T10:57:10.997Z</time></trkpt><trkpt lat="44.91488" lon="9.14476"><ele>428.0</ele><time>2026-04-19T10:57:12.996Z</time></trkpt><trkpt lat="44.914865" lon="9.144905"><ele>427.99999999999994</ele><time>2026-04-19T10:57:23.997Z</time></trkpt><trkpt lat="44.9148617" lon="9.1450167"><ele>428.0</ele><time>2026-04-19T10:57:25.996Z</time></trkpt><trkpt lat="44.9148483" lon="9.1451767"><ele>426.4</ele><time>2026-04-19T10:57:27.997Z</time></trkpt><trkpt lat="44.9148233" lon="9.14532"><ele>424.79999999999995</ele><time>2026-04-19T10:57:29.996Z</time></trkpt><trkpt lat="44.914805" lon="9.1454217"><ele>423.2</ele><time>2026-04-19T10:57:31.996Z</time></trkpt><trkpt lat="44.9147867" lon="9.14556"><ele>421.6</ele><time>2026-04-19T10:57:33.996Z</time></trkpt><trkpt lat="44.91479" lon="9.14572"><ele>420.0</ele><time>2026-04-19T10:57:35.996Z</time></trkpt><trkpt lat="44.9148233" lon="9.1458983"><ele>419.3333333333333</ele><time>2026-04-19T10:57:37.997Z</time></trkpt><trkpt lat="44.91484" lon="9.146"><ele>418.66666666666663</ele><time>2026-04-19T10:57:38.997Z</time></trkpt><trkpt lat="44.9148583" lon="9.146105"><ele>418.0</ele><time>2026-04-19T10:57:39.996Z</time></trkpt><trkpt lat="44.9148717" lon="9.1461967"><ele>417.3333333333333</ele><time>2026-04-19T10:57:40.997Z</time></trkpt><trkpt lat="44.9148733" lon="9.1462883"><ele>416.66666666666663</ele><time>2026-04-19T10:57:41.996Z</time></trkpt><trkpt lat="44.9148667" lon="9.14639"><ele>416.0</ele><time>2026-04-19T10:57:42.996Z</time></trkpt><trkpt lat="44.91483" lon="9.14653"><ele>416.6</ele><time>2026-04-19T10:57:44.997Z</time></trkpt><trkpt lat="44.9147433" lon="9.1466283"><ele>417.20000000000005</ele><time>2026-04-19T10:57:46.997Z</time></trkpt><trkpt lat="44.91469" lon="9.146705"><ele>417.79999999999995</ele><time>2026-04-19T10:57:47.996Z</time></trkpt><trkpt lat="44.9146467" lon="9.1467967"><ele>418.4</ele><time>2026-04-19T10:57:48.996Z</time></trkpt><trkpt lat="44.9146267" lon="9.1469333"><ele>419.0</ele><time>2026-04-19T10:57:50.996Z</time></trkpt><trkpt lat="44.9146233" lon="9.1467967"><ele>419.0</ele><time>2026-04-19T11:01:04.995Z</time></trkpt><trkpt lat="44.9146817" lon="9.1466683"><ele>419.0</ele><time>2026-04-19T11:01:06.996Z</time></trkpt><trkpt lat="44.9147733" lon="9.1465517"><ele>419.0</ele><time>2026-04-19T11:01:08.995Z</time></trkpt><trkpt lat="44.9148617" lon="9.146455"><ele>419.0</ele><time>2026-04-19T11:01:10.995Z</time></trkpt><trkpt lat="44.9148233" lon="9.1463567"><ele>419.0</ele><time>2026-04-19T11:01:14.996Z</time></trkpt><trkpt lat="44.914725" lon="9.1463083"><ele>418.4</ele><time>2026-04-19T11:01:16.996Z</time></trkpt><trkpt lat="44.9146267" lon="9.1462633"><ele>417.79999999999995</ele><time>2026-04-19T11:01:18.996Z</time></trkpt><trkpt lat="44.9145367" lon="9.1462417"><ele>417.20000000000005</ele><time>2026-04-19T11:01:20.996Z</time></trkpt><trkpt lat="44.9144267" lon="9.1462033"><ele>416.6</ele><time>2026-04-19T11:01:22.996Z</time></trkpt><trkpt lat="44.9143567" lon="9.1461917"><ele>416.0</ele><time>2026-04-19T11:01:23.996Z</time></trkpt><trkpt lat="44.914275" lon="9.1461867"><ele>414.6</ele><time>2026-04-19T11:01:24.996Z</time></trkpt><trkpt lat="44.9141983" lon="9.1461867"><ele>413.20000000000005</ele><time>2026-04-19T11:01:25.996Z</time></trkpt><trkpt lat="44.9141333" lon="9.1461917"><ele>411.79999999999995</ele><time>2026-04-19T11:01:26.996Z</time></trkpt><trkpt lat="44.914015" lon="9.1462133"><ele>410.4</ele><time>2026-04-19T11:01:28.996Z</time></trkpt><trkpt lat="44.9139083" lon="9.14624"><ele>409.0</ele><time>2026-04-19T11:01:31.996Z</time></trkpt><trkpt lat="44.91377" lon="9.146245"><ele>409.0</ele><time>2026-04-19T11:02:53.995Z</time></trkpt><trkpt lat="44.9136767" lon="9.1462817"><ele>409.0</ele><time>2026-04-19T11:02:59.996Z</time></trkpt><trkpt lat="44.9136117" lon="9.1462867"><ele>409.0</ele><time>2026-04-19T11:03:01.996Z</time></trkpt><trkpt lat="44.9135183" lon="9.1463"><ele>409.0</ele><time>2026-04-19T11:03:04.996Z</time></trkpt><trkpt lat="44.913415" lon="9.1463733"><ele>409.0</ele><time>2026-04-19T11:06:15.994Z</time></trkpt><trkpt lat="44.9133483" lon="9.1464333"><ele>409.00000000000006</ele><time>2026-04-19T11:08:05.994Z</time></trkpt><trkpt lat="44.913405" lon="9.1463733"><ele>409.0</ele><time>2026-04-19T11:08:18.993Z</time></trkpt><trkpt lat="44.9134883" lon="9.14629"><ele>409.0</ele><time>2026-04-19T11:08:20.994Z</time></trkpt><trkpt lat="44.9135667" lon="9.14627"><ele>409.0</ele><time>2026-04-19T11:08:22.994Z</time></trkpt><trkpt lat="44.9136533" lon="9.1462667"><ele>409.00000000000006</ele><time>2026-04-19T11:08:24.994Z</time></trkpt><trkpt lat="44.913725" lon="9.14626"><ele>409.0</ele><time>2026-04-19T11:08:26.994Z</time></trkpt><trkpt lat="44.91379" lon="9.146255"><ele>409.00000000000006</ele><time>2026-04-19T11:08:28.993Z</time></trkpt><trkpt lat="44.913869" lon="9.1462256"><ele>409.0</ele><time>2026-04-19T11:08:30.994Z</time></trkpt><trkpt lat="44.9139613" lon="9.1461892"><ele>409.0</ele><time>2026-04-19T11:08:32.993Z</time></trkpt><trkpt lat="44.9140779" lon="9.1461672"><ele>409.0</ele><time>2026-04-19T11:08:34.993Z</time></trkpt><trkpt lat="44.9141534" lon="9.1461505"><ele>409.00000000000006</ele><time>2026-04-19T11:08:35.993Z</time></trkpt><trkpt lat="44.9142256" lon="9.1461468"><ele>409.0</ele><time>2026-04-19T11:08:36.994Z</time></trkpt><trkpt lat="44.9142995" lon="9.1461509"><ele>410.0</ele><time>2026-04-19T11:08:37.993Z</time></trkpt><trkpt lat="44.914374" lon="9.1461648"><ele>411.0</ele><time>2026-04-19T11:08:38.994Z</time></trkpt><trkpt lat="44.9144459" lon="9.1461938"><ele>412.0</ele><time>2026-04-19T11:08:39.993Z</time></trkpt><trkpt lat="44.9145146" lon="9.1462277"><ele>413.0</ele><time>2026-04-19T11:08:40.993Z</time></trkpt><trkpt lat="44.9145829" lon="9.1462675"><ele>414.0</ele><time>2026-04-19T11:08:41.994Z</time></trkpt><trkpt lat="44.9146503" lon="9.1462985"><ele>415.0</ele><time>2026-04-19T11:08:42.994Z</time></trkpt><trkpt lat="44.9147099" lon="9.1463347"><ele>416.0</ele><time>2026-04-19T11:08:43.993Z</time></trkpt><trkpt lat="44.9147649" lon="9.1463797"><ele>415.99999999999994</ele><time>2026-04-19T11:08:44.994Z</time></trkpt><trkpt lat="44.9148255" lon="9.14646"><ele>416.0</ele><time>2026-04-19T11:08:46.993Z</time></trkpt><trkpt lat="44.9148042" lon="9.1465485"><ele>416.0</ele><time>2026-04-19T11:08:48.993Z</time></trkpt><trkpt lat="44.9147209" lon="9.1466433"><ele>416.0</ele><time>2026-04-19T11:08:50.994Z</time></trkpt><trkpt lat="44.9146624" lon="9.1467244"><ele>415.99999999999994</ele><time>2026-04-19T11:08:51.993Z</time></trkpt><trkpt lat="44.9146186" lon="9.1468199"><ele>416.0</ele><time>2026-04-19T11:08:52.994Z</time></trkpt><trkpt lat="44.9146014" lon="9.1469206"><ele>416.49999999999994</ele><time>2026-04-19T11:08:53.993Z</time></trkpt><trkpt lat="44.9146021" lon="9.1470273"><ele>417.0</ele><time>2026-04-19T11:08:54.993Z</time></trkpt><trkpt lat="44.9146184" lon="9.1471462"><ele>417.5</ele><time>2026-04-19T11:08:55.994Z</time></trkpt><trkpt lat="44.9146279" lon="9.1472694"><ele>418.0</ele><time>2026-04-19T11:08:56.994Z</time></trkpt><trkpt lat="44.9146392" lon="9.1473684"><ele>418.49999999999994</ele><time>2026-04-19T11:08:57.994Z</time></trkpt><trkpt lat="44.9146976" lon="9.1475114"><ele>419.0</ele><time>2026-04-19T11:08:59.994Z</time></trkpt><trkpt lat="44.9147956" lon="9.1476199"><ele>421.99999999999994</ele><time>2026-04-19T11:09:01.994Z</time></trkpt><trkpt lat="44.9148636" lon="9.1476536"><ele>425.0</ele><time>2026-04-19T11:09:02.994Z</time></trkpt><trkpt lat="44.9149354" lon="9.1476899"><ele>428.0</ele><time>2026-04-19T11:09:03.994Z</time></trkpt><trkpt lat="44.9149999" lon="9.1477317"><ele>431.0</ele><time>2026-04-19T11:09:04.993Z</time></trkpt><trkpt lat="44.9150573" lon="9.1477696"><ele>433.99999999999994</ele><time>2026-04-19T11:09:05.994Z</time></trkpt><trkpt lat="44.9151683" lon="9.1477633"><ele>437.0</ele><time>2026-04-19T11:09:07.994Z</time></trkpt><trkpt lat="44.9152586" lon="9.1476963"><ele>436.99999999999994</ele><time>2026-04-19T11:09:09.993Z</time></trkpt><trkpt lat="44.9153277" lon="9.147666"><ele>437.0</ele><time>2026-04-19T11:09:12.993Z</time></trkpt><trkpt lat="44.9153968" lon="9.1477089"><ele>437.0</ele><time>2026-04-19T11:09:16.994Z</time></trkpt><trkpt lat="44.915482" lon="9.1477201"><ele>437.0</ele><time>2026-04-19T11:09:18.993Z</time></trkpt><trkpt lat="44.9155849" lon="9.1477377"><ele>436.99999999999994</ele><time>2026-04-19T11:09:20.994Z</time></trkpt><trkpt lat="44.9156915" lon="9.1477815"><ele>437.0</ele><time>2026-04-19T11:09:22.993Z</time></trkpt><trkpt lat="44.9157333" lon="9.14785"><ele>436.99999999999994</ele><time>2026-04-19T11:09:23.994Z</time></trkpt><trkpt lat="44.9157433" lon="9.1479467"><ele>437.0</ele><time>2026-04-19T11:09:25.994Z</time></trkpt><trkpt lat="44.9156517" lon="9.148005"><ele>437.0</ele><time>2026-04-19T11:09:27.993Z</time></trkpt><trkpt lat="44.91558" lon="9.1480283"><ele>437.0</ele><time>2026-04-19T11:09:28.993Z</time></trkpt><trkpt lat="44.9154933" lon="9.1480583"><ele>436.99999999999994</ele><time>2026-04-19T11:09:29.994Z</time></trkpt><trkpt lat="44.91541" lon="9.148105"><ele>437.0</ele><time>2026-04-19T11:09:30.994Z</time></trkpt><trkpt lat="44.9153417" lon="9.1481817"><ele>438.8333333333333</ele><time>2026-04-19T11:09:31.994Z</time></trkpt><trkpt lat="44.9152783" lon="9.1482633"><ele>440.66666666666663</ele><time>2026-04-19T11:09:32.993Z</time></trkpt><trkpt lat="44.91522" lon="9.148335"><ele>442.5</ele><time>2026-04-19T11:09:33.994Z</time></trkpt><trkpt lat="44.9151567" lon="9.148395"><ele>444.33333333333337</ele><time>2026-04-19T11:09:34.994Z</time></trkpt><trkpt lat="44.9150833" lon="9.1484533"><ele>446.1666666666667</ele><time>2026-04-19T11:09:35.994Z</time></trkpt><trkpt lat="44.915025" lon="9.1484967"><ele>448.0</ele><time>2026-04-19T11:09:36.993Z</time></trkpt><trkpt lat="44.9148933" lon="9.1485417"><ele>450.00000000000006</ele><time>2026-04-19T11:09:38.994Z</time></trkpt><trkpt lat="44.914815" lon="9.1485583"><ele>452.0</ele><time>2026-04-19T11:09:39.994Z</time></trkpt><trkpt lat="44.9147283" lon="9.1485783"><ele>454.0</ele><time>2026-04-19T11:09:40.994Z</time></trkpt><trkpt lat="44.9146433" lon="9.1485883"><ele>456.0</ele><time>2026-04-19T11:09:41.994Z</time></trkpt><trkpt lat="44.91456" lon="9.1485983"><ele>458.00000000000006</ele><time>2026-04-19T11:09:42.994Z</time></trkpt><trkpt lat="44.9144833" lon="9.148605"><ele>460.0</ele><time>2026-04-19T11:09:43.993Z</time></trkpt><trkpt lat="44.9144117" lon="9.1486483"><ele>460.00000000000006</ele><time>2026-04-19T11:09:44.993Z</time></trkpt><trkpt lat="44.9143317" lon="9.1486717"><ele>460.0</ele><time>2026-04-19T11:09:45.993Z</time></trkpt><trkpt lat="44.914255" lon="9.1486867"><ele>460.0</ele><time>2026-04-19T11:09:46.993Z</time></trkpt><trkpt lat="44.9141767" lon="9.1486933"><ele>460.0</ele><time>2026-04-19T11:09:47.994Z</time></trkpt><trkpt lat="44.914095" lon="9.1487033"><ele>460.00000000000006</ele><time>2026-04-19T11:09:48.994Z</time></trkpt><trkpt lat="44.914015" lon="9.14871"><ele>460.0</ele><time>2026-04-19T11:09:49.993Z</time></trkpt><trkpt lat="44.913925" lon="9.14872"><ele>459.50000000000006</ele><time>2026-04-19T11:09:50.994Z</time></trkpt><trkpt lat="44.9138467" lon="9.1487017"><ele>459.0</ele><time>2026-04-19T11:09:51.994Z</time></trkpt><trkpt lat="44.913765" lon="9.1486783"><ele>458.5</ele><time>2026-04-19T11:09:52.994Z</time></trkpt><trkpt lat="44.913685" lon="9.1486533"><ele>458.0</ele><time>2026-04-19T11:09:53.993Z</time></trkpt><trkpt lat="44.913605" lon="9.1486283"><ele>457.50000000000006</ele><time>2026-04-19T11:09:54.993Z</time></trkpt><trkpt lat="44.9135133" lon="9.1486267"><ele>457.0</ele><time>2026-04-19T11:09:55.994Z</time></trkpt><trkpt lat="44.9134383" lon="9.1486267"><ele>457.8</ele><time>2026-04-19T11:09:56.994Z</time></trkpt><trkpt lat="44.9133667" lon="9.14864"><ele>458.6</ele><time>2026-04-19T11:09:57.994Z</time></trkpt><trkpt lat="44.9133017" lon="9.1486533"><ele>459.40000000000003</ele><time>2026-04-19T11:09:58.993Z</time></trkpt><trkpt lat="44.9132167" lon="9.14872"><ele>460.20000000000005</ele><time>2026-04-19T11:10:00.994Z</time></trkpt><trkpt lat="44.9131533" lon="9.1488"><ele>461.0</ele><time>2026-04-19T11:10:02.993Z</time></trkpt><trkpt lat="44.9130467" lon="9.1489167"><ele>461.0</ele><time>2026-04-19T11:10:04.993Z</time></trkpt><trkpt lat="44.91299" lon="9.1489733"><ele>461.0</ele><time>2026-04-19T11:10:05.993Z</time></trkpt><trkpt lat="44.9129367" lon="9.1490267"><ele>461.0</ele><time>2026-04-19T11:10:06.993Z</time></trkpt><trkpt lat="44.9128783" lon="9.149145"><ele>461.0</ele><time>2026-04-19T11:10:08.994Z</time></trkpt><trkpt lat="44.912815" lon="9.1492933"><ele>461.0</ele><time>2026-04-19T11:10:10.994Z</time></trkpt><trkpt lat="44.912735" lon="9.149425"><ele>462.0</ele><time>2026-04-19T11:10:12.994Z</time></trkpt><trkpt lat="44.912685" lon="9.1494917"><ele>463.00000000000006</ele><time>2026-04-19T11:10:13.993Z</time></trkpt><trkpt lat="44.9126167" lon="9.1495567"><ele>464.0</ele><time>2026-04-19T11:10:14.994Z</time></trkpt><trkpt lat="44.91255" lon="9.1496183"><ele>465.0</ele><time>2026-04-19T11:10:15.994Z</time></trkpt><trkpt lat="44.912495" lon="9.1496983"><ele>466.00000000000006</ele><time>2026-04-19T11:10:16.993Z</time></trkpt><trkpt lat="44.9124567" lon="9.1497717"><ele>467.0</ele><time>2026-04-19T11:10:17.994Z</time></trkpt><trkpt lat="44.9124317" lon="9.1498533"><ele>468.0</ele><time>2026-04-19T11:10:18.993Z</time></trkpt><trkpt lat="44.912415" lon="9.1499517"><ele>468.5</ele><time>2026-04-19T11:10:19.994Z</time></trkpt><trkpt lat="44.9123967" lon="9.150075"><ele>469.0</ele><time>2026-04-19T11:10:20.994Z</time></trkpt><trkpt lat="44.9123683" lon="9.150205"><ele>469.5</ele><time>2026-04-19T11:10:21.993Z</time></trkpt><trkpt lat="44.9123417" lon="9.15031"><ele>470.0</ele><time>2026-04-19T11:10:22.994Z</time></trkpt><trkpt lat="44.9123083" lon="9.1504117"><ele>470.5</ele><time>2026-04-19T11:10:23.994Z</time></trkpt><trkpt lat="44.91227" lon="9.1505083"><ele>471.0</ele><time>2026-04-19T11:10:24.994Z</time></trkpt><trkpt lat="44.912225" lon="9.150605"><ele>471.0</ele><time>2026-04-19T11:10:25.994Z</time></trkpt><trkpt lat="44.9121733" lon="9.1507"><ele>471.0</ele><time>2026-04-19T11:10:26.994Z</time></trkpt><trkpt lat="44.9121267" lon="9.1508167"><ele>471.0</ele><time>2026-04-19T11:10:27.993Z</time></trkpt><trkpt lat="44.9120833" lon="9.150915"><ele>471.0</ele><time>2026-04-19T11:10:28.993Z</time></trkpt><trkpt lat="44.9120283" lon="9.151055"><ele>471.0</ele><time>2026-04-19T11:10:30.994Z</time></trkpt><trkpt lat="44.9119433" lon="9.1511467"><ele>470.4</ele><time>2026-04-19T11:10:32.994Z</time></trkpt><trkpt lat="44.9118367" lon="9.1512517"><ele>469.8</ele><time>2026-04-19T11:10:34.993Z</time></trkpt><trkpt lat="44.9117917" lon="9.15132"><ele>469.19999999999993</ele><time>2026-04-19T11:10:35.993Z</time></trkpt><trkpt lat="44.911735" lon="9.1514333"><ele>468.59999999999997</ele><time>2026-04-19T11:10:37.994Z</time></trkpt><trkpt lat="44.91168" lon="9.15156"><ele>468.0</ele><time>2026-04-19T11:10:39.994Z</time></trkpt><trkpt lat="44.9116633" lon="9.1516517"><ele>466.1666666666667</ele><time>2026-04-19T11:10:40.993Z</time></trkpt><trkpt lat="44.9116417" lon="9.1517483"><ele>464.33333333333337</ele><time>2026-04-19T11:10:41.994Z</time></trkpt><trkpt lat="44.9116233" lon="9.1518517"><ele>462.5</ele><time>2026-04-19T11:10:42.994Z</time></trkpt><trkpt lat="44.9116217" lon="9.1519633"><ele>460.6666666666667</ele><time>2026-04-19T11:10:43.994Z</time></trkpt><trkpt lat="44.9116117" lon="9.15206"><ele>458.83333333333337</ele><time>2026-04-19T11:10:44.993Z</time></trkpt><trkpt lat="44.9115967" lon="9.1521517"><ele>457.0</ele><time>2026-04-19T11:10:45.994Z</time></trkpt><trkpt lat="44.9115783" lon="9.1523083"><ele>455.6666666666667</ele><time>2026-04-19T11:10:47.994Z</time></trkpt><trkpt lat="44.911585" lon="9.1524867"><ele>454.33333333333337</ele><time>2026-04-19T11:10:49.994Z</time></trkpt><trkpt lat="44.911595" lon="9.1525933"><ele>453.0</ele><time>2026-04-19T11:10:50.993Z</time></trkpt><trkpt lat="44.9116033" lon="9.152695"><ele>451.66666666666663</ele><time>2026-04-19T11:10:51.993Z</time></trkpt><trkpt lat="44.9116133" lon="9.1527967"><ele>450.3333333333333</ele><time>2026-04-19T11:10:52.994Z</time></trkpt><trkpt lat="44.9116133" lon="9.15291"><ele>449.0</ele><time>2026-04-19T11:10:53.994Z</time></trkpt><trkpt lat="44.9116033" lon="9.1530383"><ele>449.0</ele><time>2026-04-19T11:10:54.994Z</time></trkpt><trkpt lat="44.9115833" lon="9.15317"><ele>449.0</ele><time>2026-04-19T11:10:55.993Z</time></trkpt><trkpt lat="44.91157" lon="9.1532583"><ele>449.0</ele><time>2026-04-19T11:10:56.994Z</time></trkpt><trkpt lat="44.911545" lon="9.1534067"><ele>449.0</ele><time>2026-04-19T11:10:58.994Z</time></trkpt><trkpt lat="44.9115317" lon="9.1535933"><ele>449.0</ele><time>2026-04-19T11:11:00.994Z</time></trkpt><trkpt lat="44.9115283" lon="9.15371"><ele>449.2</ele><time>2026-04-19T11:11:01.993Z</time></trkpt><trkpt lat="44.91152" lon="9.1538333"><ele>449.4</ele><time>2026-04-19T11:11:02.994Z</time></trkpt><trkpt lat="44.9115167" lon="9.1539617"><ele>449.6</ele><time>2026-04-19T11:11:03.993Z</time></trkpt><trkpt lat="44.9115167" lon="9.1541067"><ele>449.8</ele><time>2026-04-19T11:11:04.994Z</time></trkpt><trkpt lat="44.9115217" lon="9.1542483"><ele>450.0</ele><time>2026-04-19T11:11:05.993Z</time></trkpt><trkpt lat="44.9115233" lon="9.1543883"><ele>450.6666666666667</ele><time>2026-04-19T11:11:06.994Z</time></trkpt><trkpt lat="44.91152" lon="9.1545183"><ele>451.33333333333337</ele><time>2026-04-19T11:11:07.993Z</time></trkpt><trkpt lat="44.9115217" lon="9.1546433"><ele>452.0</ele><time>2026-04-19T11:11:08.993Z</time></trkpt><trkpt lat="44.9115383" lon="9.15475"><ele>452.6666666666667</ele><time>2026-04-19T11:11:09.993Z</time></trkpt><trkpt lat="44.9115667" lon="9.1548383"><ele>453.33333333333337</ele><time>2026-04-19T11:11:10.993Z</time></trkpt><trkpt lat="44.91162" lon="9.1549567"><ele>454.0</ele><time>2026-04-19T11:11:12.992Z</time></trkpt><trkpt lat="44.9116433" lon="9.155095"><ele>453.0</ele><time>2026-04-19T11:11:14.993Z</time></trkpt><trkpt lat="44.91167" lon="9.1552017"><ele>452.0</ele><time>2026-04-19T11:11:19.993Z</time></trkpt><trkpt lat="44.9117417" lon="9.1552083"><ele>451.0</ele><time>2026-04-19T11:11:21.993Z</time></trkpt><trkpt lat="44.9118767" lon="9.15522"><ele>450.0</ele><time>2026-04-19T11:11:23.993Z</time></trkpt><trkpt lat="44.9119567" lon="9.1552383"><ele>449.0</ele><time>2026-04-19T11:11:24.993Z</time></trkpt><trkpt lat="44.9120583" lon="9.155255"><ele>449.0</ele><time>2026-04-19T11:11:25.992Z</time></trkpt><trkpt lat="44.9121667" lon="9.1552617"><ele>449.0</ele><time>2026-04-19T11:11:26.993Z</time></trkpt><trkpt lat="44.91227" lon="9.15527"><ele>449.0</ele><time>2026-04-19T11:11:27.992Z</time></trkpt><trkpt lat="44.91237" lon="9.15528"><ele>449.0</ele><time>2026-04-19T11:11:28.993Z</time></trkpt><trkpt lat="44.9124683" lon="9.15531"><ele>449.0</ele><time>2026-04-19T11:11:29.992Z</time></trkpt><trkpt lat="44.9125733" lon="9.1553633"><ele>447.0</ele><time>2026-04-19T11:11:30.992Z</time></trkpt><trkpt lat="44.9126667" lon="9.1554467"><ele>445.0</ele><time>2026-04-19T11:11:31.993Z</time></trkpt><trkpt lat="44.9127467" lon="9.1555367"><ele>443.0</ele><time>2026-04-19T11:11:32.993Z</time></trkpt><trkpt lat="44.9128217" lon="9.155635"><ele>441.0</ele><time>2026-04-19T11:11:33.993Z</time></trkpt><trkpt lat="44.9129033" lon="9.1557217"><ele>439.0</ele><time>2026-04-19T11:11:34.993Z</time></trkpt><trkpt lat="44.9129833" lon="9.1557983"><ele>439.0</ele><time>2026-04-19T11:11:35.993Z</time></trkpt><trkpt lat="44.9130583" lon="9.1558583"><ele>439.0</ele><time>2026-04-19T11:11:36.993Z</time></trkpt><trkpt lat="44.9131433" lon="9.1559083"><ele>439.0</ele><time>2026-04-19T11:11:37.993Z</time></trkpt><trkpt lat="44.9132367" lon="9.15596"><ele>439.0</ele><time>2026-04-19T11:11:38.992Z</time></trkpt><trkpt lat="44.913335" lon="9.1560217"><ele>439.0</ele><time>2026-04-19T11:11:39.993Z</time></trkpt><trkpt lat="44.91343" lon="9.15607"><ele>436.83333333333337</ele><time>2026-04-19T11:11:40.992Z</time></trkpt><trkpt lat="44.9135083" lon="9.1561033"><ele>434.6666666666667</ele><time>2026-04-19T11:11:41.993Z</time></trkpt><trkpt lat="44.9135817" lon="9.1561283"><ele>432.5</ele><time>2026-04-19T11:11:42.992Z</time></trkpt><trkpt lat="44.9136583" lon="9.1561883"><ele>430.33333333333337</ele><time>2026-04-19T11:11:43.992Z</time></trkpt><trkpt lat="44.9137217" lon="9.1562383"><ele>428.1666666666667</ele><time>2026-04-19T11:11:44.993Z</time></trkpt><trkpt lat="44.9138" lon="9.1562767"><ele>426.0</ele><time>2026-04-19T11:11:45.993Z</time></trkpt><trkpt lat="44.913885" lon="9.1563217"><ele>426.0</ele><time>2026-04-19T11:11:46.993Z</time></trkpt><trkpt lat="44.9139717" lon="9.1563733"><ele>426.0</ele><time>2026-04-19T11:11:47.993Z</time></trkpt><trkpt lat="44.9140683" lon="9.1564133"><ele>426.0</ele><time>2026-04-19T11:11:48.993Z</time></trkpt><trkpt lat="44.9141733" lon="9.156455"><ele>426.0</ele><time>2026-04-19T11:11:49.993Z</time></trkpt><trkpt lat="44.9142733" lon="9.1564917"><ele>426.0</ele><time>2026-04-19T11:11:50.992Z</time></trkpt><trkpt lat="44.9143817" lon="9.1565133"><ele>425.5</ele><time>2026-04-19T11:11:51.993Z</time></trkpt><trkpt lat="44.914495" lon="9.156545"><ele>425.0</ele><time>2026-04-19T11:11:52.993Z</time></trkpt><trkpt lat="44.9146167" lon="9.15656"><ele>424.5</ele><time>2026-04-19T11:11:53.993Z</time></trkpt><trkpt lat="44.9147483" lon="9.1565583"><ele>424.0</ele><time>2026-04-19T11:11:54.993Z</time></trkpt><trkpt lat="44.9148933" lon="9.1565383"><ele>422.75</ele><time>2026-04-19T11:11:55.993Z</time></trkpt><trkpt lat="44.9150317" lon="9.156515"><ele>421.5</ele><time>2026-04-19T11:11:56.992Z</time></trkpt><trkpt lat="44.91517" lon="9.1564733"><ele>420.25</ele><time>2026-04-19T11:11:57.993Z</time></trkpt><trkpt lat="44.9153167" lon="9.1564417"><ele>419.0</ele><time>2026-04-19T11:11:58.993Z</time></trkpt><trkpt lat="44.9154467" lon="9.15643"><ele>417.25</ele><time>2026-04-19T11:11:59.992Z</time></trkpt><trkpt lat="44.91558" lon="9.1564167"><ele>415.5</ele><time>2026-04-19T11:12:00.993Z</time></trkpt><trkpt lat="44.9157133" lon="9.1564117"><ele>413.75</ele><time>2026-04-19T11:12:01.993Z</time></trkpt><trkpt lat="44.9158433" lon="9.1564183"><ele>412.0</ele><time>2026-04-19T11:12:02.993Z</time></trkpt><trkpt lat="44.9159533" lon="9.1564417"><ele>412.25</ele><time>2026-04-19T11:12:03.993Z</time></trkpt><trkpt lat="44.916075" lon="9.1564717"><ele>412.5</ele><time>2026-04-19T11:12:04.993Z</time></trkpt><trkpt lat="44.91619" lon="9.156525"><ele>412.75</ele><time>2026-04-19T11:12:05.993Z</time></trkpt><trkpt lat="44.9162917" lon="9.1565883"><ele>413.0</ele><time>2026-04-19T11:12:06.993Z</time></trkpt><trkpt lat="44.916385" lon="9.1566433"><ele>413.0</ele><time>2026-04-19T11:12:07.992Z</time></trkpt><trkpt lat="44.9164733" lon="9.1566817"><ele>413.0</ele><time>2026-04-19T11:12:08.993Z</time></trkpt><trkpt lat="44.9165617" lon="9.156705"><ele>413.0</ele><time>2026-04-19T11:12:09.992Z</time></trkpt><trkpt lat="44.9166583" lon="9.1567267"><ele>413.0</ele><time>2026-04-19T11:12:10.993Z</time></trkpt><trkpt lat="44.9167567" lon="9.1567367"><ele>413.0</ele><time>2026-04-19T11:12:11.992Z</time></trkpt><trkpt lat="44.9168517" lon="9.156735"><ele>413.2</ele><time>2026-04-19T11:12:12.993Z</time></trkpt><trkpt lat="44.9169533" lon="9.1567167"><ele>413.4</ele><time>2026-04-19T11:12:13.993Z</time></trkpt><trkpt lat="44.917065" lon="9.1567033"><ele>413.59999999999997</ele><time>2026-04-19T11:12:14.993Z</time></trkpt><trkpt lat="44.9171783" lon="9.1566817"><ele>413.79999999999995</ele><time>2026-04-19T11:12:15.993Z</time></trkpt><trkpt lat="44.91728" lon="9.15666"><ele>414.0</ele><time>2026-04-19T11:12:16.993Z</time></trkpt><trkpt lat="44.9173833" lon="9.156635"><ele>414.0</ele><time>2026-04-19T11:12:17.993Z</time></trkpt><trkpt lat="44.9174883" lon="9.15661"><ele>414.0</ele><time>2026-04-19T11:12:18.993Z</time></trkpt><trkpt lat="44.917575" lon="9.1565817"><ele>414.0</ele><time>2026-04-19T11:12:19.993Z</time></trkpt><trkpt lat="44.9176633" lon="9.1565617"><ele>414.0</ele><time>2026-04-19T11:12:20.993Z</time></trkpt><trkpt lat="44.9177533" lon="9.156545"><ele>414.0</ele><time>2026-04-19T11:12:21.993Z</time></trkpt><trkpt lat="44.91783" lon="9.1565417"><ele>413.5</ele><time>2026-04-19T11:12:22.993Z</time></trkpt><trkpt lat="44.9179117" lon="9.1565433"><ele>413.0</ele><time>2026-04-19T11:12:23.993Z</time></trkpt><trkpt lat="44.917995" lon="9.1565533"><ele>412.5</ele><time>2026-04-19T11:12:24.993Z</time></trkpt><trkpt lat="44.9180717" lon="9.1565783"><ele>412.0</ele><time>2026-04-19T11:12:25.992Z</time></trkpt><trkpt lat="44.9181467" lon="9.1566233"><ele>411.5</ele><time>2026-04-19T11:12:26.992Z</time></trkpt><trkpt lat="44.918215" lon="9.1566617"><ele>411.0</ele><time>2026-04-19T11:12:27.993Z</time></trkpt><trkpt lat="44.9182817" lon="9.1566883"><ele>411.0</ele><time>2026-04-19T11:12:28.992Z</time></trkpt><trkpt lat="44.9183667" lon="9.15668"><ele>411.0</ele><time>2026-04-19T11:12:29.993Z</time></trkpt><trkpt lat="44.9184567" lon="9.156655"><ele>411.0</ele><time>2026-04-19T11:12:30.993Z</time></trkpt><trkpt lat="44.9185383" lon="9.1566367"><ele>411.0</ele><time>2026-04-19T11:12:31.992Z</time></trkpt><trkpt lat="44.91862" lon="9.1566183"><ele>411.0</ele><time>2026-04-19T11:12:32.993Z</time></trkpt><trkpt lat="44.9187" lon="9.156605"><ele>411.0</ele><time>2026-04-19T11:12:33.992Z</time></trkpt><trkpt lat="44.918755" lon="9.1565433"><ele>410.0</ele><time>2026-04-19T11:12:34.993Z</time></trkpt><trkpt lat="44.9188067" lon="9.1563717"><ele>409.0</ele><time>2026-04-19T11:12:36.992Z</time></trkpt><trkpt lat="44.9188283" lon="9.156285"><ele>408.0</ele><time>2026-04-19T11:12:37.993Z</time></trkpt><trkpt lat="44.9188667" lon="9.1562133"><ele>407.0</ele><time>2026-04-19T11:12:38.993Z</time></trkpt><trkpt lat="44.918915" lon="9.1561433"><ele>406.0</ele><time>2026-04-19T11:12:39.992Z</time></trkpt><trkpt lat="44.918965" lon="9.1560733"><ele>405.0</ele><time>2026-04-19T11:12:40.992Z</time></trkpt><trkpt lat="44.9190317" lon="9.1559983"><ele>405.0</ele><time>2026-04-19T11:12:41.993Z</time></trkpt><trkpt lat="44.9191133" lon="9.15593"><ele>405.0</ele><time>2026-04-19T11:12:42.992Z</time></trkpt><trkpt lat="44.9191883" lon="9.15587"><ele>405.0</ele><time>2026-04-19T11:12:43.993Z</time></trkpt><trkpt lat="44.91926" lon="9.15582"><ele>405.0</ele><time>2026-04-19T11:12:44.992Z</time></trkpt><trkpt lat="44.9193367" lon="9.15578"><ele>405.0</ele><time>2026-04-19T11:12:45.993Z</time></trkpt><trkpt lat="44.9194067" lon="9.1557233"><ele>405.0</ele><time>2026-04-19T11:12:46.993Z</time></trkpt><trkpt lat="44.9194733" lon="9.1556617"><ele>404.8333333333333</ele><time>2026-04-19T11:12:47.992Z</time></trkpt><trkpt lat="44.9195383" lon="9.155595"><ele>404.66666666666663</ele><time>2026-04-19T11:12:48.993Z</time></trkpt><trkpt lat="44.9196" lon="9.15556"><ele>404.5</ele><time>2026-04-19T11:12:49.992Z</time></trkpt><trkpt lat="44.91966" lon="9.155525"><ele>404.3333333333333</ele><time>2026-04-19T11:12:50.993Z</time></trkpt><trkpt lat="44.9197483" lon="9.15548"><ele>404.16666666666663</ele><time>2026-04-19T11:12:52.993Z</time></trkpt><trkpt lat="44.919825" lon="9.1555683"><ele>404.0</ele><time>2026-04-19T11:13:52.992Z</time></trkpt><trkpt lat="44.9198833" lon="9.15562"><ele>403.99999999999994</ele><time>2026-04-19T11:13:53.993Z</time></trkpt><trkpt lat="44.9199617" lon="9.1556633"><ele>404.0</ele><time>2026-04-19T11:13:54.993Z</time></trkpt><trkpt lat="44.9200433" lon="9.155705"><ele>404.0</ele><time>2026-04-19T11:13:55.992Z</time></trkpt><trkpt lat="44.92012" lon="9.1557333"><ele>404.0</ele><time>2026-04-19T11:13:56.992Z</time></trkpt><trkpt lat="44.9201833" lon="9.1557233"><ele>403.99999999999994</ele><time>2026-04-19T11:13:57.993Z</time></trkpt><trkpt lat="44.92027" lon="9.1556133"><ele>404.0</ele><time>2026-04-19T11:13:59.993Z</time></trkpt><trkpt lat="44.9203117" lon="9.1555217"><ele>400.79999999999995</ele><time>2026-04-19T11:14:00.992Z</time></trkpt><trkpt lat="44.920355" lon="9.1554283"><ele>397.59999999999997</ele><time>2026-04-19T11:14:01.993Z</time></trkpt><trkpt lat="44.9204133" lon="9.155335"><ele>394.4</ele><time>2026-04-19T11:14:02.993Z</time></trkpt><trkpt lat="44.92049" lon="9.15526"><ele>391.2</ele><time>2026-04-19T11:14:03.992Z</time></trkpt><trkpt lat="44.92059" lon="9.1551883"><ele>388.0</ele><time>2026-04-19T11:14:04.992Z</time></trkpt><trkpt lat="44.920705" lon="9.155125"><ele>388.0</ele><time>2026-04-19T11:14:05.993Z</time></trkpt><trkpt lat="44.9208167" lon="9.15505"><ele>388.0</ele><time>2026-04-19T11:14:06.993Z</time></trkpt><trkpt lat="44.9209133" lon="9.1549767"><ele>388.0</ele><time>2026-04-19T11:14:07.993Z</time></trkpt><trkpt lat="44.9210083" lon="9.1549267"><ele>388.0</ele><time>2026-04-19T11:14:08.992Z</time></trkpt><trkpt lat="44.9210867" lon="9.1548517"><ele>388.0</ele><time>2026-04-19T11:14:09.992Z</time></trkpt><trkpt lat="44.9211517" lon="9.1547433"><ele>383.4</ele><time>2026-04-19T11:14:10.993Z</time></trkpt><trkpt lat="44.9212117" lon="9.1546233"><ele>378.79999999999995</ele><time>2026-04-19T11:14:11.992Z</time></trkpt><trkpt lat="44.921245" lon="9.1544967"><ele>374.2</ele><time>2026-04-19T11:14:12.993Z</time></trkpt><trkpt lat="44.9212633" lon="9.1543633"><ele>369.6</ele><time>2026-04-19T11:14:13.992Z</time></trkpt><trkpt lat="44.9212667" lon="9.1542017"><ele>365.0</ele><time>2026-04-19T11:14:14.993Z</time></trkpt><trkpt lat="44.9212667" lon="9.15405"><ele>363.8</ele><time>2026-04-19T11:14:15.992Z</time></trkpt><trkpt lat="44.9212867" lon="9.1539017"><ele>362.6</ele><time>2026-04-19T11:14:16.993Z</time></trkpt><trkpt lat="44.9213183" lon="9.15377"><ele>361.4</ele><time>2026-04-19T11:14:17.992Z</time></trkpt><trkpt lat="44.921335" lon="9.1536567"><ele>360.2</ele><time>2026-04-19T11:14:18.992Z</time></trkpt><trkpt lat="44.9213283" lon="9.1535417"><ele>359.0</ele><time>2026-04-19T11:14:19.993Z</time></trkpt><trkpt lat="44.9213033" lon="9.1534333"><ele>359.0</ele><time>2026-04-19T11:14:20.993Z</time></trkpt><trkpt lat="44.9212617" lon="9.15332"><ele>359.0</ele><time>2026-04-19T11:14:21.993Z</time></trkpt><trkpt lat="44.9211983" lon="9.15322"><ele>359.0</ele><time>2026-04-19T11:14:22.992Z</time></trkpt><trkpt lat="44.9211267" lon="9.153135"><ele>359.0</ele><time>2026-04-19T11:14:23.993Z</time></trkpt><trkpt lat="44.9210483" lon="9.1530433"><ele>359.0</ele><time>2026-04-19T11:14:24.993Z</time></trkpt><trkpt lat="44.92097" lon="9.15294"><ele>359.2</ele><time>2026-04-19T11:14:25.993Z</time></trkpt><trkpt lat="44.9209" lon="9.152845"><ele>359.4</ele><time>2026-04-19T11:14:26.993Z</time></trkpt><trkpt lat="44.9208333" lon="9.15275"><ele>359.6</ele><time>2026-04-19T11:14:27.992Z</time></trkpt><trkpt lat="44.9207717" lon="9.1526567"><ele>359.8</ele><time>2026-04-19T11:14:28.993Z</time></trkpt><trkpt lat="44.920705" lon="9.1525783"><ele>360.0</ele><time>2026-04-19T11:14:29.992Z</time></trkpt><trkpt lat="44.92064" lon="9.15251"><ele>360.0</ele><time>2026-04-19T11:14:30.992Z</time></trkpt><trkpt lat="44.920575" lon="9.1524383"><ele>360.0</ele><time>2026-04-19T11:14:31.993Z</time></trkpt><trkpt lat="44.9205067" lon="9.1523633"><ele>360.0</ele><time>2026-04-19T11:14:32.993Z</time></trkpt><trkpt lat="44.9204267" lon="9.1523117"><ele>360.0</ele><time>2026-04-19T11:14:33.993Z</time></trkpt><trkpt lat="44.9203483" lon="9.1522767"><ele>360.0</ele><time>2026-04-19T11:14:34.992Z</time></trkpt><trkpt lat="44.920265" lon="9.152245"><ele>360.0</ele><time>2026-04-19T11:14:35.993Z</time></trkpt><trkpt lat="44.92018" lon="9.1522367"><ele>356.6666666666667</ele><time>2026-04-19T11:14:36.993Z</time></trkpt><trkpt lat="44.9200967" lon="9.152245"><ele>353.3333333333333</ele><time>2026-04-19T11:14:37.992Z</time></trkpt><trkpt lat="44.920025" lon="9.15227"><ele>350.0</ele><time>2026-04-19T11:14:38.993Z</time></trkpt><trkpt lat="44.9199583" lon="9.15228"><ele>346.66666666666663</ele><time>2026-04-19T11:14:39.992Z</time></trkpt><trkpt lat="44.9198633" lon="9.1522583"><ele>343.3333333333333</ele><time>2026-04-19T11:14:41.993Z</time></trkpt><trkpt lat="44.9198533" lon="9.15216"><ele>340.0</ele><time>2026-04-19T11:14:43.993Z</time></trkpt><trkpt lat="44.91994" lon="9.1520817"><ele>340.0</ele><time>2026-04-19T11:14:45.993Z</time></trkpt><trkpt lat="44.920065" lon="9.1520517"><ele>340.0</ele><time>2026-04-19T11:14:47.992Z</time></trkpt><trkpt lat="44.9201767" lon="9.1520483"><ele>340.0</ele><time>2026-04-19T11:14:49.993Z</time></trkpt><trkpt lat="44.920275" lon="9.152045"><ele>340.0</ele><time>2026-04-19T11:14:51.993Z</time></trkpt><trkpt lat="44.9203517" lon="9.1520383"><ele>340.0</ele><time>2026-04-19T11:14:53.993Z</time></trkpt><trkpt lat="44.9204217" lon="9.1520817"><ele>339.0</ele><time>2026-04-19T11:15:54.991Z</time></trkpt><trkpt lat="44.920575" lon="9.1520567"><ele>338.0</ele><time>2026-04-19T11:15:56.992Z</time></trkpt><trkpt lat="44.9207083" lon="9.152035"><ele>337.0</ele><time>2026-04-19T11:15:57.991Z</time></trkpt><trkpt lat="44.9208583" lon="9.1519933"><ele>336.0</ele><time>2026-04-19T11:15:58.992Z</time></trkpt><trkpt lat="44.92101" lon="9.15196"><ele>333.75</ele><time>2026-04-19T11:15:59.992Z</time></trkpt><trkpt lat="44.9211467" lon="9.15195"><ele>331.5</ele><time>2026-04-19T11:16:00.991Z</time></trkpt><trkpt lat="44.921275" lon="9.1519767"><ele>329.25</ele><time>2026-04-19T11:16:01.991Z</time></trkpt><trkpt lat="44.9214033" lon="9.152025"><ele>327.0</ele><time>2026-04-19T11:16:02.991Z</time></trkpt><trkpt lat="44.921535" lon="9.1520717"><ele>327.0</ele><time>2026-04-19T11:16:03.992Z</time></trkpt><trkpt lat="44.9216633" lon="9.1521017"><ele>327.0</ele><time>2026-04-19T11:16:04.992Z</time></trkpt><trkpt lat="44.9217983" lon="9.1521083"><ele>327.0</ele><time>2026-04-19T11:16:05.992Z</time></trkpt><trkpt lat="44.92193" lon="9.1521183"><ele>327.0</ele><time>2026-04-19T11:16:06.992Z</time></trkpt><trkpt lat="44.922065" lon="9.1521333"><ele>325.25</ele><time>2026-04-19T11:16:07.991Z</time></trkpt><trkpt lat="44.9221817" lon="9.1521483"><ele>323.5</ele><time>2026-04-19T11:16:08.992Z</time></trkpt><trkpt lat="44.9222967" lon="9.15215"><ele>321.75</ele><time>2026-04-19T11:16:09.992Z</time></trkpt><trkpt lat="44.9224183" lon="9.15213"><ele>320.0</ele><time>2026-04-19T11:16:10.992Z</time></trkpt><trkpt lat="44.9225283" lon="9.1520983"><ele>316.6</ele><time>2026-04-19T11:16:11.992Z</time></trkpt><trkpt lat="44.9226417" lon="9.1520683"><ele>313.2</ele><time>2026-04-19T11:16:12.992Z</time></trkpt><trkpt lat="44.9227433" lon="9.15206"><ele>309.8</ele><time>2026-04-19T11:16:13.992Z</time></trkpt><trkpt lat="44.9228367" lon="9.15205"><ele>306.4</ele><time>2026-04-19T11:16:14.992Z</time></trkpt><trkpt lat="44.9229183" lon="9.15202"><ele>303.0</ele><time>2026-04-19T11:16:15.991Z</time></trkpt><trkpt lat="44.92299" lon="9.1519683"><ele>303.0</ele><time>2026-04-19T11:16:16.991Z</time></trkpt><trkpt lat="44.9230467" lon="9.1518933"><ele>303.0</ele><time>2026-04-19T11:16:17.991Z</time></trkpt><trkpt lat="44.9230883" lon="9.1518117"><ele>303.0</ele><time>2026-04-19T11:16:18.991Z</time></trkpt><trkpt lat="44.9231017" lon="9.1517117"><ele>303.0</ele><time>2026-04-19T11:16:19.992Z</time></trkpt><trkpt lat="44.9231" lon="9.1515567"><ele>303.0</ele><time>2026-04-19T11:16:21.991Z</time></trkpt><trkpt lat="44.9231667" lon="9.151485"><ele>303.0</ele><time>2026-04-19T11:16:23.992Z</time></trkpt><trkpt lat="44.9232467" lon="9.15156"><ele>303.0</ele><time>2026-04-19T11:16:25.991Z</time></trkpt><trkpt lat="44.923265" lon="9.1517317"><ele>303.0</ele><time>2026-04-19T11:16:27.992Z</time></trkpt><trkpt lat="44.92324" lon="9.1518483"><ele>303.0</ele><time>2026-04-19T11:16:28.992Z</time></trkpt><trkpt lat="44.9231933" lon="9.15196"><ele>303.0</ele><time>2026-04-19T11:16:29.991Z</time></trkpt><trkpt lat="44.9231333" lon="9.152055"><ele>303.0</ele><time>2026-04-19T11:16:30.991Z</time></trkpt><trkpt lat="44.9230567" lon="9.1521417"><ele>303.0</ele><time>2026-04-19T11:16:31.992Z</time></trkpt><trkpt lat="44.9229733" lon="9.1522267"><ele>303.0</ele><time>2026-04-19T11:16:32.992Z</time></trkpt><trkpt lat="44.9229" lon="9.1523067"><ele>303.0</ele><time>2026-04-19T11:16:33.992Z</time></trkpt><trkpt lat="44.922835" lon="9.1523967"><ele>303.0</ele><time>2026-04-19T11:16:34.991Z</time></trkpt><trkpt lat="44.92278" lon="9.1524983"><ele>303.0</ele><time>2026-04-19T11:16:35.992Z</time></trkpt><trkpt lat="44.9227467" lon="9.1526133"><ele>302.5</ele><time>2026-04-19T11:16:36.991Z</time></trkpt><trkpt lat="44.9227333" lon="9.15273"><ele>302.0</ele><time>2026-04-19T11:16:37.991Z</time></trkpt><trkpt lat="44.9227367" lon="9.1528533"><ele>301.5</ele><time>2026-04-19T11:16:38.992Z</time></trkpt><trkpt lat="44.922765" lon="9.1529683"><ele>301.0</ele><time>2026-04-19T11:16:39.992Z</time></trkpt><trkpt lat="44.922805" lon="9.15307"><ele>300.5</ele><time>2026-04-19T11:16:40.992Z</time></trkpt><trkpt lat="44.9228417" lon="9.153145"><ele>300.0</ele><time>2026-04-19T11:16:41.991Z</time></trkpt><trkpt lat="44.922915" lon="9.1531767"><ele>300.0</ele><time>2026-04-19T11:16:42.991Z</time></trkpt><trkpt lat="44.92301" lon="9.153205"><ele>300.0</ele><time>2026-04-19T11:16:43.991Z</time></trkpt><trkpt lat="44.9231083" lon="9.1532567"><ele>300.0</ele><time>2026-04-19T11:16:44.992Z</time></trkpt><trkpt lat="44.9231933" lon="9.1533517"><ele>300.0</ele><time>2026-04-19T11:16:45.992Z</time></trkpt><trkpt lat="44.9232567" lon="9.153465"><ele>300.0</ele><time>2026-04-19T11:16:46.991Z</time></trkpt><trkpt lat="44.9233033" lon="9.15357"><ele>300.3333333333333</ele><time>2026-04-19T11:16:47.992Z</time></trkpt><trkpt lat="44.923345" lon="9.15365"><ele>300.6666666666667</ele><time>2026-04-19T11:16:48.992Z</time></trkpt><trkpt lat="44.9234017" lon="9.15372"><ele>301.0</ele><time>2026-04-19T11:16:49.991Z</time></trkpt><trkpt lat="44.9234667" lon="9.1537867"><ele>301.33333333333337</ele><time>2026-04-19T11:16:50.992Z</time></trkpt><trkpt lat="44.923535" lon="9.1538567"><ele>301.6666666666667</ele><time>2026-04-19T11:16:51.992Z</time></trkpt><trkpt lat="44.9235833" lon="9.1539383"><ele>302.0</ele><time>2026-04-19T11:16:52.991Z</time></trkpt><trkpt lat="44.9236083" lon="9.1540483"><ele>297.6</ele><time>2026-04-19T11:16:53.992Z</time></trkpt><trkpt lat="44.9236083" lon="9.1542117"><ele>293.2</ele><time>2026-04-19T11:16:54.991Z</time></trkpt><trkpt lat="44.923595" lon="9.1543783"><ele>288.8</ele><time>2026-04-19T11:16:55.992Z</time></trkpt><trkpt lat="44.923585" lon="9.15452"><ele>284.4</ele><time>2026-04-19T11:16:56.991Z</time></trkpt><trkpt lat="44.9235717" lon="9.154635"><ele>280.0</ele><time>2026-04-19T11:16:57.991Z</time></trkpt><trkpt lat="44.9235767" lon="9.1547267"><ele>280.0</ele><time>2026-04-19T11:16:58.992Z</time></trkpt><trkpt lat="44.9236117" lon="9.1548233"><ele>280.0</ele><time>2026-04-19T11:17:00.992Z</time></trkpt><trkpt lat="44.92366" lon="9.154765"><ele>280.0</ele><time>2026-04-19T11:17:52.991Z</time></trkpt><trkpt lat="44.9237267" lon="9.1546717"><ele>280.0</ele><time>2026-04-19T11:17:55.991Z</time></trkpt><trkpt lat="44.9237617" lon="9.1545733"><ele>280.0</ele><time>2026-04-19T11:17:57.992Z</time></trkpt><trkpt lat="44.9237817" lon="9.154435"><ele>280.0</ele><time>2026-04-19T11:17:59.992Z</time></trkpt><trkpt lat="44.92382" lon="9.1542917"><ele>280.0</ele><time>2026-04-19T11:18:01.991Z</time></trkpt><trkpt lat="44.9238483" lon="9.1542083"><ele>280.0</ele><time>2026-04-19T11:18:02.992Z</time></trkpt><trkpt lat="44.9238533" lon="9.1541183"><ele>280.0</ele><time>2026-04-19T11:18:03.991Z</time></trkpt><trkpt lat="44.9238533" lon="9.1540283"><ele>280.0</ele><time>2026-04-19T11:18:04.991Z</time></trkpt><trkpt lat="44.92384" lon="9.153935"><ele>280.0</ele><time>2026-04-19T11:18:05.992Z</time></trkpt><trkpt lat="44.923835" lon="9.15383"><ele>280.0</ele><time>2026-04-19T11:18:06.991Z</time></trkpt><trkpt lat="44.9238317" lon="9.153725"><ele>280.0</ele><time>2026-04-19T11:18:07.991Z</time></trkpt><trkpt lat="44.923835" lon="9.15362"><ele>279.2</ele><time>2026-04-19T11:18:08.992Z</time></trkpt><trkpt lat="44.9238533" lon="9.1535133"><ele>278.4</ele><time>2026-04-19T11:18:09.991Z</time></trkpt><trkpt lat="44.92387" lon="9.1533983"><ele>277.6</ele><time>2026-04-19T11:18:10.992Z</time></trkpt><trkpt lat="44.92388" lon="9.1532883"><ele>276.8</ele><time>2026-04-19T11:18:11.992Z</time></trkpt><trkpt lat="44.9238467" lon="9.1531183"><ele>276.0</ele><time>2026-04-19T11:18:13.992Z</time></trkpt><trkpt lat="44.923785" lon="9.1529733"><ele>275.8333333333333</ele><time>2026-04-19T11:18:15.991Z</time></trkpt><trkpt lat="44.9237983" lon="9.1528467"><ele>275.6666666666667</ele><time>2026-04-19T11:18:17.991Z</time></trkpt><trkpt lat="44.9238533" lon="9.1527933"><ele>275.5</ele><time>2026-04-19T11:18:18.991Z</time></trkpt><trkpt lat="44.9239183" lon="9.152735"><ele>275.33333333333337</ele><time>2026-04-19T11:18:19.992Z</time></trkpt><trkpt lat="44.9239717" lon="9.1526633"><ele>275.1666666666667</ele><time>2026-04-19T11:18:20.992Z</time></trkpt><trkpt lat="44.9240083" lon="9.1525833"><ele>275.0</ele><time>2026-04-19T11:18:21.991Z</time></trkpt><trkpt lat="44.924035" lon="9.152485"><ele>275.0</ele><time>2026-04-19T11:18:22.991Z</time></trkpt><trkpt lat="44.9240417" lon="9.15238"><ele>275.0</ele><time>2026-04-19T11:18:23.992Z</time></trkpt><trkpt lat="44.9240417" lon="9.1522583"><ele>275.0</ele><time>2026-04-19T11:18:24.991Z</time></trkpt><trkpt lat="44.9240317" lon="9.1521483"><ele>275.0</ele><time>2026-04-19T11:18:25.991Z</time></trkpt><trkpt lat="44.9240133" lon="9.1520367"><ele>275.0</ele><time>2026-04-19T11:18:26.992Z</time></trkpt><trkpt lat="44.92399" lon="9.1519283"><ele>275.0</ele><time>2026-04-19T11:18:27.992Z</time></trkpt><trkpt lat="44.9239767" lon="9.15182"><ele>274.0</ele><time>2026-04-19T11:18:28.991Z</time></trkpt><trkpt lat="44.92397" lon="9.1517083"><ele>273.0</ele><time>2026-04-19T11:18:29.992Z</time></trkpt><trkpt lat="44.9239533" lon="9.151595"><ele>272.0</ele><time>2026-04-19T11:18:30.992Z</time></trkpt><trkpt lat="44.9239467" lon="9.1514817"><ele>271.0</ele><time>2026-04-19T11:18:31.991Z</time></trkpt><trkpt lat="44.9239367" lon="9.151365"><ele>270.0</ele><time>2026-04-19T11:18:32.991Z</time></trkpt><trkpt lat="44.9239367" lon="9.1512417"><ele>269.0</ele><time>2026-04-19T11:18:33.992Z</time></trkpt><trkpt lat="44.923935" lon="9.1511233"><ele>267.83333333333337</ele><time>2026-04-19T11:18:34.992Z</time></trkpt><trkpt lat="44.92393" lon="9.1509967"><ele>266.6666666666667</ele><time>2026-04-19T11:18:35.991Z</time></trkpt><trkpt lat="44.923935" lon="9.1508617"><ele>265.5</ele><time>2026-04-19T11:18:36.992Z</time></trkpt><trkpt lat="44.9239417" lon="9.1507367"><ele>264.3333333333333</ele><time>2026-04-19T11:18:37.992Z</time></trkpt><trkpt lat="44.92396" lon="9.150615"><ele>263.16666666666663</ele><time>2026-04-19T11:18:38.991Z</time></trkpt><trkpt lat="44.9239833" lon="9.1505"><ele>262.0</ele><time>2026-04-19T11:18:39.992Z</time></trkpt><trkpt lat="44.9240183" lon="9.1503933"><ele>261.6</ele><time>2026-04-19T11:18:40.992Z</time></trkpt><trkpt lat="44.9240717" lon="9.150285"><ele>261.2</ele><time>2026-04-19T11:18:41.991Z</time></trkpt><trkpt lat="44.9241233" lon="9.1501667"><ele>260.8</ele><time>2026-04-19T11:18:42.992Z</time></trkpt><trkpt lat="44.9241767" lon="9.1500667"><ele>260.4</ele><time>2026-04-19T11:18:43.992Z</time></trkpt><trkpt lat="44.92424" lon="9.1499733"><ele>260.0</ele><time>2026-04-19T11:18:44.992Z</time></trkpt><trkpt lat="44.9243167" lon="9.149875"><ele>258.8</ele><time>2026-04-19T11:18:45.992Z</time></trkpt><trkpt lat="44.9244033" lon="9.14978"><ele>257.6</ele><time>2026-04-19T11:18:46.992Z</time></trkpt><trkpt lat="44.9244917" lon="9.149695"><ele>256.4</ele><time>2026-04-19T11:18:47.991Z</time></trkpt><trkpt lat="44.9245817" lon="9.1496367"><ele>255.2</ele><time>2026-04-19T11:18:48.992Z</time></trkpt><trkpt lat="44.92467" lon="9.1495833"><ele>254.0</ele><time>2026-04-19T11:18:49.992Z</time></trkpt><trkpt lat="44.9247567" lon="9.1495333"><ele>254.00000000000003</ele><time>2026-04-19T11:18:50.992Z</time></trkpt><trkpt lat="44.9248433" lon="9.1494883"><ele>254.0</ele><time>2026-04-19T11:18:51.992Z</time></trkpt><trkpt lat="44.9249267" lon="9.149445"><ele>254.0</ele><time>2026-04-19T11:18:52.991Z</time></trkpt><trkpt lat="44.925" lon="9.1494017"><ele>254.0</ele><time>2026-04-19T11:18:53.992Z</time></trkpt><trkpt lat="44.9250733" lon="9.1493517"><ele>254.00000000000003</ele><time>2026-04-19T11:18:54.991Z</time></trkpt><trkpt lat="44.92514" lon="9.1493083"><ele>254.0</ele><time>2026-04-19T11:18:55.992Z</time></trkpt><trkpt lat="44.925195" lon="9.1492533"><ele>254.0</ele><time>2026-04-19T11:18:56.992Z</time></trkpt><trkpt lat="44.925245" lon="9.1491933"><ele>253.99999999999997</ele><time>2026-04-19T11:18:57.992Z</time></trkpt><trkpt lat="44.9252967" lon="9.1491417"><ele>253.99999999999997</ele><time>2026-04-19T11:18:58.992Z</time></trkpt><trkpt lat="44.9253933" lon="9.149035"><ele>254.0</ele><time>2026-04-19T11:19:00.992Z</time></trkpt><trkpt lat="44.9254717" lon="9.148925"><ele>254.0</ele><time>2026-04-19T11:19:02.991Z</time></trkpt><trkpt lat="44.925535" lon="9.1488033"><ele>254.00000000000003</ele><time>2026-04-19T11:19:04.992Z</time></trkpt><trkpt lat="44.9255767" lon="9.14869"><ele>254.0</ele><time>2026-04-19T11:19:06.992Z</time></trkpt><trkpt lat="44.925605" lon="9.1485717"><ele>254.0</ele><time>2026-04-19T11:19:08.992Z</time></trkpt><trkpt lat="44.92563" lon="9.1484767"><ele>254.0</ele><time>2026-04-19T11:19:10.991Z</time></trkpt><trkpt lat="44.92565" lon="9.1483867"><ele>254.00000000000003</ele><time>2026-04-19T11:19:12.992Z</time></trkpt><trkpt lat="44.9256733" lon="9.1482817"><ele>254.0</ele><time>2026-04-19T11:19:15.991Z</time></trkpt><trkpt lat="44.9257017" lon="9.1481733"><ele>253.79999999999998</ele><time>2026-04-19T11:19:18.99Z</time></trkpt><trkpt lat="44.9257467" lon="9.14808"><ele>253.59999999999997</ele><time>2026-04-19T11:19:42.991Z</time></trkpt><trkpt lat="44.92577" lon="9.147975"><ele>253.4</ele><time>2026-04-19T11:19:43.991Z</time></trkpt><trkpt lat="44.9258083" lon="9.1478483"><ele>253.2</ele><time>2026-04-19T11:19:44.99Z</time></trkpt><trkpt lat="44.9258633" lon="9.1477217"><ele>253.0</ele><time>2026-04-19T11:19:45.99Z</time></trkpt><trkpt lat="44.9259417" lon="9.1475967"><ele>252.75</ele><time>2026-04-19T11:19:46.99Z</time></trkpt><trkpt lat="44.926045" lon="9.1474983"><ele>252.5</ele><time>2026-04-19T11:19:47.99Z</time></trkpt><trkpt lat="44.9261733" lon="9.1474117"><ele>252.25</ele><time>2026-04-19T11:19:48.991Z</time></trkpt><trkpt lat="44.9263117" lon="9.1473483"><ele>252.0</ele><time>2026-04-19T11:19:49.99Z</time></trkpt><trkpt lat="44.9264683" lon="9.1473067"><ele>251.66666666666669</ele><time>2026-04-19T11:19:50.991Z</time></trkpt><trkpt lat="44.9266333" lon="9.1472833"><ele>251.33333333333334</ele><time>2026-04-19T11:19:51.991Z</time></trkpt><trkpt lat="44.9267967" lon="9.1472467"><ele>251.0</ele><time>2026-04-19T11:19:52.99Z</time></trkpt><trkpt lat="44.926945" lon="9.1472317"><ele>249.75</ele><time>2026-04-19T11:19:53.99Z</time></trkpt><trkpt lat="44.9270783" lon="9.147225"><ele>248.5</ele><time>2026-04-19T11:19:54.991Z</time></trkpt><trkpt lat="44.9271967" lon="9.1472017"><ele>247.25</ele><time>2026-04-19T11:19:55.991Z</time></trkpt><trkpt lat="44.9272983" lon="9.14714"><ele>246.0</ele><time>2026-04-19T11:19:56.991Z</time></trkpt><trkpt lat="44.9273917" lon="9.1470667"><ele>246.0</ele><time>2026-04-19T11:19:57.991Z</time></trkpt><trkpt lat="44.9274933" lon="9.1469683"><ele>246.0</ele><time>2026-04-19T11:19:58.99Z</time></trkpt><trkpt lat="44.9275983" lon="9.14687"><ele>246.0</ele><time>2026-04-19T11:19:59.991Z</time></trkpt><trkpt lat="44.927705" lon="9.1467867"><ele>246.0</ele><time>2026-04-19T11:20:00.991Z</time></trkpt><trkpt lat="44.9278217" lon="9.1467383"><ele>247.75</ele><time>2026-04-19T11:20:01.991Z</time></trkpt><trkpt lat="44.92795" lon="9.14671"><ele>249.5</ele><time>2026-04-19T11:20:02.991Z</time></trkpt><trkpt lat="44.9280683" lon="9.1466733"><ele>251.25</ele><time>2026-04-19T11:20:03.99Z</time></trkpt><trkpt lat="44.9281683" lon="9.14662"><ele>253.0</ele><time>2026-04-19T11:20:04.991Z</time></trkpt><trkpt lat="44.928265" lon="9.1465467"><ele>252.0</ele><time>2026-04-19T11:20:05.991Z</time></trkpt><trkpt lat="44.9283567" lon="9.14643"><ele>251.0</ele><time>2026-04-19T11:20:06.991Z</time></trkpt><trkpt lat="44.9284317" lon="9.1462783"><ele>250.0</ele><time>2026-04-19T11:20:07.99Z</time></trkpt><trkpt lat="44.9285217" lon="9.1461333"><ele>249.0</ele><time>2026-04-19T11:20:08.99Z</time></trkpt><trkpt lat="44.928605" lon="9.1459833"><ele>250.0</ele><time>2026-04-19T11:20:09.99Z</time></trkpt><trkpt lat="44.9286717" lon="9.1458117"><ele>251.0</ele><time>2026-04-19T11:20:10.99Z</time></trkpt><trkpt lat="44.92871" lon="9.1456317"><ele>252.0</ele><time>2026-04-19T11:20:11.99Z</time></trkpt><trkpt lat="44.928735" lon="9.1454467"><ele>253.0</ele><time>2026-04-19T11:20:12.99Z</time></trkpt><trkpt lat="44.9287583" lon="9.145265"><ele>253.0</ele><time>2026-04-19T11:20:13.991Z</time></trkpt><trkpt lat="44.9287933" lon="9.1451"><ele>253.0</ele><time>2026-04-19T11:20:14.99Z</time></trkpt><trkpt lat="44.9288417" lon="9.1449567"><ele>253.0</ele><time>2026-04-19T11:20:15.99Z</time></trkpt><trkpt lat="44.9289167" lon="9.144825"><ele>253.0</ele><time>2026-04-19T11:20:16.991Z</time></trkpt><trkpt lat="44.92898" lon="9.1446883"><ele>251.8</ele><time>2026-04-19T11:20:17.99Z</time></trkpt><trkpt lat="44.9290467" lon="9.144555"><ele>250.60000000000002</ele><time>2026-04-19T11:20:18.991Z</time></trkpt><trkpt lat="44.929105" lon="9.144435"><ele>249.39999999999998</ele><time>2026-04-19T11:20:19.991Z</time></trkpt><trkpt lat="44.929135" lon="9.144315"><ele>248.2</ele><time>2026-04-19T11:20:20.991Z</time></trkpt><trkpt lat="44.92915" lon="9.1441833"><ele>247.0</ele><time>2026-04-19T11:20:21.991Z</time></trkpt><trkpt lat="44.9291433" lon="9.1440483"><ele>246.2</ele><time>2026-04-19T11:20:22.991Z</time></trkpt><trkpt lat="44.9291317" lon="9.1439083"><ele>245.39999999999998</ele><time>2026-04-19T11:20:23.991Z</time></trkpt><trkpt lat="44.929125" lon="9.1437633"><ele>244.60000000000002</ele><time>2026-04-19T11:20:24.991Z</time></trkpt><trkpt lat="44.9291433" lon="9.1435983"><ele>243.8</ele><time>2026-04-19T11:20:25.99Z</time></trkpt><trkpt lat="44.929175" lon="9.143425"><ele>243.0</ele><time>2026-04-19T11:20:26.99Z</time></trkpt><trkpt lat="44.929205" lon="9.1432433"><ele>242.25</ele><time>2026-04-19T11:20:27.99Z</time></trkpt><trkpt lat="44.9292217" lon="9.143055"><ele>241.5</ele><time>2026-04-19T11:20:28.991Z</time></trkpt><trkpt lat="44.929235" lon="9.1428617"><ele>240.75</ele><time>2026-04-19T11:20:29.99Z</time></trkpt><trkpt lat="44.9292333" lon="9.142655"><ele>240.0</ele><time>2026-04-19T11:20:30.991Z</time></trkpt><trkpt lat="44.9292133" lon="9.1424467"><ele>239.5</ele><time>2026-04-19T11:20:31.991Z</time></trkpt><trkpt lat="44.9291967" lon="9.1422417"><ele>239.0</ele><time>2026-04-19T11:20:32.99Z</time></trkpt><trkpt lat="44.9291733" lon="9.14204"><ele>238.5</ele><time>2026-04-19T11:20:33.991Z</time></trkpt><trkpt lat="44.92915" lon="9.14183"><ele>238.0</ele><time>2026-04-19T11:20:34.99Z</time></trkpt><trkpt lat="44.92913" lon="9.141635"><ele>237.60000000000002</ele><time>2026-04-19T11:20:35.991Z</time></trkpt><trkpt lat="44.92912" lon="9.141455"><ele>237.20000000000002</ele><time>2026-04-19T11:20:36.99Z</time></trkpt><trkpt lat="44.9291283" lon="9.1413133"><ele>236.8</ele><time>2026-04-19T11:20:37.991Z</time></trkpt><trkpt lat="44.9291733" lon="9.141195"><ele>236.4</ele><time>2026-04-19T11:20:38.99Z</time></trkpt><trkpt lat="44.929255" lon="9.1410883"><ele>236.0</ele><time>2026-04-19T11:20:39.991Z</time></trkpt><trkpt lat="44.9293667" lon="9.1409867"><ele>238.25</ele><time>2026-04-19T11:20:40.991Z</time></trkpt><trkpt lat="44.9294817" lon="9.1408817"><ele>240.5</ele><time>2026-04-19T11:20:41.991Z</time></trkpt><trkpt lat="44.929585" lon="9.140745"><ele>242.75</ele><time>2026-04-19T11:20:42.991Z</time></trkpt><trkpt lat="44.9296783" lon="9.1406067"><ele>245.0</ele><time>2026-04-19T11:20:43.99Z</time></trkpt><trkpt lat="44.9297617" lon="9.1404667"><ele>245.0</ele><time>2026-04-19T11:20:44.991Z</time></trkpt><trkpt lat="44.9298183" lon="9.1403017"><ele>245.0</ele><time>2026-04-19T11:20:45.99Z</time></trkpt><trkpt lat="44.92986" lon="9.1401283"><ele>245.0</ele><time>2026-04-19T11:20:46.991Z</time></trkpt><trkpt lat="44.92988" lon="9.139935"><ele>245.0</ele><time>2026-04-19T11:20:47.991Z</time></trkpt><trkpt lat="44.9298967" lon="9.1397433"><ele>245.0</ele><time>2026-04-19T11:20:48.99Z</time></trkpt><trkpt lat="44.9299117" lon="9.1395667"><ele>245.0</ele><time>2026-04-19T11:20:49.99Z</time></trkpt><trkpt lat="44.929925" lon="9.1393933"><ele>245.0</ele><time>2026-04-19T11:20:50.99Z</time></trkpt><trkpt lat="44.92992" lon="9.1392217"><ele>245.0</ele><time>2026-04-19T11:20:51.991Z</time></trkpt><trkpt lat="44.929905" lon="9.1390583"><ele>243.25</ele><time>2026-04-19T11:20:52.991Z</time></trkpt><trkpt lat="44.9298967" lon="9.1388983"><ele>241.5</ele><time>2026-04-19T11:20:53.99Z</time></trkpt><trkpt lat="44.9299133" lon="9.13876"><ele>239.75</ele><time>2026-04-19T11:20:54.991Z</time></trkpt><trkpt lat="44.9299467" lon="9.13861"><ele>238.0</ele><time>2026-04-19T11:20:55.991Z</time></trkpt><trkpt lat="44.9300117" lon="9.1384533"><ele>238.66666666666666</ele><time>2026-04-19T11:20:56.99Z</time></trkpt><trkpt lat="44.9300717" lon="9.1382583"><ele>239.33333333333331</ele><time>2026-04-19T11:20:57.991Z</time></trkpt><trkpt lat="44.930115" lon="9.1380517"><ele>240.0</ele><time>2026-04-19T11:20:58.99Z</time></trkpt><trkpt lat="44.9301617" lon="9.13784"><ele>240.0</ele><time>2026-04-19T11:20:59.99Z</time></trkpt><trkpt lat="44.9301983" lon="9.13766"><ele>240.0</ele><time>2026-04-19T11:21:00.99Z</time></trkpt><trkpt lat="44.9302367" lon="9.13748"><ele>240.0</ele><time>2026-04-19T11:21:01.991Z</time></trkpt><trkpt lat="44.93027" lon="9.137295"><ele>240.0</ele><time>2026-04-19T11:21:02.99Z</time></trkpt><trkpt lat="44.9302667" lon="9.1371117"><ele>240.75</ele><time>2026-04-19T11:21:03.991Z</time></trkpt><trkpt lat="44.9302383" lon="9.13693"><ele>241.5</ele><time>2026-04-19T11:21:04.991Z</time></trkpt><trkpt lat="44.9301967" lon="9.136745"><ele>242.25</ele><time>2026-04-19T11:21:05.991Z</time></trkpt><trkpt lat="44.9301483" lon="9.1365667"><ele>243.0</ele><time>2026-04-19T11:21:06.991Z</time></trkpt><trkpt lat="44.9301083" lon="9.136415"><ele>244.5</ele><time>2026-04-19T11:21:07.991Z</time></trkpt><trkpt lat="44.9300733" lon="9.1362217"><ele>246.0</ele><time>2026-04-19T11:21:08.991Z</time></trkpt><trkpt lat="44.930025" lon="9.136035"><ele>247.5</ele><time>2026-04-19T11:21:09.991Z</time></trkpt><trkpt lat="44.9299533" lon="9.1358783"><ele>249.0</ele><time>2026-04-19T11:21:10.991Z</time></trkpt><trkpt lat="44.929875" lon="9.1357317"><ele>243.75</ele><time>2026-04-19T11:21:11.99Z</time></trkpt><trkpt lat="44.9298117" lon="9.13558"><ele>238.5</ele><time>2026-04-19T11:21:12.99Z</time></trkpt><trkpt lat="44.929755" lon="9.1354133"><ele>233.25</ele><time>2026-04-19T11:21:13.991Z</time></trkpt><trkpt lat="44.92971" lon="9.1352383"><ele>228.0</ele><time>2026-04-19T11:21:14.991Z</time></trkpt><trkpt lat="44.929685" lon="9.1350583"><ele>228.0</ele><time>2026-04-19T11:21:15.991Z</time></trkpt><trkpt lat="44.9296867" lon="9.134865"><ele>228.0</ele><time>2026-04-19T11:21:16.991Z</time></trkpt><trkpt lat="44.9296983" lon="9.1346567"><ele>228.0</ele><time>2026-04-19T11:21:17.991Z</time></trkpt><trkpt lat="44.929705" lon="9.134445"><ele>228.0</ele><time>2026-04-19T11:21:18.991Z</time></trkpt><trkpt lat="44.929715" lon="9.1342317"><ele>227.5</ele><time>2026-04-19T11:21:19.99Z</time></trkpt><trkpt lat="44.92973" lon="9.13403"><ele>227.0</ele><time>2026-04-19T11:21:20.991Z</time></trkpt><trkpt lat="44.929755" lon="9.1338483"><ele>226.5</ele><time>2026-04-19T11:21:21.991Z</time></trkpt><trkpt lat="44.9298067" lon="9.1336617"><ele>226.0</ele><time>2026-04-19T11:21:22.99Z</time></trkpt><trkpt lat="44.9298783" lon="9.133485"><ele>226.0</ele><time>2026-04-19T11:21:23.991Z</time></trkpt><trkpt lat="44.9299667" lon="9.1333083"><ele>226.0</ele><time>2026-04-19T11:21:24.991Z</time></trkpt><trkpt lat="44.9300483" lon="9.1331217"><ele>226.0</ele><time>2026-04-19T11:21:25.991Z</time></trkpt><trkpt lat="44.9301117" lon="9.1329383"><ele>229.25</ele><time>2026-04-19T11:21:26.991Z</time></trkpt><trkpt lat="44.93018" lon="9.1327733"><ele>232.5</ele><time>2026-04-19T11:21:27.99Z</time></trkpt><trkpt lat="44.9302383" lon="9.1326083"><ele>235.75</ele><time>2026-04-19T11:21:28.991Z</time></trkpt><trkpt lat="44.9302833" lon="9.1324367"><ele>239.0</ele><time>2026-04-19T11:21:29.99Z</time></trkpt><trkpt lat="44.9303033" lon="9.13225"><ele>239.0</ele><time>2026-04-19T11:21:30.991Z</time></trkpt><trkpt lat="44.9302967" lon="9.132065"><ele>239.0</ele><time>2026-04-19T11:21:31.991Z</time></trkpt><trkpt lat="44.930285" lon="9.1318717"><ele>239.0</ele><time>2026-04-19T11:21:32.991Z</time></trkpt><trkpt lat="44.93027" lon="9.131685"><ele>239.0</ele><time>2026-04-19T11:21:33.991Z</time></trkpt><trkpt lat="44.9302467" lon="9.1315083"><ele>241.25</ele><time>2026-04-19T11:21:34.991Z</time></trkpt><trkpt lat="44.9302117" lon="9.1313417"><ele>243.5</ele><time>2026-04-19T11:21:35.991Z</time></trkpt><trkpt lat="44.930175" lon="9.1311783"><ele>245.75</ele><time>2026-04-19T11:21:36.99Z</time></trkpt><trkpt lat="44.9301533" lon="9.131005"><ele>248.0</ele><time>2026-04-19T11:21:37.991Z</time></trkpt><trkpt lat="44.9301483" lon="9.1308283"><ele>248.4</ele><time>2026-04-19T11:21:38.991Z</time></trkpt><trkpt lat="44.9301567" lon="9.1306517"><ele>248.8</ele><time>2026-04-19T11:21:39.991Z</time></trkpt><trkpt lat="44.9301633" lon="9.1305117"><ele>249.2</ele><time>2026-04-19T11:21:40.991Z</time></trkpt><trkpt lat="44.930135" lon="9.1303717"><ele>249.6</ele><time>2026-04-19T11:21:41.99Z</time></trkpt><trkpt lat="44.9300733" lon="9.1302467"><ele>250.0</ele><time>2026-04-19T11:21:42.991Z</time></trkpt><trkpt lat="44.929985" lon="9.1301483"><ele>246.2</ele><time>2026-04-19T11:21:43.991Z</time></trkpt><trkpt lat="44.9298967" lon="9.1300317"><ele>242.4</ele><time>2026-04-19T11:21:44.991Z</time></trkpt><trkpt lat="44.9298267" lon="9.1298983"><ele>238.60000000000002</ele><time>2026-04-19T11:21:45.991Z</time></trkpt><trkpt lat="44.9297767" lon="9.1298083"><ele>234.8</ele><time>2026-04-19T11:21:46.991Z</time></trkpt><trkpt lat="44.9297317" lon="9.1296667"><ele>231.0</ele><time>2026-04-19T11:21:47.991Z</time></trkpt><trkpt lat="44.9297083" lon="9.1295517"><ele>230.8</ele><time>2026-04-19T11:21:48.99Z</time></trkpt><trkpt lat="44.9297183" lon="9.1294417"><ele>230.60000000000002</ele><time>2026-04-19T11:21:49.991Z</time></trkpt><trkpt lat="44.9297483" lon="9.129325"><ele>230.4</ele><time>2026-04-19T11:21:50.99Z</time></trkpt><trkpt lat="44.929815" lon="9.1291917"><ele>230.2</ele><time>2026-04-19T11:21:51.991Z</time></trkpt><trkpt lat="44.9299" lon="9.129025"><ele>230.0</ele><time>2026-04-19T11:21:52.99Z</time></trkpt><trkpt lat="44.9299917" lon="9.1288383"><ele>230.0</ele><time>2026-04-19T11:21:53.991Z</time></trkpt><trkpt lat="44.9300717" lon="9.1286483"><ele>230.0</ele><time>2026-04-19T11:21:54.991Z</time></trkpt><trkpt lat="44.9301333" lon="9.12847"><ele>230.0</ele><time>2026-04-19T11:21:55.991Z</time></trkpt><trkpt lat="44.9301933" lon="9.1283017"><ele>230.0</ele><time>2026-04-19T11:21:56.991Z</time></trkpt><trkpt lat="44.9302583" lon="9.128145"><ele>230.0</ele><time>2026-04-19T11:21:57.99Z</time></trkpt><trkpt lat="44.9303183" lon="9.1280067"><ele>230.0</ele><time>2026-04-19T11:21:58.991Z</time></trkpt><trkpt lat="44.93038" lon="9.127875"><ele>230.0</ele><time>2026-04-19T11:21:59.99Z</time></trkpt><trkpt lat="44.9304317" lon="9.1277383"><ele>230.0</ele><time>2026-04-19T11:22:00.99Z</time></trkpt><trkpt lat="44.9304833" lon="9.12761"><ele>230.0</ele><time>2026-04-19T11:22:01.99Z</time></trkpt><trkpt lat="44.9305517" lon="9.1275117"><ele>230.0</ele><time>2026-04-19T11:22:02.99Z</time></trkpt><trkpt lat="44.9306433" lon="9.127425"><ele>230.0</ele><time>2026-04-19T11:22:03.99Z</time></trkpt><trkpt lat="44.9307383" lon="9.127335"><ele>230.0</ele><time>2026-04-19T11:22:04.991Z</time></trkpt><trkpt lat="44.9308067" lon="9.1272267"><ele>230.0</ele><time>2026-04-19T11:22:05.991Z</time></trkpt><trkpt lat="44.9308583" lon="9.1271083"><ele>230.0</ele><time>2026-04-19T11:22:06.991Z</time></trkpt><trkpt lat="44.9309167" lon="9.1269683"><ele>231.0</ele><time>2026-04-19T11:22:07.99Z</time></trkpt><trkpt lat="44.9309683" lon="9.1268417"><ele>232.0</ele><time>2026-04-19T11:22:08.991Z</time></trkpt><trkpt lat="44.931015" lon="9.1267283"><ele>233.0</ele><time>2026-04-19T11:22:09.991Z</time></trkpt><trkpt lat="44.9310683" lon="9.1266267"><ele>234.0</ele><time>2026-04-19T11:22:10.991Z</time></trkpt><trkpt lat="44.9311183" lon="9.1265167"><ele>235.0</ele><time>2026-04-19T11:22:11.991Z</time></trkpt><trkpt lat="44.931155" lon="9.12642"><ele>235.0</ele><time>2026-04-19T11:22:12.99Z</time></trkpt><trkpt lat="44.9311833" lon="9.1262583"><ele>235.0</ele><time>2026-04-19T11:22:14.991Z</time></trkpt><trkpt lat="44.931165" lon="9.1261067"><ele>235.0</ele><time>2026-04-19T11:22:16.991Z</time></trkpt><trkpt lat="44.9311333" lon="9.1259983"><ele>235.0</ele><time>2026-04-19T11:22:18.99Z</time></trkpt><trkpt lat="44.9311283" lon="9.1258917"><ele>235.0</ele><time>2026-04-19T11:23:11.99Z</time></trkpt><trkpt lat="44.9311233" lon="9.1257667"><ele>233.2</ele><time>2026-04-19T11:23:12.99Z</time></trkpt><trkpt lat="44.9311233" lon="9.1256267"><ele>231.4</ele><time>2026-04-19T11:23:13.99Z</time></trkpt><trkpt lat="44.9311217" lon="9.1254867"><ele>229.60000000000002</ele><time>2026-04-19T11:23:14.99Z</time></trkpt><trkpt lat="44.9311267" lon="9.12533"><ele>227.8</ele><time>2026-04-19T11:23:15.99Z</time></trkpt><trkpt lat="44.9311367" lon="9.1252"><ele>226.0</ele><time>2026-04-19T11:23:16.99Z</time></trkpt><trkpt lat="44.9311683" lon="9.12509"><ele>226.0</ele><time>2026-04-19T11:23:17.99Z</time></trkpt><trkpt lat="44.9312167" lon="9.1250083"><ele>226.00000000000003</ele><time>2026-04-19T11:23:18.99Z</time></trkpt><trkpt lat="44.9312883" lon="9.1249183"><ele>226.00000000000003</ele><time>2026-04-19T11:23:19.989Z</time></trkpt><trkpt lat="44.9313967" lon="9.124845"><ele>226.0</ele><time>2026-04-19T11:23:20.989Z</time></trkpt><trkpt lat="44.9315117" lon="9.1247883"><ele>226.0</ele><time>2026-04-19T11:23:21.99Z</time></trkpt><trkpt lat="44.9316283" lon="9.124725"><ele>225.5</ele><time>2026-04-19T11:23:22.99Z</time></trkpt><trkpt lat="44.9317533" lon="9.1246567"><ele>225.0</ele><time>2026-04-19T11:23:23.99Z</time></trkpt><trkpt lat="44.93187" lon="9.1245667"><ele>224.5</ele><time>2026-04-19T11:23:24.99Z</time></trkpt><trkpt lat="44.9319917" lon="9.1244783"><ele>224.0</ele><time>2026-04-19T11:23:25.989Z</time></trkpt><trkpt lat="44.93211" lon="9.1244033"><ele>224.0</ele><time>2026-04-19T11:23:26.989Z</time></trkpt><trkpt lat="44.9322267" lon="9.1243283"><ele>224.0</ele><time>2026-04-19T11:23:27.99Z</time></trkpt><trkpt lat="44.932335" lon="9.124215"><ele>224.0</ele><time>2026-04-19T11:23:28.989Z</time></trkpt><trkpt lat="44.9324483" lon="9.1240833"><ele>224.0</ele><time>2026-04-19T11:23:29.99Z</time></trkpt><trkpt lat="44.9325417" lon="9.1239617"><ele>226.0</ele><time>2026-04-19T11:23:30.989Z</time></trkpt><trkpt lat="44.932625" lon="9.1238233"><ele>228.0</ele><time>2026-04-19T11:23:31.989Z</time></trkpt><trkpt lat="44.9327017" lon="9.12369"><ele>230.0</ele><time>2026-04-19T11:23:32.99Z</time></trkpt><trkpt lat="44.9327717" lon="9.12355"><ele>232.0</ele><time>2026-04-19T11:23:33.99Z</time></trkpt><trkpt lat="44.9328267" lon="9.1234167"><ele>232.0</ele><time>2026-04-19T11:23:34.99Z</time></trkpt><trkpt lat="44.9328533" lon="9.1232717"><ele>232.0</ele><time>2026-04-19T11:23:35.99Z</time></trkpt><trkpt lat="44.932855" lon="9.1231233"><ele>232.0</ele><time>2026-04-19T11:23:36.99Z</time></trkpt><trkpt lat="44.9328433" lon="9.1229517"><ele>232.0</ele><time>2026-04-19T11:23:37.99Z</time></trkpt><trkpt lat="44.932825" lon="9.1228033"><ele>232.0</ele><time>2026-04-19T11:23:38.99Z</time></trkpt><trkpt lat="44.9328233" lon="9.12265"><ele>229.5</ele><time>2026-04-19T11:23:39.99Z</time></trkpt><trkpt lat="44.9328533" lon="9.1224883"><ele>227.0</ele><time>2026-04-19T11:23:40.99Z</time></trkpt><trkpt lat="44.932895" lon="9.12232"><ele>224.5</ele><time>2026-04-19T11:23:41.99Z</time></trkpt><trkpt lat="44.9329483" lon="9.1221367"><ele>222.0</ele><time>2026-04-19T11:23:42.99Z</time></trkpt><trkpt lat="44.933" lon="9.1219817"><ele>219.0</ele><time>2026-04-19T11:23:43.99Z</time></trkpt><trkpt lat="44.9330567" lon="9.1218383"><ele>216.0</ele><time>2026-04-19T11:23:44.99Z</time></trkpt><trkpt lat="44.9331133" lon="9.1217033"><ele>213.0</ele><time>2026-04-19T11:23:45.989Z</time></trkpt><trkpt lat="44.9331917" lon="9.1215783"><ele>210.0</ele><time>2026-04-19T11:23:46.99Z</time></trkpt><trkpt lat="44.9332817" lon="9.1214667"><ele>209.5</ele><time>2026-04-19T11:23:47.99Z</time></trkpt><trkpt lat="44.9333767" lon="9.1213533"><ele>209.0</ele><time>2026-04-19T11:23:48.99Z</time></trkpt><trkpt lat="44.9334817" lon="9.12125"><ele>208.5</ele><time>2026-04-19T11:23:49.99Z</time></trkpt><trkpt lat="44.9335883" lon="9.12116"><ele>208.0</ele><time>2026-04-19T11:23:50.99Z</time></trkpt><trkpt lat="44.933695" lon="9.1210867"><ele>208.0</ele><time>2026-04-19T11:23:51.99Z</time></trkpt><trkpt lat="44.9337983" lon="9.12102"><ele>208.0</ele><time>2026-04-19T11:23:52.99Z</time></trkpt><trkpt lat="44.9339017" lon="9.1209933"><ele>208.0</ele><time>2026-04-19T11:23:53.989Z</time></trkpt><trkpt lat="44.93401" lon="9.1209617"><ele>208.0</ele><time>2026-04-19T11:23:54.99Z</time></trkpt><trkpt lat="44.9341117" lon="9.1209333"><ele>208.0</ele><time>2026-04-19T11:23:55.99Z</time></trkpt><trkpt lat="44.9342083" lon="9.1208933"><ele>208.0</ele><time>2026-04-19T11:23:56.989Z</time></trkpt></trkseg></trk></gpx>